# Wetter Temperatur Luftdruck Luftfeuchtigkeit Sichtweite Windgeschwindigkeit Windrichtung Zeit
1 Clear 16 1017 59 10000 0.5 0 05:20 11.07.2020
2 Clear 16 1017 59 10000 0.5 0 04:54 11.07.2020
3 Clear 17 1017 52 10000 0.5 0 04:31 11.07.2020
4 Clear 17 1017 55 10000 2.1 10 02:58 11.07.2020
5 Clear 18 1017 55 10000 2.1 10 02:36 11.07.2020
6 Clear 20 1017 46 10000 4.6 50 01:27 11.07.2020
7 Clear 20 1017 46 10000 4.6 50 00:59 11.07.2020
8 Clear 20 1017 46 10000 4.6 50 00:38 11.07.2020
9 Clear 21 1017 46 10000 4.6 50 00:19 11.07.2020
10 Clear 21 1017 46 10000 4.1 60 23:56 10.07.2020
11 Clear 21 1017 46 10000 4.1 60 23:38 10.07.2020
12 Clear 22 1017 43 10000 4.6 60 23:18 10.07.2020
13 Clear 22 1017 43 10000 4.6 60 22:42 10.07.2020
14 Clear 23 1016 41 10000 4.6 40 22:19 10.07.2020
15 Clear 24 1016 41 10000 4.6 40 21:41 10.07.2020
16 Clear 24 1015 41 10000 5.7 50 21:21 10.07.2020
17 Clear 25 1015 41 10000 5.7 50 20:59 10.07.2020
18 Clear 25 1015 41 10000 5.7 50 20:40 10.07.2020
19 Clear 26 1015 39 10000 5.7 70 20:21 10.07.2020
20 Clear 26 1015 39 10000 5.7 70 19:57 10.07.2020
21 Clear 26 1015 39 10000 5.7 70 19:39 10.07.2020
22 Clear 26 1015 39 10000 5.7 70 19:19 10.07.2020
23 Clear 27 1014 37 10000 6.2 80 18:41 10.07.2020
24 Clear 28 1014 37 10000 6.2 80 18:20 10.07.2020
25 Clear 28 1014 35 10000 7.2 70 17:57 10.07.2020
26 Clear 28 1014 35 10000 7.2 70 17:57 10.07.2020
27 Clear 28 1014 35 10000 7.2 70 17:38 10.07.2020
28 Clear 29 1015 32 10000 7.2 70 17:20 10.07.2020
29 Clear 29 1015 32 10000 7.2 70 16:42 10.07.2020
30 Clouds 28 1015 37 10000 7.2 50 16:20 10.07.2020
31 Clouds 28 1015 37 10000 7.2 50 15:45 10.07.2020
32 Clouds 28 1015 37 10000 4.1 40 15:25 10.07.2020
33 Clouds 28 1015 37 10000 4.1 40 14:55 10.07.2020
34 Clouds 28 1015 37 10000 4.1 40 14:37 10.07.2020
35 Clouds 27 1016 39 10000 3.1 0 14:19 10.07.2020
36 Clouds 27 1016 39 10000 3.1 0 13:57 10.07.2020
37 Clouds 26 1016 39 10000 3.1 0 13:38 10.07.2020
38 Clouds 26 1016 41 10000 3.1 100 13:20 10.07.2020
39 Clouds 25 1016 41 10000 3.1 100 12:44 10.07.2020
40 Clouds 24 1017 47 10000 6.2 60 12:25 10.07.2020
41 Clouds 24 1017 47 10000 6.2 60 11:59 10.07.2020
42 Clouds 24 1017 47 10000 6.2 60 11:38 10.07.2020
43 Clouds 24 1017 47 10000 6.2 60 11:38 10.07.2020
44 Clouds 23 1017 46 10000 5.1 30 11:19 10.07.2020
45 Clouds 23 1017 46 10000 5.1 30 10:55 10.07.2020
46 Clouds 23 1017 46 10000 5.1 30 10:36 10.07.2020
47 Clouds 21 1018 56 10000 7.2 70 10:18 10.07.2020
48 Clouds 20 1018 56 10000 7.2 70 09:38 10.07.2020
49 Clear 20 1018 56 10000 5.1 70 09:20 10.07.2020
50 Clear 20 1018 56 10000 5.1 70 08:58 10.07.2020
51 Clear 20 1018 56 10000 5.1 70 08:39 10.07.2020
52 Clear 20 1018 56 10000 5.1 70 08:21 10.07.2020
53 Clear 19 1018 59 10000 3.6 70 07:42 10.07.2020
54 Clear 19 1018 59 10000 3.6 70 07:22 10.07.2020
55 Clear 18 1018 63 10000 2.66 63 06:51 10.07.2020
56 Clear 18 1018 63 10000 2.19 59 06:27 10.07.2020
57 Clear 17 1018 63 10000 3.1 90 05:19 10.07.2020
58 Clear 17 1017 68 10000 4.6 80 03:39 10.07.2020
59 Clear 18 1017 63 10000 5.7 70 02:53 10.07.2020
60 Clear 19 1017 60 10000 6.2 60 01:50 10.07.2020
61 Clear 19 1017 60 10000 5.7 50 00:49 10.07.2020
62 Clear 19 1017 60 10000 5.7 50 00:21 10.07.2020
63 Clear 21 1017 53 10000 5.1 50 23:49 09.07.2020
64 Clear 21 1016 46 10000 6.2 40 23:24 09.07.2020
65 Clear 22 1016 46 10000 6.2 40 22:59 09.07.2020
66 Clear 22 1016 46 10000 6.2 40 22:41 09.07.2020
67 Clear 21 1016 40 10000 1.5 10 22:21 09.07.2020
68 Clear 22 1016 40 10000 1.5 10 21:57 09.07.2020
69 Clear 22 1016 40 10000 1.5 10 21:38 09.07.2020
70 Clear 23 1015 33 10000 1.5 20 21:19 09.07.2020
71 Clear 24 1015 33 10000 1.5 20 20:45 09.07.2020
72 Clouds 25 1015 24 10000 4.6 40 20:26 09.07.2020
73 Clouds 25 1015 24 10000 4.6 40 19:59 09.07.2020
74 Clouds 25 1015 24 10000 4.6 40 19:41 09.07.2020
75 Clouds 26 1015 28 10000 6.7 50 19:21 09.07.2020
76 Clouds 27 1015 28 10000 6.7 50 18:43 09.07.2020
77 Clouds 27 1015 28 10000 6.7 50 18:24 09.07.2020
78 Clouds 28 1014 34 10000 4.6 30 17:56 09.07.2020
79 Clouds 28 1014 34 10000 4.6 30 17:38 09.07.2020
80 Clouds 28 1015 34 10000 6.2 40 17:19 09.07.2020
81 Clouds 28 1015 34 10000 6.2 40 16:56 09.07.2020
82 Clouds 29 1015 34 10000 6.2 40 16:37 09.07.2020
83 Clouds 29 1015 33 10000 4.1 20 16:19 09.07.2020
84 Clouds 29 1015 33 10000 4.1 20 15:55 09.07.2020
85 Clouds 29 1015 33 10000 4.1 20 15:36 09.07.2020
86 Clouds 29 1015 33 10000 4.1 20 15:18 09.07.2020
87 Clouds 29 1015 30 10000 4.6 40 14:57 09.07.2020
88 Clouds 29 1015 30 10000 4.6 40 14:39 09.07.2020
89 Clouds 28 1015 35 10000 3.1 0 14:19 09.07.2020
90 Clouds 28 1015 35 10000 3.1 0 13:41 09.07.2020
91 Clouds 28 1016 37 10000 3.1 20 13:21 09.07.2020
92 Clouds 27 1016 37 10000 3.1 20 12:59 09.07.2020
93 Clouds 27 1016 37 10000 3.1 20 12:39 09.07.2020
94 Clouds 27 1016 41 10000 3.6 40 12:20 09.07.2020
95 Clouds 26 1016 41 10000 3.6 40 11:55 09.07.2020
96 Clouds 26 1017 44 10000 3.1 30 11:37 09.07.2020
97 Clouds 26 1017 44 10000 3.1 30 11:18 09.07.2020
98 Clouds 26 1017 44 10000 3.1 30 11:18 09.07.2020
99 Clouds 25 1017 44 10000 3.1 30 10:42 09.07.2020
100 Clouds 24 1017 47 10000 6.2 30 10:24 09.07.2020
101 Clouds 23 1018 53 10000 5.7 20 09:59 09.07.2020
102 Clouds 22 1018 53 10000 5.7 20 09:41 09.07.2020
103 Clouds 23 1017 53 10000 4.1 60 09:21 09.07.2020
104 Clouds 23 1017 53 10000 4.1 60 09:21 09.07.2020
105 Clouds 23 1017 53 10000 4.1 60 08:45 09.07.2020
106 Clear 22 1017 56 10000 3.1 50 08:25 09.07.2020
107 Clear 21 1017 56 10000 3.1 50 07:47 09.07.2020
108 Clear 20 1017 64 10000 1 0 07:24 09.07.2020
109 Clear 20 1017 64 10000 1 0 06:54 09.07.2020
110 Clear 17 1016 82 10000 1.5 250 06:20 09.07.2020
111 Clear 17 1016 77 10000 1 0 05:26 09.07.2020
112 Clear 17 1016 77 10000 1 240 04:28 09.07.2020
113 Clear 18 1016 68 10000 2.1 210 02:33 09.07.2020
114 Clouds 18 1016 72 10000 1 0 01:39 09.07.2020
115 Clouds 19 1016 63 10000 1.5 210 00:53 09.07.2020
116 Clouds 20 1017 56 10000 1 0 00:25 09.07.2020
117 Clouds 20 1017 56 10000 1 0 23:47 08.07.2020
118 Rain 20 1017 56 10000 3.1 360 23:28 08.07.2020
119 Rain 20 1017 56 10000 3.1 360 22:58 08.07.2020
120 Rain 20 1017 56 10000 3.1 360 22:40 08.07.2020
121 Rain 21 1016 53 10000 1.5 350 22:22 08.07.2020
122 Rain 21 1016 53 10000 1.5 350 21:58 08.07.2020
123 Rain 21 1016 53 10000 1.5 350 21:39 08.07.2020
124 Clouds 22 1015 49 10000 4.1 10 21:20 08.07.2020
125 Clouds 22 1015 49 10000 4.1 10 20:55 08.07.2020
126 Clouds 22 1015 49 10000 4.1 10 20:37 08.07.2020
127 Clouds 23 1014 41 10000 4.6 360 20:19 08.07.2020
128 Clouds 23 1014 41 10000 4.6 360 19:43 08.07.2020
129 Clouds 25 1013 34 10000 5.7 350 19:22 08.07.2020
130 Clouds 25 1013 34 10000 5.7 350 19:22 08.07.2020
131 Clouds 26 1013 34 10000 5.7 350 18:57 08.07.2020
132 Clouds 26 1013 34 10000 5.7 350 18:39 08.07.2020
133 Clouds 27 1013 34 10000 5.7 350 18:19 08.07.2020
134 Clouds 28 1012 30 10000 6.2 10 17:55 08.07.2020
135 Clouds 28 1012 30 10000 6.2 10 17:37 08.07.2020
136 Clouds 29 1012 28 10000 5.1 360 17:19 08.07.2020
137 Clouds 29 1012 28 10000 5.1 360 16:40 08.07.2020
138 Clouds 30 1012 23 10000 7.7 350 16:22 08.07.2020
139 Clouds 30 1012 23 10000 7.7 350 15:59 08.07.2020
140 Clouds 30 1012 23 10000 7.7 350 15:41 08.07.2020
141 Clouds 30 1012 25 10000 5.1 20 15:20 08.07.2020
142 Clouds 30 1012 25 10000 5.1 20 14:57 08.07.2020
143 Clouds 30 1012 25 10000 5.1 20 14:39 08.07.2020
144 Clouds 29 1012 28 10000 5.7 10 14:18 08.07.2020
145 Clouds 29 1012 28 10000 5.7 10 13:42 08.07.2020
146 Clouds 29 1013 35 10000 6.2 350 13:23 08.07.2020
147 Clouds 29 1013 35 10000 6.2 350 12:46 08.07.2020
148 Clouds 28 1012 35 10000 6.7 360 12:21 08.07.2020
149 Clouds 29 1012 35 10000 6.7 360 11:59 08.07.2020
150 Clouds 28 1012 35 10000 6.7 360 11:38 08.07.2020
151 Clouds 28 1012 39 10000 3.6 10 11:20 08.07.2020
152 Clouds 28 1012 39 10000 3.6 10 10:45 08.07.2020
153 Clouds 26 1012 44 10000 4.6 350 10:26 08.07.2020
154 Clouds 26 1012 44 10000 4.6 350 09:59 08.07.2020
155 Clouds 26 1012 44 10000 4.6 350 09:41 08.07.2020
156 Clouds 25 1011 50 10000 4.1 350 09:21 08.07.2020
157 Clouds 25 1011 50 10000 4.1 350 08:42 08.07.2020
158 Rain 24 1011 50 10000 1 0 08:24 08.07.2020
159 Rain 23 1011 50 10000 1 0 07:47 08.07.2020
160 Rain 22 1010 64 10000 1.5 20 07:23 08.07.2020
161 Rain 21 1010 64 10000 1.5 20 06:55 08.07.2020
162 Rain 21 1010 64 10000 1.5 20 06:35 08.07.2020
163 Rain 19 1010 77 10000 1 240 05:55 08.07.2020
164 Rain 20 1010 63 10000 3.19 29 05:20 08.07.2020
165 Clouds 21 1010 64 10000 2.1 0 04:27 08.07.2020
166 Clouds 20 1008 56 10000 2.1 0 02:20 08.07.2020
167 Clouds 21 1008 56 10000 2.1 0 01:44 08.07.2020
168 Thunderstorm 23 1008 56 10000 3.6 100 00:59 08.07.2020
169 Thunderstorm 24 1010 38 10000 2.6 270 00:22 08.07.2020
170 Thunderstorm 24 1010 38 10000 2.6 270 23:45 07.07.2020
171 Clouds 24 1009 41 10000 2.6 260 23:24 07.07.2020
172 Clouds 24 1009 41 10000 2.6 260 22:59 07.07.2020
173 Clouds 23 1009 41 10000 2.6 260 22:41 07.07.2020
174 Clouds 24 1007 38 10000 6.2 50 22:21 07.07.2020
175 Clouds 24 1007 38 10000 6.2 50 21:58 07.07.2020
176 Clouds 24 1007 38 10000 6.2 50 21:38 07.07.2020
177 Thunderstorm 23 1008 53 10000 5.1 10 21:19 07.07.2020
178 Thunderstorm 23 1008 53 10000 5.1 10 20:56 07.07.2020
179 Thunderstorm 23 1008 53 10000 5.1 10 20:37 07.07.2020
180 Thunderstorm 24 1008 53 10000 5.1 10 20:19 07.07.2020
181 Thunderstorm 27 1007 32 10000 2.1 0 19:39 07.07.2020
182 Clouds 26 1006 32 10000 7.7 30 19:21 07.07.2020
183 Clouds 27 1004 30 10000 8.2 60 18:55 07.07.2020
184 Clouds 29 1004 19 10000 2.1 320 18:37 07.07.2020
185 Clouds 29 1004 19 10000 2.1 320 18:19 07.07.2020
186 Clouds 30 1004 19 10000 2.1 320 17:56 07.07.2020
187 Clouds 30 1004 19 10000 2.1 320 17:37 07.07.2020
188 Rain 32 1005 16 10000 6.7 340 17:19 07.07.2020
189 Rain 32 1005 16 10000 6.7 340 16:42 07.07.2020
190 Clouds 33 1004 19 10000 2.1 0 16:23 07.07.2020
191 Clouds 33 1004 19 10000 2.1 0 16:23 07.07.2020
192 Clouds 33 1004 19 10000 2.1 0 15:56 07.07.2020
193 Clouds 33 1004 19 10000 2.1 0 15:37 07.07.2020
194 Clouds 33 1004 20 10000 1.5 0 15:19 07.07.2020
195 Clouds 34 1004 20 10000 1.5 0 14:45 07.07.2020
196 Clouds 34 1005 20 10000 2.1 50 14:24 07.07.2020
197 Clouds 34 1005 20 10000 2.1 50 13:46 07.07.2020
198 Clouds 34 1005 20 10000 2.1 270 13:21 07.07.2020
199 Clouds 34 1005 20 10000 2.1 270 12:57 07.07.2020
200 Clouds 34 1005 20 10000 2.1 270 12:39 07.07.2020
201 Clouds 34 1005 20 10000 2.1 270 12:21 07.07.2020
202 Clouds 33 1006 24 10000 2.1 0 11:46 07.07.2020
203 Clear 32 1006 29 10000 1.5 0 11:24 07.07.2020
204 Clear 31 1006 29 10000 1.5 0 10:58 07.07.2020
205 Clear 31 1006 29 10000 1.5 0 10:40 07.07.2020
206 Clear 30 1006 35 10000 0.5 0 10:21 07.07.2020
207 Clear 29 1006 35 10000 0.5 0 09:54 07.07.2020
208 Clouds 27 1006 39 10000 1.15 131 09:36 07.07.2020
209 Clouds 28 1006 39 10000 1.15 131 09:18 07.07.2020
210 Clouds 27 1006 39 10000 1.15 131 08:39 07.07.2020
211 Clouds 25 1006 47 10000 1.3 98 08:19 07.07.2020
212 Clouds 25 1006 47 10000 1.3 98 07:38 07.07.2020
213 Clear 22 1006 60 10000 1.46 95 07:20 07.07.2020
214 Clear 22 1006 60 10000 1.46 95 06:48 07.07.2020
215 Clear 20 1006 60 10000 1.46 80 06:27 07.07.2020
216 Clear 18 1006 59 10000 1.46 80 05:47 07.07.2020
217 Clear 18 1005 59 10000 1.36 58 04:58 07.07.2020
218 Clear 19 1005 52 10000 1.81 55 03:54 07.07.2020
219 Clear 20 1006 52 10000 2.32 60 03:32 07.07.2020
220 Clear 21 1006 46 10000 1 240 01:58 07.07.2020
221 Clear 22 1006 46 10000 1 240 01:20 07.07.2020
222 Clear 22 1005 43 10000 1 240 00:41 07.07.2020
223 Clear 22 1005 43 10000 1 240 00:22 07.07.2020
224 Clear 23 1006 40 10000 1.92 84 23:44 06.07.2020
225 Clear 24 1005 38 10000 1.5 220 23:25 06.07.2020
226 Clear 24 1005 38 10000 1.5 220 22:59 06.07.2020
227 Clear 24 1005 38 10000 1.5 220 22:39 06.07.2020
228 Clear 25 1005 30 10000 0.5 30 22:19 06.07.2020
229 Clear 25 1005 30 10000 0.5 30 22:19 06.07.2020
230 Clear 26 1005 30 10000 0.5 30 21:57 06.07.2020
231 Clear 26 1005 30 10000 0.5 30 21:37 06.07.2020
232 Clear 28 1005 25 10000 2.88 73 21:18 06.07.2020
233 Clear 28 1005 25 10000 2.88 73 20:41 06.07.2020
234 Clear 30 1005 22 10000 2.36 88 20:22 06.07.2020
235 Clear 31 1005 22 10000 2.36 88 19:59 06.07.2020
236 Clouds 30 1006 27 10000 3.1 90 19:41 06.07.2020
237 Clear 32 1005 19 10000 3.1 60 19:23 06.07.2020
238 Clear 32 1005 19 10000 3.1 60 18:58 06.07.2020
239 Clear 32 1005 19 10000 3.1 60 18:40 06.07.2020
240 Clear 32 1005 19 10000 3.1 60 18:22 06.07.2020
241 Clear 33 1005 17 10000 4.6 50 17:56 06.07.2020
242 Clear 33 1005 17 10000 4.6 50 17:38 06.07.2020
243 Clear 33 1005 16 10000 3.6 20 17:19 06.07.2020
244 Clear 33 1005 16 10000 3.6 20 16:43 06.07.2020
245 Clear 34 1006 15 10000 5.7 40 16:23 06.07.2020
246 Clear 33 1006 15 10000 5.7 40 15:57 06.07.2020
247 Clear 33 1006 15 10000 5.7 40 15:38 06.07.2020
248 Clear 33 1006 17 10000 5.1 30 15:19 06.07.2020
249 Clear 33 1006 17 10000 5.1 30 14:55 06.07.2020
250 Clear 32 1007 16 10000 3.6 0 14:36 06.07.2020
251 Clear 33 1007 16 10000 3.6 0 14:18 06.07.2020
252 Clouds 32 1008 23 10000 3.6 10 13:40 06.07.2020
253 Clear 32 1007 27 10000 2.6 0 13:21 06.07.2020
254 Clear 31 1007 27 10000 2.6 0 12:44 06.07.2020
255 Clear 31 1008 27 10000 2.1 0 12:20 06.07.2020
256 Clear 31 1008 27 10000 2.1 0 11:59 06.07.2020
257 Clear 31 1008 27 10000 2.1 0 11:40 06.07.2020
258 Clear 29 1008 30 10000 1 0 11:22 06.07.2020
259 Clear 29 1008 30 10000 1 0 10:58 06.07.2020
260 Clear 29 1008 30 10000 1 0 10:58 06.07.2020
261 Clear 29 1008 30 10000 1 0 10:40 06.07.2020
262 Clear 28 1009 34 10000 0.5 0 10:19 06.07.2020
263 Clear 28 1009 34 10000 0.5 0 09:46 06.07.2020
264 Clear 27 1009 44 10000 0.5 0 09:22 06.07.2020
265 Clear 26 1009 44 10000 0.5 0 08:59 06.07.2020
266 Clear 26 1009 44 10000 0.5 0 08:40 06.07.2020
267 Clear 25 1009 50 10000 2.17 53 08:21 06.07.2020
268 Clear 24 1009 50 10000 2.17 53 07:47 06.07.2020
269 Clear 22 1009 60 10000 1 230 07:29 06.07.2020
270 Clear 21 1009 60 10000 1 230 06:49 06.07.2020
271 Clear 21 1009 60 10000 1 230 06:31 06.07.2020
272 Clear 19 1009 68 10000 1 220 05:44 06.07.2020
273 Clear 20 1009 60 10000 0.5 240 05:25 06.07.2020
274 Clear 21 1009 53 10000 2.21 45 03:52 06.07.2020
275 Clear 23 1010 47 10000 2.47 48 02:25 06.07.2020
276 Clear 24 1010 47 10000 2.31 45 01:44 06.07.2020
277 Clear 25 1010 44 10000 1.5 230 00:39 06.07.2020
278 Clear 25 1010 44 10000 1.5 230 00:21 06.07.2020
279 Clear 26 1009 42 10000 4.1 40 23:45 05.07.2020
280 Clear 26 1009 39 10000 4.1 40 23:27 05.07.2020
281 Clear 26 1009 39 10000 4.1 40 22:59 05.07.2020
282 Clear 26 1009 39 10000 4.1 40 22:41 05.07.2020
283 Clear 26 1009 39 10000 4.1 40 22:41 05.07.2020
284 Clear 27 1009 42 10000 3.1 30 22:20 05.07.2020
285 Clear 27 1009 42 10000 3.1 30 21:58 05.07.2020
286 Clear 27 1009 42 10000 3.1 30 21:40 05.07.2020
287 Clear 28 1008 33 10000 2.1 10 21:18 05.07.2020
288 Clear 29 1008 33 10000 2.1 10 20:58 05.07.2020
289 Clear 28 1008 33 10000 2.1 10 20:39 05.07.2020
290 Clouds 30 1008 29 10000 5.1 30 20:20 05.07.2020
291 Clouds 30 1008 29 10000 5.1 30 20:20 05.07.2020
292 Clouds 30 1008 29 10000 5.1 30 19:43 05.07.2020
293 Clouds 31 1008 29 10000 5.1 30 19:22 05.07.2020
294 Clouds 31 1008 27 10000 5.7 30 18:58 05.07.2020
295 Clouds 32 1008 27 10000 5.7 30 18:40 05.07.2020
296 Clouds 32 1008 27 10000 5.7 30 18:21 05.07.2020
297 Clouds 33 1008 23 10000 3.1 0 17:55 05.07.2020
298 Clouds 33 1008 23 10000 3.1 0 17:37 05.07.2020
299 Clouds 34 1008 16 10000 1 0 17:18 05.07.2020
300 Clouds 34 1008 16 10000 1 0 16:42 05.07.2020
301 Clouds 34 1009 17 10000 3.6 60 16:24 05.07.2020
302 Clouds 34 1009 17 10000 3.6 60 15:54 05.07.2020
303 Clouds 34 1009 17 10000 3.6 60 15:36 05.07.2020
304 Clouds 34 1009 18 10000 2.1 0 15:18 05.07.2020
305 Clouds 34 1009 18 10000 2.1 0 14:40 05.07.2020
306 Clouds 33 1010 24 10000 2.6 0 14:20 05.07.2020
307 Clouds 33 1010 24 10000 2.6 0 14:20 05.07.2020
308 Clouds 33 1010 24 10000 2.6 0 13:42 05.07.2020
309 Clouds 33 1010 24 10000 2.6 0 13:23 05.07.2020
310 Clouds 32 1010 29 10000 2.1 0 12:47 05.07.2020
311 Clouds 31 1011 31 10000 2.1 250 12:27 05.07.2020
312 Clouds 31 1011 31 10000 2.1 250 11:58 05.07.2020
313 Clouds 31 1011 31 10000 2.1 250 11:58 05.07.2020
314 Clouds 31 1011 31 10000 2.1 250 11:40 05.07.2020
315 Clear 29 1011 37 10000 1.5 160 11:21 05.07.2020
316 Clear 29 1011 37 10000 1.5 160 10:58 05.07.2020
317 Clear 29 1011 37 10000 1.5 160 10:39 05.07.2020
318 Clear 28 1011 42 10000 1 0 10:19 05.07.2020
319 Clear 28 1011 42 10000 1 0 10:19 05.07.2020
320 Clear 28 1011 42 10000 1 0 09:55 05.07.2020
321 Clear 27 1011 42 10000 1 0 09:37 05.07.2020
322 Clear 26 1012 47 10000 0.5 0 09:18 05.07.2020
323 Clear 25 1012 47 10000 0.5 0 08:43 05.07.2020
324 Clear 24 1012 53 10000 1.25 27 08:25 05.07.2020
325 Clear 23 1012 53 10000 1.25 27 07:46 05.07.2020
326 Clear 21 1012 68 10000 1.5 210 07:27 05.07.2020
327 Clear 20 1012 68 10000 1.5 210 06:50 05.07.2020
328 Clear 16 1012 67 10000 1 200 05:18 05.07.2020
329 Clear 20 1012 60 10000 1 200 03:20 05.07.2020
330 Clear 20 1012 60 10000 1 200 02:41 05.07.2020
331 Clear 21 1012 56 10000 1 230 01:59 05.07.2020
332 Clear 23 1012 47 10000 2 38 01:32 05.07.2020
333 Clear 23 1012 47 10000 2 38 00:54 05.07.2020
334 Clear 23 1013 41 10000 0.5 0 00:31 05.07.2020
335 Clear 23 1013 41 10000 0.5 0 23:59 04.07.2020
336 Clear 23 1013 41 10000 0.5 0 23:41 04.07.2020
337 Clear 24 1013 41 10000 2.1 40 23:23 04.07.2020
338 Clear 25 1013 41 10000 2.1 40 22:43 04.07.2020
339 Clear 27 1012 34 10000 0.5 0 22:25 04.07.2020
340 Clear 27 1012 34 10000 0.5 0 21:59 04.07.2020
341 Clear 27 1012 34 10000 0.5 0 21:40 04.07.2020
342 Clear 28 1011 28 10000 3.1 30 21:22 04.07.2020
343 Clear 28 1011 28 10000 3.1 30 20:54 04.07.2020
344 Clear 28 1011 28 10000 3.1 30 20:36 04.07.2020
345 Clear 28 1011 28 10000 3.1 30 20:18 04.07.2020
346 Clear 31 1011 25 10000 4.1 10 19:41 04.07.2020
347 Clear 31 1011 25 10000 4.1 10 19:21 04.07.2020
348 Clouds 33 1011 13 10000 3.6 10 18:55 04.07.2020
349 Clear 32 1012 22 10000 7.2 20 18:36 04.07.2020
350 Clouds 34 1010 12 10000 2.6 0 18:18 04.07.2020
351 Clouds 34 1010 12 10000 2.6 0 17:41 04.07.2020
352 Clouds 34 1011 11 10000 2.6 0 17:22 04.07.2020
353 Clouds 34 1011 11 10000 2.6 0 16:56 04.07.2020
354 Clouds 34 1011 11 10000 2.6 0 16:37 04.07.2020
355 Clouds 34 1011 13 10000 2.6 0 16:18 04.07.2020
356 Clouds 34 1011 13 10000 2.6 0 15:42 04.07.2020
357 Clear 34 1011 10 10000 2.6 0 15:24 04.07.2020
358 Clear 34 1011 10 10000 2.6 0 14:58 04.07.2020
359 Clear 34 1011 10 10000 2.6 0 14:37 04.07.2020
360 Clear 33 1012 11 10000 5.1 250 14:19 04.07.2020
361 Clear 33 1012 11 10000 5.1 250 13:56 04.07.2020
362 Clear 33 1012 11 10000 5.1 250 13:36 04.07.2020
363 Clear 33 1012 11 10000 5.1 250 13:18 04.07.2020
364 Clear 33 1013 18 10000 2.6 0 12:40 04.07.2020
365 Clear 31 1013 22 10000 3.1 280 12:20 04.07.2020
366 Clear 31 1013 22 10000 3.1 280 11:45 04.07.2020
367 Clear 30 1013 30 10000 2.1 0 11:25 04.07.2020
368 Clear 30 1013 30 10000 2.1 0 10:59 04.07.2020
369 Clear 30 1013 30 10000 2.1 0 10:39 04.07.2020
370 Clear 28 1013 39 10000 0.5 0 10:20 04.07.2020
371 Clear 28 1013 39 10000 0.5 0 09:55 04.07.2020
372 Clear 28 1013 39 10000 0.5 0 09:36 04.07.2020
373 Clear 26 1013 41 10000 1 0 09:18 04.07.2020
374 Clear 26 1013 41 10000 1 0 08:45 04.07.2020
375 Clear 25 1013 49 10000 0.46 337 08:26 04.07.2020
376 Clear 24 1013 49 10000 0.46 337 07:43 04.07.2020
377 Clear 23 1013 49 10000 0.69 22 07:25 04.07.2020
378 Clear 21 1013 56 10000 0.69 22 06:48 04.07.2020
379 Clear 18 1013 72 10000 1.5 230 06:20 04.07.2020
380 Clear 17 1013 63 10000 1.5 200 05:32 04.07.2020
381 Clear 19 1013 72 10000 1 0 04:31 04.07.2020
382 Clear 20 1012 56 10000 1 240 02:49 04.07.2020
383 Clear 21 1012 60 10000 1 220 01:54 04.07.2020
384 Clear 22 1012 49 10000 1.81 28 01:24 04.07.2020
385 Clear 22 1012 49 10000 1.81 28 00:40 04.07.2020
386 Clear 23 1012 49 10000 1.5 230 00:21 04.07.2020
387 Clear 23 1012 49 10000 1.5 230 23:39 03.07.2020
388 Clouds 23 1012 41 10000 1 0 23:18 03.07.2020
389 Clouds 24 1012 41 10000 1 0 22:54 03.07.2020
390 Clouds 24 1012 41 10000 1 0 22:36 03.07.2020
391 Clouds 25 1012 36 10000 1.5 260 22:18 03.07.2020
392 Clouds 25 1012 36 10000 1.5 260 21:39 03.07.2020
393 Clear 27 1011 32 10000 1 0 21:20 03.07.2020
394 Clear 27 1011 32 10000 1 0 20:55 03.07.2020
395 Clear 27 1011 32 10000 1 0 20:36 03.07.2020
396 Clouds 29 1010 30 10000 1.5 10 20:18 03.07.2020
397 Clouds 29 1010 30 10000 1.5 10 19:40 03.07.2020
398 Clouds 29 1010 30 10000 1.5 10 19:19 03.07.2020
399 Clouds 30 1010 27 10000 1.5 0 18:54 03.07.2020
400 Clouds 30 1010 27 10000 1.5 0 18:36 03.07.2020
401 Clouds 31 1010 27 10000 1.5 0 18:18 03.07.2020
402 Clouds 32 1010 26 10000 2.1 10 17:41 03.07.2020
403 Clouds 32 1010 22 10000 2.6 0 17:21 03.07.2020
404 Clouds 32 1010 22 10000 2.6 0 16:41 03.07.2020
405 Clouds 32 1010 22 10000 2.6 0 16:41 03.07.2020
406 Clouds 32 1010 22 10000 2.1 0 16:23 03.07.2020
407 Clouds 32 1010 22 10000 2.1 0 15:47 03.07.2020
408 Clouds 32 1011 21 10000 2.6 90 15:24 03.07.2020
409 Clouds 32 1011 21 10000 2.6 90 14:58 03.07.2020
410 Clouds 32 1011 21 10000 2.6 90 14:39 03.07.2020
411 Clouds 31 1011 20 10000 2.6 10 14:21 03.07.2020
412 Clouds 31 1011 20 10000 2.6 10 13:47 03.07.2020
413 Clouds 31 1011 20 10000 2.6 10 13:29 03.07.2020
414 Clouds 30 1011 31 10000 3.1 280 12:57 03.07.2020
415 Clouds 29 1012 32 10000 2.1 0 12:38 03.07.2020
416 Clouds 29 1012 32 10000 2.1 0 12:19 03.07.2020
417 Clouds 29 1012 32 10000 2.1 0 11:42 03.07.2020
418 Clouds 28 1012 37 10000 1 0 11:23 03.07.2020
419 Clouds 28 1012 37 10000 1 0 10:58 03.07.2020
420 Clouds 28 1012 37 10000 1 0 10:39 03.07.2020
421 Clear 27 1012 41 10000 2.1 140 10:20 03.07.2020
422 Clear 27 1012 41 10000 2.1 140 09:54 03.07.2020
423 Clear 26 1012 41 10000 2.1 140 09:36 03.07.2020
424 Clear 25 1013 44 10000 2.1 90 09:18 03.07.2020
425 Clear 25 1013 44 10000 2.1 90 08:39 03.07.2020
426 Clear 24 1013 49 10000 0.89 64 08:19 03.07.2020
427 Clear 23 1013 49 10000 0.89 64 07:48 03.07.2020
428 Clear 22 1013 60 10000 1.1 81 07:26 03.07.2020
429 Clear 21 1013 60 10000 1.1 81 06:49 03.07.2020
430 Clear 18 1012 68 10000 1.42 71 06:18 03.07.2020
431 Clear 19 1012 72 10000 1.5 240 04:53 03.07.2020
432 Clear 20 1012 60 10000 2.1 240 03:28 03.07.2020
433 Clear 20 1012 60 10000 2.1 240 02:47 03.07.2020
434 Clear 22 1012 53 10000 0.5 280 02:25 03.07.2020
435 Clear 22 1012 50 10000 2.1 90 01:28 03.07.2020
436 Clear 23 1012 50 10000 2.1 90 00:49 03.07.2020
437 Clear 24 1012 47 10000 3.1 70 00:28 03.07.2020
438 Clear 24 1012 47 10000 3.1 70 23:47 02.07.2020
439 Clear 24 1012 47 10000 2.1 0 23:20 02.07.2020
440 Clear 24 1012 47 10000 2.1 0 22:58 02.07.2020
441 Clear 24 1012 47 10000 2.1 0 22:39 02.07.2020
442 Clear 25 1012 36 10000 3.6 40 22:20 02.07.2020
443 Clear 25 1012 36 10000 3.6 40 22:20 02.07.2020
444 Clear 25 1012 36 10000 3.6 40 21:55 02.07.2020
445 Clear 25 1012 36 10000 3.6 40 21:37 02.07.2020
446 Clear 26 1011 30 10000 3.1 20 21:18 02.07.2020
447 Clear 26 1011 30 10000 3.1 20 20:57 02.07.2020
448 Clear 26 1012 39 10000 5.7 10 20:39 02.07.2020
449 Clear 28 1011 23 10000 2.6 30 20:18 02.07.2020
450 Clear 29 1011 23 10000 2.6 30 19:41 02.07.2020
451 Clear 28 1011 23 10000 2.6 30 19:22 02.07.2020
452 Clear 30 1011 22 10000 4.6 50 18:57 02.07.2020
453 Clear 30 1011 22 10000 4.6 50 18:39 02.07.2020
454 Clear 30 1011 23 10000 2.6 80 18:20 02.07.2020
455 Clear 30 1011 23 10000 2.6 80 17:40 02.07.2020
456 Clouds 31 1011 22 10000 3.1 340 17:20 02.07.2020
457 Clouds 31 1011 22 10000 3.1 340 17:20 02.07.2020
458 Clouds 31 1011 22 10000 3.1 340 16:56 02.07.2020
459 Clouds 31 1011 22 10000 3.1 340 16:56 02.07.2020
460 Clouds 31 1011 22 10000 3.1 340 16:38 02.07.2020
461 Clouds 31 1012 23 10000 5.1 30 16:19 02.07.2020
462 Clouds 31 1012 23 10000 5.1 30 15:55 02.07.2020
463 Clouds 31 1012 23 10000 5.1 30 15:36 02.07.2020
464 Clouds 31 1012 23 10000 5.1 30 15:36 02.07.2020
465 Clouds 30 1012 19 10000 4.1 70 15:18 02.07.2020
466 Clouds 30 1012 19 10000 4.1 70 14:42 02.07.2020
467 Clouds 30 1012 23 10000 4.6 30 14:19 02.07.2020
468 Clouds 30 1012 23 10000 4.6 30 13:55 02.07.2020
469 Clouds 30 1012 23 10000 4.6 30 13:36 02.07.2020
470 Clouds 30 1012 23 10000 4.6 30 13:18 02.07.2020
471 Clouds 29 1013 22 10000 3.6 60 12:40 02.07.2020
472 Clouds 28 1013 28 10000 1.5 0 12:21 02.07.2020
473 Clouds 28 1013 28 10000 1.5 0 11:44 02.07.2020
474 Clouds 27 1014 36 10000 3.1 50 11:26 02.07.2020
475 Clouds 27 1014 36 10000 3.1 50 10:57 02.07.2020
476 Clouds 27 1014 36 10000 3.1 50 10:39 02.07.2020
477 Clear 25 1014 41 10000 2.1 90 10:21 02.07.2020
478 Clear 25 1014 41 10000 2.1 90 09:42 02.07.2020
479 Clear 24 1015 44 10000 3.1 100 09:21 02.07.2020
480 Clear 24 1015 44 10000 3.1 100 08:57 02.07.2020
481 Clear 24 1015 44 10000 3.1 100 08:38 02.07.2020
482 Clear 23 1015 49 10000 2.72 42 08:19 02.07.2020
483 Clear 22 1015 49 10000 2.72 42 07:41 02.07.2020
484 Clear 22 1015 49 10000 1.91 37 07:20 02.07.2020
485 Clear 20 1015 56 10000 1.91 37 06:41 02.07.2020
486 Clear 19 1015 56 10000 1.72 43 06:20 02.07.2020
487 Clear 17 1015 67 10000 1.72 43 05:47 02.07.2020
488 Clear 18 1014 63 10000 1.5 230 04:49 02.07.2020
489 Clear 18 1014 59 10000 1.5 220 03:33 02.07.2020
490 Clear 22 1014 46 10000 3.1 90 01:48 02.07.2020
491 Clear 23 1015 44 10000 5.1 70 00:27 02.07.2020
492 Clear 23 1015 44 10000 5.1 70 23:55 01.07.2020
493 Clear 23 1015 44 10000 5.1 70 23:37 01.07.2020
494 Clouds 24 1014 44 10000 5.7 40 23:18 01.07.2020
495 Clouds 24 1014 44 10000 5.7 40 22:54 01.07.2020
496 Clouds 24 1014 44 10000 5.7 40 22:36 01.07.2020
497 Clouds 25 1014 44 10000 5.7 30 22:18 01.07.2020
498 Clouds 25 1014 44 10000 5.7 30 21:54 01.07.2020
499 Clouds 25 1014 44 10000 5.7 30 21:36 01.07.2020
500 Clouds 26 1013 39 10000 5.1 30 21:18 01.07.2020
501 Clouds 26 1013 39 10000 5.1 30 20:43 01.07.2020
502 Clouds 26 1013 39 10000 5.1 30 20:25 01.07.2020
503 Clouds 27 1013 34 10000 4.1 30 19:56 01.07.2020
504 Clouds 28 1014 39 10000 7.2 10 19:38 01.07.2020
505 Clouds 28 1012 32 10000 4.1 30 19:19 01.07.2020
506 Clouds 29 1012 32 10000 4.1 30 18:42 01.07.2020
507 Clouds 29 1012 32 10000 4.1 30 18:21 01.07.2020
508 Clouds 29 1012 28 10000 4.6 30 17:59 01.07.2020
509 Clouds 30 1012 28 10000 4.6 30 17:40 01.07.2020
510 Clouds 30 1013 28 10000 4.1 40 17:19 01.07.2020
511 Clouds 30 1013 28 10000 4.1 40 16:48 01.07.2020
512 Clouds 29 1013 30 10000 4.6 50 16:29 01.07.2020
513 Clouds 29 1013 30 10000 4.6 50 15:57 01.07.2020
514 Clouds 29 1013 30 10000 4.6 50 15:39 01.07.2020
515 Clouds 30 1013 28 10000 3.1 50 15:20 01.07.2020
516 Clouds 29 1013 28 10000 3.1 50 14:44 01.07.2020
517 Clouds 29 1014 26 10000 3.6 80 14:22 01.07.2020
518 Clouds 29 1014 26 10000 3.6 80 13:59 01.07.2020
519 Clouds 29 1014 26 10000 3.6 80 13:39 01.07.2020
520 Clouds 29 1014 26 10000 3.6 80 13:20 01.07.2020
521 Clouds 29 1014 30 10000 4.1 60 12:57 01.07.2020
522 Clouds 28 1015 34 10000 3.6 0 12:39 01.07.2020
523 Clouds 27 1015 36 10000 3.1 50 12:20 01.07.2020
524 Clouds 26 1015 36 10000 3.1 50 11:44 01.07.2020
525 Clouds 26 1015 36 10000 3.1 50 11:44 01.07.2020
526 Clouds 26 1015 36 10000 3.1 50 11:44 01.07.2020
527 Clouds 26 1015 36 10000 3.1 50 11:44 01.07.2020
528 Clouds 26 1015 36 10000 4.1 40 11:24 01.07.2020
529 Clouds 26 1015 36 10000 4.1 40 10:59 01.07.2020
530 Clouds 26 1015 36 10000 4.1 40 10:41 01.07.2020
531 Clear 25 1015 41 10000 1.5 30 10:22 01.07.2020
532 Clear 25 1015 41 10000 1.5 30 09:54 01.07.2020
533 Clear 25 1015 41 10000 1.5 30 09:36 01.07.2020
534 Clear 23 1015 46 10000 1.5 270 09:18 01.07.2020
535 Clear 23 1015 46 10000 1.5 270 08:41 01.07.2020
536 Clear 22 1015 52 10000 1 0 08:22 01.07.2020
537 Clear 22 1015 52 10000 1 0 07:57 01.07.2020
538 Clear 21 1015 52 10000 1 0 07:36 01.07.2020
539 Clear 20 1015 52 10000 1 0 07:18 01.07.2020
540 Clear 19 1015 63 10000 0.5 0 06:48 01.07.2020
541 Clear 18 1015 63 10000 0.5 0 06:27 01.07.2020
542 Clear 18 1015 59 10000 1 0 04:31 01.07.2020
543 Clear 17 1015 59 10000 1 0 03:46 01.07.2020
544 Clear 19 1014 46 10000 1 0 03:26 01.07.2020
545 Clear 20 1014 46 10000 1 0 02:36 01.07.2020
546 Clear 20 1014 56 10000 1.5 250 01:45 01.07.2020
547 Clear 21 1014 49 10000 2.1 20 00:41 01.07.2020
548 Clear 21 1014 49 10000 4.6 60 00:23 01.07.2020
549 Clear 22 1014 49 10000 4.6 60 23:41 30.06.2020
550 Clear 23 1013 47 10000 4.1 50 23:22 30.06.2020
551 Clear 23 1013 47 10000 4.1 50 22:43 30.06.2020
552 Clear 23 1012 41 10000 4.1 30 22:20 30.06.2020
553 Clear 24 1012 41 10000 4.1 30 21:59 30.06.2020
554 Clear 24 1012 41 10000 4.1 30 21:40 30.06.2020
555 Clear 25 1011 31 10000 3.1 20 21:19 30.06.2020
556 Clear 25 1011 31 10000 3.1 20 20:43 30.06.2020
557 Clear 25 1011 31 10000 3.1 20 20:21 30.06.2020
558 Clear 27 1011 24 10000 4.1 20 19:55 30.06.2020
559 Clear 27 1011 24 10000 4.1 20 19:36 30.06.2020
560 Clear 27 1011 24 10000 4.1 20 19:18 30.06.2020
561 Clear 28 1011 16 10000 4.1 20 18:42 30.06.2020
562 Clear 29 1011 16 10000 4.1 20 18:20 30.06.2020
563 Clouds 29 1010 16 10000 4.6 30 17:54 30.06.2020
564 Clouds 29 1010 16 10000 4.6 30 17:36 30.06.2020
565 Clouds 29 1010 16 10000 5.1 40 17:18 30.06.2020
566 Clouds 29 1010 16 10000 5.1 40 16:41 30.06.2020
567 Clouds 30 1010 19 10000 3.6 90 16:21 30.06.2020
568 Clouds 30 1010 19 10000 3.6 90 15:57 30.06.2020
569 Clouds 30 1010 19 10000 3.6 90 15:38 30.06.2020
570 Clouds 29 1010 22 10000 4.1 80 15:20 30.06.2020
571 Clouds 29 1010 22 10000 4.1 80 14:44 30.06.2020
572 Clouds 29 1011 23 10000 4.1 50 14:22 30.06.2020
573 Clouds 29 1011 23 10000 4.1 50 13:59 30.06.2020
574 Clouds 29 1011 23 10000 4.1 50 13:38 30.06.2020
575 Clouds 29 1011 23 10000 4.1 50 13:19 30.06.2020
576 Clouds 28 1011 28 10000 3.1 80 12:57 30.06.2020
577 Clouds 28 1011 28 10000 3.1 80 12:39 30.06.2020
578 Clouds 28 1011 28 10000 3.1 80 12:20 30.06.2020
579 Clear 27 1011 30 10000 1 350 11:57 30.06.2020
580 Clear 27 1011 30 10000 1 350 11:38 30.06.2020
581 Clear 26 1011 31 10000 2.6 60 11:18 30.06.2020
582 Clear 26 1011 31 10000 2.6 60 10:54 30.06.2020
583 Clouds 30 1013 22 10000 3.1 0 16:38 28.06.2020
584 Clouds 30 1013 27 10000 1 0 16:18 28.06.2020
585 Clouds 30 1013 27 10000 1 0 15:54 28.06.2020
586 Clouds 30 1013 27 10000 1 0 15:36 28.06.2020
587 Clouds 30 1014 30 10000 2.6 230 15:18 28.06.2020
588 Clouds 30 1014 30 10000 2.6 230 14:41 28.06.2020
589 Clouds 29 1014 30 10000 1.5 200 14:23 28.06.2020
590 Clouds 29 1014 30 10000 1.5 200 13:40 28.06.2020
591 Clouds 29 1014 30 10000 1.5 200 13:21 28.06.2020
592 Clouds 28 1014 32 10000 2.1 350 12:58 28.06.2020
593 Clouds 28 1014 32 10000 2.1 350 12:38 28.06.2020
594 Clouds 28 1014 32 10000 2.1 350 12:38 28.06.2020
595 Clouds 28 1014 32 10000 2.1 350 12:19 28.06.2020
596 Clouds 27 1015 34 10000 2.6 0 11:59 28.06.2020
597 Clouds 27 1015 34 10000 2.6 0 11:59 28.06.2020
598 Clouds 27 1015 34 10000 2.6 0 11:40 28.06.2020
599 Clouds 27 1015 42 10000 2.1 70 11:20 28.06.2020
600 Clouds 27 1015 42 10000 2.1 70 10:58 28.06.2020
601 Clouds 27 1015 42 10000 2.1 70 10:40 28.06.2020
602 Clouds 25 1015 44 10000 2.6 80 10:21 28.06.2020
603 Clouds 25 1015 44 10000 2.6 80 09:41 28.06.2020
604 Clear 24 1015 53 10000 1 0 09:23 28.06.2020
605 Clear 24 1015 53 10000 1 0 08:56 28.06.2020
606 Clear 23 1015 53 10000 1 0 08:36 28.06.2020
607 Clear 22 1016 60 10000 1.28 22 08:18 28.06.2020
608 Clear 21 1016 60 10000 1.28 22 07:33 28.06.2020
609 Clear 19 1016 72 10000 1.05 21 06:56 28.06.2020
610 Clear 17 1016 72 10000 1.24 19 06:32 28.06.2020
611 Clear 17 1016 82 10000 1.5 220 05:45 28.06.2020
612 Clear 16 1015 82 10000 1 230 04:24 28.06.2020
613 Clear 18 1015 68 10000 2.1 230 02:56 28.06.2020
614 Clear 19 1015 60 10000 0.5 0 02:20 28.06.2020
615 Clear 20 1015 60 10000 0.5 0 01:27 28.06.2020
616 Clear 19 1015 64 10000 1.76 38 00:55 28.06.2020
617 Clear 20 1015 64 10000 2.1 43 00:29 28.06.2020
618 Clear 21 1015 53 10000 0.5 80 23:46 27.06.2020
619 Clear 22 1015 49 10000 5.1 20 23:24 27.06.2020
620 Clear 22 1015 49 10000 5.1 20 22:59 27.06.2020
621 Clear 22 1015 49 10000 5.1 20 22:41 27.06.2020
622 Clear 22 1015 47 10000 0.5 0 22:23 27.06.2020
623 Clear 23 1015 47 10000 0.5 0 21:57 27.06.2020
624 Clear 23 1015 47 10000 0.5 0 21:39 27.06.2020
625 Clear 24 1014 41 10000 3.6 40 21:20 27.06.2020
626 Clear 24 1014 41 10000 3.6 40 20:45 27.06.2020
627 Clouds 26 1014 32 10000 3.6 40 20:19 27.06.2020
628 Clouds 26 1014 32 10000 3.6 40 19:57 27.06.2020
629 Clouds 26 1014 32 10000 3.6 40 19:37 27.06.2020
630 Clouds 26 1014 32 10000 3.6 40 19:19 27.06.2020
631 Clouds 28 1014 30 10000 3.1 30 18:47 27.06.2020
632 Clouds 28 1014 30 10000 3.1 30 18:47 27.06.2020
633 Clouds 28 1014 30 10000 3.1 30 18:28 27.06.2020
634 Clouds 28 1014 28 10000 2.1 350 17:59 27.06.2020
635 Clouds 28 1014 28 10000 2.1 350 17:40 27.06.2020
636 Clouds 28 1014 34 10000 1.5 350 17:20 27.06.2020
637 Clouds 28 1014 34 10000 1.5 350 16:56 27.06.2020
638 Clouds 28 1015 32 10000 1.5 80 16:38 27.06.2020
639 Clouds 28 1015 32 10000 1.5 80 16:18 27.06.2020
640 Clouds 28 1015 32 10000 1.5 80 15:42 27.06.2020
641 Clouds 28 1015 28 10000 2.1 330 15:22 27.06.2020
642 Clouds 28 1015 28 10000 2.1 330 14:43 27.06.2020
643 Clouds 27 1016 32 10000 2.1 280 14:25 27.06.2020
644 Clouds 27 1016 32 10000 2.1 280 13:59 27.06.2020
645 Clouds 27 1016 32 10000 2.1 280 13:38 27.06.2020
646 Clouds 27 1016 32 10000 2.1 280 13:20 27.06.2020
647 Clouds 26 1016 36 10000 1.5 360 12:58 27.06.2020
648 Clouds 26 1016 36 10000 1.5 360 12:39 27.06.2020
649 Clouds 25 1016 36 10000 1.5 360 12:21 27.06.2020
650 Clouds 25 1017 41 10000 2.1 60 11:55 27.06.2020
651 Clouds 25 1017 41 10000 2.1 60 11:37 27.06.2020
652 Clouds 23 1017 43 10000 1.5 40 11:18 27.06.2020
653 Clouds 23 1017 43 10000 1.5 40 11:18 27.06.2020
654 Clouds 23 1017 43 10000 1.5 40 11:18 27.06.2020
655 Clouds 23 1017 43 10000 1.5 40 10:39 27.06.2020
656 Clear 23 1018 49 10000 1.5 130 10:19 27.06.2020
657 Clear 22 1018 49 10000 1.5 130 09:41 27.06.2020
658 Clear 21 1018 49 10000 1.5 90 09:23 27.06.2020
659 Clear 21 1018 49 10000 1.5 90 08:59 27.06.2020
660 Clear 21 1018 49 10000 1.5 90 08:39 27.06.2020
661 Clear 19 1018 59 10000 2.1 80 08:21 27.06.2020
662 Clear 19 1018 59 10000 2.1 80 07:45 27.06.2020
663 Clear 19 1018 59 10000 2.1 80 07:24 27.06.2020
664 Clear 17 1018 67 10000 1 0 06:46 27.06.2020
665 Clear 17 1018 67 10000 1 0 06:27 27.06.2020
666 Clear 14 1017 87 10000 2.6 230 04:23 27.06.2020
667 Clear 15 1017 87 10000 2.6 230 03:52 27.06.2020
668 Clear 16 1017 82 10000 2.1 220 02:56 27.06.2020
669 Clear 16 1017 82 10000 2.1 220 02:34 27.06.2020
670 Clear 17 1017 68 10000 1 240 01:45 27.06.2020
671 Clear 17 1017 68 10000 1 240 01:22 27.06.2020
672 Clear 18 1017 59 10000 2.1 360 00:36 27.06.2020
673 Clear 19 1017 56 10000 3.6 20 23:45 26.06.2020
674 Clouds 19 1017 56 10000 3.1 10 23:25 26.06.2020
675 Clouds 20 1017 56 10000 3.1 10 22:56 26.06.2020
676 Clouds 20 1017 56 10000 3.1 10 22:38 26.06.2020
677 Clouds 21 1016 53 10000 3.1 350 22:19 26.06.2020
678 Clouds 21 1016 53 10000 3.1 350 21:57 26.06.2020
679 Clouds 21 1016 53 10000 3.1 350 21:37 26.06.2020
680 Clouds 22 1016 49 10000 3.1 10 21:19 26.06.2020
681 Clouds 22 1016 49 10000 3.1 10 20:43 26.06.2020
682 Clouds 22 1016 49 10000 3.1 10 20:21 26.06.2020
683 Clouds 24 1015 41 10000 5.1 360 19:47 26.06.2020
684 Clouds 24 1015 41 10000 5.1 360 19:23 26.06.2020
685 Clouds 25 1015 36 10000 5.1 360 18:57 26.06.2020
686 Clouds 25 1015 36 10000 5.1 360 18:37 26.06.2020
687 Clouds 25 1015 36 10000 5.1 360 18:19 26.06.2020
688 Clouds 26 1015 34 10000 4.1 340 17:44 26.06.2020
689 Clouds 26 1015 34 10000 7.2 320 17:24 26.06.2020
690 Rain 25 1015 34 10000 7.2 320 16:49 26.06.2020
691 Clouds 26 1015 34 10000 3.1 340 16:26 26.06.2020
692 Rain 24 1015 34 10000 3.1 340 15:55 26.06.2020
693 Clouds 27 1015 34 10000 3.1 340 15:37 26.06.2020
694 Clouds 27 1015 30 10000 4.1 360 15:19 26.06.2020
695 Clouds 27 1015 30 10000 4.1 360 14:56 26.06.2020
696 Clouds 27 1015 30 10000 4.1 360 14:38 26.06.2020
697 Clouds 28 1016 30 10000 4.6 70 14:19 26.06.2020
698 Clouds 28 1016 30 10000 4.6 70 13:43 26.06.2020
699 Clouds 27 1016 30 10000 4.6 70 13:19 26.06.2020
700 Clouds 27 1016 30 10000 4.1 80 12:42 26.06.2020
701 Clouds 26 1017 34 10000 3.1 60 12:24 26.06.2020
702 Clouds 26 1017 34 10000 3.1 60 11:59 26.06.2020
703 Clouds 26 1017 34 10000 3.1 60 11:41 26.06.2020
704 Clouds 25 1017 38 10000 3.6 70 11:22 26.06.2020
705 Clouds 25 1017 38 10000 3.6 70 10:59 26.06.2020
706 Clouds 25 1017 38 10000 3.6 70 10:40 26.06.2020
707 Clouds 24 1017 47 10000 3.1 70 10:19 26.06.2020
708 Clouds 24 1017 47 10000 3.1 70 09:54 26.06.2020
709 Clouds 24 1017 47 10000 3.1 70 09:36 26.06.2020
710 Clouds 23 1018 53 10000 1 0 09:18 26.06.2020
711 Clouds 22 1018 53 10000 1 0 08:43 26.06.2020
712 Clouds 21 1018 56 10000 1 0 08:25 26.06.2020
713 Clouds 21 1018 56 10000 1 0 07:45 26.06.2020
714 Clouds 20 1018 56 10000 1 0 07:23 26.06.2020
715 Clouds 19 1017 68 10000 1.56 58 06:48 26.06.2020
716 Clouds 19 1017 68 10000 1.63 57 06:29 26.06.2020
717 Clouds 18 1017 63 10000 1.63 57 05:51 26.06.2020
718 Clouds 18 1017 77 10000 1.51 59 04:44 26.06.2020
719 Clouds 20 1018 60 10000 4.1 70 02:28 26.06.2020
720 Clouds 20 1018 60 10000 4.1 70 01:26 26.06.2020
721 Clouds 20 1018 56 10000 3.1 70 00:42 26.06.2020
722 Clouds 20 1018 60 10000 3.1 60 00:22 26.06.2020
723 Clouds 20 1018 60 10000 3.1 60 23:46 25.06.2020
724 Clouds 21 1017 56 10000 5.1 50 23:22 25.06.2020
725 Clouds 21 1017 56 10000 5.1 50 22:57 25.06.2020
726 Clouds 22 1017 56 10000 5.1 50 22:38 25.06.2020
727 Clouds 22 1017 49 10000 3.6 70 22:20 25.06.2020
728 Clouds 22 1017 49 10000 3.6 70 21:57 25.06.2020
729 Clouds 22 1017 49 10000 3.6 70 21:39 25.06.2020
730 Clouds 23 1016 47 10000 4.6 40 21:20 25.06.2020
731 Clouds 23 1016 47 10000 4.6 40 20:56 25.06.2020
732 Clouds 24 1016 47 10000 4.6 40 20:37 25.06.2020
733 Clouds 23 1016 47 10000 4.6 40 20:19 25.06.2020
734 Clouds 24 1016 41 10000 3.6 30 19:41 25.06.2020
735 Clouds 26 1016 39 10000 2.6 80 19:20 25.06.2020
736 Clouds 26 1016 39 10000 2.6 80 18:59 25.06.2020
737 Clouds 26 1016 39 10000 2.6 80 18:39 25.06.2020
738 Clouds 26 1016 39 10000 2.6 80 18:20 25.06.2020
739 Clouds 26 1016 36 10000 3.1 70 17:44 25.06.2020
740 Clouds 27 1017 34 10000 3.6 70 17:20 25.06.2020
741 Clouds 27 1017 34 10000 3.6 70 16:58 25.06.2020
742 Clouds 26 1017 34 10000 3.6 70 16:37 25.06.2020
743 Clouds 26 1017 36 10000 2.6 70 16:19 25.06.2020
744 Clouds 26 1017 36 10000 2.6 70 15:43 25.06.2020
745 Clouds 26 1018 41 10000 2.6 40 15:24 25.06.2020
746 Clouds 26 1018 41 10000 2.6 40 14:54 25.06.2020
747 Clouds 26 1018 41 10000 2.6 40 14:36 25.06.2020
748 Clouds 26 1018 41 10000 3.1 10 14:18 25.06.2020
749 Clouds 26 1018 41 10000 3.1 10 13:41 25.06.2020
750 Clouds 26 1018 41 10000 3.1 10 13:20 25.06.2020
751 Clouds 26 1018 39 10000 1 200 12:57 25.06.2020
752 Clouds 24 1019 47 10000 4.6 50 12:39 25.06.2020
753 Clouds 24 1018 44 10000 2.1 0 12:19 25.06.2020
754 Clouds 24 1018 44 10000 2.1 0 11:42 25.06.2020
755 Clouds 23 1019 53 10000 2.1 80 11:21 25.06.2020
756 Clouds 23 1019 53 10000 2.1 80 10:44 25.06.2020
757 Clouds 22 1019 60 10000 1 0 10:26 25.06.2020
758 Clouds 21 1019 60 10000 1 0 09:58 25.06.2020
759 Clouds 21 1019 60 10000 1 0 09:40 25.06.2020
760 Clear 20 1019 60 10000 1 0 09:18 25.06.2020
761 Clear 20 1019 60 10000 1 0 08:43 25.06.2020
762 Clear 20 1019 60 10000 1 0 08:19 25.06.2020
763 Clear 18 1020 77 10000 2.1 220 07:44 25.06.2020
764 Clear 17 1020 77 10000 2.1 220 07:26 25.06.2020
765 Clear 16 1020 77 10000 0.5 140 06:45 25.06.2020
766 Clear 16 1020 77 10000 0.5 140 06:25 25.06.2020
767 Clear 14 1019 87 10000 0.5 0 05:39 25.06.2020
768 Clear 15 1019 82 10000 1 0 03:51 25.06.2020
769 Clear 16 1020 77 10000 1.5 210 02:59 25.06.2020
770 Clear 16 1020 77 10000 1.5 210 02:41 25.06.2020
771 Clear 16 1020 77 10000 0.5 0 01:43 25.06.2020
772 Clear 17 1020 77 10000 1.5 240 00:52 25.06.2020
773 Clear 17 1020 77 10000 1.5 240 00:26 25.06.2020
774 Clear 18 1019 68 10000 1.5 220 23:59 24.06.2020
775 Clear 18 1019 68 10000 1.5 220 23:39 24.06.2020
776 Clear 18 1019 59 10000 2.1 180 23:21 24.06.2020
777 Clear 18 1019 59 10000 2.1 180 22:55 24.06.2020
778 Clear 19 1019 59 10000 2.1 180 22:36 24.06.2020
779 Clear 19 1019 56 10000 1 0 22:18 24.06.2020
780 Clear 19 1019 56 10000 1 0 21:54 24.06.2020
781 Clear 19 1019 56 10000 1 0 21:36 24.06.2020
782 Clear 21 1018 53 10000 1 0 21:18 24.06.2020
783 Clear 21 1018 53 10000 1 0 20:55 24.06.2020
784 Clear 21 1018 53 10000 1 0 20:37 24.06.2020
785 Clouds 23 1017 44 10000 1.5 290 20:18 24.06.2020
786 Clouds 23 1017 44 10000 1.5 290 19:39 24.06.2020
787 Clouds 23 1017 38 10000 3.6 260 19:21 24.06.2020
788 Clouds 24 1017 38 10000 3.6 260 18:59 24.06.2020
789 Clouds 24 1017 38 10000 3.6 260 18:41 24.06.2020
790 Clouds 24 1017 38 10000 3.6 260 18:23 24.06.2020
791 Clouds 25 1016 38 10000 4.1 260 17:58 24.06.2020
792 Clouds 25 1016 38 10000 4.1 260 17:40 24.06.2020
793 Clouds 25 1017 31 10000 4.6 240 17:19 24.06.2020
794 Clouds 26 1017 31 10000 4.6 240 16:56 24.06.2020
795 Clouds 26 1017 31 10000 4.6 240 16:56 24.06.2020
796 Clouds 25 1017 31 10000 4.6 240 16:38 24.06.2020
797 Clouds 25 1017 31 10000 4.6 240 16:38 24.06.2020
798 Clouds 26 1017 31 10000 4.6 240 16:20 24.06.2020
799 Clouds 25 1017 34 10000 4.6 260 15:56 24.06.2020
800 Clouds 25 1017 34 10000 4.6 260 15:38 24.06.2020
801 Clouds 25 1017 34 10000 4.6 260 15:19 24.06.2020
802 Clouds 25 1017 36 10000 3.1 0 14:43 24.06.2020
803 Clouds 24 1017 41 10000 3.6 0 14:24 24.06.2020
804 Clouds 24 1017 41 10000 3.6 0 13:43 24.06.2020
805 Clouds 24 1017 41 10000 3.6 0 13:22 24.06.2020
806 Clouds 23 1017 46 10000 4.1 250 12:57 24.06.2020
807 Clouds 23 1017 46 10000 4.1 250 12:38 24.06.2020
808 Clouds 23 1017 46 10000 4.1 250 12:20 24.06.2020
809 Clouds 22 1017 46 10000 2.6 0 11:55 24.06.2020
810 Clouds 22 1017 46 10000 5.1 250 11:37 24.06.2020
811 Clouds 21 1017 56 10000 2.6 0 11:18 24.06.2020
812 Clouds 21 1017 56 10000 2.6 0 10:41 24.06.2020
813 Clouds 21 1017 56 10000 2.6 0 10:19 24.06.2020
814 Clouds 19 1017 63 10000 1.5 270 09:43 24.06.2020
815 Clouds 18 1017 68 10000 2.1 270 09:22 24.06.2020
816 Clouds 18 1017 68 10000 2.1 270 08:43 24.06.2020
817 Clouds 17 1017 72 10000 1.5 260 08:21 24.06.2020
818 Clouds 17 1017 72 10000 1.5 260 07:51 24.06.2020
819 Clouds 17 1017 72 10000 1.5 260 07:31 24.06.2020
820 Clouds 15 1016 82 10000 2.1 280 06:51 24.06.2020
821 Clouds 15 1016 82 10000 2.1 280 06:26 24.06.2020
822 Clear 15 1016 77 10000 3.1 240 05:57 24.06.2020
823 Clear 16 1015 72 10000 1 230 04:46 24.06.2020
824 Clear 16 1015 72 10000 2.6 220 04:28 24.06.2020
825 Clear 16 1015 72 10000 2.6 220 03:34 24.06.2020
826 Clear 17 1015 72 10000 1 0 02:50 24.06.2020
827 Clear 17 1015 72 10000 2.6 290 01:41 24.06.2020
828 Clear 17 1015 77 10000 1.5 230 00:47 24.06.2020
829 Clear 17 1014 72 10000 2.28 252 00:27 24.06.2020
830 Clear 18 1014 72 10000 2.28 252 23:46 23.06.2020
831 Clouds 17 1014 88 10000 2.1 230 23:20 23.06.2020
832 Clouds 17 1014 88 10000 2.1 230 22:54 23.06.2020
833 Clouds 17 1014 88 10000 2.1 230 22:36 23.06.2020
834 Clouds 17 1014 72 10000 2.1 230 22:18 23.06.2020
835 Clouds 17 1014 72 10000 2.1 230 22:18 23.06.2020
836 Clouds 18 1014 72 10000 2.1 230 21:40 23.06.2020
837 Clouds 18 1013 72 10000 1 0 21:19 23.06.2020
838 Clouds 18 1013 72 10000 1 0 20:55 23.06.2020
839 Clouds 18 1013 72 10000 1 0 20:37 23.06.2020
840 Clouds 18 1013 72 10000 1 0 20:18 23.06.2020
841 Clouds 18 1012 63 10000 9.3 250 19:45 23.06.2020
842 Clouds 18 1012 63 10000 9.3 250 19:27 23.06.2020
843 Clouds 23 1011 47 10000 7.2 280 18:42 23.06.2020
844 Clouds 24 1011 47 10000 7.2 280 18:19 23.06.2020
845 Clouds 25 1010 50 10000 5.1 270 17:58 23.06.2020
846 Clouds 25 1010 50 10000 5.1 270 17:39 23.06.2020
847 Clouds 25 1010 53 10000 5.7 270 17:20 23.06.2020
848 Thunderstorm 26 1010 36 10000 7.2 210 16:55 23.06.2020
849 Thunderstorm 27 1010 36 10000 7.2 210 16:37 23.06.2020
850 Clouds 27 1009 30 10000 5.7 200 16:18 23.06.2020
851 Clouds 27 1009 30 10000 5.7 200 16:18 23.06.2020
852 Clouds 28 1009 30 10000 5.7 200 15:43 23.06.2020
853 Clouds 29 1009 30 10000 4.1 200 15:24 23.06.2020
854 Clouds 28 1009 30 10000 4.1 200 14:56 23.06.2020
855 Clouds 28 1009 30 10000 4.1 200 14:38 23.06.2020
856 Clouds 28 1009 30 10000 4.1 200 14:18 23.06.2020
857 Clouds 29 1010 32 10000 4.6 180 13:46 23.06.2020
858 Clouds 29 1010 32 10000 4.6 180 13:26 23.06.2020
859 Clouds 27 1011 44 10000 4.1 190 12:59 23.06.2020
860 Clouds 27 1011 44 10000 4.1 190 12:59 23.06.2020
861 Clouds 27 1011 44 10000 4.1 190 12:40 23.06.2020
862 Clouds 27 1011 47 10000 2.1 0 12:21 23.06.2020
863 Clouds 26 1011 47 10000 2.1 0 11:43 23.06.2020
864 Clouds 26 1011 47 10000 2.1 0 11:23 23.06.2020
865 Clouds 25 1011 53 10000 1.5 0 10:59 23.06.2020
866 Clouds 25 1011 53 10000 1.5 0 10:41 23.06.2020
867 Clouds 23 1011 53 10000 1 0 10:22 23.06.2020
868 Clouds 23 1011 53 10000 1 0 09:57 23.06.2020
869 Clouds 23 1011 53 10000 1 0 09:38 23.06.2020
870 Clouds 22 1011 53 10000 1 0 09:20 23.06.2020
871 Clouds 22 1011 53 10000 1 0 09:20 23.06.2020
872 Clouds 20 1012 68 10000 1.5 0 08:46 23.06.2020
873 Clouds 20 1012 68 10000 1.5 0 08:26 23.06.2020
874 Clouds 19 1012 77 10000 0.5 0 07:49 23.06.2020
875 Clouds 18 1012 77 10000 0.5 0 07:25 23.06.2020
876 Clouds 17 1012 82 10000 1.61 69 06:53 23.06.2020
877 Clouds 17 1012 82 10000 1.61 69 06:32 23.06.2020
878 Clouds 15 1012 93 10000 1.42 63 05:59 23.06.2020
879 Clouds 15 1012 93 10000 1.64 54 05:26 23.06.2020
880 Clouds 15 1012 87 10000 1.32 32 03:22 23.06.2020
881 Clouds 15 1012 82 10000 1 0 02:49 23.06.2020
882 Clouds 15 1012 82 10000 1 0 02:29 23.06.2020
883 Clouds 16 1012 82 10000 0.5 0 01:46 23.06.2020
884 Clouds 16 1012 82 10000 0.5 0 01:24 23.06.2020
885 Clouds 16 1012 82 10000 1.54 29 00:41 23.06.2020
886 Clouds 16 1012 82 10000 1.87 53 00:20 23.06.2020
887 Clouds 16 1012 87 10000 2.1 280 23:54 22.06.2020
888 Clouds 16 1012 87 10000 2.1 280 23:54 22.06.2020
889 Clouds 16 1012 87 10000 2.1 280 23:36 22.06.2020
890 Clouds 16 1012 87 10000 2.1 280 23:18 22.06.2020
891 Clouds 16 1012 82 10000 2.1 230 22:54 22.06.2020
892 Clouds 17 1012 82 10000 2.1 230 22:36 22.06.2020
893 Clouds 17 1012 82 10000 2.1 230 22:18 22.06.2020
894 Clouds 17 1012 82 10000 2.1 230 22:18 22.06.2020
895 Clouds 18 1013 72 10000 2.6 90 21:40 22.06.2020
896 Rain 18 1013 72 10000 2.6 90 21:22 22.06.2020
897 Rain 18 1012 77 10000 5.1 240 20:58 22.06.2020
898 Rain 18 1012 77 10000 5.1 240 20:40 22.06.2020
899 Rain 18 1012 77 10000 5.1 240 20:20 22.06.2020
900 Thunderstorm 24 1009 69 10000 2.6 240 19:44 22.06.2020
901 Thunderstorm 25 1009 57 10000 0.5 0 19:19 22.06.2020
902 Thunderstorm 25 1009 57 10000 0.5 0 18:57 22.06.2020
903 Clouds 26 1009 39 10000 1 140 18:37 22.06.2020
904 Clouds 26 1009 39 10000 1 140 18:19 22.06.2020
905 Clouds 26 1009 44 10000 1.5 150 17:55 22.06.2020
906 Clouds 26 1009 44 10000 1.5 150 17:37 22.06.2020
907 Clouds 26 1009 44 10000 1.5 150 17:18 22.06.2020
908 Thunderstorm 26 1009 50 10000 3.6 190 16:43 22.06.2020
909 Thunderstorm 26 1009 50 10000 3.6 190 16:19 22.06.2020
910 Thunderstorm 27 1009 32 10000 3.6 310 15:57 22.06.2020
911 Thunderstorm 27 1009 32 10000 3.6 310 15:39 22.06.2020
912 Thunderstorm 27 1009 32 10000 3.6 310 15:21 22.06.2020
913 Clouds 27 1009 36 10000 2.1 0 14:39 22.06.2020
914 Clouds 27 1009 36 10000 2.1 0 14:20 22.06.2020
915 Clouds 26 1010 41 10000 2.1 320 13:57 22.06.2020
916 Clouds 26 1010 41 10000 2.1 320 13:38 22.06.2020
917 Clouds 26 1010 41 10000 2.1 320 13:20 22.06.2020
918 Clouds 25 1010 47 10000 2.1 0 12:43 22.06.2020
919 Clouds 25 1010 47 10000 2.1 0 12:23 22.06.2020
920 Clouds 24 1010 47 10000 1.5 0 11:58 22.06.2020
921 Clouds 24 1010 47 10000 1.5 0 11:37 22.06.2020
922 Clouds 24 1010 47 10000 1.5 0 11:18 22.06.2020
923 Clouds 23 1010 46 10000 2.1 0 10:55 22.06.2020
924 Clouds 23 1010 46 10000 2.1 0 10:36 22.06.2020
925 Clouds 23 1010 46 10000 2.1 0 10:36 22.06.2020
926 Clouds 23 1010 46 10000 2.1 0 10:18 22.06.2020
927 Clouds 22 1010 60 10000 1.5 150 09:42 22.06.2020
928 Clouds 21 1010 60 10000 1.5 150 09:22 22.06.2020
929 Clouds 20 1010 68 10000 1 0 08:59 22.06.2020
930 Clouds 20 1010 68 10000 1 0 08:39 22.06.2020
931 Clouds 19 1010 68 10000 1 0 08:20 22.06.2020
932 Clouds 18 1010 77 10000 0.66 316 07:52 22.06.2020
933 Clouds 18 1010 77 10000 0.7 305 07:33 22.06.2020
934 Clouds 15 1010 93 10000 1 210 06:46 22.06.2020
935 Clouds 15 1010 93 10000 1 210 06:27 22.06.2020
936 Clouds 14 1010 93 10000 0.5 0 05:58 22.06.2020
937 Clouds 14 1010 93 10000 0.5 0 05:30 22.06.2020
938 Clouds 15 1010 87 10000 1.38 123 02:56 22.06.2020
939 Rain 16 1010 87 10000 2.6 90 01:34 22.06.2020
940 Rain 16 1011 77 10000 2.6 240 00:41 22.06.2020
941 Rain 17 1010 72 10000 2.6 0 23:59 21.06.2020
942 Rain 17 1010 72 10000 2.6 0 23:59 21.06.2020
943 Rain 17 1010 72 10000 2.6 0 23:40 21.06.2020
944 Rain 17 1010 72 10000 2.6 0 23:21 21.06.2020
945 Rain 18 1010 68 10000 4.1 260 22:57 21.06.2020
946 Rain 18 1010 68 10000 4.1 260 22:38 21.06.2020
947 Clouds 20 1008 49 10000 2.1 170 22:19 21.06.2020
948 Clouds 20 1008 49 10000 2.1 170 22:19 21.06.2020
949 Clouds 20 1008 49 10000 2.1 170 21:59 21.06.2020
950 Clouds 20 1008 49 10000 2.1 170 21:40 21.06.2020
951 Clouds 20 1008 49 10000 2.1 170 21:21 21.06.2020
952 Clouds 21 1007 43 10000 2.1 0 20:59 21.06.2020
953 Clouds 21 1007 43 10000 2.1 0 20:38 21.06.2020
954 Clouds 23 1007 31 10000 3.1 360 20:19 21.06.2020
955 Clouds 24 1007 31 10000 3.1 360 19:57 21.06.2020
956 Clouds 24 1007 31 10000 3.1 360 19:57 21.06.2020
957 Clouds 24 1007 31 10000 3.1 360 19:38 21.06.2020
958 Clouds 25 1007 27 10000 1.5 300 19:19 21.06.2020
959 Clouds 25 1007 27 10000 1.5 300 18:55 21.06.2020
960 Clouds 26 1007 27 10000 1.5 300 18:36 21.06.2020
961 Clouds 26 1007 27 10000 1.5 300 18:18 21.06.2020
962 Clouds 27 1007 30 10000 2.1 250 17:40 21.06.2020
963 Clouds 26 1007 30 10000 2.1 250 17:21 21.06.2020
964 Clouds 27 1008 32 10000 1.5 0 16:56 21.06.2020
965 Clouds 27 1008 32 10000 1.5 0 16:56 21.06.2020
966 Clouds 27 1008 32 10000 1.5 0 16:38 21.06.2020
967 Clouds 27 1008 32 10000 1.5 0 16:19 21.06.2020
968 Clouds 26 1008 31 10000 1.5 0 15:39 21.06.2020
969 Clouds 26 1008 31 10000 1.5 0 15:39 21.06.2020
970 Clouds 26 1008 31 10000 1.5 0 15:21 21.06.2020
971 Clouds 26 1009 29 10000 2.6 20 14:55 21.06.2020
972 Clouds 26 1009 29 10000 2.6 20 14:36 21.06.2020
973 Clouds 26 1009 29 10000 2.6 20 14:18 21.06.2020
974 Clouds 26 1010 29 10000 2.6 0 13:41 21.06.2020
975 Clouds 26 1010 29 10000 2.6 0 13:23 21.06.2020
976 Clouds 24 1010 36 10000 1.5 0 12:57 21.06.2020
977 Clouds 24 1010 36 10000 1.5 0 12:39 21.06.2020
978 Clouds 24 1010 36 10000 1.5 0 12:20 21.06.2020
979 Clouds 23 1011 38 10000 1 0 11:42 21.06.2020
980 Clouds 23 1011 38 10000 1 0 11:24 21.06.2020
981 Clouds 22 1011 49 10000 1 210 10:58 21.06.2020
982 Clouds 22 1011 49 10000 1 210 10:39 21.06.2020
983 Clouds 21 1011 49 10000 1 210 10:21 21.06.2020
984 Clouds 20 1011 56 10000 0.5 0 09:44 21.06.2020
985 Clouds 20 1011 56 10000 0.5 0 09:24 21.06.2020
986 Clear 18 1011 67 10000 0.5 0 08:58 21.06.2020
987 Clear 18 1011 67 10000 0.5 0 08:40 21.06.2020
988 Clear 18 1011 67 10000 0.5 0 08:20 21.06.2020
989 Clear 17 1011 72 10000 1.4 261 07:43 21.06.2020
990 Clear 16 1011 72 10000 1 240 07:24 21.06.2020
991 Clear 14 1011 87 10000 0.5 0 06:51 21.06.2020
992 Clear 12 1011 87 10000 0.5 0 06:31 21.06.2020
993 Clear 11 1011 93 10000 1 230 05:57 21.06.2020
994 Clear 12 1011 87 10000 1.5 210 04:42 21.06.2020
995 Clear 12 1011 87 10000 0.66 332 03:19 21.06.2020
996 Clear 12 1011 87 10000 0.66 332 02:36 21.06.2020
997 Clear 12 1011 87 10000 2.1 240 01:40 21.06.2020
998 Clear 14 1011 87 10000 2.1 240 01:19 21.06.2020
999 Clear 13 1012 82 10000 1 220 00:46 21.06.2020
1000 Clear 13 1012 82 10000 1 220 00:25 21.06.2020
1001 Clear 14 1012 82 10000 1 230 23:46 20.06.2020
1002 Clear 14 1012 82 10000 1 230 23:23 20.06.2020
1003 Clear 15 1012 72 10000 1.5 220 22:59 20.06.2020
1004 Clear 15 1012 72 10000 1.5 220 22:41 20.06.2020
1005 Clear 16 1012 72 10000 1.5 220 22:21 20.06.2020
1006 Clear 17 1012 67 10000 0.5 0 21:58 20.06.2020
1007 Clear 17 1012 67 10000 0.5 0 21:40 20.06.2020
1008 Clear 17 1012 67 10000 0.5 0 21:21 20.06.2020
1009 Clouds 18 1011 59 10000 1.5 0 20:59 20.06.2020
1010 Clouds 18 1011 59 10000 1.5 0 20:41 20.06.2020
1011 Clouds 18 1011 59 10000 1.5 0 20:21 20.06.2020
1012 Clouds 19 1011 56 10000 1.5 0 19:59 20.06.2020
1013 Clouds 20 1011 56 10000 1.5 0 19:40 20.06.2020
1014 Clouds 21 1011 49 10000 1.5 0 19:20 20.06.2020
1015 Clouds 21 1011 49 10000 1.5 0 18:43 20.06.2020
1016 Clouds 21 1011 49 10000 1.5 0 18:21 20.06.2020
1017 Clouds 22 1011 46 10000 2.1 0 17:58 20.06.2020
1018 Clouds 22 1011 46 10000 2.1 0 17:39 20.06.2020
1019 Clouds 22 1011 46 10000 2.1 0 17:20 20.06.2020
1020 Clouds 21 1012 53 10000 4.1 360 16:56 20.06.2020
1021 Clouds 21 1012 53 10000 4.1 360 16:37 20.06.2020
1022 Clouds 21 1012 56 10000 1.5 280 16:18 20.06.2020
1023 Clouds 21 1012 56 10000 1.5 280 15:42 20.06.2020
1024 Clouds 19 1012 63 10000 3.1 300 15:18 20.06.2020
1025 Rain 18 1012 68 10000 5.1 310 14:43 20.06.2020
1026 Rain 19 1012 68 10000 5.1 310 14:21 20.06.2020
1027 Rain 20 1012 60 10000 6.7 280 13:55 20.06.2020
1028 Clouds 21 1012 49 10000 5.7 270 13:37 20.06.2020
1029 Clouds 22 1012 49 10000 5.7 270 13:18 20.06.2020
1030 Clouds 23 1012 49 10000 3.1 0 12:42 20.06.2020
1031 Clouds 23 1012 49 10000 3.1 0 12:20 20.06.2020
1032 Clouds 21 1012 52 10000 1.5 0 11:57 20.06.2020
1033 Clouds 21 1012 56 10000 1.5 0 11:37 20.06.2020
1034 Clouds 21 1012 52 10000 2.6 0 11:19 20.06.2020
1035 Clouds 20 1012 52 10000 2.6 0 10:47 20.06.2020
1036 Clouds 20 1012 52 10000 2.6 0 10:22 20.06.2020
1037 Clouds 19 1012 63 10000 1 60 09:55 20.06.2020
1038 Clouds 19 1012 63 10000 1 60 09:37 20.06.2020
1039 Clouds 19 1012 63 10000 1 60 09:19 20.06.2020
1040 Clouds 18 1013 68 10000 1.5 250 08:46 20.06.2020
1041 Clouds 18 1013 68 10000 1.5 250 08:27 20.06.2020
1042 Clouds 17 1013 72 10000 1 0 07:51 20.06.2020
1043 Clouds 17 1013 72 10000 1 0 07:28 20.06.2020
1044 Clouds 15 1012 87 10000 1.35 300 06:56 20.06.2020
1045 Clouds 14 1012 87 10000 1.13 284 06:23 20.06.2020
1046 Clouds 14 1012 87 10000 1.13 284 06:23 20.06.2020
1047 Clouds 13 1012 87 10000 1.5 220 05:52 20.06.2020
1048 Clouds 14 1012 82 10000 1.26 287 04:58 20.06.2020
1049 Clouds 14 1012 77 10000 2.1 240 02:27 20.06.2020
1050 Clouds 14 1012 87 10000 2.1 250 01:48 20.06.2020
1051 Clouds 16 1012 72 10000 1.5 220 00:55 20.06.2020
1052 Clouds 16 1012 72 10000 1.5 220 00:21 20.06.2020
1053 Clouds 17 1012 67 10000 1.5 250 23:55 19.06.2020
1054 Clouds 17 1012 67 10000 1.5 250 23:37 19.06.2020
1055 Clouds 17 1012 63 10000 1.5 250 23:18 19.06.2020
1056 Clouds 17 1012 63 10000 1.5 250 22:40 19.06.2020
1057 Clouds 17 1012 63 10000 1.5 250 22:22 19.06.2020
1058 Clouds 18 1012 63 10000 1 0 21:58 19.06.2020
1059 Clouds 18 1012 63 10000 1 0 21:38 19.06.2020
1060 Clouds 18 1012 63 10000 1 0 21:18 19.06.2020
1061 Clouds 18 1011 68 10000 2.1 210 20:58 19.06.2020
1062 Clouds 18 1011 68 10000 2.1 210 20:40 19.06.2020
1063 Clouds 18 1011 68 10000 2.1 210 20:21 19.06.2020
1064 Clouds 19 1011 60 10000 4.6 320 19:57 19.06.2020
1065 Clouds 19 1011 60 10000 4.6 320 19:38 19.06.2020
1066 Clouds 20 1011 60 10000 4.6 320 19:20 19.06.2020
1067 Clouds 20 1011 56 10000 2.6 320 18:41 19.06.2020
1068 Clouds 20 1010 60 10000 2.6 330 18:22 19.06.2020
1069 Clouds 21 1010 60 10000 2.6 330 17:58 19.06.2020
1070 Clouds 21 1010 60 10000 2.6 330 17:38 19.06.2020
1071 Clouds 19 1011 72 10000 3.6 10 17:20 19.06.2020
1072 Clouds 19 1011 72 10000 3.6 10 16:55 19.06.2020
1073 Clouds 19 1011 72 10000 3.6 10 16:37 19.06.2020
1074 Clouds 18 1011 72 10000 3.6 10 16:18 19.06.2020
1075 Rain 20 1010 63 10000 3.1 250 15:42 19.06.2020
1076 Rain 20 1010 63 10000 3.1 250 15:21 19.06.2020
1077 Rain 20 1010 56 10000 3.1 250 14:56 19.06.2020
1078 Clouds 20 1010 56 10000 2.1 260 14:38 19.06.2020
1079 Clouds 20 1010 59 10000 5.7 80 14:19 19.06.2020
1080 Rain 20 1010 59 10000 5.7 80 13:44 19.06.2020
1081 Clouds 19 1010 59 10000 5.7 80 13:26 19.06.2020
1082 Thunderstorm 18 1010 68 10000 7.2 60 12:48 19.06.2020
1083 Clouds 20 1010 52 10000 4.6 320 12:23 19.06.2020
1084 Clouds 22 1011 56 10000 1.5 90 11:59 19.06.2020
1085 Clouds 22 1011 56 10000 1.5 90 11:39 19.06.2020
1086 Clouds 22 1011 56 10000 1.5 90 11:18 19.06.2020
1087 Clouds 21 1011 56 10000 2.6 0 11:18 19.06.2020
1088 Clouds 21 1011 56 10000 2.6 0 10:46 19.06.2020
1089 Clouds 21 1011 56 10000 2.6 0 10:27 19.06.2020
1090 Clouds 19 1011 63 10000 2.1 0 09:59 19.06.2020
1091 Clouds 19 1011 63 10000 2.1 0 09:41 19.06.2020
1092 Clouds 19 1011 63 10000 2.1 0 09:21 19.06.2020
1093 Clouds 18 1012 72 10000 2.1 250 08:45 19.06.2020
1094 Clouds 17 1012 72 10000 2.1 250 08:27 19.06.2020
1095 Clouds 16 1012 77 10000 1 0 07:57 19.06.2020
1096 Clouds 16 1012 77 10000 1 0 07:39 19.06.2020
1097 Clouds 16 1012 77 10000 1 0 07:39 19.06.2020
1098 Clouds 16 1012 77 10000 1 0 07:20 19.06.2020
1099 Clouds 15 1011 82 10000 1.52 333 06:28 19.06.2020
1100 Clouds 14 1011 87 10000 2.1 240 05:50 19.06.2020
1101 Clouds 13 1011 87 10000 2.6 230 04:30 19.06.2020
1102 Clouds 14 1010 82 10000 0.5 240 03:22 19.06.2020
1103 Clouds 15 1011 87 10000 2.1 240 00:59 19.06.2020
1104 Clouds 15 1011 87 10000 2.1 240 00:41 19.06.2020
1105 Clouds 15 1011 87 10000 2.1 240 00:21 19.06.2020
1106 Clouds 15 1011 77 10000 2.1 240 23:42 18.06.2020
1107 Clouds 16 1011 82 10000 1.5 240 23:24 18.06.2020
1108 Clouds 16 1011 82 10000 1.5 240 22:59 18.06.2020
1109 Clouds 16 1011 82 10000 1.5 240 22:39 18.06.2020
1110 Clouds 16 1011 82 10000 1.5 240 22:19 18.06.2020
1111 Clouds 16 1010 77 10000 2.1 220 22:19 18.06.2020
1112 Clouds 16 1010 77 10000 2.1 220 21:40 18.06.2020
1113 Clouds 17 1010 77 10000 2.1 220 21:21 18.06.2020
1114 Clouds 18 1010 68 10000 0.6 303 20:59 18.06.2020
1115 Clouds 18 1010 68 10000 0.6 303 20:40 18.06.2020
1116 Clouds 19 1010 72 10000 1 270 20:19 18.06.2020
1117 Clouds 19 1010 72 10000 1 270 19:54 18.06.2020
1118 Clouds 19 1010 72 10000 1 270 19:36 18.06.2020
1119 Clouds 19 1009 63 10000 1 0 19:18 18.06.2020
1120 Clouds 19 1009 63 10000 1 0 18:38 18.06.2020
1121 Rain 19 1009 63 10000 1 0 18:19 18.06.2020
1122 Rain 19 1009 63 10000 2.1 150 18:19 18.06.2020
1123 Thunderstorm 19 1009 82 10000 2.1 130 17:45 18.06.2020
1124 Thunderstorm 19 1009 82 10000 2.1 130 17:25 18.06.2020
1125 Thunderstorm 19 1009 77 10000 3.6 220 16:56 18.06.2020
1126 Thunderstorm 19 1009 77 10000 3.6 220 16:38 18.06.2020
1127 Thunderstorm 19 1009 77 10000 3.6 220 16:19 18.06.2020
1128 Thunderstorm 21 1009 64 10000 5.1 250 15:56 18.06.2020
1129 Thunderstorm 22 1008 46 10000 5.1 360 15:38 18.06.2020
1130 Thunderstorm 22 1008 43 10000 4.6 40 15:18 18.06.2020
1131 Thunderstorm 22 1008 43 10000 4.6 40 14:55 18.06.2020
1132 Clouds 24 1009 44 10000 6.2 330 14:36 18.06.2020
1133 Clouds 24 1009 47 10000 3.6 280 14:18 18.06.2020
1134 Clouds 25 1009 47 10000 3.6 280 13:41 18.06.2020
1135 Clouds 24 1009 47 10000 3.6 280 13:23 18.06.2020
1136 Clouds 24 1010 47 10000 4.6 280 12:56 18.06.2020
1137 Clouds 24 1010 47 10000 4.6 280 12:37 18.06.2020
1138 Clouds 23 1010 46 10000 3.6 270 12:19 18.06.2020
1139 Clouds 22 1010 46 10000 4.1 250 11:47 18.06.2020
1140 Clouds 21 1010 60 10000 2.6 260 11:21 18.06.2020
1141 Clouds 21 1010 60 10000 2.6 260 10:56 18.06.2020
1142 Clouds 21 1010 60 10000 2.6 260 10:38 18.06.2020
1143 Clouds 21 1010 60 10000 2.6 260 10:18 18.06.2020
1144 Clouds 20 1010 64 10000 2.6 260 09:42 18.06.2020
1145 Clouds 19 1010 68 10000 2.6 260 09:23 18.06.2020
1146 Clouds 19 1010 68 10000 2.6 260 08:41 18.06.2020
1147 Clouds 19 1010 68 10000 2.6 260 08:23 18.06.2020
1148 Clouds 19 1010 72 10000 1.11 285 07:59 18.06.2020
1149 Clouds 18 1010 72 10000 1.11 285 07:40 18.06.2020
1150 Clouds 18 1010 72 10000 0.85 311 07:21 18.06.2020
1151 Clouds 16 1010 82 10000 1.5 240 06:28 18.06.2020
1152 Clouds 15 1010 82 10000 1.5 30 04:27 18.06.2020
1153 Clouds 16 1010 77 10000 4.1 80 03:26 18.06.2020
1154 Clouds 16 1012 77 10000 1 0 01:40 18.06.2020
1155 Rain 17 1011 77 10000 6.2 50 01:18 18.06.2020
1156 Rain 17 1011 77 10000 6.2 50 00:49 18.06.2020
1157 Rain 17 1012 72 10000 3.6 0 00:24 18.06.2020
1158 Clouds 18 1011 59 10000 3.1 60 23:47 17.06.2020
1159 Clouds 18 1011 59 10000 3.1 60 23:23 17.06.2020
1160 Clouds 18 1011 77 10000 4.1 20 22:59 17.06.2020
1161 Clouds 18 1011 77 10000 4.1 20 22:40 17.06.2020
1162 Clouds 18 1011 77 10000 4.1 20 22:21 17.06.2020
1163 Rain 17 1011 82 10000 2.6 280 21:58 17.06.2020
1164 Rain 17 1011 82 10000 2.6 280 21:39 17.06.2020
1165 Thunderstorm 17 1011 82 10000 2.6 280 21:20 17.06.2020
1166 Rain 18 1009 68 10000 3.1 110 20:55 17.06.2020
1167 Clouds 19 1009 68 10000 3.1 110 20:36 17.06.2020
1168 Clouds 19 1009 72 10000 5.1 30 20:18 17.06.2020
1169 Rain 19 1009 72 10000 5.1 30 19:41 17.06.2020
1170 Rain 19 1009 72 10000 5.1 30 19:19 17.06.2020
1171 Rain 23 1009 60 10000 3.1 100 18:46 17.06.2020
1172 Rain 23 1009 60 10000 3.1 100 18:28 17.06.2020
1173 Thunderstorm 23 1009 50 10000 4.1 360 17:47 17.06.2020
1174 Thunderstorm 23 1009 50 10000 4.1 360 17:23 17.06.2020
1175 Rain 23 1009 50 10000 4.1 360 16:59 17.06.2020
1176 Rain 23 1010 47 10000 5.1 340 16:40 17.06.2020
1177 Rain 23 1010 47 10000 5.1 340 16:21 17.06.2020
1178 Rain 24 1009 39 10000 6.7 80 15:58 17.06.2020
1179 Rain 24 1009 39 10000 6.7 80 15:39 17.06.2020
1180 Rain 24 1009 39 10000 6.7 80 15:21 17.06.2020
1181 Rain 24 1009 39 10000 6.7 80 15:21 17.06.2020
1182 Rain 24 1009 39 10000 6.7 80 15:21 17.06.2020
1183 Rain 24 1010 41 10000 6.2 70 14:58 17.06.2020
1184 Rain 24 1010 41 10000 6.2 70 14:39 17.06.2020
1185 Clouds 24 1010 39 10000 5.1 100 14:19 17.06.2020
1186 Clouds 24 1010 39 10000 5.1 100 14:19 17.06.2020
1187 Clouds 25 1010 39 10000 5.1 100 13:57 17.06.2020
1188 Rain 25 1010 39 10000 5.1 100 13:38 17.06.2020
1189 Clouds 25 1010 39 10000 5.1 100 13:20 17.06.2020
1190 Clouds 25 1010 39 10000 5.1 100 13:20 17.06.2020
1191 Clouds 26 1010 44 10000 3.1 120 12:43 17.06.2020
1192 Clouds 26 1010 44 10000 3.1 120 12:23 17.06.2020
1193 Clouds 24 1011 41 10000 3.1 150 11:58 17.06.2020
1194 Thunderstorm 23 1011 64 10000 2.1 260 11:38 17.06.2020
1195 Rain 22 1011 64 10000 2.1 260 11:20 17.06.2020
1196 Rain 25 1012 44 10000 2.1 0 10:39 17.06.2020
1197 Clouds 25 1012 44 10000 1 0 10:19 17.06.2020
1198 Rain 26 1012 44 10000 2.1 0 10:19 17.06.2020
1199 Clouds 26 1012 44 10000 1 0 09:58 17.06.2020
1200 Clouds 26 1012 44 10000 1 0 09:40 17.06.2020
1201 Clouds 24 1012 44 10000 1 0 09:20 17.06.2020
1202 Clouds 21 1012 53 10000 1.96 160 08:45 17.06.2020
1203 Clouds 23 1012 53 10000 1.43 127 08:21 17.06.2020
1204 Clouds 21 1013 72 10000 1.43 127 07:56 17.06.2020
1205 Clouds 21 1013 72 10000 1.43 127 07:38 17.06.2020
1206 Clouds 20 1013 72 10000 1.22 124 07:20 17.06.2020
1207 Clouds 18 1013 82 10000 1.22 124 06:55 17.06.2020
1208 Clouds 17 1013 82 10000 1.22 124 06:37 17.06.2020
1209 Rain 15 1013 82 10000 0.98 132 06:19 17.06.2020
1210 Rain 14 1013 82 10000 1 0 04:53 17.06.2020
1211 Clear 15 1013 82 10000 1.08 214 02:49 17.06.2020
1212 Clear 16 1012 77 10000 0.78 223 01:29 17.06.2020
1213 Clear 17 1012 77 10000 1 0 00:38 17.06.2020
1214 Clear 17 1012 77 10000 1 0 00:19 17.06.2020
1215 Clear 18 1012 72 10000 1 0 23:55 16.06.2020
1216 Clear 18 1012 72 10000 1 0 23:37 16.06.2020
1217 Clear 18 1012 72 10000 1 0 23:18 16.06.2020
1218 Clear 19 1012 60 10000 1.63 218 22:40 16.06.2020
1219 Clear 19 1012 68 10000 1.5 230 22:19 16.06.2020
1220 Clear 19 1012 60 10000 1.32 223 22:19 16.06.2020
1221 Clear 19 1012 68 10000 1.5 230 21:58 16.06.2020
1222 Clear 20 1012 68 10000 1.5 230 21:40 16.06.2020
1223 Clear 20 1012 68 10000 1.5 230 21:22 16.06.2020
1224 Clouds 22 1011 49 10000 1 230 20:57 16.06.2020
1225 Clouds 23 1011 49 10000 1 230 20:39 16.06.2020
1226 Clouds 25 1011 39 10000 0.5 0 20:18 16.06.2020
1227 Clouds 25 1011 39 10000 0.5 0 19:56 16.06.2020
1228 Clouds 25 1011 39 10000 0.5 0 19:37 16.06.2020
1229 Clouds 26 1011 36 10000 3.1 250 19:18 16.06.2020
1230 Clouds 26 1011 36 10000 3.1 250 18:44 16.06.2020
1231 Clouds 26 1011 36 10000 3.1 250 18:21 16.06.2020
1232 Clouds 27 1011 30 10000 4.1 250 17:58 16.06.2020
1233 Clouds 27 1011 30 10000 4.1 250 17:39 16.06.2020
1234 Clouds 27 1011 30 10000 4.1 250 17:21 16.06.2020
1235 Clouds 28 1011 30 10000 4.6 260 16:58 16.06.2020
1236 Clouds 27 1011 30 10000 4.6 260 16:39 16.06.2020
1237 Clouds 27 1011 30 10000 4.6 260 16:20 16.06.2020
1238 Clouds 28 1011 34 10000 2.6 270 15:57 16.06.2020
1239 Clouds 28 1011 34 10000 2.6 270 15:39 16.06.2020
1240 Clouds 27 1011 34 10000 2.6 270 15:21 16.06.2020
1241 Clouds 26 1012 37 10000 4.6 260 14:56 16.06.2020
1242 Clouds 27 1012 37 10000 4.6 260 14:37 16.06.2020
1243 Clouds 27 1012 44 10000 3.1 250 14:19 16.06.2020
1244 Clouds 27 1012 44 10000 3.1 250 13:45 16.06.2020
1245 Clouds 26 1013 41 10000 3.6 210 13:24 16.06.2020
1246 Clouds 26 1013 41 10000 3.6 210 12:42 16.06.2020
1247 Clouds 26 1013 41 10000 3.6 210 12:23 16.06.2020
1248 Clouds 25 1013 47 10000 1 0 11:58 16.06.2020
1249 Clouds 25 1013 47 10000 1 0 11:40 16.06.2020
1250 Clouds 25 1013 47 10000 1 0 11:22 16.06.2020
1251 Clouds 24 1013 53 10000 1 0 10:58 16.06.2020
1252 Clouds 23 1013 53 10000 1 0 10:38 16.06.2020
1253 Clouds 23 1013 53 10000 1 0 10:20 16.06.2020
1254 Clouds 21 1013 64 10000 2.6 50 09:44 16.06.2020
1255 Clouds 21 1013 64 10000 2.6 50 09:23 16.06.2020
1256 Clouds 20 1014 72 10000 1 100 08:53 16.06.2020
1257 Clouds 19 1014 72 10000 1 100 08:32 16.06.2020
1258 Clouds 17 1014 82 10000 2.6 60 07:52 16.06.2020
1259 Clouds 17 1014 82 10000 2.6 60 07:30 16.06.2020
1260 Clouds 16 1014 93 10000 2.1 20 06:57 16.06.2020
1261 Clouds 15 1014 93 10000 2.1 20 06:34 16.06.2020
1262 Clouds 14 1014 93 10000 2.6 220 05:52 16.06.2020
1263 Clouds 14 1014 93 10000 1 0 04:55 16.06.2020
1264 Clouds 14 1013 100 10000 1.5 230 03:55 16.06.2020
1265 Clouds 13 1013 93 10000 0.5 80 02:35 16.06.2020
1266 Clouds 14 1013 93 10000 0.16 291 01:33 16.06.2020
1267 Clouds 14 1013 93 10000 0.08 244 00:55 16.06.2020
1268 Clouds 15 1013 93 10000 0.65 232 00:22 16.06.2020
1269 Clouds 15 1013 93 10000 0.65 232 23:55 15.06.2020
1270 Clouds 15 1013 93 10000 0.65 232 23:37 15.06.2020
1271 Clouds 15 1013 93 10000 1.64 225 23:19 15.06.2020
1272 Clouds 16 1013 88 10000 1.5 220 22:42 15.06.2020
1273 Clouds 16 1013 88 10000 1.5 220 22:22 15.06.2020
1274 Clouds 16 1013 93 10000 1.36 215 21:58 15.06.2020
1275 Clouds 16 1013 93 10000 1.36 215 21:58 15.06.2020
1276 Clouds 16 1013 93 10000 1.36 215 21:58 15.06.2020
1277 Clouds 17 1013 93 10000 1.4 197 21:38 15.06.2020
1278 Clouds 17 1013 93 10000 1.25 184 21:20 15.06.2020
1279 Clouds 17 1013 88 10000 1 0 20:57 15.06.2020
1280 Clouds 17 1013 88 10000 1 0 20:38 15.06.2020
1281 Clouds 17 1013 88 10000 1 0 20:19 15.06.2020
1282 Clouds 18 1013 82 10000 1 0 19:57 15.06.2020
1283 Clouds 18 1013 82 10000 1 0 19:38 15.06.2020
1284 Clouds 18 1013 82 10000 1 0 19:20 15.06.2020
1285 Rain 18 1013 82 10000 1 0 18:56 15.06.2020
1286 Rain 18 1013 82 10000 1 0 18:37 15.06.2020
1287 Rain 18 1013 82 10000 1 0 18:19 15.06.2020
1288 Clouds 18 1013 77 10000 2.21 165 17:56 15.06.2020
1289 Clouds 18 1013 77 10000 2.21 165 17:37 15.06.2020
1290 Clouds 18 1013 82 10000 2.1 110 17:18 15.06.2020
1291 Rain 18 1013 82 10000 2.1 110 16:41 15.06.2020
1292 Rain 17 1013 82 10000 2.1 110 16:19 15.06.2020
1293 Rain 16 1013 82 10000 1.5 200 15:56 15.06.2020
1294 Rain 16 1013 82 10000 4.1 270 15:38 15.06.2020
1295 Rain 18 1012 56 10000 8.2 290 15:19 15.06.2020
1296 Thunderstorm 19 1012 56 10000 8.2 290 14:42 15.06.2020
1297 Thunderstorm 19 1012 56 10000 8.2 290 14:21 15.06.2020
1298 Clouds 20 1012 60 10000 1 0 13:59 15.06.2020
1299 Clouds 20 1012 60 10000 1 0 13:41 15.06.2020
1300 Clouds 20 1012 60 10000 1 0 13:22 15.06.2020
1301 Clouds 18 1013 77 10000 1 0 12:58 15.06.2020
1302 Clouds 18 1013 77 10000 1 0 12:39 15.06.2020
1303 Clouds 18 1013 77 10000 1 0 12:21 15.06.2020
1304 Clouds 18 1013 77 10000 1 0 11:44 15.06.2020
1305 Rain 18 1013 77 10000 1 0 11:25 15.06.2020
1306 Rain 17 1013 82 10000 0.61 148 10:56 15.06.2020
1307 Rain 17 1013 82 10000 0.61 148 10:36 15.06.2020
1308 Rain 17 1013 82 10000 1.86 132 10:18 15.06.2020
1309 Rain 16 1013 93 8000 1.5 290 09:41 15.06.2020
1310 Rain 16 1013 93 8000 1.5 290 09:21 15.06.2020
1311 Rain 17 1013 72 10000 1 0 08:42 15.06.2020
1312 Rain 17 1013 72 10000 1 0 08:23 15.06.2020
1313 Clouds 18 1013 72 10000 1 227 07:48 15.06.2020
1314 Clouds 18 1013 72 10000 1.7 239 07:29 15.06.2020
1315 Clouds 17 1012 82 10000 1.7 239 06:50 15.06.2020
1316 Clouds 17 1012 82 10000 2.37 232 06:26 15.06.2020
1317 Rain 16 1012 82 10000 2.37 232 05:47 15.06.2020
1318 Rain 16 1012 82 10000 1.44 220 05:27 15.06.2020
1319 Clouds 16 1011 87 10000 1.21 216 04:21 15.06.2020
1320 Rain 16 1011 87 10000 0.5 20 03:47 15.06.2020
1321 Clouds 17 1011 67 10000 1.5 230 02:55 15.06.2020
1322 Clouds 17 1011 72 10000 1 270 01:58 15.06.2020
1323 Clouds 16 1011 72 10000 1 270 01:37 15.06.2020
1324 Clouds 16 1011 72 10000 1 270 01:18 15.06.2020
1325 Clouds 17 1011 63 10000 1.62 203 00:39 15.06.2020
1326 Clouds 17 1011 67 10000 1.31 196 00:20 15.06.2020
1327 Clouds 17 1011 67 10000 1.31 196 23:47 14.06.2020
1328 Clouds 17 1011 67 10000 1.04 201 23:25 14.06.2020
1329 Clouds 17 1011 63 10000 1 230 22:58 14.06.2020
1330 Clouds 18 1011 63 10000 1 230 22:39 14.06.2020
1331 Clouds 19 1011 59 10000 0.88 206 22:20 14.06.2020
1332 Clouds 19 1011 59 10000 0.88 206 21:57 14.06.2020
1333 Clouds 19 1011 59 10000 0.88 206 21:39 14.06.2020
1334 Clouds 19 1011 59 10000 1.42 155 21:19 14.06.2020
1335 Clouds 19 1011 49 10000 1.42 155 20:58 14.06.2020
1336 Clouds 19 1011 49 10000 1.42 155 20:39 14.06.2020
1337 Clouds 19 1011 49 10000 0.86 138 20:20 14.06.2020
1338 Clouds 20 1010 43 10000 1 0 19:59 14.06.2020
1339 Clouds 20 1010 43 10000 1 0 19:38 14.06.2020
1340 Clouds 20 1010 43 10000 1 0 19:19 14.06.2020
1341 Clouds 20 1010 43 10000 3.6 250 18:57 14.06.2020
1342 Clouds 20 1010 43 10000 3.6 250 18:39 14.06.2020
1343 Clouds 21 1010 43 10000 3.6 250 18:20 14.06.2020
1344 Clouds 21 1009 46 10000 4.1 260 17:58 14.06.2020
1345 Clouds 22 1009 46 10000 4.1 260 17:39 14.06.2020
1346 Clouds 22 1009 46 10000 4.1 260 17:20 14.06.2020
1347 Clouds 22 1009 33 10000 3.6 260 16:41 14.06.2020
1348 Clouds 22 1009 33 10000 3.6 260 16:22 14.06.2020
1349 Clouds 22 1010 40 10000 5.1 260 15:59 14.06.2020
1350 Clouds 22 1010 40 10000 5.1 260 15:41 14.06.2020
1351 Clouds 22 1010 40 10000 5.1 260 15:19 14.06.2020
1352 Clouds 21 1011 43 10000 4.6 290 14:59 14.06.2020
1353 Clouds 21 1011 43 10000 4.6 290 14:59 14.06.2020
1354 Clouds 21 1011 43 10000 4.6 290 14:40 14.06.2020
1355 Clouds 21 1010 56 10000 8.2 290 14:21 14.06.2020
1356 Clouds 20 1010 56 10000 8.2 290 13:56 14.06.2020
1357 Clouds 19 1010 56 10000 8.2 290 13:38 14.06.2020
1358 Clouds 20 1010 56 10000 8.2 290 13:19 14.06.2020
1359 Clouds 21 1010 46 10000 3.1 290 12:55 14.06.2020
1360 Clouds 21 1010 46 10000 3.1 290 12:37 14.06.2020
1361 Clouds 20 1010 52 10000 3.6 0 12:18 14.06.2020
1362 Clouds 21 1010 52 10000 3.6 0 11:56 14.06.2020
1363 Clouds 20 1010 52 10000 3.6 0 11:37 14.06.2020
1364 Clouds 19 1011 59 10000 1 280 11:18 14.06.2020
1365 Clouds 19 1011 59 10000 1 280 10:41 14.06.2020
1366 Clouds 18 1011 59 10000 1 280 10:19 14.06.2020
1367 Clouds 18 1011 63 10000 1.5 0 09:45 14.06.2020
1368 Clouds 17 1011 63 10000 1.5 0 09:25 14.06.2020
1369 Clouds 17 1011 72 10000 3.32 248 08:54 14.06.2020
1370 Clouds 16 1011 72 10000 3.32 248 08:36 14.06.2020
1371 Clouds 15 1011 77 10000 2.44 252 08:18 14.06.2020
1372 Clouds 15 1011 77 10000 2.44 252 07:44 14.06.2020
1373 Clouds 15 1011 77 10000 1.68 241 07:26 14.06.2020
1374 Clouds 13 1010 87 10000 1.06 209 06:26 14.06.2020
1375 Clouds 12 1010 93 10000 0.5 200 05:40 14.06.2020
1376 Clouds 12 1009 93 10000 0.81 228 04:53 14.06.2020
1377 Clouds 12 1009 93 10000 0.8 246 04:28 14.06.2020
1378 Clouds 12 1009 87 10000 1 230 02:53 14.06.2020
1379 Clouds 12 1009 87 10000 1 230 02:23 14.06.2020
1380 Clouds 12 1009 87 10000 1 0 01:36 14.06.2020
1381 Clouds 13 1009 82 10000 1 0 00:52 14.06.2020
1382 Clouds 13 1009 82 10000 1 0 00:34 14.06.2020
1383 Clouds 14 1010 77 10000 1 0 23:59 13.06.2020
1384 Clouds 14 1010 77 10000 1 0 23:41 13.06.2020
1385 Clouds 14 1010 77 10000 1 0 23:22 13.06.2020
1386 Clouds 14 1009 77 10000 0.83 270 22:56 13.06.2020
1387 Clouds 14 1009 77 10000 0.83 270 22:36 13.06.2020
1388 Clouds 14 1009 77 10000 1.21 279 22:18 13.06.2020
1389 Clouds 14 1009 77 10000 1.21 279 21:43 13.06.2020
1390 Clouds 14 1009 77 10000 0.74 337 21:24 13.06.2020
1391 Clouds 14 1009 77 10000 2.1 260 20:59 13.06.2020
1392 Clouds 14 1009 77 10000 2.1 260 20:41 13.06.2020
1393 Clouds 14 1009 67 10000 1.5 220 20:19 13.06.2020
1394 Clouds 14 1009 67 10000 1.5 220 19:42 13.06.2020
1395 Clouds 15 1009 67 10000 1.5 220 19:20 13.06.2020
1396 Clouds 15 1008 72 10000 1.5 240 18:59 13.06.2020
1397 Clouds 15 1008 72 10000 1.5 240 18:40 13.06.2020
1398 Clouds 16 1008 72 10000 1.5 240 18:20 13.06.2020
1399 Clouds 16 1009 72 10000 1 0 17:58 13.06.2020
1400 Clouds 15 1009 72 10000 1 0 17:40 13.06.2020
1401 Clouds 15 1009 72 10000 2.1 220 17:22 13.06.2020
1402 Clouds 15 1009 72 10000 2.1 220 16:55 13.06.2020
1403 Clouds 15 1009 72 10000 2.1 220 16:37 13.06.2020
1404 Clouds 15 1009 82 10000 1.5 230 16:18 13.06.2020
1405 Rain 14 1009 87 10000 1.5 240 15:44 13.06.2020
1406 Rain 14 1009 87 10000 1.5 240 15:26 13.06.2020
1407 Rain 13 1010 87 10000 1 0 14:55 13.06.2020
1408 Rain 13 1010 87 10000 1 0 14:36 13.06.2020
1409 Rain 12 1010 93 10000 2.1 90 14:18 13.06.2020
1410 Rain 12 1010 93 10000 2.1 90 13:41 13.06.2020
1411 Rain 12 1010 93 10000 2.1 90 13:23 13.06.2020
1412 Rain 13 1011 87 10000 2.6 20 12:44 13.06.2020
1413 Rain 13 1011 87 10000 2.6 20 12:26 13.06.2020
1414 Rain 15 1010 77 10000 3.6 220 11:59 13.06.2020
1415 Rain 15 1010 77 10000 3.6 220 11:39 13.06.2020
1416 Rain 15 1010 77 10000 3.6 220 11:19 13.06.2020
1417 Clouds 15 1009 72 10000 5.1 220 10:57 13.06.2020
1418 Clouds 15 1009 72 10000 5.1 220 10:38 13.06.2020
1419 Clouds 15 1009 72 10000 5.1 220 10:19 13.06.2020
1420 Clouds 15 1009 72 10000 5.1 220 09:44 13.06.2020
1421 Clouds 15 1009 72 10000 5.1 220 09:25 13.06.2020
1422 Clouds 16 1009 67 10000 1.5 270 08:49 13.06.2020
1423 Clouds 16 1009 67 10000 1.5 270 08:31 13.06.2020
1424 Clouds 15 1009 72 10000 0.5 0 07:55 13.06.2020
1425 Clouds 15 1009 72 10000 0.5 0 07:30 13.06.2020
1426 Clouds 14 1009 82 10000 2.1 250 06:51 13.06.2020
1427 Clouds 14 1009 82 10000 2.1 250 06:33 13.06.2020
1428 Clouds 13 1009 87 10000 1.5 300 05:47 13.06.2020
1429 Clouds 13 1009 87 10000 1.5 300 05:25 13.06.2020
1430 Clouds 14 1009 71 10000 2.6 220 03:48 13.06.2020
1431 Clouds 14 1010 76 10000 2.1 320 02:54 13.06.2020
1432 Clouds 14 1010 76 10000 2.1 320 02:34 13.06.2020
1433 Clouds 15 1009 72 10000 2.6 290 01:45 13.06.2020
1434 Clouds 15 1009 72 10000 2.6 290 01:19 13.06.2020
1435 Clouds 15 1010 63 10000 1.3 241 00:42 13.06.2020
1436 Clouds 15 1010 63 10000 0.85 219 00:23 13.06.2020
1437 Clouds 15 1010 63 10000 1.5 270 23:41 12.06.2020
1438 Clouds 15 1010 63 10000 1.5 270 23:19 12.06.2020
1439 Clouds 15 1010 59 10000 3.1 20 22:59 12.06.2020
1440 Clouds 16 1010 59 10000 3.1 20 22:40 12.06.2020
1441 Clouds 16 1010 59 10000 3.1 20 22:19 12.06.2020
1442 Clouds 17 1009 59 10000 2.1 0 21:47 12.06.2020
1443 Clouds 16 1009 59 10000 2.1 0 21:24 12.06.2020
1444 Clouds 17 1009 67 10000 0.5 0 20:58 12.06.2020
1445 Clouds 17 1009 67 10000 0.5 0 20:40 12.06.2020
1446 Clouds 17 1009 67 10000 0.5 0 20:22 12.06.2020
1447 Rain 17 1009 67 10000 0.5 0 19:56 12.06.2020
1448 Rain 17 1009 55 10000 1.5 160 19:38 12.06.2020
1449 Rain 17 1009 55 10000 1.5 160 19:18 12.06.2020
1450 Clouds 17 1008 59 10000 1 0 18:39 12.06.2020
1451 Clouds 18 1008 59 10000 1 0 18:18 12.06.2020
1452 Rain 18 1009 52 10000 4.6 180 17:47 12.06.2020
1453 Rain 18 1009 52 10000 4.6 180 17:27 12.06.2020
1454 Rain 18 1009 52 10000 4.6 180 16:59 12.06.2020
1455 Clouds 19 1009 45 10000 5.7 200 16:40 12.06.2020
1456 Clouds 19 1009 45 10000 5.7 200 16:19 12.06.2020
1457 Clouds 21 1008 40 10000 7.2 230 15:45 12.06.2020
1458 Thunderstorm 24 1007 36 10000 7.7 250 15:25 12.06.2020
1459 Thunderstorm 24 1007 36 10000 7.7 250 14:55 12.06.2020
1460 Thunderstorm 22 1007 36 10000 7.7 250 14:36 12.06.2020
1461 Clouds 24 1008 33 10000 4.1 220 14:18 12.06.2020
1462 Clouds 25 1008 33 10000 4.1 220 13:41 12.06.2020
1463 Clouds 23 1009 43 10000 2.1 0 13:20 12.06.2020
1464 Clouds 23 1009 43 10000 2.1 0 12:40 12.06.2020
1465 Clouds 23 1009 43 10000 2.1 0 12:20 12.06.2020
1466 Clouds 23 1009 46 10000 2.1 270 11:57 12.06.2020
1467 Clouds 23 1009 46 10000 2.1 270 11:38 12.06.2020
1468 Clouds 23 1009 46 10000 2.1 270 11:19 12.06.2020
1469 Clouds 23 1009 46 10000 2.1 270 11:19 12.06.2020
1470 Clouds 22 1010 49 10000 1.5 270 10:45 12.06.2020
1471 Clouds 22 1010 49 10000 1.5 270 10:24 12.06.2020
1472 Clouds 20 1010 59 10000 1 0 09:45 12.06.2020
1473 Clouds 20 1010 59 10000 1 0 09:21 12.06.2020
1474 Clouds 18 1010 63 10000 1 0 08:44 12.06.2020
1475 Clouds 18 1010 63 10000 1 0 08:25 12.06.2020
1476 Clouds 17 1010 77 10000 1 0 07:44 12.06.2020
1477 Clouds 17 1010 77 10000 1 0 07:44 12.06.2020
1478 Clouds 16 1010 77 10000 1 0 07:26 12.06.2020
1479 Clouds 15 1010 87 10000 1.41 229 06:55 12.06.2020
1480 Clouds 14 1010 87 10000 1.09 225 06:30 12.06.2020
1481 Clouds 13 1010 87 10000 0.5 40 05:55 12.06.2020
1482 Clouds 13 1010 87 10000 0.5 40 05:31 12.06.2020
1483 Clouds 13 1010 93 10000 1.5 250 04:59 12.06.2020
1484 Clouds 14 1010 87 10000 0.5 230 03:24 12.06.2020
1485 Clouds 14 1011 87 10000 2.6 220 01:55 12.06.2020
1486 Clouds 14 1011 87 10000 2.6 220 01:27 12.06.2020
1487 Clouds 14 1010 87 10000 2.1 220 00:47 12.06.2020
1488 Clouds 14 1010 87 10000 2.1 220 00:26 12.06.2020
1489 Clouds 15 1010 87 10000 1.5 230 23:59 11.06.2020
1490 Clouds 15 1010 87 10000 1.5 230 23:41 11.06.2020
1491 Clouds 15 1010 87 10000 1.5 230 23:21 11.06.2020
1492 Clouds 15 1010 87 10000 1 0 22:59 11.06.2020
1493 Clouds 15 1010 87 10000 1 0 22:39 11.06.2020
1494 Clouds 15 1010 87 10000 1 0 22:39 11.06.2020
1495 Clouds 15 1010 87 10000 1 0 22:20 11.06.2020
1496 Clouds 15 1011 77 10000 3.1 120 21:56 11.06.2020
1497 Clouds 15 1011 77 10000 3.1 120 21:38 11.06.2020
1498 Clouds 15 1010 87 10000 6.7 70 21:20 11.06.2020
1499 Rain 15 1010 87 10000 6.7 70 20:45 11.06.2020
1500 Rain 15 1010 87 10000 6.7 70 20:21 11.06.2020
1501 Rain 14 1011 87 10000 2.6 170 19:55 11.06.2020
1502 Rain 14 1011 87 10000 2.6 170 19:36 11.06.2020
1503 Rain 14 1011 87 10000 2.6 170 19:18 11.06.2020
1504 Clouds 23 1008 38 10000 4.1 30 18:41 11.06.2020
1505 Clouds 23 1008 38 10000 4.1 30 18:22 11.06.2020
1506 Clouds 24 1007 44 10000 3.1 60 17:57 11.06.2020
1507 Clouds 24 1007 44 10000 3.1 60 17:38 11.06.2020
1508 Clouds 24 1007 44 10000 3.1 60 17:19 11.06.2020
1509 Clouds 25 1007 34 10000 5.7 310 16:56 11.06.2020
1510 Clouds 25 1007 34 10000 5.7 310 16:38 11.06.2020
1511 Clouds 25 1007 34 10000 5.7 310 16:38 11.06.2020
1512 Clouds 24 1008 36 10000 6.2 250 16:19 11.06.2020
1513 Clouds 24 1008 36 10000 6.2 250 15:42 11.06.2020
1514 Clouds 25 1008 36 10000 6.2 250 15:23 11.06.2020
1515 Clouds 25 1008 34 10000 7.7 260 14:56 11.06.2020
1516 Clouds 25 1008 34 10000 7.7 260 14:38 11.06.2020
1517 Rain 24 1008 44 10000 8.7 260 14:20 11.06.2020
1518 Clouds 27 1008 26 10000 4.6 270 13:54 11.06.2020
1519 Clouds 27 1008 26 10000 4.6 270 13:36 11.06.2020
1520 Clouds 28 1008 26 10000 4.6 270 13:18 11.06.2020
1521 Thunderstorm 27 1009 34 10000 2.1 320 12:39 11.06.2020
1522 Thunderstorm 27 1009 34 10000 2.1 320 12:21 11.06.2020
1523 Clouds 26 1009 39 10000 3.1 0 11:59 11.06.2020
1524 Clouds 26 1009 39 10000 3.1 0 11:41 11.06.2020
1525 Clouds 25 1009 39 10000 3.1 0 11:23 11.06.2020
1526 Clouds 24 1010 44 10000 2.6 0 10:59 11.06.2020
1527 Clouds 24 1010 44 10000 2.6 0 10:41 11.06.2020
1528 Clouds 23 1010 44 10000 2.6 0 10:18 11.06.2020
1529 Clouds 23 1010 46 10000 1.5 260 09:44 11.06.2020
1530 Clouds 21 1011 64 10000 0.5 0 09:26 11.06.2020
1531 Clouds 21 1011 64 10000 0.5 0 08:54 11.06.2020
1532 Clouds 21 1011 64 10000 0.5 0 08:36 11.06.2020
1533 Clouds 21 1011 64 10000 0.5 0 08:18 11.06.2020
1534 Clouds 19 1011 72 10000 1.68 278 07:41 11.06.2020
1535 Clouds 19 1011 72 10000 0.84 277 07:22 11.06.2020
1536 Clouds 16 1011 87 10000 1.5 200 06:31 11.06.2020
1537 Clouds 16 1011 87 10000 1.5 200 06:31 11.06.2020
1538 Clouds 15 1011 87 10000 0.13 157 05:54 11.06.2020
1539 Clouds 16 1010 87 10000 3.6 270 03:59 11.06.2020
1540 Clouds 16 1010 87 10000 3.6 270 03:25 11.06.2020
1541 Clouds 15 1010 82 10000 1 0 02:45 11.06.2020
1542 Clouds 17 1011 77 10000 1.5 90 01:56 11.06.2020
1543 Rain 17 1012 72 10000 2.1 230 01:34 11.06.2020
1544 Rain 17 1012 72 10000 2.1 230 00:52 11.06.2020
1545 Rain 17 1012 72 10000 2.1 230 00:32 11.06.2020
1546 Clouds 17 1011 63 10000 3.1 270 23:56 10.06.2020
1547 Clouds 17 1011 63 10000 3.1 270 23:37 10.06.2020
1548 Clouds 17 1011 63 10000 3.1 270 23:18 10.06.2020
1549 Clouds 17 1011 63 10000 2.6 220 22:40 10.06.2020
1550 Clouds 18 1011 63 10000 2.6 220 22:22 10.06.2020
1551 Clouds 17 1011 63 10000 1.5 240 21:58 10.06.2020
1552 Clouds 17 1011 63 10000 1.5 240 21:40 10.06.2020
1553 Clouds 18 1011 63 10000 1.5 240 21:19 10.06.2020
1554 Clouds 18 1011 59 10000 0.5 0 20:58 10.06.2020
1555 Clouds 19 1011 59 10000 0.5 0 20:39 10.06.2020
1556 Clouds 19 1011 59 10000 0.5 0 20:21 10.06.2020
1557 Clouds 20 1010 49 10000 1.5 0 19:58 10.06.2020
1558 Clouds 20 1010 49 10000 1.5 0 19:37 10.06.2020
1559 Clouds 20 1010 49 10000 1.5 0 19:18 10.06.2020
1560 Clouds 21 1011 56 10000 3.1 0 18:42 10.06.2020
1561 Clouds 21 1011 56 10000 3.1 0 18:20 10.06.2020
1562 Clouds 23 1011 36 10000 7.2 240 17:59 10.06.2020
1563 Clouds 23 1011 36 10000 7.2 240 17:41 10.06.2020
1564 Clouds 24 1009 41 10000 4.1 250 17:20 10.06.2020
1565 Clouds 24 1009 41 10000 4.1 250 16:58 10.06.2020
1566 Clouds 24 1009 41 10000 4.1 250 16:40 10.06.2020
1567 Clouds 24 1010 47 10000 4.1 300 16:20 10.06.2020
1568 Clouds 24 1010 47 10000 4.1 300 16:20 10.06.2020
1569 Clouds 24 1010 47 10000 4.1 300 16:20 10.06.2020
1570 Clouds 24 1010 47 10000 4.1 300 16:20 10.06.2020
1571 Thunderstorm 25 1009 27 10000 11.8 220 15:55 10.06.2020
1572 Thunderstorm 25 1009 27 10000 11.8 220 15:36 10.06.2020
1573 Thunderstorm 25 1009 27 10000 11.8 220 15:18 10.06.2020
1574 Thunderstorm 27 1010 29 10000 8.7 240 14:40 10.06.2020
1575 Clouds 30 1009 22 10000 2.1 230 14:21 10.06.2020
1576 Clouds 30 1009 22 10000 2.1 230 13:44 10.06.2020
1577 Clouds 30 1009 22 10000 2.1 230 13:22 10.06.2020
1578 Clouds 31 1010 22 10000 2.1 0 12:58 10.06.2020
1579 Clouds 31 1010 22 10000 2.1 0 12:39 10.06.2020
1580 Clouds 31 1010 22 10000 2.1 0 12:18 10.06.2020
1581 Clouds 31 1011 25 10000 1.5 0 11:44 10.06.2020
1582 Clouds 31 1011 25 10000 1.5 0 11:20 10.06.2020
1583 Clear 30 1011 25 10000 2.6 50 10:58 10.06.2020
1584 Clear 30 1011 25 10000 2.6 50 10:40 10.06.2020
1585 Clear 30 1011 25 10000 2.6 50 10:40 10.06.2020
1586 Clear 30 1011 25 10000 2.6 50 10:21 10.06.2020
1587 Clear 28 1011 32 10000 1.5 70 09:44 10.06.2020
1588 Clouds 27 1011 32 10000 1.5 70 09:25 10.06.2020
1589 Clouds 25 1012 36 10000 4.1 70 08:59 10.06.2020
1590 Clouds 25 1012 44 10000 2.1 110 08:41 10.06.2020
1591 Clouds 25 1012 46 10000 2.1 100 08:22 10.06.2020
1592 Clouds 22 1013 49 10000 0.5 0 07:42 10.06.2020
1593 Clouds 22 1013 52 10000 0.5 0 07:23 10.06.2020
1594 Clouds 20 1013 59 10000 0.5 0 06:52 10.06.2020
1595 Clouds 19 1013 67 10000 0.5 0 06:33 10.06.2020
1596 Clouds 16 1012 63 10000 3.6 120 05:59 10.06.2020
1597 Clouds 14 1012 71 10000 1 0 05:30 10.06.2020
1598 Clouds 15 1012 67 10000 1 0 04:48 10.06.2020
1599 Clouds 15 1012 62 10000 1 0 04:28 10.06.2020
1600 Clouds 16 1012 63 10000 2.29 50 02:24 10.06.2020
1601 Clear 17 1012 55 10000 2.46 53 01:40 10.06.2020
1602 Clear 20 1011 38 10000 2.68 53 00:42 10.06.2020
1603 Clear 21 1011 38 10000 3.37 44 00:23 10.06.2020
1604 Clear 22 1011 40 10000 3.37 44 23:59 09.06.2020
1605 Clear 21 1011 40 10000 3.37 44 23:41 09.06.2020
1606 Clear 22 1011 46 10000 2.6 240 23:22 09.06.2020
1607 Clear 22 1011 46 10000 2.6 240 22:56 09.06.2020
1608 Clear 22 1011 46 10000 2.6 240 22:38 09.06.2020
1609 Clear 22 1011 46 10000 2.6 240 22:20 09.06.2020
1610 Clear 24 1011 31 10000 2.1 230 21:57 09.06.2020
1611 Clear 24 1011 31 10000 2.1 230 21:38 09.06.2020
1612 Clouds 22 1012 46 10000 2.1 360 21:20 09.06.2020
1613 Clouds 23 1012 40 10000 2.1 10 20:57 09.06.2020
1614 Clouds 23 1012 46 10000 2.1 360 20:38 09.06.2020
1615 Clouds 27 1010 26 10000 1 290 20:20 09.06.2020
1616 Clouds 27 1010 26 10000 1 290 20:20 09.06.2020
1617 Clouds 28 1010 26 10000 1 290 19:57 09.06.2020
1618 Clouds 28 1010 26 10000 1 290 19:39 09.06.2020
1619 Clouds 28 1010 26 10000 1 290 19:39 09.06.2020
1620 Clouds 29 1010 26 10000 1 290 19:20 09.06.2020
1621 Clouds 30 1010 20 10000 0.5 0 18:56 09.06.2020
1622 Clouds 30 1010 20 10000 0.5 0 18:38 09.06.2020
1623 Clouds 31 1010 20 10000 0.5 0 18:18 09.06.2020
1624 Clouds 31 1010 18 10000 1 0 17:55 09.06.2020
1625 Clouds 31 1010 18 10000 1 0 17:36 09.06.2020
1626 Clouds 32 1010 18 10000 1 0 17:18 09.06.2020
1627 Clouds 32 1010 17 10000 2.1 60 16:42 09.06.2020
1628 Clouds 31 1010 17 10000 2.1 60 16:22 09.06.2020
1629 Clouds 31 1011 21 10000 3.1 220 15:55 09.06.2020
1630 Clouds 31 1011 21 10000 3.1 220 15:37 09.06.2020
1631 Clouds 31 1011 21 10000 3.1 220 15:18 09.06.2020
1632 Clouds 31 1011 25 10000 3.09 278 14:41 09.06.2020
1633 Clouds 31 1011 25 10000 2.43 254 14:21 09.06.2020
1634 Clouds 31 1012 25 10000 2.1 0 13:58 09.06.2020
1635 Clouds 31 1012 25 10000 2.1 0 13:58 09.06.2020
1636 Clouds 31 1012 25 10000 2.1 0 13:39 09.06.2020
1637 Clouds 31 1012 25 10000 2.1 0 13:20 09.06.2020
1638 Clouds 30 1012 27 10000 0.5 40 12:43 09.06.2020
1639 Clouds 30 1012 27 10000 0.5 40 12:21 09.06.2020
1640 Clouds 29 1012 27 10000 2.1 230 11:59 09.06.2020
1641 Clouds 29 1012 27 10000 2.1 230 11:40 09.06.2020
1642 Clouds 28 1012 28 10000 1.5 0 11:20 09.06.2020
1643 Clouds 28 1012 28 10000 1.5 0 10:58 09.06.2020
1644 Clouds 28 1012 28 10000 1.5 0 10:40 09.06.2020
1645 Clouds 27 1012 32 10000 1 0 10:21 09.06.2020
1646 Clouds 26 1012 32 10000 1 0 09:43 09.06.2020
1647 Clouds 25 1012 32 10000 1 0 09:24 09.06.2020
1648 Clouds 24 1013 36 10000 1 0 08:56 09.06.2020
1649 Clouds 22 1013 49 10000 1 0 08:37 09.06.2020
1650 Clear 23 1013 43 10000 0.76 110 08:19 09.06.2020
1651 Clear 22 1013 43 10000 0.76 110 07:38 09.06.2020
1652 Clear 22 1013 43 10000 0.94 73 07:19 09.06.2020
1653 Clear 20 1013 55 10000 0.94 73 06:53 09.06.2020
1654 Clear 19 1013 55 10000 0.94 73 06:33 09.06.2020
1655 Clear 15 1013 59 10000 1.14 67 05:23 09.06.2020
1656 Clear 19 1011 43 10000 0.5 230 02:56 09.06.2020
1657 Clouds 20 1011 37 10000 0.5 0 01:41 09.06.2020
1658 Clouds 20 1011 37 10000 0.5 0 01:19 09.06.2020
1659 Clouds 20 1011 37 10000 0.5 0 01:19 09.06.2020
1660 Clouds 21 1011 37 10000 4.6 60 00:45 09.06.2020
1661 Clouds 21 1011 37 10000 4.6 60 00:20 09.06.2020
1662 Clouds 23 1011 33 10000 7.2 60 23:55 08.06.2020
1663 Clouds 22 1011 33 10000 7.2 60 23:37 08.06.2020
1664 Clouds 23 1011 33 10000 7.2 60 23:19 08.06.2020
1665 Clouds 24 1011 31 10000 8.2 60 22:41 08.06.2020
1666 Clouds 23 1011 33 10000 2.1 350 22:22 08.06.2020
1667 Clouds 23 1011 33 10000 2.1 350 21:58 08.06.2020
1668 Clouds 23 1011 33 10000 2.1 350 21:40 08.06.2020
1669 Clouds 23 1011 33 10000 2.1 350 21:40 08.06.2020
1670 Clouds 23 1011 38 10000 2.1 0 21:21 08.06.2020
1671 Clouds 23 1011 36 10000 5.7 360 20:57 08.06.2020
1672 Clouds 24 1011 36 10000 5.7 360 20:39 08.06.2020
1673 Clouds 26 1010 29 10000 2.6 80 20:20 08.06.2020
1674 Clouds 26 1010 29 10000 1.5 330 19:44 08.06.2020
1675 Clouds 28 1010 28 10000 2.1 260 19:22 08.06.2020
1676 Clouds 29 1010 25 10000 3.1 300 18:59 08.06.2020
1677 Clouds 30 1010 23 10000 5.1 270 18:40 08.06.2020
1678 Clouds 31 1008 18 10000 3.1 0 18:18 08.06.2020
1679 Clouds 32 1008 18 10000 3.1 0 17:55 08.06.2020
1680 Clouds 31 1008 18 10000 3.1 0 17:37 08.06.2020
1681 Clouds 31 1008 18 10000 3.1 0 17:37 08.06.2020
1682 Clouds 32 1008 15 10000 4.6 190 17:18 08.06.2020
1683 Clouds 32 1008 15 10000 4.6 190 16:44 08.06.2020
1684 Clouds 32 1008 15 10000 4.6 190 16:23 08.06.2020
1685 Clouds 32 1009 16 10000 4.1 190 15:57 08.06.2020
1686 Clouds 32 1009 16 10000 4.1 190 15:39 08.06.2020
1687 Clouds 32 1009 18 10000 2.6 220 15:19 08.06.2020
1688 Clouds 32 1009 18 10000 2.6 220 14:41 08.06.2020
1689 Clouds 32 1009 18 10000 2.6 220 14:22 08.06.2020
1690 Clouds 31 1010 22 10000 3.1 0 13:56 08.06.2020
1691 Clouds 31 1010 22 10000 2.1 0 13:38 08.06.2020
1692 Clouds 31 1010 19 10000 0.5 0 13:19 08.06.2020
1693 Clouds 31 1010 19 10000 0.5 0 12:40 08.06.2020
1694 Clouds 31 1010 19 10000 0.5 0 12:19 08.06.2020
1695 Clear 29 1011 22 10000 3.1 250 11:42 08.06.2020
1696 Clear 30 1011 22 10000 3.1 250 11:24 08.06.2020
1697 Clear 28 1011 24 10000 1 170 10:59 08.06.2020
1698 Clear 28 1011 24 10000 1 170 10:40 08.06.2020
1699 Clear 27 1011 24 10000 1 170 10:21 08.06.2020
1700 -273 0 0 0 0 0 10:00 08.06.2020
1701 Clear 26 1011 29 10000 1 0 09:41 08.06.2020
1702 Clear 25 1011 29 10000 1 0 09:23 08.06.2020
1703 Clear 23 1012 33 10000 1 0 08:49 08.06.2020
1704 Clear 23 1012 33 10000 1 0 08:23 08.06.2020
1705 Clear 21 1012 42 10000 0.82 148 07:48 08.06.2020
1706 Clear 20 1012 42 10000 0.53 110 07:24 08.06.2020
1707 Clear 18 1012 54 10000 0.53 110 06:54 08.06.2020
1708 Clear 18 1012 54 10000 0.53 110 06:36 08.06.2020
1709 Clear 13 1011 54 10000 0.12 144 05:54 08.06.2020
1710 Clear 13 1011 58 10000 0.5 0 04:35 08.06.2020
1711 Clear 14 1011 51 10000 0.5 0 02:54 08.06.2020
1712 Clear 15 1011 48 10000 1.25 163 02:25 08.06.2020
1713 Clear 16 1011 48 10000 1.16 162 01:38 08.06.2020
1714 Clear 17 1011 45 10000 1 0 00:41 08.06.2020
1715 Clear 17 1011 45 10000 1 0 00:18 08.06.2020
1716 Clear 18 1011 40 10000 1.5 210 23:37 07.06.2020
1717 Clear 19 1011 40 10000 1.5 210 23:18 07.06.2020
1718 Clear 21 1011 31 10000 0.5 0 22:55 07.06.2020
1719 Clouds 18 1011 42 10000 1.47 189 22:36 07.06.2020
1720 Clouds 22 1011 23 10000 1 0 22:18 07.06.2020
1721 Clouds 23 1011 23 10000 1 0 21:41 07.06.2020
1722 Clouds 23 1011 23 10000 1 0 21:41 07.06.2020
1723 Clouds 24 1010 21 10000 3.1 230 21:23 07.06.2020
1724 Clouds 25 1010 21 10000 3.1 230 20:57 07.06.2020
1725 Clouds 25 1010 21 10000 3.1 230 20:38 07.06.2020
1726 Clouds 26 1010 21 10000 3.1 230 20:20 07.06.2020
1727 Clouds 29 1009 16 10000 2.6 150 19:56 07.06.2020
1728 Clouds 29 1009 16 10000 2.6 150 19:38 07.06.2020
1729 Clouds 29 1009 16 10000 2.6 150 19:19 07.06.2020
1730 Clouds 31 1009 33 10000 6.7 220 18:55 07.06.2020
1731 Clouds 31 1009 33 10000 6.7 220 18:37 07.06.2020
1732 Clouds 31 1009 28 10000 6.7 220 18:18 07.06.2020
1733 Clouds 32 1009 13 10000 4.6 200 17:55 07.06.2020
1734 Clouds 32 1009 13 10000 4.6 200 17:36 07.06.2020
1735 Clouds 32 1009 13 10000 4.6 200 17:18 07.06.2020
1736 Clouds 31 1009 15 10000 4.6 190 16:42 07.06.2020
1737 Clouds 32 1009 15 10000 4.6 190 16:21 07.06.2020
1738 Clouds 32 1010 14 10000 3.6 140 15:40 07.06.2020
1739 Clouds 32 1011 13 10000 3.6 150 15:20 07.06.2020
1740 Clouds 32 1011 13 10000 3.6 150 14:39 07.06.2020
1741 Clouds 32 1011 13 10000 3.6 150 14:21 07.06.2020
1742 Clear 32 1011 14 10000 5.1 160 13:47 07.06.2020
1743 Clear 31 1011 14 10000 5.1 160 13:21 07.06.2020
1744 Clear 31 1012 16 10000 5.1 160 12:55 07.06.2020
1745 Clear 31 1012 16 10000 5.1 160 12:36 07.06.2020
1746 Clear 31 1012 16 10000 5.1 160 12:18 07.06.2020
1747 Clear 29 1012 18 10000 4.1 110 11:54 07.06.2020
1748 Clear 29 1012 18 10000 4.1 110 11:36 07.06.2020
1749 Clear 29 1012 18 10000 4.1 110 11:18 07.06.2020
1750 Clear 29 1013 18 10000 3.1 160 10:42 07.06.2020
1751 Clear 28 1013 18 10000 3.1 160 10:20 07.06.2020
1752 Clear 27 1013 26 10000 3.1 90 09:57 07.06.2020
1753 Clear 27 1013 26 10000 3.1 90 09:38 07.06.2020
1754 Clear 26 1013 26 10000 3.1 90 09:20 07.06.2020
1755 Clear 25 1013 27 10000 4.1 70 08:48 07.06.2020
1756 Clear 24 1013 27 10000 4.1 70 08:23 07.06.2020
1757 Clear 22 1013 35 10000 3.6 90 07:49 07.06.2020
1758 Clear 22 1013 35 10000 3.6 90 07:29 07.06.2020
1759 Clear 19 1013 48 10000 3.06 105 06:48 07.06.2020
1760 Clouds 14 1013 51 10000 1 0 05:41 07.06.2020
1761 Clear 15 1013 48 10000 1.5 0 04:20 07.06.2020
1762 Clear 16 1014 51 10000 2.4 84 02:34 07.06.2020
1763 Clouds 18 1013 34 10000 1 0 01:50 07.06.2020
1764 Clouds 18 1013 34 10000 1 0 01:25 07.06.2020
1765 Clouds 19 1013 32 10000 1 0 00:45 07.06.2020
1766 Clear 19 1013 32 10000 1 0 00:19 07.06.2020
1767 Clear 20 1013 32 10000 0.5 230 23:57 06.06.2020
1768 Clear 20 1013 32 10000 0.5 230 23:36 06.06.2020
1769 Clear 20 1013 32 10000 0.5 230 23:18 06.06.2020
1770 Clear 21 1013 27 10000 1.5 40 22:56 06.06.2020
1771 Clear 21 1013 27 10000 1.5 40 22:37 06.06.2020
1772 Clear 21 1013 27 10000 1.5 40 22:18 06.06.2020
1773 Clear 21 1013 27 10000 1 0 21:44 06.06.2020
1774 Clear 22 1013 23 10000 0.5 0 21:22 06.06.2020
1775 Clear 23 1013 23 10000 0.5 0 20:56 06.06.2020
1776 Clear 23 1013 23 10000 0.5 0 20:37 06.06.2020
1777 Clouds 23 1013 23 10000 0.5 0 20:18 06.06.2020
1778 Clouds 26 1013 17 10000 1 120 19:56 06.06.2020
1779 Clouds 27 1013 17 10000 1 120 19:37 06.06.2020
1780 Clouds 26 1013 17 10000 1 120 19:37 06.06.2020
1781 Clouds 27 1013 17 10000 1 120 19:19 06.06.2020
1782 Clouds 28 1013 16 10000 2.6 140 18:43 06.06.2020
1783 Clouds 28 1013 16 10000 2.6 140 18:24 06.06.2020
1784 Clouds 28 1015 18 10000 2.6 40 17:58 06.06.2020
1785 Clouds 28 1015 18 10000 2.6 40 17:39 06.06.2020
1786 Clouds 28 1015 18 10000 2.6 40 17:39 06.06.2020
1787 Clouds 29 1015 17 10000 2.6 80 17:18 06.06.2020
1788 Clouds 29 1015 17 10000 2.1 140 16:41 06.06.2020
1789 Clouds 29 1015 17 10000 3.6 170 16:22 06.06.2020
1790 Clouds 29 1015 17 10000 3.6 170 15:56 06.06.2020
1791 Clouds 29 1015 17 10000 3.6 170 15:37 06.06.2020
1792 Clouds 29 1015 17 10000 3.6 170 15:19 06.06.2020
1793 Clouds 29 1016 16 10000 3.6 130 14:43 06.06.2020
1794 Clouds 29 1017 18 10000 4.1 180 14:24 06.06.2020
1795 Clouds 29 1017 18 10000 4.1 180 13:58 06.06.2020
1796 Clouds 29 1017 18 10000 4.1 180 13:40 06.06.2020
1797 Clear 29 1017 18 10000 4.1 180 13:18 06.06.2020
1798 Clear 28 1017 20 10000 2.6 0 12:43 06.06.2020
1799 Clear 28 1017 20 10000 2.6 0 12:23 06.06.2020
1800 Clear 27 1017 22 10000 4.1 190 11:58 06.06.2020
1801 Clear 27 1017 22 10000 4.1 190 11:38 06.06.2020
1802 Clear 27 1017 22 10000 4.1 190 11:20 06.06.2020
1803 Clear 26 1018 27 10000 3.1 0 10:57 06.06.2020
1804 Clear 26 1018 27 10000 3.1 0 10:39 06.06.2020
1805 Clear 26 1018 27 10000 3.1 0 10:20 06.06.2020
1806 Clear 25 1018 29 10000 2.6 70 09:46 06.06.2020
1807 Clear 23 1018 29 10000 2.6 70 09:27 06.06.2020
1808 Clear 22 1019 43 10000 3.92 137 08:58 06.06.2020
1809 Clouds 21 1019 43 10000 2.94 122 08:40 06.06.2020
1810 Clouds 21 1019 43 10000 2.94 122 08:19 06.06.2020
1811 Clouds 18 1019 51 10000 0.5 190 07:45 06.06.2020
1812 Clouds 18 1019 51 10000 0.5 190 07:45 06.06.2020
1813 Clouds 16 1019 66 10000 2.21 97 07:22 06.06.2020
1814 Clouds 15 1019 66 10000 2.21 97 06:46 06.06.2020
1815 Clouds 12 1019 66 10000 1.75 94 06:27 06.06.2020
1816 Clouds 10 1019 71 10000 1.75 94 05:53 06.06.2020
1817 Clouds 13 1019 71 10000 1.76 94 05:27 06.06.2020
1818 Clouds 10 1018 71 10000 1.76 94 04:42 06.06.2020
1819 Clouds 12 1018 62 10000 1.63 84 02:48 06.06.2020
1820 Clouds 13 1018 54 10000 1.61 88 01:54 06.06.2020
1821 Clear 14 1018 54 10000 1.41 96 01:18 06.06.2020
1822 Clear 16 1018 42 10000 1.41 96 00:43 06.06.2020
1823 Clear 16 1018 42 10000 1.2 102 00:25 06.06.2020
1824 Clear 17 1018 39 10000 0.5 0 23:55 05.06.2020
1825 Clear 18 1018 39 10000 0.5 0 23:36 05.06.2020
1826 Clear 17 1018 39 10000 0.5 0 23:18 05.06.2020
1827 Clear 17 1018 39 10000 0.5 0 23:18 05.06.2020
1828 Clear 18 1018 26 10000 2.1 30 22:41 05.06.2020
1829 Clear 19 1018 26 10000 2.1 30 22:23 05.06.2020
1830 Clear 19 1018 32 10000 2.6 150 21:58 05.06.2020
1831 Clear 19 1017 35 10000 1 210 21:40 05.06.2020
1832 Clear 20 1017 35 10000 1 210 21:20 05.06.2020
1833 Clear 19 1018 42 10000 2.6 80 20:57 05.06.2020
1834 Clear 19 1018 42 10000 2.6 80 20:38 05.06.2020
1835 Clear 19 1018 42 10000 2.1 20 20:19 05.06.2020
1836 Clear 21 1018 37 10000 2.1 320 19:40 05.06.2020
1837 Clouds 23 1017 27 10000 1 0 19:22 05.06.2020
1838 Clouds 25 1017 23 10000 2.6 260 18:54 05.06.2020
1839 Clouds 25 1017 23 10000 4.1 250 18:36 05.06.2020
1840 Clouds 25 1017 23 10000 4.1 250 18:18 05.06.2020
1841 Clouds 25 1017 22 10000 1.5 190 17:55 05.06.2020
1842 Clouds 25 1017 22 10000 1.5 190 17:55 05.06.2020
1843 Clouds 25 1017 22 10000 1.5 190 17:37 05.06.2020
1844 Clouds 25 1018 22 10000 4.1 250 17:18 05.06.2020
1845 Clouds 25 1018 22 10000 2.6 250 16:37 05.06.2020
1846 Clouds 25 1018 22 10000 2.6 250 16:19 05.06.2020
1847 Clouds 25 1018 23 10000 2.1 220 15:41 05.06.2020
1848 Clouds 26 1018 22 10000 3.1 240 15:21 05.06.2020
1849 Clouds 26 1018 22 10000 3.1 240 14:58 05.06.2020
1850 Clouds 26 1018 22 10000 3.1 240 14:40 05.06.2020
1851 Clouds 26 1018 22 10000 3.1 240 14:21 05.06.2020
1852 Clouds 25 1019 23 10000 2.6 220 13:47 05.06.2020
1853 Clouds 25 1019 23 10000 2.6 220 13:28 05.06.2020
1854 Clouds 24 1019 27 10000 2.1 210 12:57 05.06.2020
1855 Clouds 24 1019 27 10000 2.1 210 12:39 05.06.2020
1856 Clouds 23 1020 31 10000 1.5 0 12:19 05.06.2020
1857 Clouds 23 1020 31 10000 1.5 0 11:43 05.06.2020
1858 Clouds 23 1020 31 10000 1.5 0 11:43 05.06.2020
1859 Clouds 23 1020 31 10000 1.5 0 11:43 05.06.2020
1860 Clouds 23 1020 31 10000 1.5 0 11:24 05.06.2020
1861 Clouds 22 1020 33 10000 1.5 0 10:59 05.06.2020
1862 Clouds 22 1020 33 10000 1.5 0 10:41 05.06.2020
1863 Clouds 21 1020 33 10000 2.1 360 10:20 05.06.2020
1864 Clear 20 1020 40 10000 1 0 09:57 05.06.2020
1865 Clear 20 1020 40 10000 1 0 09:39 05.06.2020
1866 Clear 17 1020 48 10000 1.92 224 09:20 05.06.2020
1867 Clear 18 1020 48 10000 1.52 208 08:57 05.06.2020
1868 Clear 18 1020 48 10000 1.52 208 08:39 05.06.2020
1869 Clear 18 1020 48 10000 0.93 170 08:18 05.06.2020
1870 Clear 15 1020 58 10000 0.93 170 07:50 05.06.2020
1871 Clear 15 1020 58 10000 0.93 170 07:31 05.06.2020
1872 Clear 12 1020 71 10000 0.5 170 06:48 05.06.2020
1873 Clear 9 1019 81 10000 1 0 05:23 05.06.2020
1874 Clear 10 1019 76 10000 0.47 104 04:27 05.06.2020
1875 Clear 8 1019 70 10000 1 210 03:29 05.06.2020
1876 Clear 9 1019 70 10000 1 210 02:29 05.06.2020
1877 Clear 11 1018 62 10000 0.46 67 01:58 05.06.2020
1878 Clear 11 1018 62 10000 0.37 57 01:30 05.06.2020
1879 Clear 11 1018 58 10000 0.37 57 00:43 05.06.2020
1880 Clear 11 1018 58 10000 0.35 59 00:21 05.06.2020
1881 Clear 12 1018 58 10000 1.5 230 23:47 04.06.2020
1882 Clear 12 1018 54 10000 1.5 220 23:29 04.06.2020
1883 Clear 12 1018 54 10000 1.5 220 22:57 04.06.2020
1884 Clear 12 1018 54 10000 1.5 220 22:38 04.06.2020
1885 Clear 13 1018 54 10000 1.5 220 22:20 04.06.2020
1886 Clear 14 1017 50 10000 2.1 230 21:57 04.06.2020
1887 Clear 14 1017 50 10000 2.1 230 21:38 04.06.2020
1888 Clear 14 1017 50 10000 2.1 230 21:19 04.06.2020
1889 Clear 17 1016 31 10000 1.5 250 20:55 04.06.2020
1890 Clear 17 1016 31 10000 1.5 250 20:37 04.06.2020
1891 Clouds 17 1016 31 10000 1.5 250 20:19 04.06.2020
1892 Clouds 19 1016 30 10000 3.1 250 19:40 04.06.2020
1893 Clouds 19 1016 30 10000 3.1 250 19:21 04.06.2020
1894 Clouds 19 1016 30 10000 3.1 250 19:21 04.06.2020
1895 Clouds 19 1016 51 10000 4.1 250 18:56 04.06.2020
1896 Clouds 19 1015 28 10000 5.7 260 18:38 04.06.2020
1897 Clouds 20 1015 28 10000 5.7 260 18:20 04.06.2020
1898 Clouds 20 1015 45 10000 5.7 270 17:43 04.06.2020
1899 Clouds 21 1014 30 10000 4.6 250 17:22 04.06.2020
1900 Clouds 21 1014 30 10000 4.6 250 16:57 04.06.2020
1901 Clouds 21 1014 30 10000 4.6 250 16:39 04.06.2020
1902 Clouds 21 1014 30 10000 4.6 250 16:18 04.06.2020
1903 Clouds 21 1014 28 10000 6.2 250 15:43 04.06.2020
1904 Clouds 21 1014 28 10000 6.2 250 15:25 04.06.2020
1905 Clouds 21 1014 28 10000 6.2 250 14:41 04.06.2020
1906 Clouds 21 1014 28 10000 6.2 250 14:22 04.06.2020
1907 Clouds 21 1014 28 10000 6.2 250 14:22 04.06.2020
1908 Clouds 20 1014 32 10000 7.2 250 13:58 04.06.2020
1909 Clouds 20 1014 32 10000 7.2 250 13:40 04.06.2020
1910 Clouds 20 1014 37 10000 6.2 240 13:20 04.06.2020
1911 Clouds 20 1014 37 10000 6.2 240 12:58 04.06.2020
1912 Clouds 20 1014 37 10000 6.2 240 12:40 04.06.2020
1913 Clouds 19 1014 37 10000 6.2 240 12:21 04.06.2020
1914 Clouds 19 1014 39 10000 4.6 220 11:54 04.06.2020
1915 Clouds 19 1014 39 10000 4.6 220 11:36 04.06.2020
1916 Clouds 18 1014 45 10000 4.6 240 11:18 04.06.2020
1917 Clouds 17 1014 48 10000 5.1 240 10:40 04.06.2020
1918 Clouds 17 1014 55 10000 4.1 260 10:22 04.06.2020
1919 Clouds 17 1014 55 10000 4.1 260 09:56 04.06.2020
1920 Clouds 17 1014 55 10000 4.1 260 09:38 04.06.2020
1921 Clouds 16 1014 55 10000 4.1 260 09:19 04.06.2020
1922 Clouds 16 1014 55 10000 4.1 260 09:19 04.06.2020
1923 Clouds 16 1014 59 10000 1 0 08:41 04.06.2020
1924 Clouds 15 1014 59 10000 1 0 08:22 04.06.2020
1925 Clouds 14 1013 67 10000 2.1 270 07:33 04.06.2020
1926 Clouds 13 1012 71 10000 2.61 238 06:58 04.06.2020
1927 Clouds 13 1012 71 10000 2.61 238 06:58 04.06.2020
1928 Clouds 13 1012 71 10000 2.61 238 06:40 04.06.2020
1929 Clouds 13 1012 71 10000 2.1 227 06:21 04.06.2020
1930 Rain 12 1012 81 10000 1.5 310 05:33 04.06.2020
1931 Rain 12 1012 76 10000 2.6 240 03:51 04.06.2020
1932 Rain 13 1012 82 10000 1 270 02:22 04.06.2020
1933 Rain 13 1012 76 10000 0.5 0 01:39 04.06.2020
1934 Rain 13 1012 76 10000 0.5 0 01:19 04.06.2020
1935 Clouds 13 1012 71 10000 2.1 240 00:20 04.06.2020
1936 Clouds 14 1012 62 10000 0.5 0 23:39 03.06.2020
1937 Clouds 14 1012 62 10000 0.5 0 23:19 03.06.2020
1938 Clouds 14 1012 62 10000 2.6 240 22:56 03.06.2020
1939 Clouds 14 1012 62 10000 2.6 240 22:38 03.06.2020
1940 Clouds 14 1012 62 10000 2.6 240 22:18 03.06.2020
1941 Clouds 14 1011 58 10000 2.6 230 21:55 03.06.2020
1942 Clouds 14 1011 58 10000 2.6 230 21:37 03.06.2020
1943 Clouds 15 1010 62 10000 2.6 0 21:19 03.06.2020
1944 Clouds 15 1010 62 10000 2.6 0 20:42 03.06.2020
1945 Clouds 15 1010 62 10000 2.6 0 20:21 03.06.2020
1946 Rain 15 1010 59 10000 6.2 270 19:58 03.06.2020
1947 Rain 16 1010 59 10000 6.2 270 19:39 03.06.2020
1948 Clouds 19 1009 34 10000 0.5 0 19:21 03.06.2020
1949 Clouds 20 1009 34 10000 1 0 18:59 03.06.2020
1950 Clouds 20 1009 34 10000 1 0 18:40 03.06.2020
1951 Clouds 20 1009 34 10000 1 0 18:19 03.06.2020
1952 Clouds 21 1009 28 10000 4.1 230 17:45 03.06.2020
1953 Clouds 21 1009 30 10000 2.6 250 17:23 03.06.2020
1954 Clouds 21 1009 30 10000 2.6 250 16:59 03.06.2020
1955 Clouds 21 1009 30 10000 2.6 250 16:40 03.06.2020
1956 Clouds 21 1009 30 10000 2.6 250 16:19 03.06.2020
1957 Clouds 20 1009 32 10000 4.1 200 15:55 03.06.2020
1958 Clouds 20 1009 32 10000 4.1 200 15:36 03.06.2020
1959 Clouds 20 1009 32 10000 4.1 200 15:36 03.06.2020
1960 Clouds 20 1009 32 10000 4.1 200 15:18 03.06.2020
1961 Clouds 20 1010 32 10000 4.6 230 14:42 03.06.2020
1962 Clouds 20 1010 32 10000 4.6 230 14:22 03.06.2020
1963 Clouds 20 1010 34 10000 3.1 280 13:40 03.06.2020
1964 Clouds 20 1010 34 10000 3.1 280 13:21 03.06.2020
1965 Clouds 19 1010 37 10000 3.6 260 12:56 03.06.2020
1966 Clouds 19 1010 37 10000 3.6 260 12:38 03.06.2020
1967 Clouds 19 1010 37 10000 3.6 260 12:18 03.06.2020
1968 Clouds 18 1011 39 10000 4.1 240 11:43 03.06.2020
1969 Clouds 18 1011 39 10000 4.1 240 11:24 03.06.2020
1970 Clouds 17 1010 42 10000 3.1 0 10:43 03.06.2020
1971 Clouds 16 1010 51 10000 2.6 230 10:24 03.06.2020
1972 Clouds 15 1010 58 10000 2.1 0 09:55 03.06.2020
1973 Clouds 17 1010 58 10000 2.1 0 09:36 03.06.2020
1974 Clouds 15 1010 54 10000 1 0 09:18 03.06.2020
1975 Clouds 14 1010 62 10000 1.5 0 08:45 03.06.2020
1976 Clouds 13 1010 71 10000 0.5 0 08:21 03.06.2020
1977 Clouds 12 1010 71 10000 2.1 210 07:45 03.06.2020
1978 Clouds 12 1010 71 10000 1.5 220 07:24 03.06.2020
1979 Clouds 11 1010 76 10000 0.5 0 06:55 03.06.2020
1980 Clouds 10 1010 81 10000 2.07 240 06:34 03.06.2020
1981 Clouds 9 1010 93 10000 1.52 218 05:49 03.06.2020
1982 Clouds 9 1009 93 10000 2.1 220 05:23 03.06.2020
1983 Clouds 10 1009 87 10000 2.6 170 03:52 03.06.2020
1984 Clouds 10 1008 87 10000 0.5 0 03:24 03.06.2020
1985 Clouds 10 1009 81 10000 1.41 251 02:24 03.06.2020
1986 Clouds 10 1009 81 10000 2.1 270 00:56 03.06.2020
1987 Clouds 10 1009 81 10000 2.1 260 00:37 03.06.2020
1988 Clouds 10 1009 81 10000 2.1 260 00:18 03.06.2020
1989 Clouds 11 1009 76 10000 1 200 23:38 02.06.2020
1990 Clouds 11 1009 76 10000 1.5 260 23:20 02.06.2020
1991 Clouds 12 1009 76 10000 0.69 257 22:39 02.06.2020
1992 Clouds 12 1008 76 10000 2.1 250 22:19 02.06.2020
1993 Clouds 13 1008 66 10000 0.54 258 21:57 02.06.2020
1994 Clouds 13 1008 66 10000 0.59 340 21:39 02.06.2020
1995 Clouds 13 1008 66 10000 2.46 252 21:20 02.06.2020
1996 Clouds 13 1008 66 10000 2.1 280 20:58 02.06.2020
1997 Clouds 13 1008 66 10000 2.1 280 20:40 02.06.2020
1998 Clouds 14 1007 62 10000 3.6 260 20:21 02.06.2020
1999 Clouds 15 1007 58 10000 4.1 260 19:45 02.06.2020
2000 Clouds 15 1006 51 10000 4.1 250 19:26 02.06.2020
2001 Clouds 15 1006 51 10000 4.1 250 19:26 02.06.2020
2002 Clouds 16 1006 48 10000 4.6 270 18:58 02.06.2020
2003 Clouds 16 1006 48 10000 4.6 270 18:58 02.06.2020
2004 Clouds 17 1006 48 10000 4.6 270 18:40 02.06.2020
2005 Clouds 18 1006 42 10000 5.7 280 18:20 02.06.2020
2006 Clouds 17 1006 42 10000 5.7 280 17:57 02.06.2020
2007 Clouds 18 1006 42 10000 5.7 280 17:39 02.06.2020
2008 Clouds 18 1006 42 10000 5.7 290 17:20 02.06.2020
2009 Clouds 19 1006 42 10000 5.7 290 16:55 02.06.2020
2010 Clouds 19 1006 42 10000 5.7 290 16:37 02.06.2020
2011 Clouds 19 1006 42 10000 5.7 290 16:19 02.06.2020
2012 Clouds 19 1006 42 10000 5.7 290 16:19 02.06.2020
2013 Clouds 19 1006 42 10000 5.7 290 15:40 02.06.2020
2014 Clouds 18 1006 39 10000 5.1 260 15:21 02.06.2020
2015 Clouds 19 1006 39 10000 5.1 260 14:47 02.06.2020
2016 Clouds 19 1006 37 10000 5.1 230 14:28 02.06.2020
2017 Clouds 19 1006 37 10000 5.1 230 13:55 02.06.2020
2018 Clouds 19 1006 37 10000 5.1 230 13:37 02.06.2020
2019 Clouds 19 1006 37 10000 5.1 230 13:18 02.06.2020
2020 Clouds 18 1008 45 10000 3.6 210 12:56 02.06.2020
2021 Clouds 18 1008 45 10000 3.6 210 12:37 02.06.2020
2022 Clouds 18 1007 48 10000 3.6 230 12:19 02.06.2020
2023 Clouds 17 1007 48 10000 3.6 230 11:41 02.06.2020
2024 Clouds 17 1007 48 10000 3.6 230 11:22 02.06.2020
2025 Clouds 16 1008 55 10000 1.5 0 10:56 02.06.2020
2026 Clouds 16 1008 55 10000 1.5 0 10:56 02.06.2020
2027 Clouds 16 1008 55 10000 1.5 0 10:38 02.06.2020
2028 Clouds 15 1008 58 10000 2.6 220 10:20 02.06.2020
2029 Clouds 15 1008 58 10000 2.6 220 09:43 02.06.2020
2030 Clouds 15 1008 58 10000 2.6 220 09:21 02.06.2020
2031 Clouds 14 1008 67 10000 3.6 230 08:54 02.06.2020
2032 Clouds 14 1008 67 10000 3.6 230 08:28 02.06.2020
2033 Clouds 14 1008 71 10000 3.6 230 07:58 02.06.2020
2034 Clouds 13 1008 71 10000 3.6 230 07:33 02.06.2020
2035 Clouds 12 1008 76 10000 1.5 230 06:59 02.06.2020
2036 Clouds 12 1008 76 10000 1.5 230 06:38 02.06.2020
2037 Clouds 11 1008 76 10000 2.1 240 05:37 02.06.2020
2038 Clouds 11 1008 87 10000 3.1 230 04:23 02.06.2020
2039 Clouds 12 1009 71 10000 1 0 02:37 02.06.2020
2040 Clouds 12 1010 71 10000 2.1 240 01:53 02.06.2020
2041 Clouds 12 1010 76 10000 1 0 00:46 02.06.2020
2042 Clouds 12 1011 76 10000 2.1 200 00:20 02.06.2020
2043 Clouds 13 1011 76 10000 2.1 200 23:39 01.06.2020
2044 Clouds 13 1011 67 10000 2.6 250 23:19 01.06.2020
2045 Clouds 13 1011 67 10000 2.6 250 22:56 01.06.2020
2046 Clouds 13 1011 67 10000 2.6 250 22:38 01.06.2020
2047 Clouds 13 1011 67 10000 2.6 250 22:19 01.06.2020
2048 Clouds 14 1011 67 10000 3.1 240 21:42 01.06.2020
2049 Clouds 14 1011 67 10000 3.1 240 21:21 01.06.2020
2050 Clouds 14 1010 62 10000 3.1 250 20:59 01.06.2020
2051 Clouds 14 1010 62 10000 3.1 250 20:41 01.06.2020
2052 Clouds 15 1010 51 10000 1 0 20:20 01.06.2020
2053 Clouds 15 1010 51 10000 1 0 19:58 01.06.2020
2054 Clouds 15 1010 51 10000 1 0 19:39 01.06.2020
2055 Clouds 15 1010 51 10000 1 0 19:20 01.06.2020
2056 Clouds 16 1010 51 10000 3.1 330 18:57 01.06.2020
2057 Clouds 16 1010 51 10000 3.1 330 18:38 01.06.2020
2058 Rain 16 1010 51 10000 3.1 330 18:19 01.06.2020
2059 Clouds 17 1010 55 10000 4.1 260 17:41 01.06.2020
2060 Clouds 17 1010 55 10000 4.1 260 17:21 01.06.2020
2061 Thunderstorm 17 1011 59 10000 7.2 250 16:58 01.06.2020
2062 Thunderstorm 18 1011 59 10000 7.2 250 16:39 01.06.2020
2063 Clouds 19 1010 40 10000 3.1 270 16:18 01.06.2020
2064 Clouds 19 1010 40 10000 3.1 270 15:45 01.06.2020
2065 Clouds 19 1010 40 10000 3.1 270 15:21 01.06.2020
2066 Clouds 19 1011 45 10000 4.1 280 14:59 01.06.2020
2067 Clouds 19 1011 45 10000 4.1 280 14:41 01.06.2020
2068 Clouds 19 1011 45 10000 4.1 280 14:21 01.06.2020
2069 Clouds 18 1011 48 10000 3.6 280 13:56 01.06.2020
2070 Clouds 18 1011 48 10000 3.6 280 13:38 01.06.2020
2071 Clouds 18 1011 48 10000 3.6 280 13:19 01.06.2020
2072 Clouds 18 1012 48 10000 3.6 250 12:57 01.06.2020
2073 Clouds 19 1012 49 10000 2.6 0 12:38 01.06.2020
2074 Clouds 19 1012 49 10000 2.6 0 12:20 01.06.2020
2075 Clouds 18 1013 52 10000 2.1 0 11:40 01.06.2020
2076 Clouds 17 1013 52 10000 2.1 0 11:22 01.06.2020
2077 Clouds 17 1013 59 10000 2.1 0 10:57 01.06.2020
2078 Clouds 16 1013 59 10000 2.1 0 10:38 01.06.2020
2079 Clouds 16 1013 59 10000 2.1 0 10:19 01.06.2020
2080 Clouds 15 1013 67 10000 3.1 250 09:55 01.06.2020
2081 Clouds 15 1013 67 10000 3.1 250 09:37 01.06.2020
2082 Clouds 15 1013 67 10000 3.1 250 09:37 01.06.2020
2083 Clouds 15 1013 67 10000 3.1 250 09:19 01.06.2020
2084 Clouds 14 1013 67 10000 3.1 250 08:42 01.06.2020
2085 Clouds 14 1013 67 10000 3.1 250 08:23 01.06.2020
2086 Clouds 14 1013 71 10000 2.1 260 07:44 01.06.2020
2087 Clouds 14 1013 71 10000 2.1 260 07:26 01.06.2020
2088 Clouds 13 1013 82 10000 2.6 260 06:52 01.06.2020
2089 Clouds 13 1013 82 10000 2.6 260 06:20 01.06.2020
2090 Clouds 12 1013 82 10000 1.5 280 05:49 01.06.2020
2091 Clouds 12 1012 82 10000 1.31 317 04:23 01.06.2020
2092 Clouds 13 1013 82 10000 1 0 03:45 01.06.2020
2093 Clouds 13 1013 82 10000 1 0 03:18 01.06.2020
2094 Clouds 12 1013 82 10000 1.5 230 01:47 01.06.2020
2095 Clouds 13 1013 82 10000 1.5 230 01:28 01.06.2020
2096 Clouds 14 1014 76 10000 1 10 00:57 01.06.2020
2097 Clouds 14 1014 76 10000 1 10 00:39 01.06.2020
2098 Clouds 14 1014 76 10000 1 10 00:20 01.06.2020
2099 Clouds 14 1014 71 10000 2.1 240 23:54 31.05.2020
2100 Clouds 14 1014 71 10000 2.1 240 23:36 31.05.2020
2101 Clouds 13 1014 71 10000 2.1 240 23:18 31.05.2020
2102 Clouds 14 1014 62 10000 1 230 22:42 31.05.2020
2103 Clouds 14 1014 62 10000 1 230 22:24 31.05.2020
2104 Clouds 15 1014 55 10000 1.5 60 21:57 31.05.2020
2105 Clouds 15 1014 55 10000 1.5 60 21:39 31.05.2020
2106 Clouds 15 1014 55 10000 0.5 0 21:21 31.05.2020
2107 Clouds 15 1014 55 10000 0.5 0 20:48 31.05.2020
2108 Clouds 15 1014 55 10000 0.5 0 20:25 31.05.2020
2109 Clouds 17 1014 42 10000 1 0 19:57 31.05.2020
2110 Clouds 17 1014 42 10000 1 0 19:38 31.05.2020
2111 Clouds 16 1014 42 10000 1 0 19:20 31.05.2020
2112 Clouds 17 1014 42 10000 3.1 80 18:58 31.05.2020
2113 Clouds 17 1014 42 10000 3.1 80 18:39 31.05.2020
2114 Clouds 17 1014 42 10000 3.1 80 18:21 31.05.2020
2115 Clouds 17 1014 42 10000 3.1 80 18:21 31.05.2020
2116 Clouds 18 1014 39 10000 3.6 140 17:42 31.05.2020
2117 Rain 18 1014 39 10000 3.6 140 17:24 31.05.2020
2118 Rain 17 1015 48 10000 8.2 220 16:42 31.05.2020
2119 Rain 17 1015 48 10000 8.2 220 16:22 31.05.2020
2120 Rain 18 1014 37 10000 4.1 170 15:57 31.05.2020
2121 Rain 18 1014 37 10000 4.1 170 15:57 31.05.2020
2122 Clouds 20 1014 32 10000 2.1 230 15:37 31.05.2020
2123 Clouds 20 1014 32 10000 2.1 230 15:19 31.05.2020
2124 Clouds 20 1015 32 10000 3.6 160 14:44 31.05.2020
2125 Clouds 20 1015 32 10000 3.6 160 14:20 31.05.2020
2126 Clouds 19 1015 34 10000 3.1 170 13:56 31.05.2020
2127 Clouds 19 1015 34 10000 3.1 170 13:37 31.05.2020
2128 Clouds 19 1015 34 10000 3.1 170 13:19 31.05.2020
2129 Clouds 20 1016 37 10000 2.1 0 12:55 31.05.2020
2130 Clouds 20 1016 37 10000 2.1 0 12:37 31.05.2020
2131 Clouds 20 1016 34 10000 3.1 170 12:18 31.05.2020
2132 Clouds 20 1016 37 10000 2.1 0 12:18 31.05.2020
2133 Clouds 20 1016 34 10000 3.1 170 11:44 31.05.2020
2134 Clouds 20 1016 34 10000 3.1 170 11:21 31.05.2020
2135 Clouds 20 1017 37 10000 0.5 0 10:55 31.05.2020
2136 Clouds 20 1017 37 10000 0.5 0 10:37 31.05.2020
2137 Clouds 20 1017 37 10000 0.5 0 10:18 31.05.2020
2138 Clouds 18 1017 48 10000 1 0 09:42 31.05.2020
2139 Clouds 18 1017 48 10000 1 0 09:22 31.05.2020
2140 Clouds 17 1018 55 10000 1.5 80 08:56 31.05.2020
2141 Clouds 17 1018 55 10000 1.5 80 08:36 31.05.2020
2142 Clouds 16 1018 55 10000 1.5 80 08:18 31.05.2020
2143 Clouds 14 1018 58 10000 1.26 164 07:39 31.05.2020
2144 Clouds 14 1018 58 10000 0.87 136 07:18 31.05.2020
2145 Clouds 11 1018 87 10000 0.87 136 06:49 31.05.2020
2146 Clouds 10 1018 87 10000 0.87 136 06:31 31.05.2020
2147 Clouds 9 1018 87 10000 1 240 05:40 31.05.2020
2148 Clouds 9 1018 81 10000 0.74 132 04:22 31.05.2020
2149 Clouds 9 1018 81 10000 1 230 03:47 31.05.2020
2150 Clouds 9 1018 87 10000 0.79 107 02:58 31.05.2020
2151 Clouds 10 1018 76 10000 0.35 161 01:47 31.05.2020
2152 Clouds 10 1018 76 10000 0.52 190 00:52 31.05.2020
2153 Clouds 11 1018 76 10000 0.75 193 00:28 31.05.2020
2154 Clouds 11 1018 71 10000 0.75 193 23:43 30.05.2020
2155 Clouds 11 1018 71 10000 1 193 23:25 30.05.2020
2156 Clouds 12 1018 66 10000 1 193 22:58 30.05.2020
2157 Clouds 12 1018 66 10000 1 193 22:40 30.05.2020
2158 Clouds 12 1018 66 10000 1.28 190 22:21 30.05.2020
2159 Clouds 14 1018 54 10000 1.28 190 21:55 30.05.2020
2160 Clouds 14 1018 54 10000 1.28 190 21:36 30.05.2020
2161 Clouds 14 1017 48 10000 2.1 240 21:18 30.05.2020
2162 Clouds 15 1017 48 10000 2.1 240 20:54 30.05.2020
2163 Clouds 15 1017 48 10000 2.1 240 20:36 30.05.2020
2164 Clouds 17 1016 42 10000 3.6 170 20:18 30.05.2020
2165 Clouds 17 1016 42 10000 3.6 170 19:41 30.05.2020
2166 Clouds 17 1016 42 10000 3.6 170 19:21 30.05.2020
2167 Clouds 17 1016 42 10000 3.6 170 19:21 30.05.2020
2168 Clouds 18 1016 34 10000 4.6 230 18:44 30.05.2020
2169 Clouds 18 1016 34 10000 4.6 230 18:21 30.05.2020
2170 Clouds 18 1016 32 10000 4.6 230 17:46 30.05.2020
2171 Clouds 19 1016 32 10000 4.6 230 17:26 30.05.2020
2172 Clouds 19 1016 34 10000 5.1 250 16:59 30.05.2020
2173 Clouds 19 1016 34 10000 5.1 250 16:59 30.05.2020
2174 Clouds 19 1016 34 10000 5.1 250 16:41 30.05.2020
2175 Clouds 19 1016 34 10000 5.1 250 16:21 30.05.2020
2176 Clouds 19 1016 34 10000 4.6 270 15:45 30.05.2020
2177 Clouds 20 1016 34 10000 4.6 270 15:26 30.05.2020
2178 Clouds 19 1016 39 10000 4.6 270 14:46 30.05.2020
2179 Clouds 19 1016 39 10000 4.6 270 14:27 30.05.2020
2180 Clouds 18 1017 42 10000 3.1 260 13:46 30.05.2020
2181 Rain 18 1017 42 10000 3.1 260 13:27 30.05.2020
2182 Rain 17 1017 42 10000 4.6 240 12:55 30.05.2020
2183 Rain 16 1017 42 10000 4.6 240 12:36 30.05.2020
2184 Rain 16 1017 42 10000 4.6 240 12:18 30.05.2020
2185 Clouds 16 1017 48 10000 4.6 250 11:41 30.05.2020
2186 Clouds 16 1017 48 10000 4.6 250 11:22 30.05.2020
2187 Clouds 15 1018 58 10000 1 330 10:56 30.05.2020
2188 Clouds 15 1018 58 10000 1 330 10:38 30.05.2020
2189 Clouds 15 1018 58 10000 1 330 10:20 30.05.2020
2190 Clouds 14 1018 67 10000 1 0 09:43 30.05.2020
2191 Clouds 14 1018 67 10000 1 0 09:25 30.05.2020
2192 Clouds 13 1018 66 10000 1.5 0 08:42 30.05.2020
2193 Clouds 13 1018 66 10000 1.5 0 08:22 30.05.2020
2194 Clouds 11 1017 87 10000 4.01 242 07:40 30.05.2020
2195 Clouds 10 1017 93 10000 2.79 226 07:19 30.05.2020
2196 Clouds 9 1017 93 10000 2.79 226 06:29 30.05.2020
2197 Clouds 8 1017 87 10000 1.5 220 05:51 30.05.2020
2198 Clouds 7 1017 93 10000 1 40 04:47 30.05.2020
2199 Clouds 8 1017 87 10000 1 250 02:41 30.05.2020
2200 Clouds 8 1017 87 10000 1 250 02:19 30.05.2020
2201 Clouds 9 1017 93 10000 2.1 230 00:45 30.05.2020
2202 Clouds 9 1017 93 10000 2.1 230 00:24 30.05.2020
2203 Clouds 9 1017 87 10000 1 0 23:59 29.05.2020
2204 Clouds 9 1017 87 10000 1 0 23:38 29.05.2020
2205 Clouds 9 1017 87 10000 1 0 23:38 29.05.2020
2206 Clouds 10 1017 87 10000 1 0 23:19 29.05.2020
2207 Clouds 9 1017 87 10000 1 0 23:19 29.05.2020
2208 Clouds 10 1017 87 10000 1 0 23:19 29.05.2020
2209 Rain 11 1017 81 10000 0.5 0 22:54 29.05.2020
2210 Rain 10 1017 76 10000 2.1 100 22:36 29.05.2020
2211 Rain 11 1017 76 10000 2.1 100 22:18 29.05.2020
2212 Clear 10 1017 87 10000 1 0 21:40 29.05.2020
2213 Clouds 10 1017 87 10000 1 0 21:21 29.05.2020
2214 Clouds 11 1016 71 10000 1.31 158 20:58 29.05.2020
2215 Clouds 11 1016 71 10000 1.31 158 20:39 29.05.2020
2216 Clouds 11 1016 71 10000 1.16 116 20:19 29.05.2020
2217 Clouds 13 1016 58 10000 1.16 116 19:43 29.05.2020
2218 Clouds 14 1016 54 10000 0.5 0 19:24 29.05.2020
2219 Clouds 14 1016 54 10000 0.5 0 18:48 29.05.2020
2220 Clouds 14 1016 54 10000 0.5 0 18:23 29.05.2020
2221 Clouds 14 1015 54 10000 1.5 0 17:59 29.05.2020
2222 Clouds 14 1015 54 10000 1.5 0 17:39 29.05.2020
2223 Clouds 14 1015 54 10000 1.5 0 17:20 29.05.2020
2224 Clouds 13 1016 58 10000 3.1 0 16:54 29.05.2020
2225 Clouds 13 1016 58 10000 3.1 0 16:36 29.05.2020
2226 Rain 13 1016 66 10000 5.1 360 16:18 29.05.2020
2227 Rain 12 1016 66 10000 5.1 360 15:41 29.05.2020
2228 Rain 11 1016 66 10000 5.1 360 15:21 29.05.2020
2229 Clouds 13 1016 66 10000 3.6 260 14:57 29.05.2020
2230 Clouds 13 1016 66 10000 3.6 260 14:38 29.05.2020
2231 Clouds 12 1016 71 10000 2.6 250 14:19 29.05.2020
2232 Clouds 12 1016 71 10000 2.6 250 13:43 29.05.2020
2233 Clouds 12 1016 71 10000 2.6 250 13:22 29.05.2020
2234 Clouds 10 1016 71 10000 2.6 0 12:56 29.05.2020
2235 Clouds 10 1016 71 10000 2.6 0 12:56 29.05.2020
2236 Clouds 10 1016 71 10000 2.6 0 12:37 29.05.2020
2237 Clouds 10 1016 71 10000 2.6 0 12:18 29.05.2020
2238 Rain 9 1015 76 10000 1.5 0 11:42 29.05.2020
2239 Rain 9 1015 76 10000 1.5 0 11:42 29.05.2020
2240 Rain 9 1015 76 10000 1.5 0 11:42 29.05.2020
2241 Rain 9 1015 76 10000 1.5 0 11:24 29.05.2020
2242 Rain 9 1015 76 10000 2.6 0 10:46 29.05.2020
2243 Rain 9 1015 76 10000 2.6 0 10:24 29.05.2020
2244 Clouds 9 1014 76 10000 1 0 09:58 29.05.2020
2245 Clouds 9 1014 76 10000 1 0 09:40 29.05.2020
2246 Clouds 8 1014 76 10000 1 0 09:19 29.05.2020
2247 Clouds 8 1014 81 10000 2.6 90 08:47 29.05.2020
2248 Clouds 8 1014 81 10000 2.6 90 08:24 29.05.2020
2249 Rain 7 1013 75 10000 3.6 80 07:48 29.05.2020
2250 Rain 7 1013 75 10000 3.6 80 07:30 29.05.2020
2251 Rain 8 1013 87 10000 3.6 340 06:58 29.05.2020
2252 Rain 8 1013 87 10000 3.6 340 06:39 29.05.2020
2253 Rain 8 1013 87 10000 3.6 340 06:21 29.05.2020
2254 Rain 9 1012 93 6000 4.1 280 05:40 29.05.2020
2255 Rain 11 1011 81 10000 4.1 260 02:18 29.05.2020
2256 Rain 12 1011 76 10000 2.1 0 01:27 29.05.2020
2257 Rain 12 1012 58 10000 2.1 260 00:53 29.05.2020
2258 Rain 12 1012 58 10000 2.1 260 00:32 29.05.2020
2259 Rain 13 1012 58 10000 3.1 0 23:57 28.05.2020
2260 Rain 13 1012 58 10000 3.1 0 23:38 28.05.2020
2261 Rain 14 1012 58 10000 4.1 250 23:18 28.05.2020
2262 Clouds 14 1012 54 10000 3.1 230 22:42 28.05.2020
2263 Clouds 14 1012 54 10000 3.1 230 22:23 28.05.2020
2264 Clouds 15 1012 48 10000 2.6 0 21:56 28.05.2020
2265 Clouds 15 1012 48 10000 2.6 0 21:37 28.05.2020
2266 Clouds 15 1011 44 10000 2.6 0 21:19 28.05.2020
2267 Clouds 15 1011 44 10000 2.6 0 20:56 28.05.2020
2268 Clouds 15 1011 44 10000 2.6 0 20:37 28.05.2020
2269 Clouds 16 1011 44 10000 2.6 0 20:18 28.05.2020
2270 Clouds 16 1011 44 10000 2.6 0 20:18 28.05.2020
2271 Clouds 17 1011 34 10000 2.6 0 19:43 28.05.2020
2272 Clouds 17 1011 34 10000 2.6 0 19:20 28.05.2020
2273 Clouds 19 1011 30 10000 2.1 0 18:57 28.05.2020
2274 Clouds 19 1011 30 10000 2.1 0 18:39 28.05.2020
2275 Clouds 19 1011 30 10000 2.1 0 18:21 28.05.2020
2276 Clouds 20 1011 26 10000 3.1 280 17:41 28.05.2020
2277 Clouds 20 1011 26 10000 3.1 280 17:22 28.05.2020
2278 Clouds 20 1012 26 10000 3.1 0 16:56 28.05.2020
2279 Clouds 20 1012 26 10000 3.1 0 16:36 28.05.2020
2280 Clouds 20 1012 30 10000 3.6 0 16:18 28.05.2020
2281 Clouds 20 1012 30 10000 3.6 0 15:41 28.05.2020
2282 Clouds 20 1012 30 10000 3.6 0 15:23 28.05.2020
2283 Clouds 20 1012 32 10000 2.6 0 14:43 28.05.2020
2284 Clouds 19 1012 32 10000 2.6 0 14:24 28.05.2020
2285 Clouds 19 1013 34 10000 3.1 0 13:49 28.05.2020
2286 Clouds 19 1013 34 10000 3.1 0 13:30 28.05.2020
2287 Clouds 20 1013 32 10000 3.1 290 12:59 28.05.2020
2288 Clouds 20 1013 32 10000 3.1 290 12:38 28.05.2020
2289 Clouds 19 1013 34 10000 2.6 0 12:19 28.05.2020
2290 Clouds 19 1013 34 10000 2.6 0 11:42 28.05.2020
2291 Clouds 19 1013 34 10000 2.6 0 11:24 28.05.2020
2292 Clouds 18 1014 42 10000 2.6 230 10:56 28.05.2020
2293 Clouds 18 1014 42 10000 2.6 230 10:38 28.05.2020
2294 Clouds 18 1014 42 10000 2.6 230 10:18 28.05.2020
2295 Clouds 16 1014 55 10000 2.1 0 09:39 28.05.2020
2296 Clouds 16 1014 55 10000 2.1 0 09:19 28.05.2020
2297 Clear 14 1015 67 10000 1 220 08:47 28.05.2020
2298 Clear 14 1015 67 10000 1 220 08:26 28.05.2020
2299 Clear 13 1015 71 10000 2.1 250 07:45 28.05.2020
2300 Clear 13 1015 71 10000 2.1 250 07:26 28.05.2020
2301 Clear 11 1015 76 10000 0.61 275 06:56 28.05.2020
2302 Clear 11 1015 76 10000 0.61 275 06:37 28.05.2020
2303 Clear 10 1015 81 10000 0.62 288 05:40 28.05.2020
2304 Clear 10 1015 76 10000 1 0 04:54 28.05.2020
2305 Clear 10 1015 76 10000 1 0 04:27 28.05.2020
2306 Clear 10 1015 81 10000 2.1 230 03:45 28.05.2020
2307 Clouds 10 1015 76 10000 1.5 230 02:45 28.05.2020
2308 Clouds 11 1015 81 10000 2.1 230 01:50 28.05.2020
2309 Clouds 12 1015 66 10000 1.5 230 00:54 28.05.2020
2310 Clouds 12 1015 66 10000 1.5 230 00:24 28.05.2020
2311 Clouds 12 1015 71 10000 2.6 250 23:57 27.05.2020
2312 Clouds 12 1015 71 10000 2.6 250 23:39 27.05.2020
2313 Clouds 12 1015 71 10000 2.6 250 23:20 27.05.2020
2314 Clouds 12 1014 66 10000 3.1 230 22:56 27.05.2020
2315 Clouds 12 1014 66 10000 3.1 230 22:38 27.05.2020
2316 Clear 13 1014 66 10000 3.1 230 22:19 27.05.2020
2317 Clear 13 1014 62 10000 4.6 240 21:41 27.05.2020
2318 Clear 14 1014 62 10000 4.6 240 21:22 27.05.2020
2319 Clouds 15 1013 55 10000 4.1 230 20:59 27.05.2020
2320 Clouds 15 1013 55 10000 4.1 230 20:40 27.05.2020
2321 Clouds 15 1013 55 10000 4.1 230 20:21 27.05.2020
2322 Clouds 17 1012 48 10000 5.1 260 19:55 27.05.2020
2323 Clouds 17 1012 48 10000 5.1 260 19:37 27.05.2020
2324 Clouds 19 1011 43 10000 5.7 250 19:18 27.05.2020
2325 Clouds 20 1011 43 10000 5.7 250 18:39 27.05.2020
2326 Clouds 21 1011 43 10000 5.7 250 18:19 27.05.2020
2327 Clouds 24 1010 25 10000 6.7 220 17:45 27.05.2020
2328 Clouds 24 1010 25 10000 6.7 220 17:26 27.05.2020
2329 Clouds 24 1010 24 10000 7.2 230 16:57 27.05.2020
2330 Clouds 25 1010 24 10000 7.2 230 16:38 27.05.2020
2331 Clouds 25 1010 24 10000 7.2 230 16:20 27.05.2020
2332 Clouds 24 1011 25 10000 3.1 200 15:59 27.05.2020
2333 Clouds 24 1011 25 10000 3.1 200 15:37 27.05.2020
2334 Clouds 24 1011 25 10000 6.2 210 15:18 27.05.2020
2335 Clouds 24 1011 25 10000 6.2 210 14:42 27.05.2020
2336 Clouds 24 1011 25 10000 6.2 210 14:21 27.05.2020
2337 Clouds 24 1012 29 10000 5.1 160 13:44 27.05.2020
2338 Clouds 24 1012 29 10000 5.1 160 13:25 27.05.2020
2339 Clouds 23 1013 33 10000 4.6 170 12:57 27.05.2020
2340 Clouds 23 1013 33 10000 4.6 170 12:39 27.05.2020
2341 Clouds 23 1013 33 10000 4.6 170 12:21 27.05.2020
2342 Clouds 22 1013 37 10000 5.1 170 11:39 27.05.2020
2343 Clouds 22 1013 37 10000 5.1 170 11:21 27.05.2020
2344 Clouds 21 1014 40 10000 3.1 50 10:57 27.05.2020
2345 Clouds 21 1014 40 10000 3.1 50 10:38 27.05.2020
2346 Clouds 21 1014 40 10000 3.1 50 10:19 27.05.2020
2347 Clouds 19 1015 45 10000 1 100 09:40 27.05.2020
2348 Clouds 18 1015 45 10000 1 100 09:22 27.05.2020
2349 Clouds 16 1016 55 10000 1 0 08:56 27.05.2020
2350 Clouds 16 1016 55 10000 1 0 08:36 27.05.2020
2351 Clouds 16 1016 55 10000 1 0 08:18 27.05.2020
2352 Clouds 14 1016 76 10000 3.26 101 07:49 27.05.2020
2353 Clouds 13 1016 76 10000 2.23 83 07:30 27.05.2020
2354 Clouds 11 1016 93 10000 2.23 83 06:47 27.05.2020
2355 Clouds 10 1016 93 10000 1.7 68 06:20 27.05.2020
2356 Clouds 10 1017 87 10000 0.5 0 05:49 27.05.2020
2357 Clouds 10 1017 100 10000 0.5 190 04:38 27.05.2020
2358 Clouds 10 1017 93 10000 2.1 220 02:32 27.05.2020
2359 Clouds 10 1017 93 10000 3.1 290 01:53 27.05.2020
2360 Clouds 10 1017 93 10000 3.1 290 01:29 27.05.2020
2361 Clouds 11 1017 71 10000 1.5 50 00:46 27.05.2020
2362 Clouds 11 1017 71 10000 1.5 50 00:20 27.05.2020
2363 Clouds 11 1017 87 10000 0.5 0 23:55 26.05.2020
2364 Clouds 11 1017 87 10000 0.5 0 23:37 26.05.2020
2365 Clouds 11 1017 87 10000 0.5 0 23:18 26.05.2020
2366 Clouds 11 1017 87 10000 0.5 0 23:18 26.05.2020
2367 Clouds 12 1018 81 10000 0.5 230 22:40 26.05.2020
2368 Clouds 12 1018 81 10000 0.5 230 22:21 26.05.2020
2369 Clouds 12 1019 87 10000 1 0 21:58 26.05.2020
2370 Clouds 12 1019 87 10000 1 0 21:40 26.05.2020
2371 Rain 12 1018 82 10000 1.5 270 21:21 26.05.2020
2372 Rain 12 1018 82 10000 1.5 270 20:56 26.05.2020
2373 Rain 12 1018 82 10000 1.5 270 20:37 26.05.2020
2374 Clouds 12 1018 82 10000 3.1 250 20:19 26.05.2020
2375 Clouds 12 1018 82 10000 3.1 250 19:40 26.05.2020
2376 Clouds 12 1018 82 10000 3.1 250 19:20 26.05.2020
2377 Clouds 12 1018 82 10000 3.1 250 19:20 26.05.2020
2378 Thunderstorm 13 1017 76 10000 5.1 280 18:44 26.05.2020
2379 Thunderstorm 14 1017 76 10000 5.1 280 18:25 26.05.2020
2380 Clouds 17 1015 48 10000 4.1 310 17:59 26.05.2020
2381 Clouds 17 1015 48 10000 4.1 310 17:38 26.05.2020
2382 Clouds 17 1015 48 10000 4.1 310 17:20 26.05.2020
2383 Clouds 18 1015 48 10000 6.7 290 16:47 26.05.2020
2384 Clouds 19 1015 48 10000 6.7 290 16:20 26.05.2020
2385 Clouds 21 1015 40 10000 6.2 290 15:56 26.05.2020
2386 Clouds 21 1015 40 10000 6.2 290 15:38 26.05.2020
2387 Clouds 21 1015 40 10000 6.2 290 15:19 26.05.2020
2388 Clouds 21 1016 40 10000 5.1 300 14:43 26.05.2020
2389 Clouds 20 1016 40 10000 5.1 300 14:24 26.05.2020
2390 Clouds 20 1016 40 10000 3.1 0 13:57 26.05.2020
2391 Clouds 21 1016 40 10000 3.1 0 13:38 26.05.2020
2392 Clouds 21 1016 40 10000 3.1 0 13:20 26.05.2020
2393 Clouds 21 1016 35 10000 3.6 270 12:43 26.05.2020
2394 Clouds 21 1016 35 10000 3.6 270 12:22 26.05.2020
2395 Clouds 20 1017 34 10000 3.6 180 11:59 26.05.2020
2396 Clouds 20 1017 34 10000 3.6 180 11:40 26.05.2020
2397 Clouds 20 1017 34 10000 3.6 180 11:19 26.05.2020
2398 Clouds 20 1017 37 10000 3.1 210 10:44 26.05.2020
2399 Clouds 19 1017 37 10000 3.1 210 10:19 26.05.2020
2400 Clouds 16 1017 41 10000 1.5 160 09:41 26.05.2020
2401 Clouds 16 1017 41 10000 1.5 160 09:20 26.05.2020
2402 Rain 14 1018 58 10000 0.5 0 08:44 26.05.2020
2403 Rain 14 1018 58 10000 0.5 0 08:23 26.05.2020
2404 Clouds 13 1017 62 10000 3.29 122 08:00 26.05.2020
2405 Clouds 14 1017 62 10000 3.29 122 07:40 26.05.2020
2406 Clouds 14 1017 62 10000 3.29 122 07:40 26.05.2020
2407 Clouds 13 1017 62 10000 2.26 91 07:22 26.05.2020
2408 Clouds 12 1017 66 10000 1 0 06:47 26.05.2020
2409 Clouds 11 1017 66 10000 1 0 06:23 26.05.2020
2410 Clouds 11 1017 71 10000 2.03 74 05:35 26.05.2020
2411 Clouds 10 1018 66 10000 1.5 0 04:58 26.05.2020
2412 Clouds 10 1018 66 10000 1.5 0 04:40 26.05.2020
2413 Clouds 10 1018 66 10000 1.5 0 04:21 26.05.2020
2414 Clouds 11 1018 62 10000 1 210 02:52 26.05.2020
2415 Clouds 11 1018 62 10000 1 210 02:21 26.05.2020
2416 Clouds 11 1018 58 10000 2.1 230 01:40 26.05.2020
2417 Clouds 12 1018 62 10000 1.5 240 00:39 26.05.2020
2418 Clouds 12 1018 62 10000 1.5 240 00:20 26.05.2020
2419 Clouds 12 1018 54 10000 2.6 220 23:58 25.05.2020
2420 Clouds 12 1018 54 10000 2.6 220 23:38 25.05.2020
2421 Clouds 13 1018 54 10000 2.6 220 23:19 25.05.2020
2422 Clouds 12 1018 58 10000 2.6 240 22:55 25.05.2020
2423 Clouds 13 1018 58 10000 2.6 240 22:37 25.05.2020
2424 Clouds 13 1018 58 10000 2.6 240 22:37 25.05.2020
2425 Clouds 13 1018 58 10000 2.6 240 22:18 25.05.2020
2426 Clouds 15 1018 41 10000 1 0 21:57 25.05.2020
2427 Clouds 15 1018 41 10000 1 0 21:36 25.05.2020
2428 Clouds 15 1018 41 10000 1 0 21:18 25.05.2020
2429 Clouds 16 1018 39 10000 2.1 20 20:43 25.05.2020
2430 Clouds 16 1018 39 10000 2.1 20 20:22 25.05.2020
2431 Clouds 18 1017 32 10000 1.5 0 19:59 25.05.2020
2432 Clouds 18 1017 32 10000 1.5 0 19:41 25.05.2020
2433 Clouds 18 1017 32 10000 1.5 0 19:19 25.05.2020
2434 Clouds 18 1017 32 10000 3.1 20 18:58 25.05.2020
2435 Clouds 18 1017 32 10000 3.1 20 18:40 25.05.2020
2436 Clouds 19 1017 32 10000 3.1 20 18:20 25.05.2020
2437 Clouds 20 1017 28 10000 1.5 0 17:44 25.05.2020
2438 Clouds 20 1017 28 10000 1.5 0 17:44 25.05.2020
2439 Clouds 20 1017 28 10000 1.5 0 17:24 25.05.2020
2440 Clouds 20 1017 28 10000 3.6 240 16:58 25.05.2020
2441 Clouds 20 1017 28 10000 3.6 240 16:40 25.05.2020
2442 Clouds 20 1017 28 10000 3.6 240 16:20 25.05.2020
2443 Clouds 21 1017 26 10000 3.6 260 15:45 25.05.2020
2444 Clouds 21 1017 26 10000 3.6 260 15:20 25.05.2020
2445 Clouds 20 1017 37 10000 3.6 230 14:59 25.05.2020
2446 Clouds 20 1017 37 10000 3.6 230 14:39 25.05.2020
2447 Clouds 20 1017 34 10000 3.6 230 14:21 25.05.2020
2448 Clouds 19 1018 33 10000 1 0 13:55 25.05.2020
2449 Clouds 19 1018 33 10000 1 0 13:37 25.05.2020
2450 Clear 18 1018 31 10000 2.1 0 13:18 25.05.2020
2451 Clear 18 1018 31 10000 2.1 0 12:39 25.05.2020
2452 Clear 18 1018 31 10000 2.1 0 12:21 25.05.2020
2453 Clear 17 1019 31 10000 1.5 80 11:56 25.05.2020
2454 Clear 16 1019 31 10000 1.5 80 11:37 25.05.2020
2455 Clear 16 1019 31 10000 1.5 80 11:18 25.05.2020
2456 Clear 15 1020 31 10000 1 0 10:41 25.05.2020
2457 Clear 15 1020 31 10000 1 0 10:41 25.05.2020
2458 Clear 15 1020 34 10000 1 0 10:21 25.05.2020
2459 Clear 14 1020 41 10000 2.1 0 09:56 25.05.2020
2460 Clear 14 1020 41 10000 2.1 0 09:38 25.05.2020
2461 Clear 14 1020 41 10000 2.1 0 09:19 25.05.2020
2462 Clear 12 1020 46 10000 1 0 08:43 25.05.2020
2463 Clear 12 1020 46 10000 1 0 08:24 25.05.2020
2464 Clear 11 1020 53 10000 3.1 90 07:58 25.05.2020
2465 Clear 11 1020 53 10000 3.1 90 07:39 25.05.2020
2466 Clear 10 1020 53 10000 3.1 90 07:19 25.05.2020
2467 Clear 8 1020 57 10000 3.1 70 06:41 25.05.2020
2468 Clear 6 1020 65 10000 0.13 165 06:19 25.05.2020
2469 Clear 6 1020 80 10000 0.5 0 03:31 25.05.2020
2470 Clear 6 1020 65 10000 1 0 02:52 25.05.2020
2471 Clear 7 1020 65 10000 1 0 02:34 25.05.2020
2472 Clear 8 1020 61 10000 2.6 240 01:42 25.05.2020
2473 Clear 9 1021 57 10000 3.1 30 00:47 25.05.2020
2474 Clear 9 1021 57 10000 3.1 30 00:26 25.05.2020
2475 Clear 9 1021 50 10000 3.1 50 23:58 24.05.2020
2476 Clear 10 1021 50 10000 3.1 50 23:39 24.05.2020
2477 Clear 10 1021 50 10000 3.1 50 23:39 24.05.2020
2478 Clear 10 1021 50 10000 3.1 50 23:20 24.05.2020
2479 Clear 11 1021 46 10000 1 0 22:55 24.05.2020
2480 Clear 11 1021 46 10000 1 0 22:37 24.05.2020
2481 Clear 11 1021 46 10000 1 0 22:18 24.05.2020
2482 Clear 11 1021 46 10000 1 0 22:18 24.05.2020
2483 Clear 12 1021 41 10000 5.1 50 21:55 24.05.2020
2484 Clear 13 1021 41 10000 5.1 50 21:36 24.05.2020
2485 Clear 13 1020 54 10000 3.1 30 21:18 24.05.2020
2486 Clear 14 1020 57 10000 3.1 30 20:43 24.05.2020
2487 Clear 14 1020 57 10000 3.1 30 20:43 24.05.2020
2488 Clear 14 1020 52 10000 3.1 30 20:21 24.05.2020
2489 Clear 15 1020 31 10000 4.1 50 19:56 24.05.2020
2490 Clear 15 1020 31 10000 4.1 50 19:37 24.05.2020
2491 Clouds 16 1019 50 10000 5.1 40 19:18 24.05.2020
2492 Clouds 17 1019 50 10000 5.1 40 18:42 24.05.2020
2493 Clouds 17 1019 43 10000 5.1 40 18:23 24.05.2020
2494 Clouds 17 1019 43 10000 3.6 30 17:57 24.05.2020
2495 Clouds 17 1019 43 10000 3.6 30 17:38 24.05.2020
2496 Clouds 17 1019 36 10000 3.6 30 17:19 24.05.2020
2497 Clouds 17 1019 36 10000 3.1 50 16:56 24.05.2020
2498 Clouds 17 1019 36 10000 3.1 50 16:37 24.05.2020
2499 Clouds 17 1019 33 10000 3.1 50 16:19 24.05.2020
2500 Clouds 17 1020 33 10000 4.1 70 15:55 24.05.2020
2501 Clouds 17 1020 33 10000 4.1 70 15:37 24.05.2020
2502 Clouds 17 1020 31 10000 4.1 70 15:18 24.05.2020
2503 Clouds 17 1020 31 10000 3.6 20 14:42 24.05.2020
2504 Clouds 17 1020 31 10000 3.6 20 14:22 24.05.2020
2505 Clouds 16 1020 29 10000 2.6 0 13:56 24.05.2020
2506 Clouds 16 1020 29 10000 2.6 0 13:38 24.05.2020
2507 Clouds 16 1020 29 10000 2.6 0 13:20 24.05.2020
2508 Clouds 15 1021 29 10000 2.6 360 12:57 24.05.2020
2509 Clouds 15 1021 29 10000 2.6 360 12:38 24.05.2020
2510 Clouds 15 1021 29 10000 2.6 360 12:19 24.05.2020
2511 Clouds 14 1021 35 10000 4.1 60 11:55 24.05.2020
2512 Clouds 14 1021 35 10000 4.1 60 11:37 24.05.2020
2513 Clouds 14 1021 35 10000 4.1 60 11:19 24.05.2020
2514 Clouds 14 1021 35 10000 4.1 60 11:19 24.05.2020
2515 Clouds 13 1022 38 10000 2.6 0 10:43 24.05.2020
2516 Clouds 12 1022 42 10000 2.6 0 10:23 24.05.2020
2517 Clouds 12 1022 40 10000 2.1 0 09:58 24.05.2020
2518 Clouds 11 1022 40 10000 2.1 0 09:40 24.05.2020
2519 Clouds 10 1023 46 10000 3.1 0 09:18 24.05.2020
2520 Clouds 10 1023 46 10000 3.1 0 08:42 24.05.2020
2521 Clouds 10 1023 46 10000 3.1 0 08:24 24.05.2020
2522 Clouds 9 1022 49 10000 1.5 40 07:59 24.05.2020
2523 Clouds 9 1022 49 10000 1.5 40 07:40 24.05.2020
2524 Clouds 8 1022 49 10000 1.5 40 07:21 24.05.2020
2525 Clear 6 1022 60 10000 1.5 0 06:45 24.05.2020
2526 Clear 4 1022 69 10000 2.6 220 05:50 24.05.2020
2527 Clear 6 1021 80 10000 1.5 230 03:59 24.05.2020
2528 Clear 6 1021 80 10000 1.5 230 03:40 24.05.2020
2529 Clouds 6 1021 80 10000 1.5 330 02:30 24.05.2020
2530 Clouds 7 1021 65 10000 3.6 20 01:32 24.05.2020
2531 Clouds 6 1021 70 10000 2.6 280 00:38 24.05.2020
2532 Clouds 6 1021 70 10000 2.6 280 00:20 24.05.2020
2533 Clouds 7 1021 61 10000 1.5 230 23:40 23.05.2020
2534 Clouds 7 1021 61 10000 1.5 230 23:21 23.05.2020
2535 Clouds 7 1021 57 10000 3.6 30 22:57 23.05.2020
2536 Clouds 7 1021 57 10000 3.6 30 22:37 23.05.2020
2537 Clouds 8 1021 57 10000 3.6 30 22:19 23.05.2020
2538 Clouds 8 1020 61 10000 2.6 360 21:57 23.05.2020
2539 Clouds 8 1020 61 10000 2.6 360 21:37 23.05.2020
2540 Clouds 8 1019 57 10000 6.2 20 21:19 23.05.2020
2541 Clouds 8 1019 57 10000 6.2 20 20:55 23.05.2020
2542 Clouds 9 1019 57 10000 6.2 20 20:36 23.05.2020
2543 Clouds 9 1019 57 10000 6.2 20 20:18 23.05.2020
2544 Rain 10 1019 50 10000 4.1 20 19:41 23.05.2020
2545 Rain 10 1019 50 10000 4.1 20 19:19 23.05.2020
2546 Rain 10 1018 62 10000 5.1 360 18:57 23.05.2020
2547 Rain 10 1018 62 10000 5.1 360 18:39 23.05.2020
2548 Rain 10 1018 59 10000 5.1 360 18:20 23.05.2020
2549 Clouds 13 1018 33 10000 3.6 260 17:54 23.05.2020
2550 Clouds 13 1018 33 10000 3.6 260 17:36 23.05.2020
2551 Clouds 13 1018 33 10000 3.6 260 17:18 23.05.2020
2552 Clouds 13 1018 33 10000 3.6 250 17:18 23.05.2020
2553 Clouds 13 1018 33 10000 3.6 250 16:55 23.05.2020
2554 Clouds 14 1018 33 10000 3.6 250 16:37 23.05.2020
2555 Clouds 13 1019 33 10000 3.1 270 16:18 23.05.2020
2556 Clouds 14 1019 33 10000 3.1 270 15:41 23.05.2020
2557 Clouds 14 1019 33 10000 3.1 270 15:23 23.05.2020
2558 Clouds 13 1019 35 10000 1 0 14:43 23.05.2020
2559 Clouds 13 1019 35 10000 1 0 14:24 23.05.2020
2560 Clouds 13 1019 35 10000 2.6 0 13:57 23.05.2020
2561 Clouds 13 1019 35 10000 2.6 0 13:38 23.05.2020
2562 Clouds 12 1019 35 10000 2.6 0 13:18 23.05.2020
2563 Clouds 12 1020 37 10000 2.1 0 12:42 23.05.2020
2564 Clouds 12 1020 37 10000 2.1 0 12:20 23.05.2020
2565 Clouds 11 1020 40 10000 2.1 0 11:59 23.05.2020
2566 Clouds 11 1020 40 10000 2.1 0 11:41 23.05.2020
2567 Clouds 11 1020 40 10000 2.1 0 11:19 23.05.2020
2568 Clouds 11 1020 43 10000 2.6 270 10:56 23.05.2020
2569 Clouds 11 1020 43 10000 2.6 270 10:37 23.05.2020
2570 Clouds 11 1020 43 10000 2.6 270 10:19 23.05.2020
2571 Clouds 10 1021 46 10000 2.1 0 09:55 23.05.2020
2572 Clouds 10 1021 46 10000 2.1 0 09:37 23.05.2020
2573 Clouds 9 1021 53 10000 2.1 0 09:18 23.05.2020
2574 Clouds 8 1021 52 10000 2.1 0 08:41 23.05.2020
2575 Clouds 8 1021 52 10000 2.1 0 08:19 23.05.2020
2576 Clouds 7 1021 52 10000 2.6 250 07:46 23.05.2020
2577 Clouds 7 1021 52 10000 2.6 250 07:27 23.05.2020
2578 Clouds 6 1021 66 10000 1.5 260 06:44 23.05.2020
2579 Clouds 2 1021 75 10000 2.6 220 05:59 23.05.2020
2580 Clear 3 1021 74 10000 1.5 0 04:27 23.05.2020
2581 Clear 3 1021 74 10000 2.1 0 03:26 23.05.2020
2582 Clear 4 1020 69 10000 2.6 250 02:42 23.05.2020
2583 Clear 4 1021 65 10000 1 0 01:50 23.05.2020
2584 Clear 4 1021 65 10000 1 0 01:19 23.05.2020
2585 Clear 4 1020 65 10000 3.1 230 00:43 23.05.2020
2586 Clouds 5 1020 65 10000 3.1 230 00:21 23.05.2020
2587 Clouds 5 1020 60 10000 2.1 0 23:45 22.05.2020
2588 Clouds 6 1020 60 10000 2.1 0 23:22 22.05.2020
2589 Clouds 6 1020 56 10000 2.6 0 22:59 22.05.2020
2590 Clouds 7 1020 56 10000 2.6 0 22:41 22.05.2020
2591 Clouds 7 1020 56 10000 2.6 0 22:21 22.05.2020
2592 Clouds 7 1020 71 10000 4.1 360 21:55 22.05.2020
2593 Clouds 7 1020 71 10000 4.1 360 21:55 22.05.2020
2594 Clouds 7 1020 71 10000 4.1 360 21:36 22.05.2020
2595 Clouds 7 1020 66 10000 4.1 360 21:18 22.05.2020
2596 Clouds 7 1019 66 10000 4.6 360 20:42 22.05.2020
2597 Clouds 7 1019 68 10000 4.6 360 20:20 22.05.2020
2598 Clouds 8 1017 61 10000 2.1 260 19:45 22.05.2020
2599 Clouds 8 1017 61 10000 2.1 260 19:26 22.05.2020
2600 Clouds 8 1016 70 10000 1 230 18:57 22.05.2020
2601 Clouds 9 1016 70 10000 1 230 18:38 22.05.2020
2602 Clouds 9 1016 70 10000 1 230 18:19 22.05.2020
2603 Clouds 9 1015 66 10000 3.1 210 17:41 22.05.2020
2604 Clouds 9 1015 66 10000 3.1 210 17:20 22.05.2020
2605 Clouds 9 1015 71 10000 2.6 190 16:58 22.05.2020
2606 Rain 9 1014 76 10000 6.7 290 16:39 22.05.2020
2607 Rain 9 1014 76 10000 6.7 290 16:20 22.05.2020
2608 Rain 9 1013 76 10000 6.2 300 15:56 22.05.2020
2609 Rain 10 1013 76 10000 6.2 300 15:38 22.05.2020
2610 Rain 10 1013 76 10000 6.2 300 15:18 22.05.2020
2611 Clouds 12 1012 62 10000 7.7 300 14:40 22.05.2020
2612 Clouds 12 1012 62 10000 7.7 300 14:21 22.05.2020
2613 Rain 13 1011 82 10000 8.7 310 13:44 22.05.2020
2614 Rain 12 1011 82 10000 8.7 310 13:19 22.05.2020
2615 Clouds 20 1008 37 10000 5.1 260 12:43 22.05.2020
2616 Clouds 21 1008 37 10000 5.1 260 12:25 22.05.2020
2617 Clouds 21 1008 43 10000 6.7 270 11:55 22.05.2020
2618 Clouds 21 1008 40 10000 6.7 240 11:36 22.05.2020
2619 Clouds 21 1008 56 10000 4.6 260 11:18 22.05.2020
2620 Clouds 20 1008 56 10000 4.6 260 10:40 22.05.2020
2621 Clouds 20 1008 56 10000 4.6 260 10:22 22.05.2020
2622 Clouds 18 1008 68 10000 2.6 240 09:57 22.05.2020
2623 Clouds 18 1008 68 10000 2.6 240 09:38 22.05.2020
2624 Clouds 18 1008 72 10000 3.1 260 09:18 22.05.2020
2625 Clouds 17 1008 72 10000 3.1 260 08:43 22.05.2020
2626 Clouds 17 1008 72 10000 3.1 260 08:20 22.05.2020
2627 Clouds 17 1008 72 10000 3.6 270 07:52 22.05.2020
2628 Clouds 17 1008 72 10000 3.6 270 07:24 22.05.2020
2629 Clear 16 1008 82 10000 4.5 274 06:54 22.05.2020
2630 Clear 16 1008 82 10000 4.5 274 06:32 22.05.2020
2631 Clear 15 1008 82 10000 3.1 240 05:38 22.05.2020
2632 Clear 15 1008 82 10000 3.1 260 04:50 22.05.2020
2633 Clear 15 1008 82 10000 3.1 260 04:19 22.05.2020
2634 Clear 16 1008 72 10000 2.1 260 03:41 22.05.2020
2635 Clear 16 1008 67 10000 4.1 240 02:59 22.05.2020
2636 Clouds 18 1008 59 10000 3.6 230 01:49 22.05.2020
2637 Clouds 18 1008 59 10000 3.6 230 01:24 22.05.2020
2638 Clouds 18 1007 52 10000 4.1 230 00:34 22.05.2020
2639 Clouds 20 1007 31 10000 3.1 230 23:59 21.05.2020
2640 Clouds 20 1007 31 10000 3.1 230 23:40 21.05.2020
2641 Rain 20 1007 31 10000 3.1 230 23:22 21.05.2020
2642 Rain 22 1007 37 10000 4.1 270 22:57 21.05.2020
2643 Rain 22 1007 37 10000 4.1 270 22:37 21.05.2020
2644 Rain 22 1007 37 10000 4.1 270 22:37 21.05.2020
2645 Rain 22 1007 37 10000 4.1 270 22:19 21.05.2020
2646 Clouds 23 1007 24 10000 6.2 220 21:48 21.05.2020
2647 Clouds 23 1007 24 10000 6.2 220 21:27 21.05.2020
2648 Clouds 24 1007 26 10000 4.6 220 20:58 21.05.2020
2649 Clouds 24 1007 26 10000 4.6 220 20:40 21.05.2020
2650 Clouds 24 1007 26 10000 4.6 220 20:21 21.05.2020
2651 Clouds 25 1007 31 10000 3.6 230 19:40 21.05.2020
2652 Clouds 25 1007 31 10000 3.6 230 19:20 21.05.2020
2653 Clouds 27 1007 29 10000 4.1 220 18:58 21.05.2020
2654 Rain 27 1006 24 10000 13.4 220 18:37 21.05.2020
2655 Rain 27 1006 24 10000 13.4 220 18:18 21.05.2020
2656 Clouds 28 1006 17 10000 9.3 220 17:54 21.05.2020
2657 Clouds 29 1006 17 10000 9.3 220 17:36 21.05.2020
2658 Clouds 29 1006 17 10000 9.3 220 17:18 21.05.2020
2659 Clouds 30 1007 20 10000 5.1 190 16:40 21.05.2020
2660 Clouds 29 1009 23 10000 6.2 240 16:21 21.05.2020
2661 Clouds 29 1009 23 10000 6.2 240 15:41 21.05.2020
2662 Clouds 29 1009 23 10000 6.2 240 15:22 21.05.2020
2663 Rain 28 1009 33 10000 12.3 240 14:41 21.05.2020
2664 Rain 30 1008 22 10000 8.2 240 14:23 21.05.2020
2665 Rain 30 1008 22 10000 8.2 240 13:56 21.05.2020
2666 Clouds 31 1009 14 10000 8.2 240 13:37 21.05.2020
2667 Clouds 31 1008 14 10000 11.8 250 13:18 21.05.2020
2668 Clouds 32 1009 15 10000 8.2 230 12:39 21.05.2020
2669 Clouds 32 1009 15 10000 8.2 230 12:20 21.05.2020
2670 Clouds 31 1010 27 10000 3.6 270 11:57 21.05.2020
2671 Clouds 30 1010 27 10000 3.6 270 11:39 21.05.2020
2672 Clouds 30 1010 27 10000 3.6 270 11:39 21.05.2020
2673 Clouds 30 1010 27 10000 3.6 270 11:20 21.05.2020
2674 Clouds 29 1010 28 10000 4.1 190 10:43 21.05.2020
2675 Clouds 29 1010 28 10000 4.1 190 10:23 21.05.2020
2676 Clouds 27 1011 32 10000 0.5 0 09:59 21.05.2020
2677 Clouds 27 1011 32 10000 0.5 0 09:40 21.05.2020
2678 Clouds 27 1011 32 10000 0.5 0 09:22 21.05.2020
2679 Clouds 26 1011 36 10000 0.5 0 08:50 21.05.2020
2680 Clouds 25 1011 36 10000 0.5 0 08:31 21.05.2020
2681 Clouds 23 1011 40 10000 0.5 0 07:59 21.05.2020
2682 Clouds 22 1011 40 10000 0.5 0 07:37 21.05.2020
2683 Clouds 20 1011 52 10000 1 0 07:18 21.05.2020
2684 Clouds 17 1011 52 10000 1 0 06:30 21.05.2020
2685 Clouds 17 1011 52 10000 1.5 210 05:50 21.05.2020
2686 Clouds 18 1011 42 10000 0.5 0 03:47 21.05.2020
2687 Clouds 18 1011 42 10000 0.5 0 03:20 21.05.2020
2688 Clouds 20 1012 40 10000 1.66 58 02:31 21.05.2020
2689 Clouds 22 1012 40 10000 2.1 230 01:50 21.05.2020
2690 Clouds 22 1012 40 10000 2.1 230 01:24 21.05.2020
2691 Clouds 23 1013 35 10000 2.1 0 00:54 21.05.2020
2692 Clouds 22 1013 35 10000 2.1 0 00:26 21.05.2020
2693 Clouds 22 1012 35 10000 0.5 0 23:58 20.05.2020
2694 Clouds 22 1012 35 10000 0.5 0 23:38 20.05.2020
2695 Clouds 22 1012 35 10000 0.5 0 23:18 20.05.2020
2696 Clouds 23 1013 33 10000 1 0 22:42 20.05.2020
2697 Clouds 23 1013 33 10000 1 0 22:42 20.05.2020
2698 Clouds 23 1013 33 10000 1 0 22:24 20.05.2020
2699 Clouds 23 1013 29 10000 2.6 230 21:56 20.05.2020
2700 Clouds 23 1013 29 10000 2.6 230 21:56 20.05.2020
2701 Clouds 24 1013 29 10000 2.6 230 21:37 20.05.2020
2702 Clouds 24 1013 29 10000 2.6 230 21:19 20.05.2020
2703 Clouds 25 1012 26 10000 3.1 70 20:41 20.05.2020
2704 Clouds 25 1012 26 10000 3.1 70 20:23 20.05.2020
2705 Clouds 25 1012 26 10000 3.1 70 20:23 20.05.2020
2706 Clouds 27 1012 20 10000 1.5 30 19:42 20.05.2020
2707 Clouds 28 1012 20 10000 1.5 30 19:24 20.05.2020
2708 Clouds 29 1012 23 10000 1.5 230 18:58 20.05.2020
2709 Clouds 29 1012 23 10000 1.5 230 18:39 20.05.2020
2710 Clouds 29 1012 23 10000 1.5 230 18:20 20.05.2020
2711 Clouds 30 1012 17 10000 5.1 220 17:40 20.05.2020
2712 Clouds 30 1012 17 10000 5.1 220 17:21 20.05.2020
2713 Clouds 31 1012 15 10000 5.7 240 16:55 20.05.2020
2714 Clouds 31 1012 15 10000 5.7 240 16:36 20.05.2020
2715 Clouds 31 1013 14 10000 5.7 270 16:18 20.05.2020
2716 Clouds 32 1013 15 10000 6.7 250 15:42 20.05.2020
2717 Clouds 33 1013 19 10000 5.7 240 15:23 20.05.2020
2718 Clouds 32 1013 19 10000 5.7 240 14:43 20.05.2020
2719 Clouds 32 1013 19 10000 5.7 240 14:21 20.05.2020
2720 Clouds 33 1014 16 10000 6.2 230 13:43 20.05.2020
2721 Clouds 33 1014 16 10000 6.2 230 13:21 20.05.2020
2722 Clouds 31 1015 21 10000 3.6 230 12:59 20.05.2020
2723 Clouds 31 1015 21 10000 3.6 230 12:39 20.05.2020
2724 Clouds 31 1015 21 10000 3.6 230 12:20 20.05.2020
2725 Clouds 30 1016 33 10000 1 0 11:37 20.05.2020
2726 Clouds 30 1016 33 10000 1 0 11:18 20.05.2020
2727 Clouds 28 1016 32 10000 1 0 10:43 20.05.2020
2728 Clouds 28 1016 32 10000 1 0 10:21 20.05.2020
2729 Clouds 27 1017 34 10000 0.5 0 09:46 20.05.2020
2730 Clouds 27 1017 34 10000 0.5 0 09:46 20.05.2020
2731 Clouds 25 1017 34 10000 0.5 0 09:22 20.05.2020
2732 Clouds 24 1017 38 10000 0.5 0 08:59 20.05.2020
2733 Clouds 24 1017 38 10000 0.5 0 08:41 20.05.2020
2734 Clouds 24 1017 38 10000 0.5 0 08:19 20.05.2020
2735 Clouds 21 1017 52 10000 1.14 158 07:49 20.05.2020
2736 Clouds 21 1017 52 10000 0.99 117 07:22 20.05.2020
2737 Clouds 18 1018 63 10000 0.99 117 06:45 20.05.2020
2738 Clear 13 1018 71 10000 0.54 98 05:25 20.05.2020
2739 Clear 15 1018 67 10000 1 220 04:34 20.05.2020
2740 Clear 14 1018 72 10000 0.54 111 03:53 20.05.2020
2741 Clear 16 1018 72 10000 1 220 02:32 20.05.2020
2742 Clear 17 1018 55 10000 0.89 110 01:31 20.05.2020
2743 Clear 17 1019 55 10000 0.5 230 00:46 20.05.2020
2744 Clear 18 1019 55 10000 0.5 230 00:24 20.05.2020
2745 Clear 19 1019 45 10000 1.12 61 23:45 19.05.2020
2746 Clear 18 1019 45 10000 1.24 66 23:21 19.05.2020
2747 Clear 22 1019 38 10000 0.5 0 22:56 19.05.2020
2748 Clear 22 1019 38 10000 0.5 0 22:38 19.05.2020
2749 Clear 22 1019 38 10000 0.5 0 22:20 19.05.2020
2750 Clear 22 1019 38 10000 0.5 0 22:20 19.05.2020
2751 Clear 23 1019 36 10000 0.5 0 21:58 19.05.2020
2752 Clear 23 1019 36 10000 0.5 0 21:38 19.05.2020
2753 Clouds 23 1019 36 10000 0.5 0 21:20 19.05.2020
2754 Clouds 25 1019 32 10000 2.1 60 20:58 19.05.2020
2755 Clouds 25 1019 32 10000 2.1 60 20:58 19.05.2020
2756 Clouds 25 1019 32 10000 2.1 60 20:40 19.05.2020
2757 Clouds 25 1019 32 10000 2.1 60 20:21 19.05.2020
2758 Clouds 27 1019 26 10000 2.1 10 19:55 19.05.2020
2759 Clouds 27 1019 26 10000 2.1 10 19:37 19.05.2020
2760 Clouds 27 1019 26 10000 2.1 10 19:37 19.05.2020
2761 Clouds 28 1018 23 10000 1.5 0 19:19 19.05.2020
2762 Clouds 29 1018 23 10000 1.5 0 18:42 19.05.2020
2763 Clouds 29 1018 23 10000 1.5 0 18:20 19.05.2020
2764 Clouds 30 1018 22 10000 2.6 0 17:44 19.05.2020
2765 Clouds 30 1018 22 10000 2.6 0 17:22 19.05.2020
2766 Clouds 30 1019 23 10000 2.6 0 16:59 19.05.2020
2767 Clouds 30 1019 23 10000 2.6 0 16:39 19.05.2020
2768 Clouds 30 1019 23 10000 2.6 0 16:21 19.05.2020
2769 Clouds 30 1019 22 10000 3.6 250 15:48 19.05.2020
2770 Clouds 31 1019 22 10000 3.6 250 15:23 19.05.2020
2771 Clouds 30 1020 23 10000 1.5 0 14:59 19.05.2020
2772 Clouds 30 1020 23 10000 1.5 0 14:41 19.05.2020
2773 Clouds 30 1020 23 10000 1.5 0 14:21 19.05.2020
2774 Clouds 29 1020 25 10000 3.1 260 13:58 19.05.2020
2775 Clouds 29 1020 25 10000 3.1 260 13:40 19.05.2020
2776 Clouds 29 1020 25 10000 3.1 260 13:21 19.05.2020
2777 Clouds 29 1021 23 10000 2.1 0 12:57 19.05.2020
2778 Clouds 29 1021 23 10000 2.1 0 12:38 19.05.2020
2779 Clouds 29 1021 23 10000 2.1 0 12:20 19.05.2020
2780 Clouds 27 1021 30 10000 1.5 0 11:55 19.05.2020
2781 Clouds 27 1021 30 10000 1.5 0 11:37 19.05.2020
2782 Clouds 26 1022 27 10000 1.5 240 11:18 19.05.2020
2783 Clouds 26 1022 27 10000 1.5 240 10:43 19.05.2020
2784 Clouds 26 1022 27 10000 1.5 240 10:23 19.05.2020
2785 Clouds 24 1022 38 10000 2.1 220 09:55 19.05.2020
2786 Clouds 24 1022 38 10000 2.1 220 09:37 19.05.2020
2787 Clear 24 1022 38 10000 2.1 220 09:18 19.05.2020
2788 Clear 22 1022 43 10000 0.5 0 08:41 19.05.2020
2789 Clear 22 1022 43 10000 0.5 0 08:23 19.05.2020
2790 Clear 19 1023 59 10000 0.5 0 07:42 19.05.2020
2791 Clear 19 1023 59 10000 0.5 0 07:24 19.05.2020
2792 Clear 16 1023 72 10000 1 15 06:41 19.05.2020
2793 Clear 14 1023 72 10000 0.79 13 06:22 19.05.2020
2794 Clear 13 1022 76 10000 0.79 13 05:40 19.05.2020
2795 Clear 13 1022 71 10000 0.5 200 04:55 19.05.2020
2796 Clear 13 1022 71 10000 0.5 200 04:55 19.05.2020
2797 Clear 14 1022 67 10000 1.01 24 03:45 19.05.2020
2798 Clouds 17 1022 55 10000 1.75 27 01:23 19.05.2020
2799 Clouds 18 1022 48 10000 1 0 00:43 19.05.2020
2800 Clouds 18 1022 48 10000 1 0 00:21 19.05.2020
2801 Clouds 20 1023 40 10000 2.1 19 23:40 18.05.2020
2802 Clouds 20 1023 40 10000 1.85 21 23:21 18.05.2020
2803 Clouds 21 1022 38 10000 3.1 80 23:00 18.05.2020
2804 Clouds 22 1022 38 10000 3.1 80 22:40 18.05.2020
2805 Clouds 22 1022 38 10000 3.1 80 22:21 18.05.2020
2806 Clouds 23 1022 38 10000 3.1 30 21:43 18.05.2020
2807 Clouds 23 1022 38 10000 3.1 30 21:22 18.05.2020
2808 Clouds 24 1021 36 10000 5.1 40 20:59 18.05.2020
2809 Clouds 24 1021 36 10000 5.1 40 20:41 18.05.2020
2810 Clouds 26 1021 34 10000 3.6 10 20:21 18.05.2020
2811 Clouds 26 1021 34 10000 3.6 10 19:57 18.05.2020
2812 Clouds 26 1021 34 10000 3.6 10 19:38 18.05.2020
2813 Clouds 28 1020 27 10000 4.1 360 19:18 18.05.2020
2814 Clouds 29 1020 27 10000 4.1 360 18:45 18.05.2020
2815 Clouds 29 1020 27 10000 4.1 360 18:24 18.05.2020
2816 Clouds 30 1020 25 10000 3.6 350 17:40 18.05.2020
2817 Clouds 31 1020 19 10000 4.6 250 17:18 18.05.2020
2818 Clouds 31 1020 19 10000 4.6 250 16:57 18.05.2020
2819 Clouds 31 1020 19 10000 4.6 250 16:38 18.05.2020
2820 Clouds 31 1020 19 10000 4.6 250 16:20 18.05.2020
2821 Clouds 32 1020 18 10000 5.1 250 15:57 18.05.2020
2822 Clouds 32 1020 18 10000 5.1 250 15:38 18.05.2020
2823 Clouds 32 1020 18 10000 5.1 250 15:20 18.05.2020
2824 Clouds 32 1021 19 10000 6.2 240 14:47 18.05.2020
2825 Clouds 32 1021 19 10000 6.2 240 14:25 18.05.2020
2826 Clouds 31 1021 22 10000 2.1 0 13:59 18.05.2020
2827 Clouds 31 1021 22 10000 2.1 0 13:39 18.05.2020
2828 Clouds 30 1021 22 10000 2.1 0 13:20 18.05.2020
2829 Clouds 30 1022 22 10000 3.1 0 12:57 18.05.2020
2830 Clouds 30 1022 22 10000 3.1 0 12:39 18.05.2020
2831 Clouds 30 1022 22 10000 3.1 0 12:19 18.05.2020
2832 Clouds 28 1022 24 10000 2.1 190 11:47 18.05.2020
2833 Clouds 28 1022 24 10000 2.1 190 11:27 18.05.2020
2834 Clouds 27 1022 32 10000 1 0 10:59 18.05.2020
2835 Clouds 27 1022 32 10000 1 0 10:40 18.05.2020
2836 Clouds 27 1022 32 10000 1 0 10:22 18.05.2020
2837 Clouds 25 1022 36 10000 1 0 09:44 18.05.2020
2838 Clouds 25 1022 36 10000 1 0 09:25 18.05.2020
2839 Clouds 23 1023 43 10000 0.5 0 08:46 18.05.2020
2840 Clouds 22 1023 43 10000 0.5 0 08:27 18.05.2020
2841 Clouds 21 1023 52 10000 0.89 282 07:58 18.05.2020
2842 Clouds 22 1023 52 10000 0.89 282 07:38 18.05.2020
2843 Clouds 21 1023 52 10000 0.43 268 07:18 18.05.2020
2844 Clouds 17 1022 71 10000 1 230 06:43 18.05.2020
2845 Clouds 13 1022 67 10000 0.47 268 05:49 18.05.2020
2846 Clouds 13 1022 67 10000 0.37 257 05:25 18.05.2020
2847 Clouds 15 1022 67 10000 0.61 255 03:34 18.05.2020
2848 Clouds 16 1022 63 10000 0.87 238 02:30 18.05.2020
2849 Clouds 17 1022 59 10000 1 230 01:22 18.05.2020
2850 Clouds 18 1022 55 10000 1.16 254 00:25 18.05.2020
2851 Clouds 18 1022 55 10000 0.5 220 23:57 17.05.2020
2852 Clouds 19 1022 55 10000 0.5 220 23:39 17.05.2020
2853 Clouds 19 1022 55 10000 0.5 220 23:20 17.05.2020
2854 Clouds 20 1022 52 10000 0.93 223 22:56 17.05.2020
2855 Clouds 19 1022 52 10000 0.93 223 22:37 17.05.2020
2856 Clouds 20 1022 52 10000 1.22 193 22:19 17.05.2020
2857 Clouds 21 1022 46 10000 1.22 193 21:55 17.05.2020
2858 Clouds 21 1022 46 10000 1.22 193 21:37 17.05.2020
2859 Clouds 24 1022 38 10000 0.5 240 21:18 17.05.2020
2860 Clouds 24 1022 38 10000 0.5 240 20:42 17.05.2020
2861 Clouds 24 1022 38 10000 0.5 240 20:21 17.05.2020
2862 Clouds 26 1022 26 10000 1.76 212 19:57 17.05.2020
2863 Clouds 26 1022 26 10000 1.76 212 19:38 17.05.2020
2864 Clouds 28 1022 26 10000 1.65 220 19:19 17.05.2020
2865 Clouds 29 1022 25 10000 2.1 230 18:42 17.05.2020
2866 Clouds 29 1022 25 10000 2.1 230 18:23 17.05.2020
2867 Clouds 30 1022 19 10000 3.1 260 17:59 17.05.2020
2868 Clouds 30 1022 19 10000 3.1 260 17:39 17.05.2020
2869 Clouds 29 1022 19 10000 3.1 260 17:19 17.05.2020
2870 Clouds 29 1022 19 10000 3.1 260 17:19 17.05.2020
2871 Clouds 30 1022 20 10000 1.5 0 16:40 17.05.2020
2872 Clouds 30 1022 20 10000 1.5 0 16:21 17.05.2020
2873 Clouds 30 1023 19 10000 1 0 15:59 17.05.2020
2874 Clouds 30 1023 19 10000 1 0 15:59 17.05.2020
2875 Clouds 30 1023 19 10000 1 0 15:39 17.05.2020
2876 Clouds 30 1023 19 10000 1 0 15:20 17.05.2020
2877 Clouds 30 1023 15 10000 2.1 210 14:43 17.05.2020
2878 Clouds 30 1023 15 10000 2.1 210 14:25 17.05.2020
2879 Clouds 29 1024 18 10000 2.1 0 13:59 17.05.2020
2880 Clouds 29 1024 18 10000 2.1 0 13:40 17.05.2020
2881 Clouds 29 1024 18 10000 2.1 0 13:19 17.05.2020
2882 Clouds 12 1025 66 10000 0.87 31 04:47 17.05.2020
2883 Clouds 14 1024 58 10000 1.37 356 02:46 17.05.2020
2884 Clouds 14 1024 58 10000 1.7 3 02:20 17.05.2020
2885 Clouds 15 1024 58 10000 1.5 230 01:47 17.05.2020
2886 Clouds 18 1024 42 10000 1.5 230 00:40 17.05.2020
2887 Clouds 18 1024 42 10000 1.5 230 00:20 17.05.2020
2888 Clouds 19 1024 40 10000 0.5 0 23:40 16.05.2020
2889 Clouds 19 1024 40 10000 0.5 0 23:20 16.05.2020
2890 Clouds 21 1024 35 10000 1 0 22:58 16.05.2020
2891 Clouds 21 1024 35 10000 1 0 22:40 16.05.2020
2892 Clouds 21 1024 35 10000 1 0 22:20 16.05.2020
2893 Clouds 22 1023 35 10000 2.1 250 21:54 16.05.2020
2894 Clouds 22 1023 35 10000 2.1 250 21:36 16.05.2020
2895 Clouds 22 1023 35 10000 2.1 250 21:18 16.05.2020
2896 Clouds 24 1023 24 10000 1 250 20:42 16.05.2020
2897 Clouds 24 1023 24 10000 1 250 20:22 16.05.2020
2898 Clouds 26 1022 24 10000 1 0 19:58 16.05.2020
2899 Clouds 27 1022 24 10000 1 0 19:40 16.05.2020
2900 Clouds 27 1022 24 10000 1 0 19:22 16.05.2020
2901 Clouds 29 1021 20 10000 2.1 0 18:43 16.05.2020
2902 Clouds 29 1021 20 10000 2.1 0 18:25 16.05.2020
2903 Clouds 29 1021 20 10000 2.1 0 18:25 16.05.2020
2904 Clouds 30 1020 15 10000 3.6 0 17:57 16.05.2020
2905 Clouds 31 1020 15 10000 3.6 0 17:39 16.05.2020
2906 Clouds 30 1020 15 10000 3.6 0 17:20 16.05.2020
2907 Clouds 32 1020 16 10000 3.1 0 16:42 16.05.2020
2908 Clouds 32 1020 16 10000 3.1 0 16:23 16.05.2020
2909 Clouds 32 1020 19 10000 5.1 260 15:58 16.05.2020
2910 Clouds 32 1020 19 10000 5.1 260 15:58 16.05.2020
2911 Clouds 32 1020 19 10000 5.1 260 15:40 16.05.2020
2912 Clouds 32 1020 19 10000 5.1 260 15:19 16.05.2020
2913 Clouds 32 1020 19 10000 2.6 0 14:48 16.05.2020
2914 Clouds 32 1020 19 10000 2.6 0 14:21 16.05.2020
2915 Clouds 32 1020 19 10000 2.6 0 14:21 16.05.2020
2916 Clouds 31 1020 19 10000 5.1 250 13:59 16.05.2020
2917 Clouds 32 1020 19 10000 5.1 250 13:59 16.05.2020
2918 Clouds 32 1020 19 10000 5.1 250 13:40 16.05.2020
2919 Clouds 32 1020 19 10000 5.1 250 13:22 16.05.2020
2920 Clouds 31 1020 22 10000 4.6 260 12:45 16.05.2020
2921 Clear 30 1020 22 10000 4.6 260 12:23 16.05.2020
2922 Clear 30 1020 27 10000 5.1 240 12:00 16.05.2020
2923 Clear 30 1020 27 10000 5.1 240 11:39 16.05.2020
2924 Clear 30 1020 27 10000 5.1 240 11:20 16.05.2020
2925 Clear 28 1020 36 10000 1 0 10:56 16.05.2020
2926 Clear 28 1020 36 10000 1 0 10:56 16.05.2020
2927 Clear 28 1020 36 10000 1 0 10:37 16.05.2020
2928 Clear 28 1020 36 10000 1 0 10:19 16.05.2020
2929 Clear 25 1020 38 10000 2.1 0 09:45 16.05.2020
2930 Clear 25 1020 38 10000 2.1 0 09:27 16.05.2020
2931 Clear 23 1021 49 10000 1 0 08:44 16.05.2020
2932 Clouds 22 1021 49 10000 1 0 08:22 16.05.2020
2933 Clouds 21 1020 59 10000 2.62 256 07:55 16.05.2020
2934 Clouds 21 1020 59 10000 2.62 256 07:37 16.05.2020
2935 Clouds 21 1020 59 10000 1.45 237 07:19 16.05.2020
2936 Clouds 18 1020 72 10000 1.45 237 06:44 16.05.2020
2937 Clouds 14 1020 72 10000 1.4 246 06:18 16.05.2020
2938 Clouds 13 1020 71 10000 0.5 230 05:40 16.05.2020
2939 Clouds 14 1020 71 10000 0.93 221 04:31 16.05.2020
2940 Clouds 14 1019 72 10000 0.69 250 03:21 16.05.2020
2941 Clouds 17 1019 67 10000 0.5 0 02:27 16.05.2020
2942 Clouds 17 1019 63 10000 0.5 0 01:56 16.05.2020
2943 Clouds 17 1020 59 10000 0.5 10 01:35 16.05.2020
2944 Clouds 18 1019 59 10000 0.88 242 00:55 16.05.2020
2945 Clouds 18 1019 59 10000 0.88 242 00:37 16.05.2020
2946 Clouds 19 1019 49 10000 1.14 255 00:18 16.05.2020
2947 Clouds 19 1019 49 10000 1.14 255 23:37 15.05.2020
2948 Clear 21 1019 49 10000 0.5 0 23:18 15.05.2020
2949 Clear 21 1019 49 10000 0.5 0 22:40 15.05.2020
2950 Clouds 22 1019 38 10000 0.5 0 22:20 15.05.2020
2951 Clouds 23 1019 38 10000 0.5 0 21:55 15.05.2020
2952 Clouds 23 1019 38 10000 0.5 0 21:55 15.05.2020
2953 Clouds 23 1019 38 10000 0.5 0 21:36 15.05.2020
2954 Clouds 23 1019 38 10000 0.5 0 21:18 15.05.2020
2955 Clouds 24 1018 36 10000 1 240 20:43 15.05.2020
2956 Clouds 24 1018 36 10000 1 240 20:25 15.05.2020
2957 Clouds 27 1018 32 10000 1 220 19:59 15.05.2020
2958 Clouds 27 1018 32 10000 1 220 19:41 15.05.2020
2959 Clouds 27 1018 32 10000 1 220 19:22 15.05.2020
2960 Clouds 29 1018 27 10000 2.6 220 18:47 15.05.2020
2961 Clouds 29 1018 27 10000 2.6 220 18:27 15.05.2020
2962 Clouds 31 1018 22 10000 3.6 240 17:57 15.05.2020
2963 Clouds 31 1018 22 10000 3.6 240 17:36 15.05.2020
2964 Clouds 31 1018 22 10000 3.6 240 17:18 15.05.2020
2965 Clouds 31 1019 22 10000 3.1 230 16:54 15.05.2020
2966 Clouds 31 1019 22 10000 3.1 230 16:36 15.05.2020
2967 Clear 31 1019 21 10000 2.6 230 16:18 15.05.2020
2968 Clear 31 1019 21 10000 2.6 230 15:40 15.05.2020
2969 Clear 31 1019 21 10000 2.6 230 15:20 15.05.2020
2970 Clear 31 1019 22 10000 3.6 260 14:56 15.05.2020
2971 Clear 31 1019 22 10000 3.6 260 14:37 15.05.2020
2972 Clear 31 1019 22 10000 3.6 260 14:37 15.05.2020
2973 Clouds 31 1019 22 10000 3.6 260 14:18 15.05.2020
2974 Clouds 30 1020 19 10000 3.6 250 13:41 15.05.2020
2975 Clouds 30 1020 19 10000 3.6 250 13:22 15.05.2020
2976 Clouds 29 1020 23 10000 1.5 0 12:42 15.05.2020
2977 Clouds 29 1020 23 10000 1.5 0 12:21 15.05.2020
2978 Clouds 28 1021 28 10000 3.1 240 11:59 15.05.2020
2979 Clouds 27 1021 28 10000 3.1 240 11:40 15.05.2020
2980 Clouds 27 1021 28 10000 3.1 240 11:21 15.05.2020
2981 Clouds 27 1021 28 10000 3.1 240 11:21 15.05.2020
2982 Clouds 26 1021 33 10000 1.5 0 10:59 15.05.2020
2983 Clouds 26 1021 33 10000 1.5 0 10:41 15.05.2020
2984 Clouds 25 1021 33 10000 1.5 0 10:23 15.05.2020
2985 Clouds 24 1021 43 10000 2.1 210 09:59 15.05.2020
2986 Clouds 24 1021 43 10000 2.1 210 09:38 15.05.2020
2987 Clouds 23 1021 43 10000 2.1 210 09:19 15.05.2020
2988 Clouds 22 1022 49 10000 0.5 0 08:58 15.05.2020
2989 Clouds 22 1022 49 10000 0.5 0 08:37 15.05.2020
2990 Clouds 22 1022 49 10000 0.5 0 08:18 15.05.2020
2991 Clouds 20 1022 59 10000 0.5 0 07:44 15.05.2020
2992 Clouds 20 1022 59 10000 0.5 0 07:24 15.05.2020
2993 Clouds 16 1021 82 10000 2.1 220 06:52 15.05.2020
2994 Clear 12 1021 76 10000 1 220 05:49 15.05.2020
2995 Clear 13 1020 76 10000 1 0 04:28 15.05.2020
2996 Clear 13 1020 76 10000 1 0 04:28 15.05.2020
2997 Clear 13 1020 71 10000 0.5 0 03:47 15.05.2020
2998 Clouds 14 1020 67 10000 1 230 02:30 15.05.2020
2999 Clouds 16 1020 63 10000 0.88 331 01:24 15.05.2020
3000 Clouds 16 1021 63 10000 1.5 230 00:50 15.05.2020
3001 Clouds 16 1021 63 10000 1.5 230 00:30 15.05.2020
3002 Clouds 18 1020 55 10000 1 220 23:45 14.05.2020
3003 Clouds 18 1020 55 10000 1 220 23:25 14.05.2020
3004 Clouds 19 1020 55 10000 0.5 0 23:00 14.05.2020
3005 Clouds 19 1020 55 10000 0.5 0 22:40 14.05.2020
3006 Clouds 19 1020 55 10000 0.5 0 22:19 14.05.2020
3007 Clouds 20 1019 49 10000 1.5 200 21:58 14.05.2020
3008 Clouds 20 1019 49 10000 1.5 200 21:39 14.05.2020
3009 Clear 20 1019 49 10000 1.5 200 21:19 14.05.2020
3010 Clear 22 1019 40 10000 1 0 20:55 14.05.2020
3011 Clear 22 1019 40 10000 1 0 20:55 14.05.2020
3012 Clear 22 1019 40 10000 1 0 20:36 14.05.2020
3013 Clear 22 1018 43 10000 1 260 20:18 14.05.2020
3014 Clear 23 1018 43 10000 1 260 19:41 14.05.2020
3015 Clear 24 1018 43 10000 1 260 19:21 14.05.2020
3016 Clear 25 1018 34 10000 3.1 240 18:59 14.05.2020
3017 Clear 26 1018 34 10000 3.1 240 18:38 14.05.2020
3018 Clear 26 1018 34 10000 3.1 240 18:20 14.05.2020
3019 Clear 27 1018 21 10000 3.6 250 17:59 14.05.2020
3020 Clear 27 1018 21 10000 3.6 250 17:37 14.05.2020
3021 Clear 27 1018 21 10000 3.6 250 17:19 14.05.2020
3022 Clear 28 1018 20 10000 3.6 230 16:58 14.05.2020
3023 Clear 28 1018 20 10000 3.6 230 16:38 14.05.2020
3024 Clear 28 1018 20 10000 3.6 230 16:19 14.05.2020
3025 Clear 27 1019 24 10000 3.1 250 15:56 14.05.2020
3026 Clear 28 1019 24 10000 3.1 250 15:38 14.05.2020
3027 Clear 27 1019 24 10000 3.1 250 15:19 14.05.2020
3028 Clear 27 1019 26 10000 4.1 210 14:55 14.05.2020
3029 Clear 27 1019 26 10000 4.1 210 14:36 14.05.2020
3030 Clear 27 1020 28 10000 3.6 250 14:18 14.05.2020
3031 Clear 27 1020 28 10000 3.6 250 13:44 14.05.2020
3032 Clear 27 1020 28 10000 3.6 250 13:20 14.05.2020
3033 Clear 26 1020 30 10000 3.6 0 12:59 14.05.2020
3034 Clear 26 1020 30 10000 3.6 0 12:40 14.05.2020
3035 Clear 26 1020 30 10000 3.6 0 12:20 14.05.2020
3036 Clear 25 1020 38 10000 1.5 0 11:59 14.05.2020
3037 Clear 25 1020 38 10000 1.5 0 11:59 14.05.2020
3038 Clear 25 1020 38 10000 1.5 0 11:40 14.05.2020
3039 Clear 25 1020 38 10000 1.5 0 11:21 14.05.2020
3040 Clear 24 1020 38 10000 2.1 270 10:57 14.05.2020
3041 Clear 24 1020 38 10000 2.1 270 10:38 14.05.2020
3042 Clear 24 1020 38 10000 2.1 270 10:20 14.05.2020
3043 Clear 22 1021 43 10000 1 0 09:42 14.05.2020
3044 Clear 22 1021 43 10000 1 0 09:23 14.05.2020
3045 Clear 20 1021 46 10000 0.5 0 08:43 14.05.2020
3046 Clear 20 1021 46 10000 0.5 0 08:21 14.05.2020
3047 Clear 18 1021 59 10000 0.5 0 07:47 14.05.2020
3048 Clear 17 1021 59 10000 0.5 0 07:25 14.05.2020
3049 Clear 16 1021 71 10000 1.77 74 06:56 14.05.2020
3050 Clear 14 1021 71 10000 1.77 74 06:34 14.05.2020
3051 Clear 13 1020 76 10000 1.94 57 05:58 14.05.2020
3052 Clear 13 1020 76 10000 1.94 57 05:36 14.05.2020
3053 Clear 13 1020 81 10000 1 240 04:34 14.05.2020
3054 Clear 14 1020 76 10000 2.11 52 03:30 14.05.2020
3055 Clear 14 1020 67 10000 1 230 02:43 14.05.2020
3056 Clear 14 1020 67 10000 1 230 02:19 14.05.2020
3057 Clear 16 1020 55 10000 2.1 230 01:35 14.05.2020
3058 Clear 16 1020 59 10000 1 230 00:50 14.05.2020
3059 Clear 16 1020 59 10000 1 230 00:25 14.05.2020
3060 Clear 17 1020 52 10000 0.5 40 23:45 13.05.2020
3061 Clear 17 1020 52 10000 0.5 40 23:22 13.05.2020
3062 Clear 19 1020 43 10000 4.1 90 22:56 13.05.2020
3063 Clear 19 1020 43 10000 4.1 90 22:38 13.05.2020
3064 Clear 19 1020 43 10000 4.1 90 22:19 13.05.2020
3065 Clear 19 1020 46 10000 1 0 21:57 13.05.2020
3066 Clear 19 1020 46 10000 1 0 21:38 13.05.2020
3067 Clear 21 1019 43 10000 2.6 240 21:19 13.05.2020
3068 Clear 21 1019 43 10000 2.6 240 20:41 13.05.2020
3069 Clear 21 1019 43 10000 2.6 240 20:23 13.05.2020
3070 Clear 23 1018 31 10000 1.5 350 19:44 13.05.2020
3071 Clear 23 1018 31 10000 1.5 350 19:25 13.05.2020
3072 Clear 23 1018 31 10000 1.5 350 19:25 13.05.2020
3073 Clear 25 1018 26 10000 1.5 0 18:58 13.05.2020
3074 Clear 25 1018 26 10000 1.5 0 18:40 13.05.2020
3075 Clouds 25 1018 26 10000 1.5 0 18:21 13.05.2020
3076 Clouds 26 1018 26 10000 4.1 250 17:39 13.05.2020
3077 Clear 26 1018 26 10000 4.1 250 17:20 13.05.2020
3078 Clouds 27 1018 23 10000 1 0 16:58 13.05.2020
3079 Clouds 26 1019 26 10000 4.1 350 16:39 13.05.2020
3080 Clouds 26 1019 25 10000 3.1 310 16:19 13.05.2020
3081 Clouds 27 1018 22 10000 1.5 200 16:19 13.05.2020
3082 Clouds 26 1019 25 10000 2.1 110 15:43 13.05.2020
3083 Clouds 26 1019 25 10000 2.1 110 15:20 13.05.2020
3084 Clouds 26 1019 22 10000 2.1 150 14:59 13.05.2020
3085 Clouds 26 1019 27 10000 1.5 0 14:41 13.05.2020
3086 Clouds 26 1019 27 10000 2.1 0 14:22 13.05.2020
3087 Clouds 26 1019 27 10000 2.1 0 13:58 13.05.2020
3088 Clouds 25 1020 25 10000 1.5 60 13:39 13.05.2020
3089 Clouds 24 1020 29 10000 2.6 0 13:20 13.05.2020
3090 Clouds 25 1020 29 10000 2.6 0 12:56 13.05.2020
3091 Clouds 24 1020 28 10000 3.1 10 12:37 13.05.2020
3092 Clouds 24 1021 31 10000 2.6 130 12:18 13.05.2020
3093 Clouds 24 1021 31 10000 2.6 130 11:54 13.05.2020
3094 Clouds 24 1021 31 10000 2.6 0 11:36 13.05.2020
3095 Clouds 23 1021 31 10000 2.6 0 11:18 13.05.2020
3096 Clear 23 1020 35 10000 1.5 0 10:55 13.05.2020
3097 Clear 22 1021 33 10000 2.6 160 10:37 13.05.2020
3098 Clear 21 1021 35 10000 1 0 10:18 13.05.2020
3099 Clear 21 1021 35 10000 1 0 09:41 13.05.2020
3100 Clear 21 1021 35 10000 1 0 09:22 13.05.2020
3101 Clear 19 1020 45 10000 1 0 08:43 13.05.2020
3102 Clear 20 1020 45 10000 1 0 08:22 13.05.2020
3103 Clear 19 1020 51 10000 0.5 0 07:59 13.05.2020
3104 Clear 18 1020 54 10000 1.09 304 07:39 13.05.2020
3105 Clear 17 1020 54 10000 0.72 294 07:21 13.05.2020
3106 Clear 15 1020 66 10000 0.5 0 06:43 13.05.2020
3107 Clear 12 1018 58 10000 0.69 275 05:54 13.05.2020
3108 Clear 12 1018 54 10000 1.13 272 04:48 13.05.2020
3109 Clear 15 1016 41 10000 3.1 290 02:59 13.05.2020
3110 Clear 15 1016 41 10000 3.1 290 02:26 13.05.2020
3111 Clouds 17 1016 36 10000 2.6 240 01:28 13.05.2020
3112 Clouds 18 1015 34 10000 3.6 230 00:45 13.05.2020
3113 Clouds 18 1015 34 10000 3.6 230 00:20 13.05.2020
3114 Clouds 19 1015 45 10000 4.1 240 23:40 12.05.2020
3115 Clouds 19 1015 45 10000 4.1 240 23:21 12.05.2020
3116 Clouds 22 1015 33 10000 4.1 230 22:57 12.05.2020
3117 Clouds 22 1015 33 10000 4.1 230 22:39 12.05.2020
3118 Clouds 22 1015 33 10000 4.1 230 22:20 12.05.2020
3119 Clouds 22 1014 33 10000 4.6 230 21:55 12.05.2020
3120 Clear 22 1014 33 10000 4.6 230 21:37 12.05.2020
3121 Clear 22 1014 33 10000 4.6 230 21:18 12.05.2020
3122 Clear 23 1014 37 10000 3.1 230 20:56 12.05.2020
3123 Clear 23 1014 37 10000 3.1 230 20:38 12.05.2020
3124 Clear 25 1013 27 10000 2.1 230 20:19 12.05.2020
3125 Clear 25 1013 27 10000 2.1 230 19:56 12.05.2020
3126 Clear 25 1013 27 10000 2.1 230 19:37 12.05.2020
3127 Clear 25 1013 27 10000 2.1 230 19:18 12.05.2020
3128 Clear 27 1013 26 10000 4.6 210 18:42 12.05.2020
3129 Clear 27 1013 26 10000 4.6 210 18:23 12.05.2020
3130 Clear 28 1014 24 10000 3.1 220 17:57 12.05.2020
3131 Clear 28 1014 24 10000 3.1 220 17:38 12.05.2020
3132 Clear 28 1014 24 10000 3.1 220 17:20 12.05.2020
3133 Clear 28 1014 26 10000 4.1 200 16:42 12.05.2020
3134 Clear 28 1014 26 10000 4.1 200 16:22 12.05.2020
3135 Clear 28 1014 24 10000 6.2 220 15:55 12.05.2020
3136 Clear 28 1014 24 10000 6.2 220 15:36 12.05.2020
3137 Clear 28 1014 24 10000 6.2 220 15:36 12.05.2020
3138 Clouds 28 1014 24 10000 6.2 220 15:18 12.05.2020
3139 Clouds 28 1015 26 10000 4.6 270 14:55 12.05.2020
3140 Clouds 28 1015 26 10000 4.6 270 14:36 12.05.2020
3141 Clear 28 1015 26 10000 4.6 270 14:18 12.05.2020
3142 Clear 27 1015 26 10000 4.6 210 13:55 12.05.2020
3143 Clear 27 1015 26 10000 4.6 210 13:36 12.05.2020
3144 Clear 27 1015 26 10000 4.6 210 13:18 12.05.2020
3145 Clear 27 1015 24 10000 5.1 230 12:55 12.05.2020
3146 Clear 26 1015 24 10000 5.1 230 12:37 12.05.2020
3147 Clear 27 1015 24 10000 5.1 230 12:37 12.05.2020
3148 Clear 25 1016 25 10000 4.1 230 12:18 12.05.2020
3149 Clear 25 1016 25 10000 4.1 230 11:56 12.05.2020
3150 Clear 25 1016 25 10000 4.1 230 11:37 12.05.2020
3151 Clear 25 1016 25 10000 4.1 230 11:19 12.05.2020
3152 Clear 24 1017 38 10000 2.1 260 10:54 12.05.2020
3153 Clear 24 1017 38 10000 2.1 260 10:36 12.05.2020
3154 Clear 22 1017 37 10000 0.5 0 10:18 12.05.2020
3155 Clear 22 1017 37 10000 0.5 0 09:55 12.05.2020
3156 Clear 22 1017 37 10000 0.5 0 09:37 12.05.2020
3157 Clear 20 1017 52 10000 1 0 09:18 12.05.2020
3158 Clear 19 1017 52 10000 1 0 08:39 12.05.2020
3159 Clouds 19 1017 52 10000 1 0 08:20 12.05.2020
3160 Clouds 17 1017 62 10000 3.98 237 07:44 12.05.2020
3161 Clear 17 1017 62 10000 3.01 226 07:26 12.05.2020
3162 Clear 13 1017 87 10000 3.01 226 06:55 12.05.2020
3163 Clear 13 1017 87 10000 3.01 226 06:36 12.05.2020
3164 Clear 8 1017 81 10000 2.03 210 06:18 12.05.2020
3165 Clear 8 1017 81 10000 2.03 210 05:44 12.05.2020
3166 Clear 9 1017 81 10000 1.99 199 03:48 12.05.2020
3167 Clear 10 1017 76 10000 1.69 181 02:53 12.05.2020
3168 Clear 10 1017 76 10000 1.35 177 02:26 12.05.2020
3169 Clear 11 1017 71 10000 1.18 167 01:29 12.05.2020
3170 Clear 12 1017 66 10000 0.5 0 00:37 12.05.2020
3171 Clear 13 1017 62 10000 1.24 161 00:18 12.05.2020
3172 Clear 12 1017 66 10000 0.5 0 00:18 12.05.2020
3173 Clear 14 1017 62 10000 1.24 161 23:42 11.05.2020
3174 Clear 14 1017 62 10000 1.27 164 23:22 11.05.2020
3175 Clear 14 1017 54 10000 1.27 164 22:59 11.05.2020
3176 Clear 15 1017 54 10000 1.27 164 22:41 11.05.2020
3177 Clear 15 1017 54 10000 1.33 160 22:21 11.05.2020
3178 Clear 16 1017 45 10000 1.33 160 21:59 11.05.2020
3179 Clear 16 1017 45 10000 1.33 160 21:40 11.05.2020
3180 Clouds 16 1017 45 10000 1.33 148 21:20 11.05.2020
3181 Clouds 18 1017 42 10000 1.33 148 20:59 11.05.2020
3182 Clouds 18 1017 42 10000 1.33 148 20:59 11.05.2020
3183 Clouds 18 1017 42 10000 1.33 148 20:40 11.05.2020
3184 Clouds 18 1017 42 10000 0.71 103 20:21 11.05.2020
3185 Clouds 20 1017 33 10000 0.71 103 19:58 11.05.2020
3186 Clouds 20 1017 33 10000 0.71 103 19:40 11.05.2020
3187 Clouds 21 1017 33 10000 0.77 344 19:21 11.05.2020
3188 Clouds 22 1017 33 10000 2.6 250 18:56 11.05.2020
3189 Clouds 23 1017 33 10000 2.6 250 18:37 11.05.2020
3190 Clouds 23 1017 29 10000 5.1 250 18:18 11.05.2020
3191 Clouds 24 1017 29 10000 5.1 250 17:55 11.05.2020
3192 Clouds 24 1017 29 10000 5.1 250 17:36 11.05.2020
3193 Clouds 23 1017 29 10000 5.1 250 17:18 11.05.2020
3194 Clouds 24 1017 29 10000 5.1 250 16:42 11.05.2020
3195 Clouds 24 1017 29 10000 5.1 250 16:22 11.05.2020
3196 Clouds 24 1017 29 10000 5.1 250 16:22 11.05.2020
3197 Clouds 24 1017 29 10000 5.1 260 15:58 11.05.2020
3198 Clouds 24 1017 29 10000 5.1 260 15:39 11.05.2020
3199 Clouds 23 1018 35 10000 3.6 240 15:19 11.05.2020
3200 Clouds 23 1018 35 10000 3.6 240 14:55 11.05.2020
3201 Clouds 23 1018 35 10000 3.6 240 14:37 11.05.2020
3202 Clouds 23 1018 35 10000 3.6 240 14:19 11.05.2020
3203 Clouds 22 1019 35 10000 4.1 260 13:42 11.05.2020
3204 Clouds 22 1019 35 10000 4.1 260 13:22 11.05.2020
3205 Clouds 22 1019 33 10000 3.1 0 12:58 11.05.2020
3206 Clouds 22 1019 33 10000 3.1 0 12:40 11.05.2020
3207 Clouds 22 1019 33 10000 3.1 0 12:22 11.05.2020
3208 Clouds 21 1019 35 10000 4.1 250 11:57 11.05.2020
3209 Clouds 21 1019 35 10000 4.1 250 11:38 11.05.2020
3210 Clouds 21 1019 35 10000 4.1 250 11:20 11.05.2020
3211 Clouds 19 1020 40 10000 1.5 0 10:56 11.05.2020
3212 Clouds 19 1020 40 10000 1.5 0 10:38 11.05.2020
3213 Clouds 19 1020 40 10000 1.5 0 10:19 11.05.2020
3214 Clouds 18 1020 39 10000 0.5 0 09:56 11.05.2020
3215 Clouds 18 1020 39 10000 0.5 0 09:37 11.05.2020
3216 Clouds 17 1020 39 10000 0.5 0 09:18 11.05.2020
3217 Clouds 16 1020 44 10000 0.5 0 08:40 11.05.2020
3218 Clouds 15 1020 44 10000 0.5 0 08:22 11.05.2020
3219 Clouds 14 1020 54 10000 0.5 0 07:54 11.05.2020
3220 Clouds 13 1020 54 10000 0.5 0 07:36 11.05.2020
3221 Clouds 13 1020 54 10000 0.5 0 07:18 11.05.2020
3222 Clouds 9 1020 62 10000 1.15 236 06:32 11.05.2020
3223 Clouds 5 1019 81 10000 1 0 05:44 11.05.2020
3224 Clouds 5 1019 81 10000 1 0 05:19 11.05.2020
3225 Clouds 7 1019 75 10000 0.57 205 03:47 11.05.2020
3226 Clouds 8 1019 70 10000 0.61 221 02:35 11.05.2020
3227 Clear 9 1019 66 10000 0.5 0 01:55 11.05.2020
3228 Clear 9 1019 57 10000 1 220 00:54 11.05.2020
3229 Clear 10 1019 57 10000 1 220 00:27 11.05.2020
3230 Clear 10 1019 62 10000 1.05 244 23:56 10.05.2020
3231 Clear 10 1019 62 10000 1.05 244 23:37 10.05.2020
3232 Clear 12 1018 54 10000 0.77 227 23:18 10.05.2020
3233 Clear 11 1018 54 10000 0.77 227 22:42 10.05.2020
3234 Clear 11 1018 54 10000 0.8 208 22:24 10.05.2020
3235 Clear 13 1018 50 10000 0.8 208 21:46 10.05.2020
3236 Clear 13 1018 50 10000 0.97 244 21:21 10.05.2020
3237 Clear 15 1018 47 10000 1.5 230 20:59 10.05.2020
3238 Clear 15 1018 47 10000 1.5 230 20:41 10.05.2020
3239 Clear 15 1018 47 10000 1.5 230 20:23 10.05.2020
3240 Clouds 16 1017 34 10000 1.5 210 19:54 10.05.2020
3241 Clouds 17 1017 34 10000 1.5 210 19:36 10.05.2020
3242 Clouds 17 1017 34 10000 1.5 210 19:36 10.05.2020
3243 Clouds 18 1017 29 10000 3.1 250 19:18 10.05.2020
3244 Clouds 19 1017 29 10000 3.1 250 18:54 10.05.2020
3245 Clouds 19 1017 29 10000 3.1 250 18:36 10.05.2020
3246 Clouds 19 1017 29 10000 3.1 250 18:36 10.05.2020
3247 Clouds 19 1017 29 10000 3.1 250 18:18 10.05.2020
3248 Clouds 20 1017 24 10000 2.1 240 17:55 10.05.2020
3249 Clouds 20 1017 24 10000 2.1 240 17:36 10.05.2020
3250 Clouds 20 1017 24 10000 2.1 240 17:18 10.05.2020
3251 Clouds 20 1017 24 10000 3.6 220 16:41 10.05.2020
3252 Clouds 20 1017 24 10000 3.6 220 16:20 10.05.2020
3253 Clouds 20 1017 28 10000 1.5 320 15:57 10.05.2020
3254 Clouds 20 1017 28 10000 1.5 320 15:36 10.05.2020
3255 Clouds 20 1017 28 10000 1.5 320 15:18 10.05.2020
3256 Clouds 19 1018 27 10000 1.5 240 14:55 10.05.2020
3257 Clouds 20 1018 27 10000 1.5 240 14:37 10.05.2020
3258 Clouds 20 1018 27 10000 1.5 240 14:18 10.05.2020
3259 Clouds 19 1018 29 10000 2.6 180 13:39 10.05.2020
3260 Clouds 19 1018 29 10000 2.6 180 13:21 10.05.2020
3261 Clouds 18 1018 31 10000 2.1 200 12:59 10.05.2020
3262 Clouds 18 1018 31 10000 2.1 200 12:41 10.05.2020
3263 Clouds 18 1018 31 10000 2.1 200 12:21 10.05.2020
3264 Clouds 17 1018 36 10000 1.5 210 11:58 10.05.2020
3265 Clouds 17 1018 36 10000 1.5 210 11:40 10.05.2020
3266 Clouds 17 1018 36 10000 1.5 210 11:20 10.05.2020
3267 Clouds 16 1019 44 10000 2.1 230 10:48 10.05.2020
3268 Clouds 16 1019 44 10000 2.1 230 10:29 10.05.2020
3269 Clouds 14 1018 50 10000 1 0 09:59 10.05.2020
3270 Clouds 14 1018 50 10000 1 0 09:41 10.05.2020
3271 Clouds 14 1018 50 10000 1 0 09:22 10.05.2020
3272 Clear 13 1018 47 10000 0.44 88 08:53 10.05.2020
3273 Clear 13 1018 47 10000 0.88 87 08:24 10.05.2020
3274 Clear 11 1018 61 10000 0.88 87 07:57 10.05.2020
3275 Clear 11 1018 61 10000 0.88 87 07:38 10.05.2020
3276 Clear 9 1018 70 10000 1.11 68 07:19 10.05.2020
3277 Clear 8 1018 70 10000 1.11 68 06:50 10.05.2020
3278 Clear 7 1018 70 10000 1.4 50 06:22 10.05.2020
3279 Clear 6 1017 81 10000 0.5 0 05:43 10.05.2020
3280 Clear 7 1017 70 10000 1.19 44 04:41 10.05.2020
3281 Clear 7 1017 70 10000 1.23 42 04:22 10.05.2020
3282 Clear 7 1017 75 10000 1.23 42 03:43 10.05.2020
3283 Clear 8 1016 65 10000 0.5 0 02:54 10.05.2020
3284 Clear 8 1016 65 10000 0.5 0 02:24 10.05.2020
3285 Clear 8 1016 61 10000 1 0 01:43 10.05.2020
3286 Clear 8 1016 61 10000 1 0 01:23 10.05.2020
3287 Clear 8 1016 61 10000 1 200 00:58 10.05.2020
3288 Clear 9 1016 61 10000 1 200 00:37 10.05.2020
3289 Clear 9 1016 61 10000 1 200 00:19 10.05.2020
3290 Clear 9 1016 57 10000 1 240 23:39 09.05.2020
3291 Clear 9 1016 57 10000 1 240 23:21 09.05.2020
3292 Clear 10 1016 53 10000 1 0 22:54 09.05.2020
3293 Clear 10 1016 53 10000 1 0 22:36 09.05.2020
3294 Clear 12 1015 47 10000 0.5 0 22:18 09.05.2020
3295 Clear 12 1015 47 10000 0.5 0 21:55 09.05.2020
3296 Clear 12 1015 47 10000 0.5 0 21:36 09.05.2020
3297 Clear 12 1015 47 10000 0.5 0 21:36 09.05.2020
3298 Clear 12 1015 47 10000 0.5 0 21:18 09.05.2020
3299 Clear 13 1015 41 10000 1 0 20:54 09.05.2020
3300 Clear 13 1015 41 10000 1 0 20:36 09.05.2020
3301 Clear 13 1015 41 10000 1 0 20:18 09.05.2020
3302 Clouds 15 1015 52 10000 3.1 250 19:39 09.05.2020
3303 Clouds 15 1015 49 10000 3.1 250 19:20 09.05.2020
3304 Clouds 17 1014 49 10000 3.6 240 18:54 09.05.2020
3305 Clouds 17 1014 49 10000 3.6 240 18:54 09.05.2020
3306 Clouds 17 1014 49 10000 3.6 240 18:36 09.05.2020
3307 Clouds 17 1014 25 10000 2.6 240 18:18 09.05.2020
3308 Clouds 17 1014 25 10000 2.6 240 17:40 09.05.2020
3309 Clouds 17 1014 25 10000 2.6 240 17:21 09.05.2020
3310 Clouds 18 1015 23 10000 1.5 0 16:41 09.05.2020
3311 Clouds 17 1015 23 10000 1.5 0 16:20 09.05.2020
3312 Clouds 17 1015 23 10000 1.5 0 16:20 09.05.2020
3313 Clouds 18 1015 20 10000 3.1 250 15:46 09.05.2020
3314 Clouds 17 1015 20 10000 3.1 250 15:27 09.05.2020
3315 Clouds 17 1016 21 10000 3.1 220 14:59 09.05.2020
3316 Clouds 16 1016 21 10000 3.1 220 14:40 09.05.2020
3317 Clouds 17 1016 21 10000 3.1 220 14:20 09.05.2020
3318 Clouds 16 1016 23 10000 3.1 240 13:58 09.05.2020
3319 Clouds 16 1016 23 10000 3.1 240 13:40 09.05.2020
3320 Clouds 16 1016 23 10000 3.1 240 13:20 09.05.2020
3321 Clouds 15 1017 28 10000 2.1 0 12:43 09.05.2020
3322 Clouds 15 1017 28 10000 2.1 0 12:22 09.05.2020
3323 Clouds 14 1017 33 10000 3.1 240 11:58 09.05.2020
3324 Clouds 14 1017 33 10000 3.1 240 11:58 09.05.2020
3325 Clouds 14 1017 33 10000 3.1 240 11:40 09.05.2020
3326 Clouds 14 1017 33 10000 3.1 240 11:18 09.05.2020
3327 Clouds 13 1018 40 10000 2.6 150 10:47 09.05.2020
3328 Clouds 12 1018 40 10000 2.6 150 10:25 09.05.2020
3329 Clouds 12 1018 40 10000 1.5 0 09:58 09.05.2020
3330 Clouds 12 1018 40 10000 1.5 0 09:38 09.05.2020
3331 Clouds 12 1018 40 10000 1.5 0 09:19 09.05.2020
3332 Clear 11 1018 45 10000 1 0 08:51 09.05.2020
3333 Clear 11 1018 45 10000 1 0 08:32 09.05.2020
3334 Clear 8 1018 61 10000 1.5 200 07:50 09.05.2020
3335 Clear 8 1018 61 10000 1.5 200 07:32 09.05.2020
3336 Clear 6 1018 80 10000 1.89 8 06:54 09.05.2020
3337 Clear 5 1018 80 10000 1.74 14 06:25 09.05.2020
3338 Clear 5 1018 80 10000 0.5 0 05:46 09.05.2020
3339 Clear 6 1018 80 10000 0.5 230 03:59 09.05.2020
3340 Clear 6 1018 80 10000 0.5 230 03:38 09.05.2020
3341 Clear 7 1018 70 10000 1.5 30 02:42 09.05.2020
3342 Clear 8 1019 49 10000 2.6 10 01:54 09.05.2020
3343 Clear 8 1019 49 10000 2.6 10 01:24 09.05.2020
3344 Clear 9 1019 57 10000 3.6 30 00:54 09.05.2020
3345 Clear 9 1019 57 10000 3.6 30 00:36 09.05.2020
3346 Clear 10 1019 53 10000 1 0 23:54 08.05.2020
3347 Clear 10 1019 53 10000 1 0 23:36 08.05.2020
3348 Clear 10 1019 53 10000 1 0 23:18 08.05.2020
3349 Clouds 10 1018 50 10000 3.1 30 22:42 08.05.2020
3350 Clouds 10 1018 50 10000 3.1 30 22:20 08.05.2020
3351 Clouds 11 1018 50 10000 2.6 40 21:59 08.05.2020
3352 Clouds 11 1018 50 10000 2.6 40 21:40 08.05.2020
3353 Clouds 11 1018 50 10000 2.6 40 21:19 08.05.2020
3354 Clouds 12 1017 47 10000 2.6 30 20:58 08.05.2020
3355 Clouds 12 1017 47 10000 2.6 30 20:40 08.05.2020
3356 Clouds 12 1017 47 10000 2.6 30 20:21 08.05.2020
3357 Clouds 13 1016 41 10000 2.1 360 19:45 08.05.2020
3358 Clouds 13 1016 41 10000 2.1 360 19:24 08.05.2020
3359 Clouds 14 1016 41 10000 3.1 0 18:57 08.05.2020
3360 Clouds 14 1016 41 10000 3.1 0 18:39 08.05.2020
3361 Clouds 14 1016 41 10000 3.1 0 18:21 08.05.2020
3362 Clouds 15 1016 38 10000 3.1 10 17:42 08.05.2020
3363 Clouds 15 1016 38 10000 3.1 10 17:19 08.05.2020
3364 Clouds 15 1015 38 10000 2.1 0 16:46 08.05.2020
3365 Clouds 15 1015 38 10000 2.1 0 16:27 08.05.2020
3366 Clouds 16 1015 33 10000 3.1 0 15:58 08.05.2020
3367 Clouds 16 1015 33 10000 3.1 0 15:40 08.05.2020
3368 Clouds 17 1015 33 10000 3.1 0 15:18 08.05.2020
3369 Clouds 17 1015 36 10000 2.1 250 14:54 08.05.2020
3370 Clouds 17 1015 36 10000 2.1 250 14:54 08.05.2020
3371 Clouds 17 1015 36 10000 2.1 250 14:36 08.05.2020
3372 Clouds 16 1015 36 10000 2.1 250 14:18 08.05.2020
3373 Clouds 15 1016 38 10000 3.1 220 13:40 08.05.2020
3374 Clouds 15 1016 38 10000 3.1 220 13:20 08.05.2020
3375 Clouds 15 1016 41 10000 2.1 0 12:54 08.05.2020
3376 Clouds 15 1016 41 10000 2.1 0 12:36 08.05.2020
3377 Clouds 15 1016 41 10000 2.1 0 12:36 08.05.2020
3378 Clouds 14 1017 41 10000 1.5 0 12:18 08.05.2020
3379 Clouds 14 1017 41 10000 1.5 0 11:43 08.05.2020
3380 Clouds 14 1017 41 10000 1.5 0 11:22 08.05.2020
3381 Clouds 13 1017 47 10000 1.5 110 10:57 08.05.2020
3382 Clouds 12 1017 47 10000 1.5 110 10:39 08.05.2020
3383 Clouds 12 1017 47 10000 1.5 110 10:18 08.05.2020
3384 Clouds 11 1017 50 10000 1.5 0 09:42 08.05.2020
3385 Clouds 11 1017 50 10000 1.5 0 09:20 08.05.2020
3386 Clouds 10 1017 53 10000 1.55 353 08:58 08.05.2020
3387 Clouds 10 1017 53 10000 1.55 353 08:40 08.05.2020
3388 Clouds 10 1017 53 10000 1.6 345 08:20 08.05.2020
3389 Clouds 8 1017 61 10000 1 0 07:40 08.05.2020
3390 Clouds 8 1017 61 10000 1 0 07:20 08.05.2020
3391 Clouds 6 1017 75 10000 1.5 180 06:49 08.05.2020
3392 Clouds 5 1017 75 10000 1.5 180 06:20 08.05.2020
3393 Clouds 4 1016 62 10000 0.5 0 05:35 08.05.2020
3394 Clouds 6 1017 74 10000 1 0 03:55 08.05.2020
3395 Clouds 6 1017 76 10000 2.6 270 02:31 08.05.2020
3396 Clouds 6 1017 70 10000 2.1 300 01:41 08.05.2020
3397 Clouds 6 1017 70 10000 2.1 300 01:21 08.05.2020
3398 Clouds 6 1017 77 10000 1.5 320 00:48 08.05.2020
3399 Clouds 6 1017 79 10000 1.5 320 00:27 08.05.2020
3400 Clouds 7 1016 79 10000 1.5 130 23:57 07.05.2020
3401 Clouds 7 1016 79 10000 1.5 130 23:39 07.05.2020
3402 Clouds 7 1016 84 10000 1.5 130 23:20 07.05.2020
3403 Clouds 8 1016 84 10000 1 0 22:42 07.05.2020
3404 Clouds 8 1016 81 10000 1 0 22:21 07.05.2020
3405 Clouds 9 1015 66 10000 1.5 0 21:58 07.05.2020
3406 Clouds 9 1015 66 10000 1.5 0 21:39 07.05.2020
3407 Clouds 9 1015 66 10000 1.5 0 21:20 07.05.2020
3408 Clouds 10 1014 62 10000 2.1 0 20:59 07.05.2020
3409 Clouds 10 1014 62 10000 2.1 0 20:41 07.05.2020
3410 Clouds 10 1014 62 10000 2.1 0 20:20 07.05.2020
3411 Clouds 10 1013 71 10000 4.1 250 19:50 07.05.2020
3412 Clouds 10 1013 71 10000 4.1 250 19:24 07.05.2020
3413 Clouds 11 1013 76 10000 4.6 250 18:59 07.05.2020
3414 Clouds 11 1013 76 10000 4.6 250 18:39 07.05.2020
3415 Clouds 12 1013 71 10000 3.1 250 18:20 07.05.2020
3416 Clouds 12 1013 71 10000 3.1 250 17:42 07.05.2020
3417 Clouds 11 1013 71 10000 3.1 250 17:21 07.05.2020
3418 Rain 11 1012 87 10000 4.6 260 16:43 07.05.2020
3419 Rain 11 1012 87 10000 4.6 260 16:20 07.05.2020
3420 Rain 12 1012 82 10000 5.1 240 15:58 07.05.2020
3421 Rain 12 1012 82 10000 5.1 240 15:58 07.05.2020
3422 Rain 12 1012 82 10000 5.1 240 15:39 07.05.2020
3423 Rain 12 1012 82 10000 5.1 240 15:19 07.05.2020
3424 Clouds 13 1012 71 10000 4.6 250 14:59 07.05.2020
3425 Clouds 13 1012 71 10000 4.6 250 14:41 07.05.2020
3426 Clouds 13 1012 76 10000 3.1 230 14:19 07.05.2020
3427 Rain 13 1012 76 10000 5.7 230 13:42 07.05.2020
3428 Rain 13 1012 76 10000 5.7 230 13:24 07.05.2020
3429 Rain 12 1012 76 10000 5.7 230 12:44 07.05.2020
3430 Rain 13 1012 76 10000 5.7 230 12:20 07.05.2020
3431 Rain 12 1012 76 10000 4.6 230 11:57 07.05.2020
3432 Rain 12 1012 76 10000 4.6 230 11:38 07.05.2020
3433 Rain 12 1012 87 10000 3.6 230 11:20 07.05.2020
3434 Rain 12 1012 87 10000 3.6 230 10:41 07.05.2020
3435 Rain 12 1012 87 10000 3.6 230 10:21 07.05.2020
3436 Rain 11 1012 81 10000 5.7 240 09:41 07.05.2020
3437 Rain 12 1012 81 10000 5.7 240 09:20 07.05.2020
3438 Rain 13 1011 62 10000 6.7 260 08:56 07.05.2020
3439 Clouds 15 1010 55 10000 2.6 260 08:38 07.05.2020
3440 Clouds 15 1010 55 10000 2.6 260 08:19 07.05.2020
3441 Clouds 15 1010 62 10000 3.44 247 07:43 07.05.2020
3442 Clouds 15 1010 62 10000 3.44 247 07:43 07.05.2020
3443 Clouds 15 1010 62 10000 2.82 206 07:25 07.05.2020
3444 Clouds 12 1010 76 10000 1 260 06:45 07.05.2020
3445 Clouds 11 1010 76 10000 1 260 06:23 07.05.2020
3446 Clouds 12 1010 76 10000 1 0 05:29 07.05.2020
3447 Clouds 12 1010 71 10000 0.5 0 03:55 07.05.2020
3448 Clouds 12 1010 71 10000 0.5 0 03:24 07.05.2020
3449 Clouds 9 1010 81 10000 2.1 40 02:42 07.05.2020
3450 Clouds 11 1010 71 10000 1 0 01:42 07.05.2020
3451 Clouds 11 1010 71 10000 1 0 01:23 07.05.2020
3452 Clouds 10 1011 71 10000 1.43 190 00:45 07.05.2020
3453 Clouds 10 1011 71 10000 1.73 207 00:26 07.05.2020
3454 Clouds 11 1011 62 10000 1.73 207 23:46 06.05.2020
3455 Clouds 11 1011 62 10000 1.72 207 23:25 06.05.2020
3456 Clouds 13 1011 62 10000 1 0 22:57 06.05.2020
3457 Clouds 13 1011 62 10000 1 0 22:39 06.05.2020
3458 Clouds 14 1011 58 10000 2.1 230 22:19 06.05.2020
3459 Clouds 14 1011 58 10000 2.1 230 21:56 06.05.2020
3460 Clouds 14 1011 58 10000 2.1 230 21:38 06.05.2020
3461 Clouds 14 1011 58 10000 2.1 230 21:38 06.05.2020
3462 Clouds 14 1011 58 10000 2.1 230 21:38 06.05.2020
3463 Clouds 14 1011 58 10000 2.1 230 21:19 06.05.2020
3464 Clouds 16 1011 42 10000 1.5 240 20:42 06.05.2020
3465 Clouds 16 1011 42 10000 1.5 240 20:24 06.05.2020
3466 Clouds 17 1011 45 10000 3.1 230 19:58 06.05.2020
3467 Clouds 17 1011 45 10000 3.1 230 19:39 06.05.2020
3468 Clouds 17 1011 45 10000 3.1 230 19:20 06.05.2020
3469 Clouds 18 1011 42 10000 3.1 240 18:59 06.05.2020
3470 Clouds 18 1011 42 10000 3.1 240 18:39 06.05.2020
3471 Clouds 18 1011 42 10000 3.1 240 18:21 06.05.2020
3472 Clouds 18 1011 37 10000 4.6 230 17:58 06.05.2020
3473 Clouds 18 1011 37 10000 4.6 230 17:39 06.05.2020
3474 Clouds 18 1011 37 10000 4.6 230 17:21 06.05.2020
3475 Clouds 18 1011 39 10000 4.1 250 16:58 06.05.2020
3476 Clouds 18 1011 39 10000 4.1 250 16:40 06.05.2020
3477 Clouds 18 1011 39 10000 4.1 250 16:21 06.05.2020
3478 Clouds 18 1011 36 10000 4.1 240 15:58 06.05.2020
3479 Clouds 18 1011 36 10000 4.1 240 15:40 06.05.2020
3480 Clouds 18 1011 36 10000 4.1 240 15:20 06.05.2020
3481 Clouds 18 1011 39 10000 5.1 240 14:45 06.05.2020
3482 Clouds 18 1011 39 10000 5.1 240 14:20 06.05.2020
3483 Clouds 18 1012 45 10000 4.6 240 13:59 06.05.2020
3484 Clouds 18 1012 45 10000 4.6 240 13:41 06.05.2020
3485 Clouds 17 1012 45 10000 4.6 240 13:22 06.05.2020
3486 Clouds 17 1012 45 10000 4.6 270 12:54 06.05.2020
3487 Clouds 16 1012 45 10000 4.6 270 12:36 06.05.2020
3488 Clouds 17 1012 45 10000 4.6 270 12:18 06.05.2020
3489 Clouds 16 1013 48 10000 3.1 0 11:40 06.05.2020
3490 Clouds 16 1013 48 10000 3.1 0 11:21 06.05.2020
3491 Clouds 15 1013 51 10000 2.6 0 10:57 06.05.2020
3492 Clouds 15 1013 51 10000 2.6 0 10:37 06.05.2020
3493 Clouds 13 1013 58 10000 2.1 220 10:19 06.05.2020
3494 Clouds 13 1013 58 10000 2.1 220 09:43 06.05.2020
3495 Clouds 13 1013 58 10000 2.1 220 09:22 06.05.2020
3496 Clouds 12 1013 66 10000 2.6 260 08:49 06.05.2020
3497 Clouds 12 1013 66 10000 2.6 260 08:23 06.05.2020
3498 Clouds 12 1013 66 10000 2.6 260 08:23 06.05.2020
3499 Clear 10 1013 76 10000 1.5 230 07:59 06.05.2020
3500 Clear 10 1013 76 10000 1.5 230 07:39 06.05.2020
3501 Clear 10 1013 76 10000 1.5 230 07:20 06.05.2020
3502 Clear 8 1013 81 10000 0.5 0 06:51 06.05.2020
3503 Clear 7 1013 81 10000 0.5 0 06:22 06.05.2020
3504 Clear 7 1013 87 10000 2.1 250 05:54 06.05.2020
3505 Clear 6 1013 87 10000 2.1 250 05:35 06.05.2020
3506 Clear 7 1013 87 10000 2.6 260 04:31 06.05.2020
3507 Clear 8 1013 81 10000 1.5 250 03:38 06.05.2020
3508 Clear 9 1013 76 10000 2.1 230 03:19 06.05.2020
3509 Clear 9 1013 76 10000 2.1 230 02:29 06.05.2020
3510 Clear 10 1014 71 10000 3.1 250 01:54 06.05.2020
3511 Clear 10 1014 71 10000 3.1 250 01:30 06.05.2020
3512 Clear 10 1014 66 10000 2.1 0 00:53 06.05.2020
3513 Clear 10 1014 66 10000 2.1 0 00:23 06.05.2020
3514 Clouds 11 1014 71 10000 1.5 240 23:55 05.05.2020
3515 Clouds 11 1014 71 10000 1.5 240 23:37 05.05.2020
3516 Clouds 11 1014 71 10000 1.5 240 23:18 05.05.2020
3517 Clouds 11 1013 62 10000 2.6 250 22:41 05.05.2020
3518 Clouds 12 1013 58 10000 1 0 22:19 05.05.2020
3519 Clouds 12 1013 58 10000 1 0 21:56 05.05.2020
3520 Clouds 12 1013 58 10000 1 0 21:38 05.05.2020
3521 Clouds 12 1013 58 10000 1 0 21:19 05.05.2020
3522 Clouds 12 1013 58 10000 1 0 21:19 05.05.2020
3523 Clouds 12 1013 62 10000 1 0 20:56 05.05.2020
3524 Clouds 12 1013 62 10000 1 0 20:56 05.05.2020
3525 Clouds 12 1013 62 10000 1 0 20:37 05.05.2020
3526 Clouds 13 1012 58 10000 1.5 290 20:18 05.05.2020
3527 Clouds 13 1012 58 10000 1.5 290 19:42 05.05.2020
3528 Rain 13 1012 58 10000 1.5 290 19:23 05.05.2020
3529 Rain 14 1012 54 10000 2.6 0 18:57 05.05.2020
3530 Rain 14 1012 54 10000 2.6 0 18:39 05.05.2020
3531 Clouds 14 1012 54 10000 2.6 0 18:20 05.05.2020
3532 Clouds 14 1011 51 10000 2.6 0 17:57 05.05.2020
3533 Clouds 14 1011 51 10000 2.6 0 17:39 05.05.2020
3534 Clouds 15 1011 51 10000 2.6 0 17:20 05.05.2020
3535 Clouds 14 1011 55 10000 3.6 0 16:54 05.05.2020
3536 Clouds 15 1011 55 10000 3.6 0 16:36 05.05.2020
3537 Clouds 15 1011 55 10000 3.6 0 16:18 05.05.2020
3538 Clouds 16 1011 55 10000 5.1 290 15:39 05.05.2020
3539 Clouds 16 1011 55 10000 5.1 290 15:21 05.05.2020
3540 Clouds 14 1011 63 10000 2.6 270 14:55 05.05.2020
3541 Thunderstorm 13 1011 66 10000 7.2 290 14:37 05.05.2020
3542 Thunderstorm 14 1011 66 10000 7.2 290 14:19 05.05.2020
3543 Clouds 14 1011 51 10000 3.6 280 13:56 05.05.2020
3544 Clouds 17 1011 51 10000 3.6 280 13:38 05.05.2020
3545 Clouds 17 1011 51 10000 3.6 280 13:38 05.05.2020
3546 Clouds 16 1011 51 10000 3.6 280 13:19 05.05.2020
3547 Clouds 16 1011 55 10000 3.6 260 12:56 05.05.2020
3548 Clouds 16 1011 55 10000 3.6 260 12:37 05.05.2020
3549 Clouds 16 1011 55 10000 3.6 260 12:19 05.05.2020
3550 Clouds 15 1012 54 10000 2.6 0 11:41 05.05.2020
3551 Clouds 15 1012 54 10000 2.6 0 11:20 05.05.2020
3552 Clouds 14 1012 62 10000 3.1 0 10:56 05.05.2020
3553 Clouds 14 1012 62 10000 3.1 0 10:38 05.05.2020
3554 Clouds 14 1012 62 10000 3.1 0 10:18 05.05.2020
3555 Clouds 13 1012 66 10000 2.1 240 09:44 05.05.2020
3556 Clouds 13 1012 71 10000 1.5 230 09:26 05.05.2020
3557 Clouds 12 1012 71 10000 1.5 230 08:59 05.05.2020
3558 Clouds 12 1012 71 10000 1.5 230 08:40 05.05.2020
3559 Clouds 11 1011 81 10000 1.5 0 08:18 05.05.2020
3560 Clouds 11 1011 81 10000 1.5 0 08:18 05.05.2020
3561 Clouds 11 1011 81 10000 1.5 0 07:44 05.05.2020
3562 Clouds 10 1011 81 10000 1.5 0 07:22 05.05.2020
3563 Clouds 9 1011 93 10000 0.5 0 06:58 05.05.2020
3564 Clouds 9 1011 93 10000 0.5 0 06:40 05.05.2020
3565 Clouds 9 1011 93 10000 0.5 0 06:19 05.05.2020
3566 Clouds 8 1011 87 10000 1 0 05:28 05.05.2020
3567 Clouds 7 1011 93 10000 2.6 230 02:46 05.05.2020
3568 Clouds 8 1011 87 10000 1.5 200 01:19 05.05.2020
3569 Clouds 8 1011 87 10000 1 240 00:47 05.05.2020
3570 Clouds 9 1010 87 10000 1 20 23:56 04.05.2020
3571 Clouds 9 1010 87 10000 1 20 23:38 04.05.2020
3572 Clouds 9 1010 87 10000 1 20 23:18 04.05.2020
3573 Clouds 9 1010 81 10000 2.1 260 22:54 04.05.2020
3574 Clouds 9 1010 81 10000 2.1 260 22:36 04.05.2020
3575 Clouds 10 1010 76 10000 2.1 260 22:18 04.05.2020
3576 Clouds 10 1010 76 10000 2.1 260 22:18 04.05.2020
3577 Clouds 10 1010 76 10000 2.1 260 21:43 04.05.2020
3578 Clouds 10 1010 76 10000 2.1 260 21:43 04.05.2020
3579 Clouds 10 1010 76 10000 2.1 260 21:22 04.05.2020
3580 Clouds 10 1010 76 10000 2.1 260 21:22 04.05.2020
3581 Clouds 10 1010 76 10000 2.1 260 21:22 04.05.2020
3582 Clouds 11 1009 76 10000 2.1 290 20:42 04.05.2020
3583 Clouds 11 1009 76 10000 2.1 290 20:42 04.05.2020
3584 Clouds 11 1009 76 10000 2.1 290 20:21 04.05.2020
3585 Clouds 11 1009 76 10000 2.1 290 20:21 04.05.2020
3586 Clouds 11 1009 71 10000 0.5 260 19:58 04.05.2020
3587 Clouds 11 1009 71 10000 0.5 260 19:40 04.05.2020
3588 Rain 12 1009 66 10000 1.68 265 19:18 04.05.2020
3589 Clouds 12 1009 66 10000 2.1 270 18:39 04.05.2020
3590 Clouds 12 1009 66 10000 2.1 270 18:21 04.05.2020
3591 Clouds 13 1009 58 10000 5.7 280 17:57 04.05.2020
3592 Clouds 13 1008 58 10000 7.7 280 17:39 04.05.2020
3593 Clouds 14 1008 62 10000 7.7 280 17:21 04.05.2020
3594 Clouds 14 1008 62 10000 7.7 280 16:59 04.05.2020
3595 Clouds 14 1008 62 10000 7.7 280 16:40 04.05.2020
3596 Clouds 14 1008 62 10000 7.7 280 16:19 04.05.2020
3597 Clouds 15 1007 62 10000 6.2 260 15:42 04.05.2020
3598 Rain 15 1007 62 10000 6.2 260 15:22 04.05.2020
3599 Rain 15 1007 62 10000 7.2 260 14:54 04.05.2020
3600 Rain 15 1007 62 10000 7.2 260 14:54 04.05.2020
3601 Rain 15 1007 62 10000 7.2 260 14:54 04.05.2020
3602 Rain 15 1007 62 10000 7.2 260 14:54 04.05.2020
3603 Rain 15 1007 62 10000 7.2 260 14:54 04.05.2020
3604 Rain 15 1007 62 10000 7.2 260 14:26 04.05.2020
3605 Clouds 16 1008 62 10000 6.7 260 13:31 04.05.2020
3606 Clouds 16 1008 62 10000 6.7 260 13:31 04.05.2020
3607 Clouds 16 1008 62 10000 6.7 260 13:31 04.05.2020
3608 Clouds 16 1008 62 10000 6.7 260 13:31 04.05.2020
3609 Clouds 16 1008 62 10000 6.7 260 13:31 04.05.2020
3610 Clouds 16 1008 48 10000 6.7 240 12:44 04.05.2020
3611 Clouds 16 1008 48 10000 6.7 240 12:44 04.05.2020
3612 Clouds 16 1008 48 10000 6.7 240 12:44 04.05.2020
3613 Clouds 16 1008 48 10000 6.7 240 12:44 04.05.2020
3614 Clouds 16 1008 48 10000 6.7 240 12:44 04.05.2020
3615 Clouds 16 1008 54 10000 6.2 240 11:28 04.05.2020
3616 Clouds 16 1008 54 10000 6.2 240 11:28 04.05.2020
3617 Clouds 16 1008 54 10000 6.2 240 11:28 04.05.2020
3618 Clouds 16 1008 54 10000 6.2 240 11:28 04.05.2020
3619 Clouds 16 1008 54 10000 6.2 240 11:28 04.05.2020
3620 Clouds 13 1008 62 10000 5.1 240 09:31 04.05.2020
3621 Clouds 12 1008 76 10000 1.5 260 07:54 04.05.2020
3622 Clouds 11 1008 76 10000 1.5 260 07:35 04.05.2020
3623 Clouds 10 1007 81 10000 2.6 220 05:55 04.05.2020
3624 Clouds 10 1006 81 10000 2.1 220 04:53 04.05.2020
3625 Clouds 11 1007 76 10000 2.6 230 02:57 04.05.2020
3626 Rain 11 1007 76 10000 2.6 230 02:19 04.05.2020
3627 Clouds 11 1007 87 10000 0.5 0 00:26 04.05.2020
3628 Clouds 11 1007 87 10000 0.5 0 00:26 04.05.2020
3629 Clouds 11 1007 87 10000 0.5 0 00:26 04.05.2020
3630 Clouds 11 1007 87 10000 0.5 0 00:25 04.05.2020
3631 Clouds 11 1007 87 10000 0.5 0 00:25 04.05.2020
3632 Clouds 11 1007 93 10000 2.53 201 23:45 03.05.2020
3633 Clouds 11 1007 93 10000 2.68 202 23:24 03.05.2020
3634 Rain 11 1007 81 10000 2.68 202 22:44 03.05.2020
3635 Rain 11 1007 81 10000 2.37 210 22:25 03.05.2020
3636 Rain 11 1007 81 10000 2.37 210 22:25 03.05.2020
3637 Rain 12 1007 81 10000 1 0 21:56 03.05.2020
3638 Rain 12 1007 81 10000 1 0 21:38 03.05.2020
3639 Rain 12 1007 81 10000 1 0 21:20 03.05.2020
3640 Rain 12 1007 76 10000 1.5 280 20:43 03.05.2020
3641 Rain 12 1007 76 10000 1.5 280 20:43 03.05.2020
3642 Clouds 12 1007 76 10000 1.5 280 20:21 03.05.2020
3643 Clouds 12 1006 71 10000 1 0 19:49 03.05.2020
3644 Clouds 12 1006 71 10000 1 0 19:49 03.05.2020
3645 Clouds 12 1006 71 10000 1 0 19:31 03.05.2020
3646 Clouds 13 1006 67 10000 2.1 230 18:58 03.05.2020
3647 Clouds 13 1006 67 10000 2.1 230 18:38 03.05.2020
3648 Clouds 13 1006 67 10000 2.1 230 18:38 03.05.2020
3649 Clouds 13 1006 67 10000 2.1 230 18:38 03.05.2020
3650 Clouds 13 1006 67 10000 2.1 230 18:38 03.05.2020
3651 Clouds 13 1006 67 10000 2.1 230 18:38 03.05.2020
3652 Clouds 13 1006 67 10000 2.1 230 18:19 03.05.2020
3653 Clouds 13 1006 67 10000 2.1 230 18:19 03.05.2020
3654 Clouds 13 1006 67 10000 2.1 230 18:19 03.05.2020
3655 Clouds 13 1006 62 10000 4.1 230 17:41 03.05.2020
3656 Clouds 14 1006 62 10000 4.1 230 17:21 03.05.2020
3657 Clouds 14 1006 62 10000 6.7 210 16:45 03.05.2020
3658 Clouds 14 1006 62 10000 6.7 210 16:21 03.05.2020
3659 Clouds 14 1006 62 10000 3.6 240 15:59 03.05.2020
3660 Clouds 14 1006 62 10000 3.6 240 15:40 03.05.2020
3661 Clouds 14 1006 62 10000 3.6 240 15:20 03.05.2020
3662 Clouds 13 1007 67 10000 1 0 14:58 03.05.2020
3663 Clouds 14 1007 67 10000 1 0 14:40 03.05.2020
3664 Clouds 14 1007 67 10000 1 0 14:40 03.05.2020
3665 Clouds 14 1007 67 10000 1 0 14:21 03.05.2020
3666 Rain 12 1007 87 10000 2.1 290 13:54 03.05.2020
3667 Rain 12 1007 87 10000 2.1 290 13:54 03.05.2020
3668 Rain 11 1007 87 10000 1.5 180 13:21 03.05.2020
3669 Rain 11 1007 87 10000 1.5 180 13:21 03.05.2020
3670 Rain 12 1007 87 10000 2.1 290 13:21 03.05.2020
3671 Rain 12 1007 87 10000 2.1 290 13:21 03.05.2020
3672 Rain 12 1007 87 10000 2.1 290 13:21 03.05.2020
3673 Rain 12 1007 87 10000 1.5 180 12:44 03.05.2020
3674 Rain 11 1008 87 8000 1.5 240 12:18 03.05.2020
3675 Rain 11 1008 87 8000 1.5 240 11:56 03.05.2020
3676 Rain 11 1008 87 8000 1.5 240 11:37 03.05.2020
3677 Rain 11 1008 87 8000 1.5 240 11:19 03.05.2020
3678 Rain 11 1008 87 7000 1 0 10:46 03.05.2020
3679 Rain 11 1008 87 7000 1 0 10:46 03.05.2020
3680 Rain 11 1008 87 7000 1 0 10:46 03.05.2020
3681 Rain 11 1008 87 7000 1 0 10:46 03.05.2020
3682 Rain 10 1008 93 6000 1.5 150 09:58 03.05.2020
3683 Rain 10 1008 93 6000 1.5 150 09:58 03.05.2020
3684 Rain 10 1008 93 6000 1.5 150 09:34 03.05.2020
3685 Rain 10 1008 93 6000 1.5 150 09:34 03.05.2020
3686 Rain 10 1008 93 6000 1.5 150 09:34 03.05.2020
3687 Rain 10 1008 93 6000 1.5 150 09:34 03.05.2020
3688 Rain 9 1008 93 6000 1.5 90 08:55 03.05.2020
3689 Rain 9 1008 93 6000 1.5 90 08:55 03.05.2020
3690 Rain 9 1008 93 6000 1.5 90 08:26 03.05.2020
3691 Rain 9 1008 93 6000 1.5 90 08:26 03.05.2020
3692 Rain 9 1008 87 6000 0.5 0 07:39 03.05.2020
3693 Rain 9 1008 87 6000 0.5 0 07:39 03.05.2020
3694 Rain 9 1008 87 6000 0.5 0 07:39 03.05.2020
3695 Clouds 9 1008 87 10000 1.33 138 06:20 03.05.2020
3696 Rain 8 1007 93 8000 0.5 0 05:47 03.05.2020
3697 Clouds 8 1007 93 8000 2.1 220 04:54 03.05.2020
3698 Clouds 8 1007 93 8000 2.1 220 04:26 03.05.2020
3699 Clouds 7 1008 100 7000 1 0 02:59 03.05.2020
3700 Clouds 7 1008 100 7000 1 0 02:59 03.05.2020
3701 Rain 7 1008 100 7000 1 0 02:24 03.05.2020
3702 Clouds 8 1009 93 8000 0.5 40 01:44 03.05.2020
3703 Rain 8 1009 100 8000 0.85 119 01:24 03.05.2020
3704 Rain 8 1009 100 8000 0.85 119 00:55 03.05.2020
3705 Rain 8 1009 100 8000 0.85 119 00:37 03.05.2020
3706 Rain 8 1009 100 8000 0.87 150 00:18 03.05.2020
3707 Clouds 9 1009 93 10000 1.5 230 23:42 02.05.2020
3708 Clouds 9 1009 93 10000 1.5 230 23:24 02.05.2020
3709 Clouds 9 1009 93 10000 2.1 220 22:43 02.05.2020
3710 Clouds 9 1009 93 10000 2.1 220 22:43 02.05.2020
3711 Clouds 9 1009 93 10000 2.1 220 22:23 02.05.2020
3712 Clouds 10 1010 93 10000 1.5 240 21:56 02.05.2020
3713 Clouds 10 1010 93 10000 1.5 240 21:38 02.05.2020
3714 Clouds 10 1010 93 10000 1.5 240 21:18 02.05.2020
3715 Clouds 10 1010 93 10000 1.5 240 21:18 02.05.2020
3716 Clouds 10 1010 93 10000 1.12 216 20:57 02.05.2020
3717 Clouds 10 1010 93 10000 1.12 216 20:37 02.05.2020
3718 Clouds 10 1010 93 10000 1.91 214 20:19 02.05.2020
3719 Clouds 11 1010 87 10000 2.6 60 19:56 02.05.2020
3720 Clouds 11 1010 87 10000 2.6 60 19:38 02.05.2020
3721 Clouds 12 1010 81 10000 3.1 100 19:18 02.05.2020
3722 Clouds 12 1010 81 10000 3.1 100 18:41 02.05.2020
3723 Clouds 11 1010 81 10000 3.1 100 18:22 02.05.2020
3724 Clouds 11 1010 87 10000 3.1 120 17:58 02.05.2020
3725 Thunderstorm 10 1010 93 10000 4.1 110 17:39 02.05.2020
3726 Thunderstorm 10 1010 93 10000 4.1 110 17:20 02.05.2020
3727 Thunderstorm 11 1010 81 10000 4.1 120 16:58 02.05.2020
3728 Thunderstorm 12 1010 81 10000 4.1 120 16:39 02.05.2020
3729 Thunderstorm 12 1010 81 10000 4.1 120 16:21 02.05.2020
3730 Thunderstorm 14 1009 67 10000 3.1 140 15:42 02.05.2020
3731 Clouds 16 1009 48 10000 6.2 190 15:20 02.05.2020
3732 Clouds 17 1009 48 10000 6.2 190 14:46 02.05.2020
3733 Clouds 17 1009 48 10000 6.2 190 14:28 02.05.2020
3734 Clouds 18 1009 45 10000 3.6 220 13:59 02.05.2020
3735 Clouds 19 1009 45 10000 3.6 220 13:40 02.05.2020
3736 Clouds 18 1009 45 10000 3.6 220 13:21 02.05.2020
3737 Clouds 18 1009 45 10000 3.6 220 12:43 02.05.2020
3738 Clouds 18 1009 45 10000 3.6 220 12:25 02.05.2020
3739 Clouds 17 1010 48 10000 2.6 0 11:59 02.05.2020
3740 Clouds 17 1010 48 10000 2.6 0 11:40 02.05.2020
3741 Clouds 17 1010 48 10000 2.6 0 11:22 02.05.2020
3742 Clouds 16 1011 51 10000 2.1 270 10:57 02.05.2020
3743 Clouds 16 1011 51 10000 2.1 270 10:38 02.05.2020
3744 Clouds 17 1011 51 10000 2.1 270 10:20 02.05.2020
3745 Clouds 17 1011 51 10000 2.1 270 10:20 02.05.2020
3746 Clouds 15 1011 62 10000 2.1 260 09:55 02.05.2020
3747 Clouds 15 1011 62 10000 2.1 260 09:36 02.05.2020
3748 Clouds 15 1011 62 10000 2.1 260 09:18 02.05.2020
3749 Clouds 15 1011 67 10000 0.5 0 08:45 02.05.2020
3750 Clouds 14 1011 67 10000 0.5 0 08:25 02.05.2020
3751 Clouds 11 1011 87 10000 1.94 245 07:47 02.05.2020
3752 Clouds 11 1011 87 10000 1.31 228 07:28 02.05.2020
3753 Clouds 10 1011 81 10000 2.1 220 06:50 02.05.2020
3754 Clouds 10 1011 87 10000 0.55 201 05:29 02.05.2020
3755 Clouds 10 1011 87 10000 0.55 201 04:48 02.05.2020
3756 Clouds 10 1011 87 10000 0.66 130 04:24 02.05.2020
3757 Clouds 9 1011 87 10000 1 230 02:44 02.05.2020
3758 Rain 10 1011 87 10000 1 230 02:23 02.05.2020
3759 Rain 9 1011 87 10000 1 220 01:48 02.05.2020
3760 Rain 9 1012 87 10000 0.5 0 00:46 02.05.2020
3761 Rain 9 1012 87 10000 0.5 0 00:25 02.05.2020
3762 Rain 9 1011 87 10000 0.5 0 23:58 01.05.2020
3763 Rain 9 1011 87 10000 0.5 0 23:39 01.05.2020
3764 Rain 9 1011 87 10000 0.5 0 23:19 01.05.2020
3765 Rain 10 1011 81 10000 1.64 35 22:54 01.05.2020
3766 Rain 11 1011 81 10000 1.64 35 22:36 01.05.2020
3767 Rain 10 1011 81 10000 1.71 27 22:18 01.05.2020
3768 Clouds 12 1012 71 10000 1.71 27 21:41 01.05.2020
3769 Clouds 12 1012 71 10000 1.14 22 21:21 01.05.2020
3770 Clouds 13 1011 67 10000 1 0 20:58 01.05.2020
3771 Clouds 13 1011 67 10000 1 0 20:40 01.05.2020
3772 Clouds 13 1011 67 10000 1 0 20:20 01.05.2020
3773 Clouds 13 1011 67 10000 1 0 20:20 01.05.2020
3774 Clouds 13 1011 67 10000 3.6 80 19:59 01.05.2020
3775 Clouds 13 1011 67 10000 3.6 80 19:41 01.05.2020
3776 Clouds 13 1011 67 10000 3.6 80 19:22 01.05.2020
3777 Clouds 14 1010 55 10000 1 310 18:56 01.05.2020
3778 Clouds 14 1010 55 10000 1 310 18:38 01.05.2020
3779 Clouds 15 1010 55 10000 1 310 18:19 01.05.2020
3780 Clouds 15 1010 55 10000 1 310 18:19 01.05.2020
3781 Clouds 16 1010 55 10000 3.6 250 17:41 01.05.2020
3782 Clouds 16 1010 55 10000 3.6 250 17:23 01.05.2020
3783 Clouds 17 1010 51 10000 3.1 280 16:58 01.05.2020
3784 Clouds 17 1010 51 10000 3.1 280 16:40 01.05.2020
3785 Clouds 17 1010 51 10000 3.1 280 16:21 01.05.2020
3786 Clouds 17 1010 59 10000 1.5 280 15:58 01.05.2020
3787 Clouds 17 1010 59 10000 1.5 280 15:39 01.05.2020
3788 Clouds 16 1010 59 10000 1.5 280 15:20 01.05.2020
3789 Rain 14 1011 76 10000 4.1 270 14:44 01.05.2020
3790 Rain 14 1011 76 10000 4.1 270 14:25 01.05.2020
3791 Clouds 14 1011 67 10000 4.1 320 13:57 01.05.2020
3792 Thunderstorm 14 1011 67 10000 5.7 310 13:38 01.05.2020
3793 Thunderstorm 14 1011 67 10000 5.7 310 13:38 01.05.2020
3794 Thunderstorm 14 1011 67 10000 5.7 310 13:38 01.05.2020
3795 Thunderstorm 14 1011 67 10000 5.7 310 13:20 01.05.2020
3796 Thunderstorm 15 1011 62 10000 4.6 30 12:55 01.05.2020
3797 Thunderstorm 15 1011 62 10000 4.6 30 12:37 01.05.2020
3798 Thunderstorm 16 1011 48 10000 7.2 40 12:18 01.05.2020
3799 Thunderstorm 17 1011 48 10000 2.1 270 11:41 01.05.2020
3800 Thunderstorm 17 1011 48 10000 2.1 270 11:23 01.05.2020
3801 Clouds 16 1011 59 10000 3.1 250 10:58 01.05.2020
3802 Clouds 16 1011 59 10000 3.1 250 10:38 01.05.2020
3803 Clouds 15 1012 67 10000 0.5 0 10:20 01.05.2020
3804 Clouds 14 1012 67 10000 0.5 0 09:44 01.05.2020
3805 Clouds 14 1012 67 10000 0.5 0 09:20 01.05.2020
3806 Clouds 12 1012 81 10000 0.5 0 08:57 01.05.2020
3807 Clouds 12 1012 81 10000 0.5 0 08:39 01.05.2020
3808 Clouds 12 1012 81 10000 0.5 0 08:21 01.05.2020
3809 Clouds 11 1012 87 10000 1 0 07:44 01.05.2020
3810 Clouds 11 1012 87 10000 1 0 07:22 01.05.2020
3811 Clouds 9 1012 100 10000 0.82 282 06:42 01.05.2020
3812 Clouds 8 1011 93 10000 1 0 05:35 01.05.2020
3813 Clouds 9 1011 87 10000 0.52 295 04:39 01.05.2020
3814 Clouds 9 1011 87 10000 0.5 0 03:24 01.05.2020
3815 Clouds 10 1011 87 10000 1.5 220 02:43 01.05.2020
3816 Clouds 9 1011 87 10000 1.5 220 02:18 01.05.2020
3817 Clouds 10 1011 93 10000 1.5 230 01:28 01.05.2020
3818 Clouds 9 1011 93 10000 2.1 220 00:58 01.05.2020
3819 Clouds 9 1011 93 10000 2.1 220 00:37 01.05.2020
3820 Clouds 10 1011 93 10000 2.1 220 00:18 01.05.2020
3821 Clouds 10 1011 87 10000 0.42 89 23:54 30.04.2020
3822 Clouds 10 1011 87 10000 0.42 89 23:36 30.04.2020
3823 Clouds 11 1011 87 10000 0.58 104 23:18 30.04.2020
3824 Clouds 11 1011 87 10000 1 0 22:40 30.04.2020
3825 Clouds 12 1011 87 10000 1 0 22:19 30.04.2020
3826 Clouds 12 1011 76 10000 1.5 220 21:55 30.04.2020
3827 Clouds 12 1011 76 10000 1.5 220 21:37 30.04.2020
3828 Clouds 12 1011 76 10000 0.75 111 21:18 30.04.2020
3829 Clouds 12 1011 76 10000 0.75 111 21:18 30.04.2020
3830 Clouds 12 1011 76 10000 0.75 111 20:42 30.04.2020
3831 Clouds 12 1011 76 10000 2.1 320 20:19 30.04.2020
3832 Clouds 12 1011 76 10000 2.1 320 19:58 30.04.2020
3833 Clouds 12 1011 76 10000 2.1 320 19:38 30.04.2020
3834 Clouds 13 1011 76 10000 2.1 320 19:18 30.04.2020
3835 Clouds 13 1010 76 10000 1.5 100 18:55 30.04.2020
3836 Clouds 13 1010 76 10000 1.5 100 18:36 30.04.2020
3837 Clouds 13 1010 76 10000 1.5 100 18:36 30.04.2020
3838 Clouds 13 1010 76 10000 1.5 100 18:18 30.04.2020
3839 Clouds 13 1011 81 10000 1.43 181 17:40 30.04.2020
3840 Rain 12 1011 81 10000 2.45 158 17:22 30.04.2020
3841 Rain 13 1010 67 10000 3.1 110 16:58 30.04.2020
3842 Rain 13 1010 67 10000 3.1 110 16:58 30.04.2020
3843 Rain 13 1010 67 10000 3.1 110 16:40 30.04.2020
3844 Rain 13 1010 67 10000 3.1 110 16:20 30.04.2020
3845 Rain 13 1011 58 10000 4.6 230 15:54 30.04.2020
3846 Rain 14 1011 58 10000 4.6 230 15:36 30.04.2020
3847 Rain 17 1010 42 10000 8.2 250 15:18 30.04.2020
3848 Rain 16 1010 42 10000 8.2 250 14:40 30.04.2020
3849 Rain 17 1010 42 10000 8.2 250 14:20 30.04.2020
3850 Clouds 18 1011 34 10000 2.6 220 13:57 30.04.2020
3851 Clouds 19 1011 34 10000 2.6 220 13:39 30.04.2020
3852 Clouds 19 1011 34 10000 2.6 220 13:20 30.04.2020
3853 Clouds 18 1011 37 10000 2.1 0 12:42 30.04.2020
3854 Clouds 18 1011 37 10000 2.1 0 12:42 30.04.2020
3855 Clouds 18 1011 37 10000 2.1 0 12:21 30.04.2020
3856 Clouds 18 1012 39 10000 4.1 220 11:59 30.04.2020
3857 Clouds 18 1012 39 10000 4.1 220 11:38 30.04.2020
3858 Clouds 17 1012 39 10000 4.1 200 11:18 30.04.2020
3859 Clouds 17 1012 39 10000 4.1 200 11:18 30.04.2020
3860 Clouds 17 1012 39 10000 4.1 200 10:55 30.04.2020
3861 Clouds 17 1012 39 10000 4.1 200 10:55 30.04.2020
3862 Clouds 17 1012 39 10000 4.1 200 10:37 30.04.2020
3863 Clouds 17 1012 39 10000 4.1 200 10:18 30.04.2020
3864 Clouds 17 1012 42 10000 0.5 0 09:43 30.04.2020
3865 Clouds 17 1012 42 10000 0.5 0 09:23 30.04.2020
3866 Clouds 16 1013 47 10000 0.5 0 08:49 30.04.2020
3867 Clouds 15 1013 47 10000 0.5 0 08:27 30.04.2020
3868 Clouds 14 1013 58 10000 1 180 07:59 30.04.2020
3869 Clouds 14 1013 58 10000 1 180 07:40 30.04.2020
3870 Clouds 14 1013 58 10000 1 180 07:22 30.04.2020
3871 Clouds 12 1012 54 10000 1.42 133 06:39 30.04.2020
3872 Clouds 12 1012 57 10000 0.5 230 05:49 30.04.2020
3873 Clouds 12 1012 57 10000 0.5 230 05:27 30.04.2020
3874 Clouds 12 1012 58 10000 1.24 212 04:29 30.04.2020
3875 Clouds 13 1012 54 10000 1 0 02:59 30.04.2020
3876 Clouds 11 1012 54 10000 1 0 02:29 30.04.2020
3877 Clouds 10 1012 61 10000 0.5 0 01:56 30.04.2020
3878 Clouds 11 1012 61 10000 0.5 0 01:20 30.04.2020
3879 Clouds 11 1012 53 10000 1 0 00:37 30.04.2020
3880 Clouds 11 1012 53 10000 1 0 00:18 30.04.2020
3881 Clouds 12 1012 54 10000 1 230 23:42 29.04.2020
3882 Clouds 12 1012 54 10000 1 230 23:24 29.04.2020
3883 Clouds 13 1012 44 10000 0.67 153 22:59 29.04.2020
3884 Clouds 13 1012 44 10000 0.67 153 22:39 29.04.2020
3885 Clouds 13 1012 44 10000 0.8 156 22:20 29.04.2020
3886 Clouds 13 1012 44 10000 1 240 21:39 29.04.2020
3887 Clouds 14 1012 44 10000 1 240 21:21 29.04.2020
3888 Clouds 14 1012 44 10000 1 240 21:21 29.04.2020
3889 Clouds 15 1012 33 10000 1 230 20:59 29.04.2020
3890 Clouds 16 1012 33 10000 1 230 20:40 29.04.2020
3891 Clouds 18 1012 31 10000 1.5 210 20:19 29.04.2020
3892 Clouds 18 1012 31 10000 1.5 210 19:57 29.04.2020
3893 Clouds 18 1012 31 10000 1.5 210 19:39 29.04.2020
3894 Clouds 18 1012 31 10000 1.5 210 19:18 29.04.2020
3895 Clouds 19 1012 29 10000 3.1 240 18:42 29.04.2020
3896 Clouds 19 1012 29 10000 3.1 240 18:21 29.04.2020
3897 Clouds 19 1012 28 10000 4.1 240 17:56 29.04.2020
3898 Clouds 19 1012 28 10000 4.1 240 17:37 29.04.2020
3899 Clouds 20 1012 24 10000 4.6 260 17:19 29.04.2020
3900 Clouds 20 1012 24 10000 4.6 260 16:38 29.04.2020
3901 Clouds 20 1012 24 10000 4.6 260 16:38 29.04.2020
3902 Clouds 20 1012 22 10000 4.6 250 16:19 29.04.2020
3903 Clouds 20 1012 22 10000 4.6 250 15:57 29.04.2020
3904 Clouds 20 1012 22 10000 4.6 250 15:39 29.04.2020
3905 Clouds 20 1012 22 10000 4.6 250 15:20 29.04.2020
3906 Clouds 20 1013 24 10000 3.6 250 14:46 29.04.2020
3907 Clouds 20 1013 24 10000 3.6 250 14:27 29.04.2020
3908 Clouds 20 1014 21 10000 4.6 250 13:59 29.04.2020
3909 Clouds 20 1014 21 10000 4.6 250 13:40 29.04.2020
3910 Clouds 20 1014 21 10000 4.6 250 13:40 29.04.2020
3911 Clouds 19 1014 22 10000 4.6 250 13:20 29.04.2020
3912 Clouds 19 1015 20 10000 6.2 230 12:57 29.04.2020
3913 Clouds 19 1015 20 10000 6.2 230 12:38 29.04.2020
3914 Clear 18 1015 20 10000 6.2 230 12:18 29.04.2020
3915 Clear 17 1015 23 10000 3.1 0 11:39 29.04.2020
3916 Clear 17 1015 23 10000 3.1 0 11:20 29.04.2020
3917 Clear 16 1016 26 10000 2.1 0 10:57 29.04.2020
3918 Clear 16 1016 26 10000 2.1 0 10:37 29.04.2020
3919 Clear 16 1016 26 10000 2.1 0 10:37 29.04.2020
3920 Clear 16 1016 26 10000 2.1 0 10:19 29.04.2020
3921 Clear 14 1016 30 10000 2.1 260 09:42 29.04.2020
3922 Clear 14 1016 30 10000 2.1 260 09:22 29.04.2020
3923 Clear 12 1016 34 10000 1.5 270 08:55 29.04.2020
3924 Clear 12 1016 34 10000 1.5 270 08:36 29.04.2020
3925 Clear 12 1016 34 10000 1.5 270 08:18 29.04.2020
3926 Clear 10 1016 57 10000 2.07 250 07:39 29.04.2020
3927 Clear 7 1016 69 10000 1.09 231 07:18 29.04.2020
3928 Clear 6 1016 69 10000 1.09 231 06:48 29.04.2020
3929 Clear 3 1016 69 10000 0.82 236 06:30 29.04.2020
3930 Clear 5 1015 74 10000 1.02 247 05:21 29.04.2020
3931 Clear 5 1015 74 10000 1.02 247 05:21 29.04.2020
3932 Clear 5 1015 74 10000 1.02 247 05:21 29.04.2020
3933 Clear 5 1015 47 10000 0.5 230 04:38 29.04.2020
3934 Clear 6 1015 45 10000 1 0 04:18 29.04.2020
3935 Clear 8 1015 56 10000 1.38 239 02:39 29.04.2020
3936 Clear 7 1015 41 10000 1 0 01:44 29.04.2020
3937 Clear 7 1015 40 10000 1 0 01:21 29.04.2020
3938 Clear 9 1015 43 10000 0.5 0 00:40 29.04.2020
3939 Clouds 9 1015 43 10000 0.5 0 00:19 29.04.2020
3940 Clouds 9 1015 46 10000 2.6 240 23:48 28.04.2020
3941 Clouds 9 1015 46 10000 2.6 240 23:23 28.04.2020
3942 Clouds 11 1014 38 10000 2.6 240 22:55 28.04.2020
3943 Clouds 11 1014 38 10000 2.6 240 22:55 28.04.2020
3944 Clouds 11 1014 38 10000 2.6 240 22:37 28.04.2020
3945 Clouds 11 1014 34 10000 2.6 240 22:18 28.04.2020
3946 Clouds 10 1014 34 10000 1 220 21:54 28.04.2020
3947 Clouds 10 1014 34 10000 1 220 21:36 28.04.2020
3948 Clouds 13 1014 31 10000 1 260 21:18 28.04.2020
3949 Clouds 13 1014 31 10000 1 260 20:40 28.04.2020
3950 Clear 13 1014 30 10000 1 260 20:21 28.04.2020
3951 Clear 16 1013 29 10000 2.1 230 19:59 28.04.2020
3952 Clear 16 1013 29 10000 2.1 230 19:41 28.04.2020
3953 Clear 16 1013 29 10000 2.1 230 19:22 28.04.2020
3954 Clear 16 1013 29 10000 2.1 230 19:22 28.04.2020
3955 Clouds 18 1013 27 10000 3.1 240 18:58 28.04.2020
3956 Clouds 18 1013 27 10000 3.1 240 18:38 28.04.2020
3957 Clouds 18 1013 27 10000 3.1 240 18:19 28.04.2020
3958 Clouds 18 1013 27 10000 3.1 240 18:19 28.04.2020
3959 Clouds 19 1013 22 10000 1 0 17:39 28.04.2020
3960 Clouds 19 1013 25 10000 2.6 230 17:20 28.04.2020
3961 Clouds 19 1013 22 10000 1 0 17:20 28.04.2020
3962 Clouds 19 1013 25 10000 2.6 230 16:59 28.04.2020
3963 -273 0 0 0 0 0 16:59 28.04.2020
3964 Clouds 19 1013 25 10000 2.6 230 16:41 28.04.2020
3965 Clouds 19 1013 25 10000 2.6 230 16:22 28.04.2020
3966 Clouds 18 1013 20 10000 3.1 240 15:57 28.04.2020
3967 Clouds 18 1013 20 10000 3.1 240 15:39 28.04.2020
3968 Clouds 19 1013 20 10000 3.1 240 15:21 28.04.2020
3969 Clouds 19 1014 24 10000 1.5 210 14:57 28.04.2020
3970 Clouds 19 1014 24 10000 1.5 210 14:39 28.04.2020
3971 Clouds 18 1014 25 10000 3.6 230 14:19 28.04.2020
3972 Clouds 18 1014 25 10000 3.6 230 13:57 28.04.2020
3973 Clouds 18 1014 25 10000 3.6 230 13:37 28.04.2020
3974 Clouds 18 1014 25 10000 3.6 230 13:19 28.04.2020
3975 Clouds 17 1015 21 10000 3.6 260 12:43 28.04.2020
3976 Clouds 17 1015 23 10000 3.6 260 12:24 28.04.2020
3977 Clouds 16 1015 31 10000 3.6 260 11:43 28.04.2020
3978 Clouds 16 1015 31 10000 3.6 260 11:24 28.04.2020
3979 Clear 15 1015 38 10000 2.6 300 10:59 28.04.2020
3980 Clear 15 1015 38 10000 2.6 300 10:39 28.04.2020
3981 Clouds 15 1015 38 10000 2.6 300 10:19 28.04.2020
3982 Clouds 14 1016 47 10000 2.1 130 09:55 28.04.2020
3983 Clouds 14 1016 47 10000 2.1 130 09:37 28.04.2020
3984 Clear 13 1016 54 10000 0.5 0 09:19 28.04.2020
3985 Clear 12 1016 54 10000 0.5 0 08:45 28.04.2020
3986 Clear 12 1016 54 10000 0.5 0 08:26 28.04.2020
3987 Clear 9 1016 65 10000 0.5 0 07:44 28.04.2020
3988 Clear 7 1016 80 10000 0.94 52 07:19 28.04.2020
3989 Clear 6 1016 80 10000 0.94 52 06:44 28.04.2020
3990 Clear 3 1015 86 10000 1.23 40 05:57 28.04.2020
3991 Clear 3 1015 86 10000 1.23 40 05:38 28.04.2020
3992 Clear 4 1015 80 10000 1.4 27 04:39 28.04.2020
3993 Clear 7 1015 70 10000 1 210 02:59 28.04.2020
3994 Clear 8 1015 70 10000 1 210 02:25 28.04.2020
3995 Clouds 9 1015 65 10000 0.5 0 01:23 28.04.2020
3996 Clouds 9 1015 66 10000 1 0 00:51 28.04.2020
3997 Clouds 10 1015 66 10000 1 0 00:20 28.04.2020
3998 Clouds 10 1015 53 10000 0.5 240 23:43 27.04.2020
3999 Clouds 10 1015 53 10000 0.5 240 23:22 27.04.2020
4000 Clouds 11 1014 66 10000 0.5 0 22:55 27.04.2020
4001 Clouds 11 1014 66 10000 0.5 0 22:55 27.04.2020
4002 Clouds 11 1014 66 10000 0.5 0 22:37 27.04.2020
4003 Clouds 12 1014 58 10000 1 0 22:18 27.04.2020
4004 Clouds 12 1014 58 10000 1 0 21:55 27.04.2020
4005 Clouds 12 1014 58 10000 1 0 21:37 27.04.2020
4006 Clouds 13 1013 54 10000 2.1 230 21:18 27.04.2020
4007 Clouds 13 1013 54 10000 2.1 230 20:42 27.04.2020
4008 Clouds 13 1013 54 10000 2.1 230 20:21 27.04.2020
4009 Clouds 14 1013 50 10000 2.1 300 19:57 27.04.2020
4010 Clouds 14 1013 50 10000 2.1 300 19:38 27.04.2020
4011 Clouds 15 1012 36 10000 3.1 0 19:19 27.04.2020
4012 Clouds 15 1012 36 10000 3.1 0 18:56 27.04.2020
4013 Clouds 15 1012 36 10000 3.1 0 18:37 27.04.2020
4014 Clouds 16 1012 36 10000 3.1 0 18:18 27.04.2020
4015 Clouds 17 1011 32 10000 4.1 350 17:43 27.04.2020
4016 Clouds 17 1011 32 10000 4.1 350 17:21 27.04.2020
4017 Clouds 17 1011 32 10000 3.6 360 16:56 27.04.2020
4018 Clouds 18 1011 32 10000 3.6 360 16:38 27.04.2020
4019 Clouds 18 1010 22 10000 5.1 0 16:20 27.04.2020
4020 Clouds 19 1010 22 10000 5.1 0 15:56 27.04.2020
4021 Clouds 19 1010 22 10000 5.1 0 15:37 27.04.2020
4022 Clouds 20 1011 24 10000 3.1 0 15:18 27.04.2020
4023 Clouds 20 1011 24 10000 3.1 0 14:41 27.04.2020
4024 Clouds 20 1011 24 10000 3.1 0 14:20 27.04.2020
4025 Clouds 20 1011 23 10000 3.1 240 13:57 27.04.2020
4026 Clouds 20 1011 23 10000 3.1 240 13:39 27.04.2020
4027 Clouds 20 1011 23 10000 3.1 240 13:39 27.04.2020
4028 Clouds 20 1011 23 10000 3.1 240 13:19 27.04.2020
4029 Clouds 20 1011 23 10000 3.1 230 12:43 27.04.2020
4030 Clouds 20 1011 23 10000 3.1 230 12:23 27.04.2020
4031 Clouds 19 1012 23 10000 2.6 240 11:57 27.04.2020
4032 Clouds 19 1012 23 10000 2.6 240 11:38 27.04.2020
4033 Clouds 18 1012 31 10000 1.5 0 11:19 27.04.2020
4034 Clouds 18 1012 31 10000 1.5 0 10:42 27.04.2020
4035 Clouds 18 1012 31 10000 1.5 0 10:24 27.04.2020
4036 Clouds 16 1012 38 10000 1 0 09:58 27.04.2020
4037 Clouds 16 1012 38 10000 1 0 09:40 27.04.2020
4038 Clouds 13 1012 47 10000 0.5 0 09:18 27.04.2020
4039 Clouds 13 1012 47 10000 0.5 0 08:53 27.04.2020
4040 Clouds 12 1012 47 10000 0.5 0 08:33 27.04.2020
4041 Clouds 10 1012 61 10000 1 0 07:46 27.04.2020
4042 Clouds 9 1012 61 10000 1 0 07:27 27.04.2020
4043 Clouds 7 1012 70 10000 0.11 125 06:59 27.04.2020
4044 Clouds 6 1012 70 10000 0.11 125 06:37 27.04.2020
4045 Clouds 5 1012 70 10000 0.49 107 06:18 27.04.2020
4046 Clouds 5 1012 75 10000 1.5 230 05:21 27.04.2020
4047 Clouds 7 1012 70 10000 0.5 220 04:40 27.04.2020
4048 Clouds 7 1012 65 10000 1 230 03:48 27.04.2020
4049 Clouds 6 1011 44 10000 1.5 230 02:35 27.04.2020
4050 Clouds 8 1011 57 10000 0.5 0 01:20 27.04.2020
4051 Clouds 9 1012 57 10000 0.5 0 00:40 27.04.2020
4052 Clouds 9 1011 41 10000 0.5 0 00:19 27.04.2020
4053 Clouds 9 1011 41 10000 0.5 0 23:55 26.04.2020
4054 Clouds 9 1011 41 10000 0.5 0 23:37 26.04.2020
4055 Clouds 11 1011 41 10000 1.5 250 23:18 26.04.2020
4056 Clouds 11 1011 41 10000 1.5 250 22:54 26.04.2020
4057 Clouds 12 1011 41 10000 1.5 250 22:36 26.04.2020
4058 Clouds 13 1011 41 10000 1 0 22:18 26.04.2020
4059 Clouds 13 1011 41 10000 1 0 21:54 26.04.2020
4060 Clouds 13 1011 41 10000 1 0 21:36 26.04.2020
4061 Clouds 15 1011 41 10000 2.1 250 21:18 26.04.2020
4062 Clouds 15 1011 41 10000 2.1 250 20:39 26.04.2020
4063 Clouds 15 1011 41 10000 2.1 250 20:20 26.04.2020
4064 Clouds 16 1010 27 10000 1 0 19:58 26.04.2020
4065 Clouds 16 1010 27 10000 1 0 19:38 26.04.2020
4066 Clouds 16 1010 27 10000 1 0 19:19 26.04.2020
4067 Clouds 18 1009 25 10000 1 260 18:44 26.04.2020
4068 Clouds 18 1009 25 10000 1 260 18:25 26.04.2020
4069 Clouds 18 1009 25 10000 1 260 18:25 26.04.2020
4070 Clouds 18 1009 25 10000 3.1 260 17:56 26.04.2020
4071 Clouds 18 1009 25 10000 3.1 260 17:38 26.04.2020
4072 Clouds 18 1009 25 10000 3.1 260 17:18 26.04.2020
4073 Clouds 19 1009 24 10000 4.1 250 16:40 26.04.2020
4074 Clouds 19 1009 24 10000 4.1 250 16:22 26.04.2020
4075 Clouds 19 1009 22 10000 2.1 0 15:59 26.04.2020
4076 Clouds 19 1009 22 10000 2.1 0 15:40 26.04.2020
4077 Clouds 19 1009 22 10000 2.1 0 15:21 26.04.2020
4078 Clouds 18 1009 23 10000 2.6 170 14:56 26.04.2020
4079 Clouds 18 1009 23 10000 2.6 170 14:38 26.04.2020
4080 Clouds 18 1009 23 10000 2.6 170 14:18 26.04.2020
4081 Clear 18 1010 25 10000 3.1 190 13:43 26.04.2020
4082 Clear 18 1010 25 10000 3.1 190 13:24 26.04.2020
4083 Clear 17 1010 27 10000 3.1 230 12:58 26.04.2020
4084 Clear 17 1010 27 10000 3.1 230 12:40 26.04.2020
4085 Clear 17 1010 27 10000 3.1 230 12:21 26.04.2020
4086 Clear 16 1010 28 10000 2.1 260 11:58 26.04.2020
4087 Clear 15 1010 28 10000 2.1 260 11:39 26.04.2020
4088 Clear 15 1010 28 10000 2.1 260 11:21 26.04.2020
4089 Clear 14 1011 30 10000 3.1 270 10:55 26.04.2020
4090 Clear 14 1011 30 10000 3.1 270 10:37 26.04.2020
4091 Clear 13 1011 30 10000 3.1 270 10:18 26.04.2020
4092 Clear 12 1011 34 10000 2.6 230 09:39 26.04.2020
4093 Clear 12 1011 34 10000 2.6 230 09:21 26.04.2020
4094 Clear 9 1010 43 10000 1.5 0 08:46 26.04.2020
4095 Clear 9 1010 43 10000 1.5 0 08:23 26.04.2020
4096 Clear 7 1010 52 10000 0.5 0 07:59 26.04.2020
4097 Clear 7 1010 52 10000 0.5 0 07:40 26.04.2020
4098 Clear 7 1010 52 10000 0.5 0 07:20 26.04.2020
4099 Clear 4 1009 48 10000 2.85 258 06:40 26.04.2020
4100 Clear 0 1009 64 10000 1.54 251 05:55 26.04.2020
4101 Clear 1 1009 64 10000 1.54 251 05:37 26.04.2020
4102 Clear 1 1009 60 10000 1.54 251 04:56 26.04.2020
4103 Clear 2 1008 60 10000 0.5 0 03:56 26.04.2020
4104 Clear 3 1008 64 10000 1.5 230 02:47 26.04.2020
4105 Clear 3 1008 64 10000 1.5 230 02:28 26.04.2020
4106 Clear 5 1008 60 10000 1 0 01:46 26.04.2020
4107 Clear 5 1008 60 10000 1 0 01:25 26.04.2020
4108 Clear 7 1008 52 10000 2.1 220 00:39 26.04.2020
4109 Clear 8 1007 45 10000 2.1 230 00:19 26.04.2020
4110 Clear 8 1007 45 10000 2.1 230 23:38 25.04.2020
4111 Clear 8 1007 45 10000 2.1 230 23:20 25.04.2020
4112 Clear 10 1007 43 10000 1 0 22:57 25.04.2020
4113 Clear 10 1007 43 10000 1 0 22:39 25.04.2020
4114 Clear 10 1007 43 10000 1 0 22:18 25.04.2020
4115 Clear 11 1006 40 10000 2.6 250 21:40 25.04.2020
4116 Clear 11 1006 40 10000 2.6 250 21:20 25.04.2020
4117 Clear 13 1005 33 10000 1.5 0 20:58 25.04.2020
4118 Clear 13 1005 33 10000 1.5 0 20:40 25.04.2020
4119 Clear 13 1005 33 10000 1.5 0 20:21 25.04.2020
4120 Clear 15 1004 28 10000 3.1 240 19:42 25.04.2020
4121 Clear 15 1004 28 10000 3.1 240 19:23 25.04.2020
4122 Clear 17 1004 25 10000 3.1 260 18:59 25.04.2020
4123 Clear 17 1004 25 10000 3.1 260 18:39 25.04.2020
4124 Clear 18 1004 25 10000 3.1 260 18:21 25.04.2020
4125 Clear 18 1004 24 10000 3.1 240 17:58 25.04.2020
4126 Clear 18 1004 24 10000 3.1 240 17:38 25.04.2020
4127 Clear 19 1004 24 10000 3.1 240 17:19 25.04.2020
4128 Clear 19 1004 24 10000 3.1 240 17:19 25.04.2020
4129 Clear 19 1005 22 10000 4.6 210 16:55 25.04.2020
4130 Clear 19 1005 22 10000 4.6 210 16:37 25.04.2020
4131 Clear 19 1005 22 10000 4.6 210 16:18 25.04.2020
4132 Clear 18 1005 18 10000 2.1 0 15:41 25.04.2020
4133 Clear 18 1005 23 10000 3.6 210 15:20 25.04.2020
4134 Clear 18 1005 23 10000 3.6 210 14:58 25.04.2020
4135 Clear 18 1005 23 10000 3.6 210 14:39 25.04.2020
4136 Clear 18 1005 23 10000 3.6 210 14:20 25.04.2020
4137 Clear 18 1006 20 10000 2.6 0 13:43 25.04.2020
4138 Clear 17 1006 20 10000 2.6 0 13:22 25.04.2020
4139 Clear 17 1006 27 10000 3.1 0 12:58 25.04.2020
4140 Clear 17 1006 27 10000 3.1 0 12:40 25.04.2020
4141 Clear 17 1006 27 10000 3.1 0 12:21 25.04.2020
4142 Clear 16 1007 29 10000 3.1 250 11:58 25.04.2020
4143 Clear 16 1007 29 10000 3.1 250 11:39 25.04.2020
4144 Clear 14 1007 33 10000 1.5 150 11:21 25.04.2020
4145 Clear 14 1007 33 10000 1.5 150 10:44 25.04.2020
4146 Clear 14 1007 33 10000 1.5 150 10:24 25.04.2020
4147 Clear 12 1007 34 10000 1.5 260 09:50 25.04.2020
4148 Clouds 12 1007 34 10000 1.5 260 09:30 25.04.2020
4149 Clouds 10 1008 37 10000 0.5 0 08:59 25.04.2020
4150 Clouds 9 1008 37 10000 0.5 0 08:40 25.04.2020
4151 Clouds 9 1008 37 10000 0.5 0 08:21 25.04.2020
4152 Clouds 7 1008 52 10000 1.33 290 07:58 25.04.2020
4153 Clouds 6 1008 52 10000 1.33 290 07:40 25.04.2020
4154 Clouds 2 1008 59 10000 1.33 290 06:55 25.04.2020
4155 Clouds 2 1008 59 10000 1.33 290 06:36 25.04.2020
4156 Clouds 1 1008 47 10000 0.69 344 05:42 25.04.2020
4157 Clouds 1 1008 47 10000 0.69 344 05:21 25.04.2020
4158 Clouds 2 1008 59 10000 1.24 8 02:59 25.04.2020
4159 Clouds 2 1008 59 10000 1.6 8 02:25 25.04.2020
4160 Clouds 3 1008 55 10000 0.5 0 01:54 25.04.2020
4161 Clouds 4 1008 55 10000 0.5 0 01:34 25.04.2020
4162 Clouds 3 1008 51 10000 1.5 220 00:58 25.04.2020
4163 Clouds 3 1008 51 10000 1.5 220 00:34 25.04.2020
4164 Clouds 4 1008 48 10000 0.5 250 23:55 24.04.2020
4165 Clouds 4 1008 48 10000 0.5 250 23:55 24.04.2020
4166 Clouds 4 1008 48 10000 0.5 250 23:36 24.04.2020
4167 Clouds 6 1008 39 10000 1.2 25 23:18 24.04.2020
4168 Clouds 6 1008 39 10000 1.2 25 22:40 24.04.2020
4169 Clouds 6 1008 39 10000 1.2 25 22:19 24.04.2020
4170 Clouds 7 1008 33 10000 1.5 240 21:57 24.04.2020
4171 Clouds 7 1008 33 10000 1.5 240 21:38 24.04.2020
4172 Clouds 8 1008 33 10000 1.5 240 21:20 24.04.2020
4173 Clouds 9 1008 23 10000 1.5 240 20:56 24.04.2020
4174 Clouds 10 1008 23 10000 1.5 240 20:38 24.04.2020
4175 Clouds 11 1008 19 10000 2.6 90 20:18 24.04.2020
4176 Clouds 12 1008 19 10000 2.6 90 19:41 24.04.2020
4177 Clouds 12 1008 19 10000 2.6 90 19:22 24.04.2020
4178 Clouds 13 1008 15 10000 3.1 60 18:46 24.04.2020
4179 Clouds 13 1008 15 10000 3.1 60 18:28 24.04.2020
4180 Clouds 14 1008 18 10000 3.1 60 17:58 24.04.2020
4181 Clouds 14 1008 18 10000 3.1 60 17:39 24.04.2020
4182 Clouds 14 1008 18 10000 3.1 60 17:20 24.04.2020
4183 Clouds 15 1008 19 10000 4.1 60 16:58 24.04.2020
4184 Clouds 15 1008 19 10000 4.1 60 16:40 24.04.2020
4185 Clouds 15 1008 19 10000 4.1 60 16:21 24.04.2020
4186 Clouds 15 1009 15 10000 3.6 90 15:42 24.04.2020
4187 -273 0 0 0 0 0 15:21 24.04.2020
4188 Clouds 15 1010 13 10000 2.6 0 14:59 24.04.2020
4189 Clouds 15 1010 13 10000 2.6 0 14:39 24.04.2020
4190 Clouds 15 1010 13 10000 2.6 0 14:20 24.04.2020
4191 Clouds 14 1011 13 10000 4.1 60 13:42 24.04.2020
4192 Clouds 14 1011 13 10000 4.1 60 13:22 24.04.2020
4193 Clouds 13 1011 17 10000 4.6 70 12:59 24.04.2020
4194 Clouds 13 1011 17 10000 4.6 70 12:41 24.04.2020
4195 Clouds 13 1011 17 10000 4.6 70 12:20 24.04.2020
4196 Clouds 12 1012 30 10000 4.1 50 11:56 24.04.2020
4197 Clouds 11 1012 30 10000 4.1 50 11:37 24.04.2020
4198 Clouds 11 1012 30 10000 4.1 50 11:18 24.04.2020
4199 Clouds 11 1012 30 10000 4.1 50 11:18 24.04.2020
4200 Clouds 10 1013 42 10000 4.1 60 10:38 24.04.2020
4201 Clouds 10 1013 42 10000 4.1 60 10:20 24.04.2020
4202 Clouds 8 1014 45 10000 4.1 60 09:58 24.04.2020
4203 Clouds 8 1014 45 10000 4.1 60 09:39 24.04.2020
4204 Clouds 8 1014 45 10000 4.1 60 09:20 24.04.2020
4205 Clouds 7 1015 52 10000 3.1 70 08:43 24.04.2020
4206 Clouds 7 1015 52 10000 3.1 70 08:23 24.04.2020
4207 Clouds 5 1015 56 10000 0.5 0 07:59 24.04.2020
4208 Clouds 5 1015 56 10000 0.5 0 07:41 24.04.2020
4209 Clouds 5 1015 56 10000 0.5 0 07:23 24.04.2020
4210 Clouds 2 1014 69 10000 0.5 230 06:48 24.04.2020
4211 Clouds 2 1014 69 10000 0.5 230 06:30 24.04.2020
4212 Clouds 1 1014 69 10000 1 250 05:39 24.04.2020
4213 Clouds 3 1015 60 10000 3.1 70 03:41 24.04.2020
4214 Clouds 3 1015 56 10000 4.6 60 02:55 24.04.2020
4215 Clouds 4 1015 56 10000 4.6 60 02:37 24.04.2020
4216 Clouds 4 1016 52 10000 4.6 60 01:47 24.04.2020
4217 Clouds 5 1017 52 10000 4.6 60 00:56 24.04.2020
4218 Clear 5 1017 48 10000 3.6 60 00:20 24.04.2020
4219 Clear 5 1017 48 10000 3.6 60 23:48 23.04.2020
4220 Clear 6 1017 48 10000 3.6 60 23:28 23.04.2020
4221 Clear 6 1016 48 10000 4.1 60 22:59 23.04.2020
4222 Clear 6 1016 48 10000 4.1 60 22:41 23.04.2020
4223 Clear 6 1016 48 10000 4.1 60 22:41 23.04.2020
4224 Clear 6 1016 48 10000 4.1 60 22:21 23.04.2020
4225 Clear 7 1016 42 10000 4.1 70 21:58 23.04.2020
4226 Clear 7 1016 42 10000 4.1 70 21:40 23.04.2020
4227 Clear 7 1016 42 10000 4.1 70 21:21 23.04.2020
4228 Clear 8 1015 39 10000 3.6 70 20:58 23.04.2020
4229 Clear 8 1015 39 10000 3.6 70 20:40 23.04.2020
4230 Clear 8 1015 39 10000 3.6 70 20:21 23.04.2020
4231 Clear 9 1014 34 10000 4.1 90 19:56 23.04.2020
4232 Clear 9 1014 34 10000 4.1 90 19:38 23.04.2020
4233 Clear 9 1014 34 10000 4.1 90 19:20 23.04.2020
4234 Clear 11 1014 32 10000 4.6 100 18:55 23.04.2020
4235 Clear 11 1014 32 10000 4.6 100 18:36 23.04.2020
4236 Clear 11 1014 32 10000 5.7 70 18:18 23.04.2020
4237 Clear 12 1014 32 10000 5.7 70 17:40 23.04.2020
4238 Clouds 13 1015 30 10000 5.1 70 17:22 23.04.2020
4239 Clouds 13 1015 30 10000 5.1 70 16:57 23.04.2020
4240 Clouds 12 1015 30 10000 5.1 70 16:38 23.04.2020
4241 Clouds 12 1015 30 10000 5.1 70 16:19 23.04.2020
4242 Clouds 12 1015 32 10000 5.7 60 15:42 23.04.2020
4243 Clouds 12 1015 32 10000 5.7 60 15:23 23.04.2020
4244 Clouds 12 1015 37 10000 4.1 70 14:57 23.04.2020
4245 Clouds 12 1015 37 10000 4.1 70 14:38 23.04.2020
4246 Clouds 12 1015 37 10000 4.1 70 14:19 23.04.2020
4247 Clouds 11 1016 37 10000 5.7 0 13:55 23.04.2020
4248 Clouds 11 1016 37 10000 5.7 0 13:36 23.04.2020
4249 Clouds 11 1016 40 10000 4.6 60 13:18 23.04.2020
4250 Clouds 10 1016 40 10000 4.6 60 12:42 23.04.2020
4251 Clouds 10 1016 40 10000 4.6 60 12:24 23.04.2020
4252 Clouds 9 1016 45 10000 5.7 0 11:56 23.04.2020
4253 Clouds 9 1016 45 10000 5.7 0 11:38 23.04.2020
4254 Clouds 9 1016 45 10000 5.7 0 11:18 23.04.2020
4255 Clouds 9 1017 45 10000 4.1 70 10:41 23.04.2020
4256 Clouds 9 1017 45 10000 4.1 70 10:21 23.04.2020
4257 Clouds 8 1016 49 10000 6.2 50 09:41 23.04.2020
4258 Clouds 7 1016 49 10000 6.2 50 09:20 23.04.2020
4259 Clouds 6 1016 56 10000 4.6 70 08:57 23.04.2020
4260 Clouds 6 1016 56 10000 4.6 70 08:39 23.04.2020
4261 Clouds 6 1016 56 10000 4.6 70 08:21 23.04.2020
4262 Clouds 6 1016 45 10000 5.1 70 07:42 23.04.2020
4263 Clouds 6 1016 45 10000 5.1 70 07:23 23.04.2020
4264 Clouds 4 1016 45 10000 4.6 70 06:47 23.04.2020
4265 Clouds 4 1016 59 10000 4.6 70 06:22 23.04.2020
4266 Clouds 4 1015 75 10000 4.1 60 05:23 23.04.2020
4267 Clouds 4 1015 75 10000 4.1 60 04:51 23.04.2020
4268 Clouds 5 1015 70 10000 3.6 60 02:24 23.04.2020
4269 Clouds 6 1015 70 10000 2.6 40 01:46 23.04.2020
4270 Clouds 6 1015 70 10000 2.6 40 01:24 23.04.2020
4271 Clouds 6 1015 70 10000 4.1 60 00:45 23.04.2020
4272 Clouds 6 1015 70 10000 4.1 60 00:45 23.04.2020
4273 Clouds 6 1016 70 10000 2.6 40 00:18 23.04.2020
4274 Clouds 6 1016 70 10000 2.6 40 23:47 22.04.2020
4275 Clouds 6 1016 70 10000 2.6 40 23:23 22.04.2020
4276 Clouds 7 1016 75 10000 3.6 30 22:55 22.04.2020
4277 Clouds 7 1016 75 10000 3.6 30 22:36 22.04.2020
4278 Clouds 7 1016 75 10000 3.6 30 22:18 22.04.2020
4279 Clouds 7 1015 70 10000 3.6 70 21:55 22.04.2020
4280 Clouds 7 1015 70 10000 3.6 70 21:55 22.04.2020
4281 Clouds 7 1015 70 10000 3.6 70 21:36 22.04.2020
4282 Clouds 7 1015 75 10000 4.1 40 21:18 22.04.2020
4283 Clouds 7 1015 75 10000 4.1 40 20:43 22.04.2020
4284 Clouds 7 1015 75 10000 4.1 40 20:19 22.04.2020
4285 Rain 7 1014 70 10000 3.1 30 19:57 22.04.2020
4286 Rain 8 1014 70 10000 3.1 30 19:38 22.04.2020
4287 Rain 8 1014 76 10000 2.1 350 19:18 22.04.2020
4288 Rain 8 1014 76 10000 2.1 350 19:18 22.04.2020
4289 Rain 8 1014 76 10000 2.1 350 18:58 22.04.2020
4290 Rain 8 1014 76 10000 2.1 350 18:40 22.04.2020
4291 Rain 8 1014 76 10000 2.1 350 18:40 22.04.2020
4292 Rain 8 1014 76 10000 2.1 350 18:22 22.04.2020
4293 Rain 8 1013 76 10000 2.6 350 17:45 22.04.2020
4294 Rain 8 1013 76 10000 2.6 350 17:45 22.04.2020
4295 Rain 9 1013 76 10000 2.6 350 17:26 22.04.2020
4296 Rain 9 1013 76 10000 3.1 20 16:58 22.04.2020
4297 Rain 9 1013 76 10000 3.1 20 16:40 22.04.2020
4298 Rain 9 1013 76 10000 3.1 20 16:22 22.04.2020
4299 Clouds 9 1013 71 10000 3.1 30 15:42 22.04.2020
4300 Clouds 9 1013 71 10000 3.1 30 15:42 22.04.2020
4301 Clouds 9 1013 71 10000 3.1 30 15:23 22.04.2020
4302 Clouds 9 1013 71 10000 3.1 30 14:58 22.04.2020
4303 Clouds 9 1013 71 10000 3.1 30 14:38 22.04.2020
4304 Clouds 9 1013 71 10000 3.6 40 14:20 22.04.2020
4305 Clouds 9 1013 71 10000 3.6 40 13:55 22.04.2020
4306 Clouds 9 1013 71 10000 3.6 40 13:36 22.04.2020
4307 Clouds 9 1013 71 10000 3.1 40 13:18 22.04.2020
4308 Rain 10 1013 71 10000 3.1 40 12:39 22.04.2020
4309 Rain 10 1013 71 10000 3.1 40 12:21 22.04.2020
4310 Clouds 10 1013 66 10000 2.6 50 11:40 22.04.2020
4311 Clouds 10 1013 66 10000 2.6 50 11:22 22.04.2020
4312 Clouds 10 1013 66 10000 2.6 40 10:59 22.04.2020
4313 Clouds 10 1013 66 10000 2.6 40 10:39 22.04.2020
4314 Clouds 10 1013 66 10000 2.6 40 10:20 22.04.2020
4315 Clouds 10 1013 66 10000 1 0 09:39 22.04.2020
4316 Clouds 10 1013 66 10000 1 0 09:21 22.04.2020
4317 Clouds 10 1012 71 10000 3.1 90 08:57 22.04.2020
4318 Clouds 10 1012 71 10000 3.1 90 08:38 22.04.2020
4319 Clouds 10 1012 71 10000 3.1 90 08:20 22.04.2020
4320 Clouds 9 1012 76 10000 3.1 80 07:53 22.04.2020
4321 Clouds 9 1012 76 10000 3.1 80 07:28 22.04.2020
4322 Rain 8 1012 81 10000 0.67 336 06:53 22.04.2020
4323 Rain 8 1012 81 10000 0.77 322 06:18 22.04.2020
4324 Rain 8 1012 87 10000 1.5 100 05:35 22.04.2020
4325 Rain 9 1012 71 10000 1.5 100 04:20 22.04.2020
4326 Clouds 9 1013 81 10000 1 0 02:43 22.04.2020
4327 Clouds 9 1013 87 10000 1.5 200 01:50 22.04.2020
4328 Rain 9 1013 81 10000 2.1 270 01:25 22.04.2020
4329 Rain 9 1013 76 10000 0.5 0 00:47 22.04.2020
4330 Rain 10 1013 76 10000 0.5 0 00:22 22.04.2020
4331 Rain 10 1014 76 10000 1 0 23:59 21.04.2020
4332 Rain 10 1014 76 10000 1 0 23:40 21.04.2020
4333 Rain 10 1014 76 10000 1 0 23:18 21.04.2020
4334 Clouds 10 1014 66 10000 2.1 130 22:40 21.04.2020
4335 Clouds 10 1014 66 10000 2.1 130 22:21 21.04.2020
4336 Clouds 10 1014 76 10000 0.5 160 21:59 21.04.2020
4337 Clouds 10 1014 76 10000 0.5 160 21:40 21.04.2020
4338 Clouds 10 1014 76 10000 0.5 160 21:40 21.04.2020
4339 Clouds 10 1014 76 10000 0.5 160 21:22 21.04.2020
4340 Clouds 10 1014 71 10000 2.6 30 20:55 21.04.2020
4341 Clouds 10 1014 71 10000 2.6 30 20:36 21.04.2020
4342 Clouds 10 1014 71 10000 2.6 30 20:18 21.04.2020
4343 Clouds 11 1013 76 10000 1 0 19:40 21.04.2020
4344 Clouds 11 1013 76 10000 1 0 19:19 21.04.2020
4345 Clouds 12 1013 66 10000 2.1 250 18:57 21.04.2020
4346 Clouds 12 1013 66 10000 2.1 250 18:38 21.04.2020
4347 Clouds 12 1013 66 10000 2.1 250 18:19 21.04.2020
4348 Clouds 12 1013 66 10000 2.1 250 18:19 21.04.2020
4349 Clouds 13 1013 66 10000 0.5 0 17:41 21.04.2020
4350 Clouds 13 1013 66 10000 0.5 0 17:22 21.04.2020
4351 Clouds 13 1014 62 10000 0.5 0 16:59 21.04.2020
4352 Clouds 13 1014 62 10000 0.5 0 16:39 21.04.2020
4353 Rain 12 1014 76 10000 2.6 230 16:19 21.04.2020
4354 Rain 12 1014 76 10000 2.6 230 15:57 21.04.2020
4355 Rain 12 1014 76 10000 2.6 230 15:38 21.04.2020
4356 Rain 12 1014 76 10000 2.6 230 15:20 21.04.2020
4357 Rain 12 1014 82 10000 4.1 220 14:54 21.04.2020
4358 Rain 13 1014 82 10000 4.1 220 14:36 21.04.2020
4359 Rain 14 1014 58 10000 4.6 230 14:18 21.04.2020
4360 Rain 15 1014 58 10000 4.6 230 13:40 21.04.2020
4361 Rain 15 1014 58 10000 4.6 230 13:22 21.04.2020
4362 Clouds 16 1014 48 10000 0.5 0 12:54 21.04.2020
4363 Clouds 16 1014 48 10000 0.5 0 12:36 21.04.2020
4364 Clouds 16 1014 48 10000 0.5 0 12:18 21.04.2020
4365 Clouds 16 1014 48 10000 0.5 0 12:18 21.04.2020
4366 Clouds 15 1014 51 10000 1.5 0 11:54 21.04.2020
4367 Clouds 15 1014 51 10000 1.5 0 11:36 21.04.2020
4368 Clouds 14 1015 54 10000 1 0 11:18 21.04.2020
4369 Clouds 14 1015 54 10000 1 0 11:18 21.04.2020
4370 Clouds 14 1015 54 10000 1 0 10:54 21.04.2020
4371 Clouds 14 1015 54 10000 1 0 10:36 21.04.2020
4372 Clouds 13 1015 58 10000 0.5 0 10:18 21.04.2020
4373 Clouds 12 1015 58 10000 0.5 0 09:37 21.04.2020
4374 Clouds 12 1014 62 10000 1.5 230 09:18 21.04.2020
4375 Clouds 12 1014 62 10000 1.5 230 08:47 21.04.2020
4376 Clouds 12 1014 62 10000 1.5 230 08:27 21.04.2020
4377 Clouds 12 1014 62 10000 1.5 230 08:27 21.04.2020
4378 Clouds 11 1014 66 10000 2.1 220 07:56 21.04.2020
4379 Clouds 11 1014 66 10000 2.1 220 07:37 21.04.2020
4380 Clouds 10 1014 71 10000 1 240 07:19 21.04.2020
4381 Clouds 10 1014 71 10000 1 240 06:43 21.04.2020
4382 Clouds 10 1014 71 10000 1 240 06:18 21.04.2020
4383 Clouds 10 1014 62 10000 2.12 34 05:44 21.04.2020
4384 Clouds 11 1014 54 10000 3.6 20 03:48 21.04.2020
4385 Clouds 12 1014 54 10000 1 10 02:59 21.04.2020
4386 Clouds 12 1014 54 10000 1 0 01:37 21.04.2020
4387 Clouds 12 1014 62 10000 1 240 00:51 21.04.2020
4388 Clouds 12 1014 62 10000 1 240 00:25 21.04.2020
4389 Clouds 12 1014 54 10000 1.5 240 23:44 20.04.2020
4390 Clouds 12 1014 54 10000 1.5 240 23:23 20.04.2020
4391 Clouds 14 1014 47 10000 1.5 230 22:57 20.04.2020
4392 Clouds 14 1014 47 10000 1.5 230 22:37 20.04.2020
4393 Clouds 14 1014 47 10000 1.5 230 22:19 20.04.2020
4394 Clouds 15 1014 42 10000 4.6 40 21:55 20.04.2020
4395 Clouds 15 1014 42 10000 4.6 40 21:37 20.04.2020
4396 Clouds 15 1014 42 10000 4.6 40 21:18 20.04.2020
4397 Clouds 16 1013 42 10000 1.5 240 20:55 20.04.2020
4398 Clouds 16 1013 42 10000 1.5 240 20:37 20.04.2020
4399 Clouds 17 1011 39 10000 3.1 360 20:18 20.04.2020
4400 Clouds 18 1012 42 10000 5.7 30 19:41 20.04.2020
4401 Clouds 19 1011 28 10000 2.1 230 19:23 20.04.2020
4402 Clouds 19 1012 39 10000 4.6 20 18:59 20.04.2020
4403 Clouds 20 1011 28 10000 3.1 250 18:41 20.04.2020
4404 Clouds 21 1011 24 10000 3.1 260 18:21 20.04.2020
4405 Clouds 22 1011 24 10000 3.1 260 17:55 20.04.2020
4406 Clouds 22 1011 24 10000 3.1 260 17:36 20.04.2020
4407 Clouds 22 1011 24 10000 3.1 240 17:18 20.04.2020
4408 Clouds 22 1011 24 10000 3.1 240 16:43 20.04.2020
4409 Clouds 22 1011 24 10000 3.1 240 16:21 20.04.2020
4410 Clouds 23 1011 25 10000 4.1 240 15:57 20.04.2020
4411 Clouds 22 1011 25 10000 4.1 240 15:39 20.04.2020
4412 Clouds 22 1011 20 10000 4.1 240 15:21 20.04.2020
4413 Clouds 22 1012 25 10000 4.1 270 14:42 20.04.2020
4414 Clouds 22 1012 25 10000 4.1 270 14:20 20.04.2020
4415 Clouds 22 1012 24 10000 4.6 270 13:59 20.04.2020
4416 Clouds 22 1012 24 10000 4.6 270 13:40 20.04.2020
4417 Clouds 22 1012 24 10000 4.6 270 13:22 20.04.2020
4418 Clouds 22 1013 28 10000 4.1 250 12:44 20.04.2020
4419 Clouds 22 1013 28 10000 4.1 250 12:25 20.04.2020
4420 Clouds 21 1013 26 10000 3.1 280 11:58 20.04.2020
4421 Clouds 21 1013 26 10000 3.1 280 11:39 20.04.2020
4422 Clouds 19 1014 34 10000 2.1 0 11:20 20.04.2020
4423 Clouds 19 1014 34 10000 2.1 0 10:55 20.04.2020
4424 Clouds 19 1014 34 10000 2.1 0 10:37 20.04.2020
4425 Clouds 17 1014 47 10000 2.1 240 10:19 20.04.2020
4426 Clouds 16 1014 47 10000 2.1 240 09:44 20.04.2020
4427 Clouds 16 1014 47 10000 2.1 240 09:26 20.04.2020
4428 Clouds 14 1014 47 10000 0.5 0 08:59 20.04.2020
4429 Clouds 14 1014 47 10000 0.5 0 08:41 20.04.2020
4430 Clouds 13 1014 57 10000 1.59 232 08:19 20.04.2020
4431 Clouds 13 1014 57 10000 1.59 232 07:52 20.04.2020
4432 Clouds 12 1014 57 10000 1.59 232 07:29 20.04.2020
4433 Clouds 9 1014 70 10000 0.5 0 06:55 20.04.2020
4434 Clouds 6 1014 70 10000 0.5 0 06:35 20.04.2020
4435 Clouds 6 1014 75 10000 0.7 228 05:33 20.04.2020
4436 Clouds 9 1014 65 10000 0.5 250 03:45 20.04.2020
4437 Clouds 8 1013 65 10000 0.98 232 02:44 20.04.2020
4438 Clouds 11 1014 61 10000 0.77 246 01:32 20.04.2020
4439 Clouds 11 1014 61 10000 0.5 240 00:59 20.04.2020
4440 Clouds 10 1014 61 10000 0.5 240 00:34 20.04.2020
4441 Clouds 12 1014 47 10000 1.5 230 23:55 19.04.2020
4442 Clouds 12 1014 47 10000 1.5 230 23:37 19.04.2020
4443 Clouds 13 1014 47 10000 1.5 230 23:19 19.04.2020
4444 Clouds 12 1014 50 10000 1 230 22:40 19.04.2020
4445 Clouds 12 1014 50 10000 1 230 22:21 19.04.2020
4446 Clouds 13 1014 41 10000 0.58 214 21:57 19.04.2020
4447 Clouds 13 1014 41 10000 0.58 214 21:38 19.04.2020
4448 Clouds 13 1014 41 10000 0.95 279 21:20 19.04.2020
4449 Clouds 16 1014 36 10000 0.95 279 20:41 19.04.2020
4450 Clouds 16 1014 36 10000 0.95 279 20:21 19.04.2020
4451 Clouds 18 1014 28 10000 1 220 19:59 19.04.2020
4452 Clouds 18 1014 28 10000 1 220 19:41 19.04.2020
4453 Clouds 17 1014 28 10000 1 220 19:22 19.04.2020
4454 Clouds 19 1014 24 10000 3.1 230 18:58 19.04.2020
4455 Clouds 19 1014 24 10000 3.1 230 18:58 19.04.2020
4456 Clouds 20 1014 24 10000 3.1 230 18:39 19.04.2020
4457 Clouds 20 1014 24 10000 3.1 230 18:20 19.04.2020
4458 Clouds 20 1014 22 10000 1 0 17:57 19.04.2020
4459 Clouds 21 1014 22 10000 1 0 17:38 19.04.2020
4460 Clouds 21 1014 22 10000 1 0 17:20 19.04.2020
4461 Clouds 21 1014 18 10000 2.6 260 16:56 19.04.2020
4462 Clouds 21 1014 18 10000 2.6 260 16:38 19.04.2020
4463 Clouds 22 1014 18 10000 2.6 260 16:19 19.04.2020
4464 Clouds 22 1014 18 10000 2.6 260 16:19 19.04.2020
4465 Clouds 21 1015 18 10000 1.5 0 15:42 19.04.2020
4466 Clouds 21 1015 18 10000 1.5 0 15:42 19.04.2020
4467 Clear 21 1015 18 10000 1.5 0 15:22 19.04.2020
4468 Clear 21 1015 21 10000 3.1 0 14:55 19.04.2020
4469 Clear 21 1015 21 10000 3.1 0 14:37 19.04.2020
4470 Clouds 21 1015 21 10000 3.1 0 14:18 19.04.2020
4471 Clouds 21 1016 20 10000 2.6 0 13:39 19.04.2020
4472 Clouds 20 1016 20 10000 2.6 0 13:20 19.04.2020
4473 Clouds 20 1016 20 10000 1.5 0 12:50 19.04.2020
4474 Clouds 20 1016 20 10000 1.5 0 12:25 19.04.2020
4475 Clouds 19 1017 24 10000 1 0 11:59 19.04.2020
4476 Clouds 19 1017 24 10000 1 0 11:37 19.04.2020
4477 Clouds 18 1018 34 10000 0.5 0 11:19 19.04.2020
4478 Clouds 18 1018 34 10000 0.5 0 10:55 19.04.2020
4479 Clouds 17 1018 34 10000 0.5 0 10:37 19.04.2020
4480 Clouds 17 1018 38 10000 0.5 0 10:18 19.04.2020
4481 Clouds 16 1018 38 10000 0.5 0 09:45 19.04.2020
4482 Clouds 16 1018 38 10000 0.5 0 09:26 19.04.2020
4483 Clouds 14 1018 50 10000 0.5 0 08:41 19.04.2020
4484 Clouds 14 1018 50 10000 0.5 0 08:41 19.04.2020
4485 Clouds 13 1018 50 10000 0.5 0 08:22 19.04.2020
4486 Clouds 11 1019 61 10000 0.9 331 07:59 19.04.2020
4487 Clouds 11 1019 61 10000 0.91 328 07:41 19.04.2020
4488 Clouds 10 1019 61 10000 0.91 328 07:21 19.04.2020
4489 Clear 4 1018 44 10000 0.5 210 06:28 19.04.2020
4490 Clear 4 1017 44 10000 1.17 357 05:47 19.04.2020
4491 Clear 7 1017 70 10000 0.5 10 04:28 19.04.2020
4492 Clouds 7 1017 70 10000 1.43 345 02:59 19.04.2020
4493 Clouds 7 1017 70 10000 1.43 345 02:21 19.04.2020
4494 Clouds 8 1017 65 10000 1.43 345 01:37 19.04.2020
4495 Clouds 10 1016 57 10000 1.43 345 00:42 19.04.2020
4496 Clouds 10 1016 57 10000 1.59 360 00:22 19.04.2020
4497 Clouds 12 1016 47 10000 2.1 30 23:47 18.04.2020
4498 Clouds 12 1016 47 10000 2.1 30 23:22 18.04.2020
4499 Clouds 13 1016 44 10000 1.5 0 22:58 18.04.2020
4500 Clouds 13 1016 44 10000 1.5 0 22:38 18.04.2020
4501 Clouds 14 1016 44 10000 1.5 0 22:20 18.04.2020
4502 Clouds 15 1016 38 10000 2.1 260 21:56 18.04.2020
4503 Clear 15 1016 38 10000 2.1 260 21:37 18.04.2020
4504 Clouds 15 1016 38 10000 2.1 260 21:19 18.04.2020
4505 Clouds 15 1015 38 10000 2.1 240 20:41 18.04.2020
4506 Clouds 15 1015 38 10000 2.1 240 20:22 18.04.2020
4507 Clouds 18 1014 33 10000 3.1 250 19:54 18.04.2020
4508 Clouds 18 1014 33 10000 3.1 250 19:54 18.04.2020
4509 Clouds 18 1014 33 10000 3.1 250 19:36 18.04.2020
4510 Clouds 18 1014 33 10000 3.1 250 19:18 18.04.2020
4511 Clouds 20 1014 36 10000 4.1 240 18:37 18.04.2020
4512 Clouds 20 1014 21 10000 3.6 240 18:19 18.04.2020
4513 Clouds 20 1014 20 10000 4.1 240 18:19 18.04.2020
4514 Clouds 21 1014 21 10000 3.6 240 17:43 18.04.2020
4515 Clouds 21 1014 21 10000 3.6 240 17:21 18.04.2020
4516 Clouds 21 1014 20 10000 3.6 240 16:57 18.04.2020
4517 Clouds 21 1014 20 10000 3.6 240 16:38 18.04.2020
4518 Clouds 21 1014 20 10000 3.6 240 16:19 18.04.2020
4519 Clouds 21 1014 30 10000 3.6 0 15:39 18.04.2020
4520 Clouds 21 1014 30 10000 3.6 0 15:39 18.04.2020
4521 Clouds 21 1014 30 10000 3.6 0 15:21 18.04.2020
4522 Clouds 21 1015 26 10000 4.6 230 14:46 18.04.2020
4523 Clouds 21 1015 26 10000 4.6 230 14:27 18.04.2020
4524 Clouds 21 1015 28 10000 5.7 230 13:58 18.04.2020
4525 Clouds 20 1015 28 10000 5.7 230 13:40 18.04.2020
4526 Clouds 21 1015 28 10000 5.7 230 13:19 18.04.2020
4527 Clear 20 1015 30 10000 5.7 240 12:42 18.04.2020
4528 Clear 20 1015 30 10000 5.7 240 12:42 18.04.2020
4529 Clouds 20 1015 30 10000 5.7 240 12:23 18.04.2020
4530 Clouds 19 1016 37 10000 2.6 0 11:55 18.04.2020
4531 Clouds 19 1016 37 10000 2.6 0 11:36 18.04.2020
4532 Clouds 19 1016 37 10000 2.6 0 11:18 18.04.2020
4533 Clouds 17 1016 48 10000 1.5 0 10:40 18.04.2020
4534 Clouds 17 1016 48 10000 1.5 0 10:19 18.04.2020
4535 Clouds 16 1017 51 10000 1.5 0 09:58 18.04.2020
4536 Clouds 15 1017 51 10000 1.5 0 09:38 18.04.2020
4537 Clouds 15 1017 51 10000 1.5 0 09:20 18.04.2020
4538 Clouds 15 1017 51 10000 1.5 0 09:20 18.04.2020
4539 Clouds 13 1016 62 10000 0.5 0 08:39 18.04.2020
4540 Clouds 13 1016 62 10000 0.5 0 08:21 18.04.2020
4541 Clouds 11 1017 66 10000 1.56 238 07:41 18.04.2020
4542 Clouds 10 1017 66 10000 1.56 238 07:20 18.04.2020
4543 Clouds 7 1016 86 10000 1.56 238 06:38 18.04.2020
4544 Clouds 7 1016 86 10000 0.29 187 05:48 18.04.2020
4545 Clouds 7 1015 86 10000 0.5 230 04:54 18.04.2020
4546 Clouds 7 1015 86 10000 0.5 230 04:29 18.04.2020
4547 Clouds 7 1016 75 10000 0.5 210 02:58 18.04.2020
4548 Clouds 9 1016 75 10000 0.5 210 02:40 18.04.2020
4549 Clouds 8 1016 75 10000 0.82 214 02:19 18.04.2020
4550 Clouds 7 1016 75 10000 0.82 214 01:36 18.04.2020
4551 Clouds 7 1016 75 10000 1.5 220 00:51 18.04.2020
4552 Clouds 8 1016 75 10000 1.5 220 00:24 18.04.2020
4553 Clouds 8 1015 75 10000 0.5 0 23:57 17.04.2020
4554 Clouds 9 1015 75 10000 0.5 0 23:38 17.04.2020
4555 Clouds 10 1015 66 10000 0.75 181 23:19 17.04.2020
4556 Clouds 10 1015 66 10000 0.75 181 22:56 17.04.2020
4557 Clouds 10 1015 66 10000 0.75 181 22:38 17.04.2020
4558 Clouds 11 1015 58 10000 1.5 220 22:19 17.04.2020
4559 Clouds 11 1015 58 10000 1.5 220 21:44 17.04.2020
4560 Clear 11 1015 58 10000 1.5 220 21:22 17.04.2020
4561 Clear 13 1015 54 10000 1.5 220 20:58 17.04.2020
4562 Clear 13 1015 54 10000 1.5 220 20:38 17.04.2020
4563 Clear 13 1015 54 10000 1.5 220 20:19 17.04.2020
4564 Clear 16 1015 41 10000 1.5 270 19:58 17.04.2020
4565 Clear 16 1015 41 10000 1.5 270 19:40 17.04.2020
4566 Clear 16 1015 41 10000 1.5 270 19:22 17.04.2020
4567 Clear 18 1015 34 10000 4.1 260 18:44 17.04.2020
4568 Clear 19 1015 34 10000 4.1 260 18:24 17.04.2020
4569 Clear 19 1015 34 10000 4.1 260 18:24 17.04.2020
4570 Clear 19 1015 34 10000 4.1 260 18:24 17.04.2020
4571 Clear 19 1015 34 10000 4.1 260 18:24 17.04.2020
4572 Clear 20 1015 37 10000 3.6 240 17:55 17.04.2020
4573 Clear 20 1015 37 10000 3.6 240 17:37 17.04.2020
4574 Clear 20 1015 37 10000 3.6 240 17:18 17.04.2020
4575 Clear 20 1015 34 10000 3.1 240 16:42 17.04.2020
4576 Clear 20 1015 34 10000 3.1 240 16:23 17.04.2020
4577 Clear 19 1015 34 10000 2.6 220 15:42 17.04.2020
4578 Clear 19 1015 34 10000 2.6 220 15:24 17.04.2020
4579 Clear 19 1016 39 10000 2.6 0 14:57 17.04.2020
4580 Clear 19 1016 39 10000 2.6 0 14:38 17.04.2020
4581 Clear 18 1016 39 10000 2.6 0 14:20 17.04.2020
4582 Clear 18 1017 36 10000 2.1 0 13:55 17.04.2020
4583 Clear 17 1017 36 10000 2.1 0 13:36 17.04.2020
4584 Clear 17 1017 38 10000 1 0 13:18 17.04.2020
4585 Clear 17 1017 38 10000 1 0 12:43 17.04.2020
4586 Clear 16 1017 38 10000 1 0 12:22 17.04.2020
4587 Clear 15 1018 41 10000 2.1 0 11:41 17.04.2020
4588 Clear 14 1019 47 10000 1 0 11:19 17.04.2020
4589 Clear 13 1019 47 10000 1 0 10:56 17.04.2020
4590 Clear 13 1019 47 10000 1 0 10:37 17.04.2020
4591 Clear 12 1019 57 10000 1 0 10:18 17.04.2020
4592 Clear 11 1019 57 10000 1 0 09:40 17.04.2020
4593 Clear 10 1019 57 10000 1 0 09:20 17.04.2020
4594 Clear 10 1019 65 10000 1 0 08:56 17.04.2020
4595 Clear 9 1019 65 10000 1 0 08:38 17.04.2020
4596 Clear 7 1020 81 10000 2.1 260 08:19 17.04.2020
4597 Clear 6 1020 81 10000 2.1 260 07:43 17.04.2020
4598 Clear 6 1020 81 10000 2.1 260 07:21 17.04.2020
4599 Clear 3 1019 42 10000 0.48 328 06:45 17.04.2020
4600 Clear 2 1019 60 10000 0.55 44 06:22 17.04.2020
4601 Clear 2 1019 80 10000 1.5 220 04:46 17.04.2020
4602 Clear 3 1019 75 10000 0.5 0 03:19 17.04.2020
4603 Clear 5 1020 70 10000 2.1 230 01:58 17.04.2020
4604 Clear 5 1020 70 10000 2.1 230 01:27 17.04.2020
4605 Clear 6 1020 70 10000 2.1 80 00:45 17.04.2020
4606 Clear 6 1020 70 10000 2.1 80 00:18 17.04.2020
4607 Clear 6 1020 70 10000 3.1 50 23:40 16.04.2020
4608 Clear 6 1020 70 10000 3.1 50 23:22 16.04.2020
4609 Clear 7 1019 61 10000 2.6 90 22:56 16.04.2020
4610 Clear 7 1019 61 10000 2.6 90 22:37 16.04.2020
4611 Clear 7 1019 61 10000 2.6 90 22:37 16.04.2020
4612 Clear 8 1019 57 10000 1.5 80 22:19 16.04.2020
4613 Clear 9 1019 57 10000 1.5 80 21:41 16.04.2020
4614 Clouds 9 1019 57 10000 1.5 80 21:20 16.04.2020
4615 Clouds 10 1018 54 10000 2.6 50 20:58 16.04.2020
4616 Clouds 10 1018 54 10000 2.6 50 20:39 16.04.2020
4617 Clouds 10 1018 54 10000 2.6 50 20:19 16.04.2020
4618 Clouds 12 1017 47 10000 4.1 70 19:54 16.04.2020
4619 Clouds 12 1017 47 10000 4.1 70 19:36 16.04.2020
4620 Clouds 13 1017 44 10000 3.1 80 19:18 16.04.2020
4621 Clouds 13 1017 44 10000 3.1 80 18:41 16.04.2020
4622 Clouds 14 1017 44 10000 3.1 80 18:21 16.04.2020
4623 Clouds 14 1017 44 10000 3.6 70 17:56 16.04.2020
4624 Clouds 15 1017 44 10000 3.6 70 17:38 16.04.2020
4625 Clouds 14 1017 44 10000 3.6 70 17:18 16.04.2020
4626 Clouds 14 1017 47 10000 4.6 40 16:42 16.04.2020
4627 Clouds 14 1017 47 10000 4.6 40 16:23 16.04.2020
4628 Clouds 14 1017 47 10000 4.6 90 15:45 16.04.2020
4629 Clouds 13 1017 44 10000 5.7 80 15:20 16.04.2020
4630 Clouds 13 1017 44 10000 5.7 80 14:58 16.04.2020
4631 Clouds 13 1017 44 10000 5.7 80 14:40 16.04.2020
4632 Clouds 13 1018 47 10000 4.1 40 14:21 16.04.2020
4633 Clouds 13 1018 47 10000 4.1 40 13:57 16.04.2020
4634 Clouds 13 1018 47 10000 4.1 40 13:38 16.04.2020
4635 Clouds 13 1018 47 10000 4.1 40 13:19 16.04.2020
4636 Clouds 12 1018 54 10000 5.7 50 12:57 16.04.2020
4637 Clouds 12 1018 54 10000 5.7 50 12:38 16.04.2020
4638 Clouds 12 1018 54 10000 5.7 50 12:19 16.04.2020
4639 Clouds 12 1018 50 10000 6.2 40 11:55 16.04.2020
4640 Clouds 12 1018 50 10000 6.2 40 11:37 16.04.2020
4641 Clouds 12 1018 50 10000 6.2 40 11:18 16.04.2020
4642 Clouds 11 1018 57 10000 5.1 40 10:40 16.04.2020
4643 Clouds 11 1018 57 10000 5.1 40 10:19 16.04.2020
4644 Clouds 10 1018 61 10000 2.6 30 09:59 16.04.2020
4645 Clouds 10 1018 61 10000 2.6 30 09:38 16.04.2020
4646 Clouds 10 1018 66 10000 3.1 350 09:20 16.04.2020
4647 Clouds 9 1018 66 10000 3.1 350 08:45 16.04.2020
4648 Clouds 8 1018 66 10000 3.1 350 08:25 16.04.2020
4649 Clouds 8 1017 75 10000 4.6 30 07:46 16.04.2020
4650 Clouds 7 1017 75 10000 3.6 20 07:28 16.04.2020
4651 Clouds 6 1016 81 10000 3.1 20 06:58 16.04.2020
4652 Clouds 6 1016 86 10000 2.6 30 06:39 16.04.2020
4653 Clouds 6 1016 86 10000 2.6 30 06:21 16.04.2020
4654 Clouds 7 1015 87 10000 4.1 30 04:48 16.04.2020
4655 Clouds 8 1014 76 10000 3.6 50 03:25 16.04.2020
4656 Clouds 8 1014 76 10000 3.6 50 02:57 16.04.2020
4657 Rain 8 1014 76 10000 3.6 50 02:33 16.04.2020
4658 Rain 8 1014 81 10000 3.6 340 01:22 16.04.2020
4659 Clouds 8 1014 81 10000 3.1 360 00:39 16.04.2020
4660 Clouds 9 1014 75 10000 6.2 40 00:18 16.04.2020
4661 Rain 9 1014 81 10000 4.1 350 23:43 15.04.2020
4662 Rain 9 1014 87 10000 7.2 360 23:24 15.04.2020
4663 Rain 10 1014 87 10000 5.7 360 22:58 15.04.2020
4664 Rain 10 1014 87 10000 5.7 360 22:37 15.04.2020
4665 Rain 10 1013 93 10000 6.7 360 22:19 15.04.2020
4666 Rain 12 1012 62 10000 2.6 60 21:42 15.04.2020
4667 Rain 13 1012 62 10000 2.6 60 21:23 15.04.2020
4668 Rain 13 1012 62 10000 2.6 60 20:59 15.04.2020
4669 Rain 13 1012 62 10000 2.6 60 20:41 15.04.2020
4670 Clouds 14 1012 58 10000 4.6 60 20:22 15.04.2020
4671 Clouds 14 1012 58 10000 3.6 80 19:59 15.04.2020
4672 Clouds 12 1013 81 10000 5.1 20 19:39 15.04.2020
4673 Clouds 14 1012 48 10000 3.1 140 19:18 15.04.2020
4674 Clouds 14 1012 48 10000 3.1 140 18:41 15.04.2020
4675 Clouds 14 1012 48 10000 3.1 140 18:22 15.04.2020
4676 Clouds 14 1013 71 10000 6.2 30 17:58 15.04.2020
4677 Clouds 15 1013 71 10000 6.2 30 17:38 15.04.2020
4678 Clouds 15 1013 71 10000 5.1 350 17:20 15.04.2020
4679 Clouds 15 1014 58 10000 4.1 170 16:55 15.04.2020
4680 Clouds 16 1014 58 10000 2.1 160 16:37 15.04.2020
4681 Clouds 16 1014 58 10000 2.1 160 16:18 15.04.2020
4682 Rain 16 1014 62 10000 2.6 120 15:56 15.04.2020
4683 Rain 15 1014 62 10000 2.6 120 15:37 15.04.2020
4684 Rain 15 1014 62 10000 2.6 120 15:37 15.04.2020
4685 Clouds 16 1014 58 10000 2.6 360 15:19 15.04.2020
4686 Clouds 16 1014 58 10000 2.6 360 15:19 15.04.2020
4687 Clouds 15 1014 54 10000 2.6 30 14:55 15.04.2020
4688 Clouds 14 1015 54 10000 0.5 0 14:37 15.04.2020
4689 Clouds 14 1015 54 10000 0.5 0 14:18 15.04.2020
4690 Clouds 15 1015 58 10000 1.5 360 13:41 15.04.2020
4691 Clouds 14 1016 58 10000 1 0 13:21 15.04.2020
4692 Clouds 15 1016 58 10000 1.5 190 12:59 15.04.2020
4693 Clouds 15 1016 58 10000 1.5 190 12:41 15.04.2020
4694 Clouds 13 1016 62 10000 2.6 190 12:23 15.04.2020
4695 Clouds 13 1016 66 10000 2.1 220 11:58 15.04.2020
4696 Clouds 12 1016 66 10000 2.1 220 11:39 15.04.2020
4697 Clouds 12 1017 71 10000 2.6 210 11:20 15.04.2020
4698 Clouds 11 1017 66 10000 3.1 190 10:39 15.04.2020
4699 Rain 11 1017 76 10000 2.6 230 10:20 15.04.2020
4700 Rain 11 1017 76 10000 2.6 230 09:57 15.04.2020
4701 Rain 11 1017 76 10000 2.6 230 09:39 15.04.2020
4702 Rain 11 1017 76 10000 2.6 230 09:20 15.04.2020
4703 Rain 10 1017 66 10000 3.1 250 08:55 15.04.2020
4704 Rain 11 1017 66 10000 3.1 250 08:37 15.04.2020
4705 Rain 11 1017 66 10000 3.1 250 08:37 15.04.2020
4706 Rain 11 1017 66 10000 3.1 250 08:18 15.04.2020
4707 Rain 11 1017 66 10000 3.1 250 07:46 15.04.2020
4708 Clouds 11 1017 62 10000 2.1 230 07:28 15.04.2020
4709 Clouds 10 1016 57 10000 2.6 150 06:32 15.04.2020
4710 Clouds 10 1015 57 10000 1.5 0 05:50 15.04.2020
4711 Clouds 6 1015 70 10000 2.84 230 04:48 15.04.2020
4712 Clouds 5 1015 39 10000 2.84 230 04:23 15.04.2020
4713 Clouds 7 1015 38 10000 1 0 03:23 15.04.2020
4714 Clouds 6 1015 38 10000 2.1 20 02:50 15.04.2020
4715 Clouds 6 1015 38 10000 0.5 0 01:53 15.04.2020
4716 Clouds 10 1015 60 10000 1 0 01:25 15.04.2020
4717 Clouds 10 1015 60 10000 1 20 00:51 15.04.2020
4718 Clouds 10 1015 60 10000 0.5 20 00:29 15.04.2020
4719 Clouds 10 1015 60 10000 0.5 300 23:56 14.04.2020
4720 Clouds 10 1015 60 10000 0.5 300 23:56 14.04.2020
4721 Clouds 11 1015 60 10000 0.5 300 23:38 14.04.2020
4722 Clouds 11 1015 56 10000 1 0 23:20 14.04.2020
4723 Clouds 12 1015 52 10000 1 0 22:57 14.04.2020
4724 Clouds 12 1015 52 10000 1 0 22:39 14.04.2020
4725 Clouds 12 1015 36 10000 2.1 30 22:21 14.04.2020
4726 Clouds 7 1015 36 10000 1.5 350 21:57 14.04.2020
4727 Clouds 7 1015 36 10000 1.5 350 21:39 14.04.2020
4728 Clouds 13 1015 43 10000 0.5 50 21:19 14.04.2020
4729 Clouds 13 1015 46 10000 2.4 207 20:58 14.04.2020
4730 Clouds 13 1015 46 10000 2.4 207 20:39 14.04.2020
4731 Clouds 14 1015 29 10000 1 0 20:20 14.04.2020
4732 Clouds 15 1015 29 10000 1 0 19:41 14.04.2020
4733 Clouds 15 1015 29 10000 1 0 19:23 14.04.2020
4734 Clouds 16 1015 30 10000 2.1 280 18:58 14.04.2020
4735 Clouds 16 1015 30 10000 2.1 280 18:40 14.04.2020
4736 Clouds 18 1015 25 10000 4.1 260 18:21 14.04.2020
4737 Clouds 18 1015 25 10000 4.1 260 17:58 14.04.2020
4738 Clouds 18 1015 25 10000 4.1 260 17:38 14.04.2020
4739 Clouds 19 1015 25 10000 3.1 250 17:20 14.04.2020
4740 Clouds 19 1015 25 10000 3.1 250 16:56 14.04.2020
4741 Clouds 19 1015 25 10000 3.1 250 16:38 14.04.2020
4742 Clouds 19 1015 29 10000 4.6 260 16:19 14.04.2020
4743 Clouds 19 1015 29 10000 4.6 260 15:56 14.04.2020
4744 Clouds 19 1015 29 10000 4.6 260 15:37 14.04.2020
4745 Clouds 19 1016 22 10000 5.7 240 15:18 14.04.2020
4746 Clouds 18 1016 22 10000 5.7 240 14:55 14.04.2020
4747 Clouds 18 1016 22 10000 5.7 240 14:55 14.04.2020
4748 Clouds 18 1016 22 10000 5.7 240 14:37 14.04.2020
4749 Clouds 18 1016 22 10000 5.7 240 14:19 14.04.2020
4750 Clouds 18 1017 22 10000 5.7 230 13:43 14.04.2020
4751 Clouds 18 1017 22 10000 5.7 230 13:24 14.04.2020
4752 Clouds 18 1017 31 10000 6.2 250 12:56 14.04.2020
4753 Clouds 18 1017 31 10000 6.2 250 12:37 14.04.2020
4754 Clouds 17 1017 31 10000 6.2 250 12:18 14.04.2020
4755 Clouds 17 1018 25 10000 5.1 250 11:40 14.04.2020
4756 Clouds 17 1018 25 10000 5.1 250 11:22 14.04.2020
4757 Clouds 15 1018 25 10000 1.5 0 10:47 14.04.2020
4758 Clouds 14 1018 35 10000 0.5 290 10:29 14.04.2020
4759 Clouds 13 1018 35 10000 0.5 290 09:59 14.04.2020
4760 Clouds 13 1018 35 10000 0.5 290 09:41 14.04.2020
4761 Clouds 11 1018 49 10000 2.31 226 09:22 14.04.2020
4762 Clouds 10 1018 49 10000 2.31 226 08:44 14.04.2020
4763 Clouds 9 1018 49 10000 2.31 226 08:26 14.04.2020
4764 Clouds 6 1019 65 10000 1 210 07:59 14.04.2020
4765 -273 0 0 0 0 0 07:59 14.04.2020
4766 Clouds 6 1019 65 10000 1 210 07:41 14.04.2020
4767 Clouds 6 1019 65 10000 1 210 07:22 14.04.2020
4768 Clouds 4 1018 69 10000 0.5 230 06:45 14.04.2020
4769 Clouds 2 1017 56 10000 1 40 05:40 14.04.2020
4770 Clear 3 1017 60 10000 0.74 190 03:27 14.04.2020
4771 Clear 4 1018 56 10000 0.79 189 02:33 14.04.2020
4772 Clear 5 1018 52 10000 1.5 0 01:27 14.04.2020
4773 Clear 6 1018 52 10000 1.5 0 00:50 14.04.2020
4774 Clear 7 1018 52 10000 0.5 0 00:24 14.04.2020
4775 Clear 6 1018 52 10000 0.5 0 23:56 13.04.2020
4776 Clear 6 1018 52 10000 0.5 0 23:37 13.04.2020
4777 Clear 8 1018 52 10000 0.5 0 23:18 13.04.2020
4778 Clear 8 1018 43 10000 1.5 240 22:42 13.04.2020
4779 Clear 7 1018 43 10000 1.5 240 22:22 13.04.2020
4780 Clear 9 1018 37 10000 1.57 157 21:58 13.04.2020
4781 Clear 9 1018 37 10000 1.57 157 21:39 13.04.2020
4782 Clear 10 1018 40 10000 1 0 21:20 13.04.2020
4783 Clear 10 1018 40 10000 1 0 20:57 13.04.2020
4784 Clear 10 1018 40 10000 1 0 20:38 13.04.2020
4785 Clear 11 1017 30 10000 0.5 240 20:19 13.04.2020
4786 Clear 13 1017 30 10000 0.5 240 19:57 13.04.2020
4787 Clear 13 1017 30 10000 0.5 240 19:36 13.04.2020
4788 Clear 13 1017 30 10000 0.5 240 19:18 13.04.2020
4789 Clear 16 1017 27 10000 2.6 250 18:54 13.04.2020
4790 Clear 16 1017 27 10000 2.6 250 18:36 13.04.2020
4791 Clear 17 1017 27 10000 2.6 250 18:18 13.04.2020
4792 Clear 17 1017 23 10000 4.1 230 17:55 13.04.2020
4793 Clear 17 1017 23 10000 4.1 230 17:36 13.04.2020
4794 Clear 18 1017 23 10000 3.1 190 17:18 13.04.2020
4795 Clear 18 1017 23 10000 3.1 190 16:55 13.04.2020
4796 Clear 18 1017 23 10000 3.1 190 16:55 13.04.2020
4797 Clear 18 1017 23 10000 3.1 190 16:36 13.04.2020
4798 Clear 18 1017 23 10000 3.1 190 16:18 13.04.2020
4799 Clear 18 1018 22 10000 3.1 0 15:44 13.04.2020
4800 Clear 18 1018 22 10000 3.1 0 15:26 13.04.2020
4801 Clear 17 1019 20 10000 4.6 230 14:57 13.04.2020
4802 Clear 18 1019 20 10000 4.6 230 14:39 13.04.2020
4803 Clear 17 1019 20 10000 4.6 230 14:20 13.04.2020
4804 Clear 17 1019 25 10000 3.1 0 13:55 13.04.2020
4805 Clear 17 1019 25 10000 3.1 0 13:37 13.04.2020
4806 Clear 17 1019 25 10000 3.1 0 13:37 13.04.2020
4807 Clear 17 1019 25 10000 3.1 0 13:19 13.04.2020
4808 Clear 16 1020 29 10000 3.1 0 12:57 13.04.2020
4809 Clear 16 1020 29 10000 3.1 0 12:57 13.04.2020
4810 Clear 16 1020 29 10000 3.1 0 12:39 13.04.2020
4811 Clear 16 1020 29 10000 3.1 0 12:19 13.04.2020
4812 Clear 15 1021 33 10000 1.5 50 11:44 13.04.2020
4813 Clear 14 1022 34 10000 2.1 60 11:19 13.04.2020
4814 Clear 13 1022 34 10000 2.1 60 10:56 13.04.2020
4815 Clear 13 1022 34 10000 2.1 60 10:38 13.04.2020
4816 Clear 13 1022 34 10000 2.1 60 10:20 13.04.2020
4817 Clear 11 1022 37 10000 1.5 50 09:56 13.04.2020
4818 Clear 10 1022 37 10000 1.5 50 09:38 13.04.2020
4819 Clear 10 1022 37 10000 1.5 50 09:19 13.04.2020
4820 Clear 8 1022 45 10000 2.6 80 08:44 13.04.2020
4821 Clear 8 1022 45 10000 2.6 80 08:26 13.04.2020
4822 Clear 6 1023 45 10000 1.48 113 07:43 13.04.2020
4823 Clear 6 1023 45 10000 1.48 113 07:25 13.04.2020
4824 Clear 2 1022 64 10000 1.48 113 06:48 13.04.2020
4825 Clear 2 1022 64 10000 1.44 91 06:29 13.04.2020
4826 Clear 2 1022 55 10000 1.44 91 05:40 13.04.2020
4827 Clear 2 1021 52 10000 1.44 91 05:19 13.04.2020
4828 Clear 3 1021 52 10000 1.44 91 04:31 13.04.2020
4829 Clear 3 1021 48 10000 1 0 03:53 13.04.2020
4830 Clear 3 1022 64 10000 2.6 70 03:33 13.04.2020
4831 Clear 4 1021 45 10000 2.08 75 02:39 13.04.2020
4832 Clear 5 1021 39 10000 1 0 01:45 13.04.2020
4833 Clear 5 1021 39 10000 1 0 01:27 13.04.2020
4834 Clear 4 1022 55 10000 0.5 0 00:44 13.04.2020
4835 Clear 5 1022 55 10000 0.5 0 00:24 13.04.2020
4836 Clear 6 1021 45 10000 1 0 23:55 12.04.2020
4837 Clear 6 1021 45 10000 1 0 23:36 12.04.2020
4838 Clear 6 1021 45 10000 1 0 23:18 12.04.2020
4839 Clear 5 1021 52 10000 1.5 250 22:39 12.04.2020
4840 Clear 8 1021 25 10000 2.1 230 22:19 12.04.2020
4841 Clear 9 1021 25 10000 2.1 230 21:57 12.04.2020
4842 Clear 9 1021 25 10000 2.1 230 21:36 12.04.2020
4843 Clear 10 1021 23 10000 1.5 100 21:18 12.04.2020
4844 Clear 10 1021 23 10000 1.5 100 20:42 12.04.2020
4845 Clear 11 1021 23 10000 1.5 100 20:23 12.04.2020
4846 Clear 11 1020 20 10000 3.1 90 19:57 12.04.2020
4847 Clear 12 1020 20 10000 3.1 90 19:38 12.04.2020
4848 Clear 12 1020 20 10000 3.1 90 19:19 12.04.2020
4849 Clear 14 1020 17 10000 2.6 70 18:41 12.04.2020
4850 Clear 15 1020 17 10000 2.6 70 18:23 12.04.2020
4851 -273 0 0 0 0 0 17:59 12.04.2020
4852 Clear 15 1020 17 10000 1.5 70 17:41 12.04.2020
4853 Clear 16 1020 17 10000 1.5 70 17:23 12.04.2020
4854 Clear 16 1020 18 10000 2.1 0 16:58 12.04.2020
4855 Clear 16 1020 18 10000 2.1 0 16:39 12.04.2020
4856 Clear 16 1020 18 10000 2.1 0 16:20 12.04.2020
4857 Clear 16 1020 17 10000 2.6 0 15:49 12.04.2020
4858 Clear 16 1020 17 10000 2.6 0 15:30 12.04.2020
4859 Clear 16 1021 18 10000 1 0 14:55 12.04.2020
4860 Clear 16 1021 18 10000 1 0 14:36 12.04.2020
4861 Clear 16 1021 18 10000 1 0 14:18 12.04.2020
4862 Clear 15 1021 24 10000 2.1 100 13:42 12.04.2020
4863 Clear 14 1022 30 10000 1.5 0 13:24 12.04.2020
4864 Clear 14 1022 30 10000 1.5 0 12:55 12.04.2020
4865 Clear 14 1022 30 10000 1.5 0 12:37 12.04.2020
4866 Clear 14 1022 30 10000 1.5 0 12:18 12.04.2020
4867 Clear 13 1022 28 10000 2.6 70 11:55 12.04.2020
4868 Clear 13 1022 28 10000 2.6 70 11:36 12.04.2020
4869 Clear 13 1022 28 10000 2.6 70 11:18 12.04.2020
4870 Clear 12 1022 32 10000 3.1 50 10:54 12.04.2020
4871 Clear 12 1022 32 10000 3.1 50 10:36 12.04.2020
4872 Clear 11 1022 40 10000 1 0 10:18 12.04.2020
4873 Clear 11 1022 40 10000 1 0 09:40 12.04.2020
4874 Clear 11 1022 40 10000 1 0 09:40 12.04.2020
4875 Clouds 9 1022 49 10000 1 0 09:21 12.04.2020
4876 Clouds 9 1022 49 10000 1 0 08:53 12.04.2020
4877 Clouds 9 1022 49 10000 1 0 08:34 12.04.2020
4878 Clouds 7 1022 60 10000 1 0 07:58 12.04.2020
4879 Clouds 7 1022 60 10000 1 0 07:40 12.04.2020
4880 Clouds 6 1022 60 10000 1 0 07:18 12.04.2020
4881 Clouds 2 1022 69 10000 1 0 06:33 12.04.2020
4882 Clouds 2 1021 74 10000 1.19 320 05:51 12.04.2020
4883 Clouds 3 1021 69 10000 0.5 0 05:29 12.04.2020
4884 Clouds 4 1021 64 10000 2.1 220 03:43 12.04.2020
4885 Clouds 4 1021 69 10000 1.5 230 03:22 12.04.2020
4886 Clouds 5 1021 69 10000 1.5 230 02:34 12.04.2020
4887 Clouds 5 1021 60 10000 2.1 280 01:48 12.04.2020
4888 Clouds 6 1021 56 10000 2.1 220 00:58 12.04.2020
4889 Clouds 6 1021 56 10000 2.1 220 00:39 12.04.2020
4890 Clouds 6 1021 56 10000 2.1 220 00:19 12.04.2020
4891 Clouds 8 1020 45 10000 1 0 23:46 11.04.2020
4892 Clouds 9 1020 40 10000 2.1 290 23:25 11.04.2020
4893 Clouds 9 1020 40 10000 2.1 290 22:42 11.04.2020
4894 Clouds 9 1020 40 10000 2.1 290 22:23 11.04.2020
4895 Clouds 9 1020 40 10000 2.1 290 22:23 11.04.2020
4896 Clouds 9 1020 40 10000 3.6 20 21:57 11.04.2020
4897 Clouds 9 1020 40 10000 3.6 20 21:38 11.04.2020
4898 Clouds 9 1020 40 10000 3.6 20 21:19 11.04.2020
4899 Clouds 10 1020 34 10000 3.1 20 20:58 11.04.2020
4900 Clouds 10 1020 34 10000 3.1 20 20:40 11.04.2020
4901 Clouds 11 1020 34 10000 3.1 20 20:21 11.04.2020
4902 Clouds 11 1020 34 10000 3.1 20 20:21 11.04.2020
4903 Clouds 12 1019 32 10000 3.6 20 19:58 11.04.2020
4904 Clouds 12 1019 32 10000 3.6 20 19:40 11.04.2020
4905 Clouds 12 1019 32 10000 3.6 20 19:20 11.04.2020
4906 Clouds 14 1018 26 10000 3.6 360 18:58 11.04.2020
4907 Clouds 14 1018 26 10000 3.6 360 18:39 11.04.2020
4908 Clouds 14 1018 26 10000 3.6 360 18:21 11.04.2020
4909 Clouds 15 1017 25 10000 4.1 350 17:59 11.04.2020
4910 Clouds 16 1017 25 10000 4.1 350 17:41 11.04.2020
4911 Clouds 16 1017 25 10000 4.1 350 17:21 11.04.2020
4912 Clouds 16 1017 25 10000 5.1 360 16:58 11.04.2020
4913 Clouds 16 1017 25 10000 5.1 360 16:40 11.04.2020
4914 Clouds 17 1017 25 10000 5.1 360 16:20 11.04.2020
4915 Clouds 17 1017 25 10000 5.1 360 16:20 11.04.2020
4916 Clouds 16 1017 29 10000 2.6 310 15:39 11.04.2020
4917 Clouds 16 1018 27 10000 2.1 280 15:19 11.04.2020
4918 Clouds 16 1018 27 10000 2.1 280 15:19 11.04.2020
4919 Clouds 16 1018 27 10000 2.1 280 14:44 11.04.2020
4920 Clouds 16 1018 26 10000 3.1 0 14:25 11.04.2020
4921 Clouds 16 1018 26 10000 3.1 0 13:59 11.04.2020
4922 Clouds 16 1018 26 10000 3.1 0 13:40 11.04.2020
4923 Clouds 16 1018 26 10000 3.1 0 13:22 11.04.2020
4924 Clouds 16 1018 26 10000 3.1 0 13:22 11.04.2020
4925 Clouds 15 1018 24 10000 1.5 0 12:43 11.04.2020
4926 Clouds 15 1018 24 10000 1.5 0 12:22 11.04.2020
4927 Clear 14 1019 24 10000 2.1 0 11:58 11.04.2020
4928 Clear 14 1019 24 10000 2.1 0 11:40 11.04.2020
4929 Clear 14 1019 26 10000 1 30 11:19 11.04.2020
4930 Clear 13 1019 26 10000 1 30 10:55 11.04.2020
4931 Clear 13 1019 26 10000 1 30 10:36 11.04.2020
4932 Clear 12 1019 37 10000 1 0 10:18 11.04.2020
4933 Clear 11 1019 37 10000 1 0 09:41 11.04.2020
4934 Clear 11 1019 37 10000 1 0 09:22 11.04.2020
4935 Clear 8 1019 45 10000 0.5 0 08:54 11.04.2020
4936 Clear 8 1019 45 10000 0.5 0 08:36 11.04.2020
4937 Clear 8 1019 45 10000 0.5 0 08:18 11.04.2020
4938 Clear 5 1019 56 10000 1.91 9 07:41 11.04.2020
4939 Clear 5 1019 56 10000 1.91 9 07:23 11.04.2020
4940 Clear 2 1018 69 10000 1.91 9 06:37 11.04.2020
4941 Clear 2 1017 69 10000 2.01 11 05:57 11.04.2020
4942 Clear 3 1016 52 10000 1.5 250 03:57 11.04.2020
4943 Clear 5 1016 60 10000 1 0 02:52 11.04.2020
4944 Clear 5 1016 56 10000 2.25 14 01:26 11.04.2020
4945 Clear 6 1015 52 10000 2.25 14 00:56 11.04.2020
4946 Clear 6 1015 52 10000 2.25 14 00:38 11.04.2020
4947 Clear 6 1015 52 10000 2.32 29 00:18 11.04.2020
4948 Clear 8 1015 48 10000 2.1 200 23:42 10.04.2020
4949 Clear 8 1015 48 10000 2.1 200 23:19 10.04.2020
4950 Clear 9 1014 42 10000 1 0 22:58 10.04.2020
4951 Clear 9 1014 42 10000 1 0 22:37 10.04.2020
4952 Clear 9 1014 37 10000 2.1 0 22:19 10.04.2020
4953 Clear 10 1014 37 10000 2.1 0 21:42 10.04.2020
4954 Clear 10 1013 34 10000 3.1 260 21:21 10.04.2020
4955 Clear 11 1013 34 10000 3.1 260 20:58 10.04.2020
4956 Clear 11 1013 34 10000 3.1 260 20:39 10.04.2020
4957 Clear 11 1013 34 10000 3.1 260 20:20 10.04.2020
4958 Clear 13 1012 28 10000 2.1 0 19:55 10.04.2020
4959 Clear 13 1012 28 10000 2.1 0 19:37 10.04.2020
4960 Clear 13 1012 28 10000 2.1 0 19:19 10.04.2020
4961 Clear 15 1011 26 10000 3.6 260 18:56 10.04.2020
4962 Clear 15 1011 26 10000 3.6 260 18:37 10.04.2020
4963 Clear 15 1012 30 10000 4.6 270 18:19 10.04.2020
4964 Clear 16 1011 25 10000 3.1 0 17:57 10.04.2020
4965 Clear 17 1011 25 10000 3.1 0 17:38 10.04.2020
4966 Clear 17 1011 20 10000 0.5 0 17:19 10.04.2020
4967 Clear 17 1011 20 10000 0.5 0 16:44 10.04.2020
4968 Clear 17 1011 21 10000 0.5 0 16:23 10.04.2020
4969 Clear 17 1011 21 10000 0.5 0 16:23 10.04.2020
4970 Clear 17 1011 21 10000 0.5 0 15:59 10.04.2020
4971 Clear 17 1011 21 10000 0.5 0 15:39 10.04.2020
4972 Clear 17 1011 21 10000 0.5 0 15:21 10.04.2020
4973 Clear 16 1012 23 10000 3.6 30 14:59 10.04.2020
4974 Clear 16 1012 23 10000 3.6 30 14:40 10.04.2020
4975 Clear 16 1012 23 10000 3.6 30 14:21 10.04.2020
4976 Clear 16 1012 23 10000 3.6 30 13:49 10.04.2020
4977 Clear 16 1012 23 10000 3.6 30 13:23 10.04.2020
4978 Clear 15 1013 24 10000 4.6 40 12:59 10.04.2020
4979 Clear 15 1013 24 10000 4.6 40 12:59 10.04.2020
4980 Clear 15 1013 24 10000 4.6 40 12:41 10.04.2020
4981 Clouds 14 1013 26 10000 4.6 40 12:21 10.04.2020
4982 Clouds 13 1013 25 10000 5.1 20 11:43 10.04.2020
4983 Clouds 12 1013 27 10000 4.6 20 11:24 10.04.2020
4984 Clouds 13 1013 32 10000 5.1 20 10:58 10.04.2020
4985 Clouds 13 1013 32 10000 5.1 20 10:39 10.04.2020
4986 Clouds 13 1014 27 10000 5.7 70 10:21 10.04.2020
4987 Clouds 12 1014 29 10000 4.6 30 09:43 10.04.2020
4988 Clouds 10 1014 34 10000 5.7 40 09:24 10.04.2020
4989 Clouds 9 1014 34 10000 6.2 40 08:50 10.04.2020
4990 Clouds 9 1013 39 10000 3.6 30 08:27 10.04.2020
4991 Clear 6 1014 56 10000 2.1 5 07:58 10.04.2020
4992 Clear 6 1014 56 10000 2.1 5 07:40 10.04.2020
4993 Clear 5 1013 60 10000 2.1 350 07:21 10.04.2020
4994 Clear 4 1013 64 10000 2.1 5 06:43 10.04.2020
4995 Clear 3 1013 69 10000 1 0 06:23 10.04.2020
4996 Clear 3 1013 64 10000 1.5 20 05:33 10.04.2020
4997 Clear 3 1013 60 10000 2.6 20 04:57 10.04.2020
4998 Clear 5 1013 59 10000 2.1 70 03:36 10.04.2020
4999 Clear 5 1013 59 10000 1 0 02:59 10.04.2020
5000 Clear 5 1013 59 10000 1 0 02:36 10.04.2020
5001 Clear 5 1013 55 10000 2.6 20 01:59 10.04.2020
5002 Clear 6 1013 55 10000 1.5 350 01:29 10.04.2020
5003 Clear 6 1013 55 10000 4.6 30 00:49 10.04.2020
5004 Clear 7 1013 48 10000 2.1 330 00:22 10.04.2020
5005 Clear 7 1013 52 10000 4.1 30 23:44 09.04.2020
5006 Clear 8 1013 45 10000 4.6 30 23:25 09.04.2020
5007 Clear 8 1013 49 10000 5.7 50 22:59 09.04.2020
5008 Clear 9 1013 49 10000 5.7 50 22:40 09.04.2020
5009 Clear 9 1013 45 10000 7.2 70 22:22 09.04.2020
5010 Clear 10 1013 45 10000 5.7 70 21:43 09.04.2020
5011 Clouds 11 1013 46 10000 4.6 50 21:25 09.04.2020
5012 Clouds 11 1013 41 10000 7.7 40 20:56 09.04.2020
5013 Clouds 12 1013 41 10000 7.7 40 20:38 09.04.2020
5014 Clouds 12 1012 41 10000 6.2 40 20:19 09.04.2020
5015 Clouds 12 1012 41 10000 4.6 50 19:40 09.04.2020
5016 Clouds 12 1011 50 10000 3.6 30 19:22 09.04.2020
5017 Clouds 14 1011 41 10000 3.1 40 18:43 09.04.2020
5018 Clouds 15 1010 30 10000 6.2 70 18:22 09.04.2020
5019 Clouds 16 1010 31 10000 6.7 50 17:59 09.04.2020
5020 Clouds 16 1010 31 10000 6.7 50 17:59 09.04.2020
5021 Clouds 16 1010 31 10000 6.7 50 17:39 09.04.2020
5022 Clouds 16 1010 29 10000 6.7 40 17:19 09.04.2020
5023 Clouds 16 1010 27 10000 6.2 50 16:40 09.04.2020
5024 Clouds 16 1010 25 10000 5.7 70 16:20 09.04.2020
5025 Clouds 16 1011 27 10000 5.7 70 15:57 09.04.2020
5026 Clouds 16 1011 27 10000 5.7 70 15:38 09.04.2020
5027 Clouds 15 1011 30 10000 4.1 70 15:19 09.04.2020
5028 Clouds 14 1012 30 10000 5.1 70 14:56 09.04.2020
5029 Clouds 15 1012 30 10000 5.1 70 14:38 09.04.2020
5030 Clouds 14 1012 33 10000 5.7 70 14:20 09.04.2020
5031 Clouds 14 1012 33 10000 5.7 70 14:20 09.04.2020
5032 Clouds 14 1012 33 10000 5.7 70 14:20 09.04.2020
5033 Clouds 15 1012 33 10000 5.7 80 13:42 09.04.2020
5034 Clouds 15 1013 35 10000 5.7 60 13:24 09.04.2020
5035 Clouds 14 1013 33 10000 6.2 60 12:55 09.04.2020
5036 Clouds 14 1013 33 10000 8.2 30 12:36 09.04.2020
5037 Clouds 14 1013 33 10000 8.2 30 12:18 09.04.2020
5038 Clouds 13 1014 30 10000 7.2 30 11:43 09.04.2020
5039 Clear 12 1014 30 10000 6.7 30 11:20 09.04.2020
5040 Clear 12 1014 34 10000 4.1 0 10:59 09.04.2020
5041 Clear 11 1014 34 10000 4.1 0 10:41 09.04.2020
5042 Clear 10 1014 34 10000 5.1 80 10:21 09.04.2020
5043 Clear 10 1015 34 10000 4.6 60 09:57 09.04.2020
5044 Clouds 10 1015 34 10000 4.6 60 09:39 09.04.2020
5045 Clouds 9 1014 39 10000 5.7 30 09:20 09.04.2020
5046 Clouds 8 1014 45 10000 6.7 30 08:44 09.04.2020
5047 Clouds 7 1014 45 10000 3.1 70 08:24 09.04.2020
5048 Clouds 6 1014 45 10000 3.1 70 07:59 09.04.2020
5049 Clouds 6 1014 45 10000 3.1 70 07:36 09.04.2020
5050 Clouds 6 1014 45 10000 3.1 70 07:18 09.04.2020
5051 Clouds 3 1014 52 10000 1.5 30 06:26 09.04.2020
5052 Clouds 3 1014 52 10000 0.5 0 05:46 09.04.2020
5053 Clouds 3 1014 69 10000 2.1 210 04:26 09.04.2020
5054 Clear 5 1015 48 10000 0.5 0 02:33 09.04.2020
5055 Clouds 6 1015 45 10000 3.6 40 01:44 09.04.2020
5056 Clouds 6 1015 45 10000 3.6 40 01:24 09.04.2020
5057 Clouds 6 1016 45 10000 3.6 30 00:43 09.04.2020
5058 Clouds 7 1016 45 10000 3.6 30 00:20 09.04.2020
5059 Clouds 7 1016 45 10000 2.1 50 23:59 08.04.2020
5060 Clouds 7 1016 45 10000 2.1 50 23:41 08.04.2020
5061 Clouds 8 1016 45 10000 2.1 50 23:22 08.04.2020
5062 Clouds 9 1016 45 10000 2.44 40 22:44 08.04.2020
5063 Clouds 9 1016 45 10000 2.44 40 22:24 08.04.2020
5064 Clouds 8 1015 60 10000 0.5 0 21:57 08.04.2020
5065 Clouds 8 1015 60 10000 0.5 0 21:39 08.04.2020
5066 Clouds 9 1015 60 10000 0.5 0 21:21 08.04.2020
5067 Clouds 9 1015 37 10000 1 210 20:58 08.04.2020
5068 Clouds 9 1015 37 10000 1 210 20:39 08.04.2020
5069 Clouds 11 1015 37 10000 1 210 20:20 08.04.2020
5070 Clouds 12 1014 28 10000 1.5 20 19:57 08.04.2020
5071 Clouds 12 1014 28 10000 1.5 20 19:37 08.04.2020
5072 Clouds 13 1014 30 10000 4.1 60 19:19 08.04.2020
5073 Clouds 13 1014 26 10000 5.1 80 18:42 08.04.2020
5074 Clouds 15 1014 23 10000 5.1 60 18:24 08.04.2020
5075 Clouds 15 1014 23 10000 5.1 60 17:56 08.04.2020
5076 Clouds 15 1014 23 10000 5.1 60 17:38 08.04.2020
5077 Clouds 15 1014 23 10000 5.1 60 17:38 08.04.2020
5078 Clouds 15 1014 26 10000 6.2 70 17:18 08.04.2020
5079 Clouds 16 1014 26 10000 6.2 70 16:42 08.04.2020
5080 Clouds 15 1015 28 10000 6.2 50 16:23 08.04.2020
5081 Clouds 15 1015 28 10000 6.2 50 15:56 08.04.2020
5082 Clouds 15 1015 28 10000 6.2 50 15:37 08.04.2020
5083 Clouds 15 1016 28 10000 5.1 40 15:19 08.04.2020
5084 Clouds 15 1016 28 10000 5.1 40 14:43 08.04.2020
5085 Clouds 15 1016 28 10000 5.1 40 14:25 08.04.2020
5086 Clouds 15 1016 28 10000 5.1 40 14:25 08.04.2020
5087 Clouds 14 1016 26 10000 4.6 70 13:55 08.04.2020
5088 Clouds 14 1016 26 10000 4.6 70 13:37 08.04.2020
5089 Clouds 14 1016 26 10000 4.6 70 13:18 08.04.2020
5090 Clouds 13 1017 27 10000 4.1 50 12:41 08.04.2020
5091 Clouds 12 1017 27 10000 4.1 50 12:18 08.04.2020
5092 Clouds 12 1018 29 10000 4.6 40 11:56 08.04.2020
5093 Clouds 11 1018 29 10000 4.6 40 11:38 08.04.2020
5094 Clouds 11 1018 29 10000 4.6 40 11:19 08.04.2020
5095 Clouds 10 1019 29 10000 5.1 50 10:55 08.04.2020
5096 Clouds 10 1019 29 10000 5.1 50 10:37 08.04.2020
5097 Clouds 10 1019 29 10000 5.1 50 10:18 08.04.2020
5098 Clouds 9 1019 31 10000 6.7 60 09:42 08.04.2020
5099 Clouds 7 1020 30 10000 8.2 60 09:21 08.04.2020
5100 Clouds 7 1020 33 10000 8.2 60 08:59 08.04.2020
5101 Clouds 7 1020 33 10000 8.2 60 08:41 08.04.2020
5102 Clouds 7 1020 36 10000 5.7 70 08:21 08.04.2020
5103 Clouds 6 1020 48 10000 4.1 30 07:43 08.04.2020
5104 Clouds 5 1020 52 10000 5.1 20 07:23 08.04.2020
5105 Clouds 5 1020 60 10000 3.1 30 06:48 08.04.2020
5106 Clouds 3 1019 59 10000 8.2 30 05:49 08.04.2020
5107 Clouds 4 1020 60 10000 5.1 30 03:34 08.04.2020
5108 Clouds 5 1020 60 10000 5.7 10 02:41 08.04.2020
5109 Clouds 5 1021 56 10000 5.1 10 02:19 08.04.2020
5110 Clouds 6 1021 60 10000 7.2 10 01:30 08.04.2020
5111 Clouds 6 1021 56 10000 5.1 10 00:57 08.04.2020
5112 Clouds 6 1021 56 10000 5.1 10 00:39 08.04.2020
5113 Clouds 6 1021 56 10000 5.1 30 00:19 08.04.2020
5114 Clouds 6 1020 56 10000 11.3 50 23:39 07.04.2020
5115 Clouds 6 1020 52 10000 12.9 50 23:20 07.04.2020
5116 Clouds 7 1019 52 10000 13.4 50 22:56 07.04.2020
5117 Clouds 7 1019 52 10000 13.4 50 22:38 07.04.2020
5118 Clouds 7 1020 52 10000 7.7 50 22:19 07.04.2020
5119 Clouds 8 1021 45 10000 8.2 50 21:54 07.04.2020
5120 Clouds 8 1020 45 10000 10.3 50 21:36 07.04.2020
5121 Clouds 10 1019 37 10000 6.2 60 21:18 07.04.2020
5122 Clouds 11 1019 37 10000 6.2 60 20:41 07.04.2020
5123 Clouds 10 1019 37 10000 6.2 60 20:21 07.04.2020
5124 Clouds 11 1019 37 10000 7.2 60 19:59 07.04.2020
5125 Clouds 10 1019 39 10000 10.3 50 19:38 07.04.2020
5126 Clouds 10 1019 39 10000 10.3 50 19:38 07.04.2020
5127 Clouds 10 1019 39 10000 10.3 50 19:20 07.04.2020
5128 Clouds 10 1019 37 10000 8.2 50 18:59 07.04.2020
5129 Clouds 12 1019 34 10000 9.3 50 18:41 07.04.2020
5130 Clouds 13 1019 33 10000 9.3 60 18:21 07.04.2020
5131 Clouds 13 1019 33 10000 9.3 60 17:55 07.04.2020
5132 Clouds 13 1019 33 10000 9.3 60 17:37 07.04.2020
5133 Clouds 14 1019 30 10000 9.3 50 17:19 07.04.2020
5134 Clouds 14 1019 30 10000 9.3 50 16:43 07.04.2020
5135 Clouds 14 1019 24 10000 9.3 50 16:25 07.04.2020
5136 Clouds 14 1019 24 10000 9.3 50 15:44 07.04.2020
5137 Clouds 15 1019 24 10000 9.3 50 15:26 07.04.2020
5138 Clouds 14 1019 26 10000 10.8 60 14:56 07.04.2020
5139 Clouds 14 1019 26 10000 10.8 60 14:38 07.04.2020
5140 Clouds 13 1020 30 10000 9.3 60 14:19 07.04.2020
5141 Clouds 13 1020 30 10000 9.3 60 13:42 07.04.2020
5142 Clouds 13 1020 30 10000 9.3 60 13:42 07.04.2020
5143 Clouds 13 1020 30 10000 9.3 60 13:19 07.04.2020
5144 Clouds 12 1020 37 10000 8.2 50 12:57 07.04.2020
5145 Clouds 12 1020 37 10000 8.2 50 12:38 07.04.2020
5146 Clouds 12 1020 37 10000 8.2 50 12:20 07.04.2020
5147 Clouds 11 1020 32 10000 8.2 50 11:57 07.04.2020
5148 Clouds 11 1020 32 10000 8.2 50 11:39 07.04.2020
5149 Clouds 11 1020 32 10000 8.2 50 11:19 07.04.2020
5150 Clouds 9 1020 29 10000 7.7 60 10:39 07.04.2020
5151 Clouds 9 1021 36 10000 7.7 50 10:20 07.04.2020
5152 Clouds 9 1021 36 10000 7.7 50 10:20 07.04.2020
5153 Clouds 8 1021 36 10000 7.7 50 09:56 07.04.2020
5154 Clouds 8 1021 36 10000 7.7 50 09:37 07.04.2020
5155 Clouds 7 1021 38 10000 7.7 70 09:18 07.04.2020
5156 Clouds 7 1021 38 10000 7.7 70 08:40 07.04.2020
5157 Clouds 6 1021 38 10000 7.7 70 08:20 07.04.2020
5158 Clouds 5 1020 41 10000 5.1 70 07:46 07.04.2020
5159 Clouds 4 1020 41 10000 5.1 70 07:26 07.04.2020
5160 Clouds 3 1020 51 10000 4.1 80 06:53 07.04.2020
5161 Clouds 2 1020 51 10000 4.1 80 06:26 07.04.2020
5162 Clouds 2 1020 48 10000 3.6 70 05:56 07.04.2020
5163 Clouds 2 1020 48 10000 3.6 70 05:26 07.04.2020
5164 Clouds 3 1020 48 10000 2.1 0 04:18 07.04.2020
5165 Clouds 4 1020 48 10000 1.5 50 03:21 07.04.2020
5166 Clouds 4 1020 48 10000 4.1 70 02:45 07.04.2020
5167 Clouds 5 1021 48 10000 6.2 70 01:38 07.04.2020
5168 Clouds 5 1021 48 10000 6.2 70 01:20 07.04.2020
5169 Clear 5 1021 48 10000 6.2 70 00:25 07.04.2020
5170 Clear 6 1020 52 10000 7.7 70 23:42 06.04.2020
5171 Clear 6 1020 49 10000 6.2 70 23:21 06.04.2020
5172 Clear 7 1020 49 10000 6.2 70 22:54 06.04.2020
5173 Clouds 6 1021 56 10000 6.7 30 22:36 06.04.2020
5174 Clear 7 1020 61 10000 10.3 60 22:18 06.04.2020
5175 Clear 7 1020 61 10000 10.3 60 21:43 06.04.2020
5176 Clouds 7 1020 57 10000 8.2 60 21:20 06.04.2020
5177 Clouds 8 1020 57 10000 8.2 60 20:57 06.04.2020
5178 Clouds 8 1020 57 10000 8.2 60 20:39 06.04.2020
5179 Clouds 8 1020 57 10000 8.2 60 20:21 06.04.2020
5180 Clouds 9 1020 57 10000 9.8 60 19:58 06.04.2020
5181 Clouds 9 1020 57 10000 9.8 60 19:38 06.04.2020
5182 Clouds 9 1020 57 10000 9.8 60 19:20 06.04.2020
5183 Clouds 10 1019 57 10000 8.7 50 18:43 06.04.2020
5184 Clouds 10 1019 57 10000 8.7 50 18:24 06.04.2020
5185 Clouds 11 1019 54 10000 8.2 40 17:58 06.04.2020
5186 Clouds 11 1019 54 10000 8.2 40 17:39 06.04.2020
5187 Clouds 12 1019 50 10000 8.7 40 17:18 06.04.2020
5188 Clouds 12 1019 50 10000 8.7 40 16:49 06.04.2020
5189 Clouds 12 1019 50 10000 8.7 40 16:30 06.04.2020
5190 Clouds 12 1018 54 10000 8.7 40 14:58 06.04.2020
5191 Clouds 12 1018 54 10000 8.7 40 14:58 06.04.2020
5192 Clouds 12 1018 54 10000 8.7 40 14:58 06.04.2020
5193 Clouds 12 1018 54 10000 8.7 40 14:58 06.04.2020
5194 Clouds 12 1018 54 10000 8.7 40 14:58 06.04.2020
5195 Clouds 12 1019 58 10000 7.2 50 13:45 06.04.2020
5196 Clouds 12 1019 58 10000 7.2 50 13:22 06.04.2020
5197 Clouds 12 1019 62 10000 9.3 60 12:46 06.04.2020
5198 Clouds 12 1019 62 10000 9.3 60 12:20 06.04.2020
5199 Clouds 12 1019 62 10000 9.3 60 12:20 06.04.2020
5200 Clouds 11 1018 62 10000 6.7 50 11:42 06.04.2020
5201 Clouds 11 1018 62 10000 6.7 50 11:24 06.04.2020
5202 Clouds 11 1018 62 10000 6.7 50 11:24 06.04.2020
5203 Clouds 11 1018 62 10000 6.7 50 11:24 06.04.2020
5204 Clouds 11 1018 62 10000 6.7 50 11:24 06.04.2020
5205 Clouds 11 1018 62 10000 6.7 50 11:23 06.04.2020
5206 Clouds 11 1018 66 10000 8.2 50 10:42 06.04.2020
5207 Clouds 11 1018 66 10000 8.2 50 10:42 06.04.2020
5208 Clouds 11 1018 66 10000 8.2 50 10:42 06.04.2020
5209 Clouds 11 1018 66 10000 8.2 50 10:42 06.04.2020
5210 Clouds 11 1018 66 10000 8.2 50 10:42 06.04.2020
5211 Clouds 11 1018 66 10000 8.2 50 10:21 06.04.2020
5212 Clouds 11 1018 66 10000 8.2 50 10:21 06.04.2020
5213 Clouds 11 1018 66 10000 8.2 50 10:21 06.04.2020
5214 Clouds 11 1018 66 10000 8.2 50 10:20 06.04.2020
5215 Clouds 11 1018 62 10000 6.7 50 09:40 06.04.2020
5216 Clouds 11 1018 62 10000 6.7 50 09:40 06.04.2020
5217 Clouds 11 1018 62 10000 6.7 50 09:20 06.04.2020
5218 Clouds 11 1018 62 10000 6.7 50 09:20 06.04.2020
5219 Clouds 10 1017 71 10000 6.2 60 08:47 06.04.2020
5220 Clouds 10 1017 71 10000 6.2 60 08:28 06.04.2020
5221 Clouds 10 1017 71 10000 6.2 60 08:28 06.04.2020
5222 Clouds 10 1017 71 10000 6.2 60 08:28 06.04.2020
5223 Clouds 10 1017 71 10000 6.2 60 08:28 06.04.2020
5224 Clouds 10 1017 71 10000 6.2 60 08:27 06.04.2020
5225 Clouds 10 1016 71 10000 5.7 60 07:23 06.04.2020
5226 Clouds 10 1016 71 10000 5.7 60 07:23 06.04.2020
5227 Clouds 10 1016 71 10000 5.7 60 07:23 06.04.2020
5228 Clouds 10 1016 71 10000 5.7 60 07:23 06.04.2020
5229 Clouds 9 1015 76 10000 3.38 73 06:27 06.04.2020
5230 Clouds 8 1014 76 10000 2.1 40 05:54 06.04.2020
5231 Clouds 9 1014 71 10000 2.1 110 03:57 06.04.2020
5232 Clouds 10 1013 71 10000 1 0 02:54 06.04.2020
5233 Clouds 11 1013 71 10000 1 0 01:56 06.04.2020
5234 Clouds 10 1013 71 10000 1 0 01:56 06.04.2020
5235 Rain 11 1013 66 10000 1 0 00:58 06.04.2020
5236 Rain 11 1013 66 10000 1 0 00:28 06.04.2020
5237 Rain 11 1013 66 10000 1 0 00:28 06.04.2020
5238 Rain 11 1013 66 10000 1 0 00:28 06.04.2020
5239 Clouds 11 1012 66 10000 4.1 80 23:55 05.04.2020
5240 Clouds 11 1012 66 10000 4.1 80 23:37 05.04.2020
5241 Clouds 11 1012 66 10000 4.1 80 23:19 05.04.2020
5242 Clouds 12 1011 66 10000 4.6 80 22:54 05.04.2020
5243 Clouds 12 1011 66 10000 4.6 80 22:36 05.04.2020
5244 Clouds 12 1011 66 10000 4.6 80 22:18 05.04.2020
5245 Clouds 12 1011 71 10000 4.1 80 21:41 05.04.2020
5246 Clouds 12 1011 71 10000 4.1 80 21:23 05.04.2020
5247 Clouds 12 1011 66 10000 5.7 70 20:24 05.04.2020
5248 Clouds 12 1011 66 10000 5.7 70 20:24 05.04.2020
5249 Clouds 13 1010 66 10000 6.7 40 19:43 05.04.2020
5250 Rain 13 1011 66 10000 5.1 30 19:23 05.04.2020
5251 Rain 13 1011 54 10000 1.5 0 18:48 05.04.2020
5252 Rain 13 1011 54 10000 1.5 0 18:48 05.04.2020
5253 Rain 14 1011 54 10000 1.5 0 18:18 05.04.2020
5254 Clouds 14 1010 58 10000 5.7 60 17:46 05.04.2020
5255 Clouds 14 1010 58 10000 5.7 60 17:46 05.04.2020
5256 Clouds 14 1010 58 10000 5.7 60 17:46 05.04.2020
5257 Clouds 14 1010 58 10000 5.7 60 17:46 05.04.2020
5258 Clouds 14 1010 58 10000 5.7 60 17:46 05.04.2020
5259 Clouds 14 1010 58 10000 7.7 60 17:22 05.04.2020
5260 Clouds 15 1010 58 10000 7.7 60 16:47 05.04.2020
5261 Clouds 15 1011 48 10000 9.3 70 16:19 05.04.2020
5262 Clouds 15 1011 48 10000 9.3 70 15:45 05.04.2020
5263 Clouds 15 1011 48 10000 9.3 70 15:45 05.04.2020
5264 Clouds 15 1011 48 10000 9.3 70 15:45 05.04.2020
5265 Clouds 15 1011 51 10000 10.3 60 15:25 05.04.2020
5266 Clouds 15 1011 51 10000 10.3 60 14:48 05.04.2020
5267 Clouds 15 1011 51 10000 10.3 60 14:48 05.04.2020
5268 Clouds 15 1011 51 10000 10.3 60 14:48 05.04.2020
5269 Clouds 15 1011 51 10000 10.3 60 14:48 05.04.2020
5270 Clouds 15 1011 51 10000 10.3 60 14:48 05.04.2020
5271 Clouds 15 1013 51 10000 10.3 70 13:59 05.04.2020
5272 Clouds 15 1013 51 10000 10.3 70 13:40 05.04.2020
5273 Clouds 15 1013 51 10000 10.3 70 13:40 05.04.2020
5274 Clouds 15 1013 51 10000 10.3 70 13:40 05.04.2020
5275 Clouds 15 1013 51 10000 10.3 70 13:40 05.04.2020
5276 Clouds 15 1013 51 10000 10.3 70 13:40 05.04.2020
5277 Clouds 13 1014 58 10000 6.2 70 12:20 05.04.2020
5278 Clouds 13 1014 58 10000 6.2 70 12:20 05.04.2020
5279 Clouds 13 1014 58 10000 6.2 70 12:20 05.04.2020
5280 Clouds 12 1015 66 10000 5.7 90 11:39 05.04.2020
5281 Clouds 12 1015 66 10000 5.7 90 11:19 05.04.2020
5282 Clouds 12 1016 62 10000 4.6 90 10:47 05.04.2020
5283 Clouds 11 1016 62 10000 4.6 80 10:22 05.04.2020
5284 Clouds 11 1016 62 10000 4.6 80 10:22 05.04.2020
5285 Clouds 11 1016 62 10000 4.6 80 09:53 05.04.2020
5286 Clouds 11 1016 62 10000 4.6 80 09:26 05.04.2020
5287 Clouds 11 1016 62 10000 4.6 80 09:26 05.04.2020
5288 Clouds 11 1016 62 10000 4.6 80 09:26 05.04.2020
5289 Clouds 11 1016 62 10000 4.6 80 09:26 05.04.2020
5290 Clouds 11 1016 62 10000 4.6 80 09:26 05.04.2020
5291 Rain 11 1017 66 10000 1 0 08:18 05.04.2020
5292 Clouds 9 1016 71 10000 2.1 60 05:45 05.04.2020
5293 Clouds 10 1016 62 10000 1.5 0 04:29 05.04.2020
5294 Clouds 10 1016 62 10000 1.5 0 04:29 05.04.2020
5295 Clouds 9 1016 81 10000 2.1 330 03:27 05.04.2020
5296 Clouds 9 1017 71 10000 1 0 02:18 05.04.2020
5297 Clouds 9 1017 71 10000 2.6 100 01:42 05.04.2020
5298 Clouds 9 1017 71 10000 2.6 100 01:18 05.04.2020
5299 Clouds 9 1017 71 10000 2.6 100 01:18 05.04.2020
5300 Clouds 9 1018 71 10000 1 0 00:37 05.04.2020
5301 Clouds 9 1018 71 10000 1 0 00:18 05.04.2020
5302 Clouds 9 1019 71 10000 2.1 110 23:41 04.04.2020
5303 Clouds 9 1019 71 10000 0.5 0 23:21 04.04.2020
5304 Clouds 9 1019 71 10000 0.5 0 22:57 04.04.2020
5305 Clouds 9 1019 71 10000 0.5 0 22:39 04.04.2020
5306 Clouds 9 1019 71 10000 0.5 0 22:19 04.04.2020
5307 Clouds 10 1019 71 10000 0.5 0 21:57 04.04.2020
5308 Clouds 10 1019 66 10000 2.1 110 21:38 04.04.2020
5309 Clouds 10 1019 66 10000 2.1 110 21:19 04.04.2020
5310 Clouds 10 1019 62 10000 3.1 70 20:54 04.04.2020
5311 Clouds 10 1019 62 10000 3.1 70 20:36 04.04.2020
5312 Clouds 10 1019 62 10000 3.1 70 20:18 04.04.2020
5313 Clouds 11 1019 62 10000 1.35 81 19:41 04.04.2020
5314 Clouds 11 1019 62 10000 1.35 81 19:20 04.04.2020
5315 Clouds 11 1019 62 10000 2.1 60 18:59 04.04.2020
5316 Clouds 11 1019 62 10000 2.1 60 18:59 04.04.2020
5317 Clouds 11 1019 62 10000 2.1 60 18:39 04.04.2020
5318 Clouds 11 1019 62 10000 2.1 60 18:21 04.04.2020
5319 Clouds 12 1019 54 10000 2.1 50 17:58 04.04.2020
5320 Clouds 12 1019 54 10000 2.1 50 17:39 04.04.2020
5321 Clouds 12 1019 50 10000 0.5 50 17:19 04.04.2020
5322 Clouds 12 1019 50 10000 0.5 50 16:45 04.04.2020
5323 Clouds 12 1019 50 10000 0.5 50 16:27 04.04.2020
5324 Clouds 12 1019 50 10000 0.5 50 15:59 04.04.2020
5325 Clouds 12 1019 50 10000 0.5 50 15:59 04.04.2020
5326 Rain 12 1019 47 10000 2.1 50 15:39 04.04.2020
5327 Rain 12 1019 47 10000 2.1 50 15:19 04.04.2020
5328 Clouds 12 1020 47 10000 2.1 230 14:54 04.04.2020
5329 Clouds 13 1020 47 10000 2.1 230 14:36 04.04.2020
5330 Clouds 13 1020 47 10000 2.1 230 14:18 04.04.2020
5331 Clouds 13 1020 47 10000 2.6 170 13:42 04.04.2020
5332 Clouds 13 1020 47 10000 2.6 170 13:21 04.04.2020
5333 Clouds 13 1020 47 10000 2.6 170 13:21 04.04.2020
5334 Clouds 13 1020 47 10000 2.6 170 12:58 04.04.2020
5335 Clouds 12 1020 47 10000 4.1 180 12:40 04.04.2020
5336 Clouds 12 1020 47 10000 4.1 180 12:20 04.04.2020
5337 Clouds 12 1020 54 10000 0.5 0 11:42 04.04.2020
5338 Clouds 12 1020 54 10000 0.5 0 11:42 04.04.2020
5339 Clouds 11 1020 57 10000 1.5 0 11:23 04.04.2020
5340 Clouds 11 1020 57 10000 1.5 0 10:59 04.04.2020
5341 Clouds 11 1020 57 10000 1.5 0 10:41 04.04.2020
5342 Clouds 10 1020 57 10000 1.5 0 10:23 04.04.2020
5343 Clouds 10 1020 57 10000 1.5 0 09:57 04.04.2020
5344 Clouds 9 1020 57 10000 2.6 70 09:39 04.04.2020
5345 -273 0 0 0 0 0 09:20 04.04.2020
5346 Clouds 6 1020 80 10000 1.37 125 08:44 04.04.2020
5347 Clouds 5 1021 86 10000 1 230 08:23 04.04.2020
5348 Clouds 4 1020 93 10000 1.37 125 07:59 04.04.2020
5349 Clouds 3 1020 93 10000 1.37 125 07:39 04.04.2020
5350 Clouds 2 1019 40 10000 1.37 125 07:21 04.04.2020
5351 Clouds 1 1019 40 10000 1.37 125 06:38 04.04.2020
5352 Clouds 0 1019 54 10000 0.5 0 05:52 04.04.2020
5353 Clouds 0 1019 54 10000 0.5 0 05:52 04.04.2020
5354 Clouds 0 1019 54 10000 0.5 0 05:33 04.04.2020
5355 Clouds 0 1019 54 10000 0.9 138 04:34 04.04.2020
5356 Clouds 1 1019 54 10000 1 220 03:57 04.04.2020
5357 Clouds 1 1019 54 10000 1 220 03:36 04.04.2020
5358 Clear 1 1019 54 10000 0.5 230 02:46 04.04.2020
5359 Clear 1 1019 55 10000 0.5 230 02:25 04.04.2020
5360 Clear 2 1019 93 10000 1 50 01:31 04.04.2020
5361 Clear 2 1019 93 10000 1 50 00:59 04.04.2020
5362 Clear 3 1019 86 10000 1 40 00:35 04.04.2020
5363 Clear 3 1018 86 10000 2.1 250 23:59 03.04.2020
5364 Clear 3 1018 86 10000 2.1 250 23:38 03.04.2020
5365 Clear 3 1018 86 10000 2.1 250 23:19 03.04.2020
5366 Clear 4 1018 80 10000 2.1 230 22:41 03.04.2020
5367 Clear 5 1018 80 10000 2.1 230 22:19 03.04.2020
5368 Clear 5 1018 80 10000 2.1 230 21:57 03.04.2020
5369 Clouds 6 1018 75 10000 0.5 0 21:38 03.04.2020
5370 Clouds 6 1018 75 10000 0.5 0 21:20 03.04.2020
5371 Clouds 6 1017 75 10000 1.5 250 20:55 03.04.2020
5372 Clouds 6 1017 75 10000 1.5 250 20:36 03.04.2020
5373 Clouds 7 1017 75 10000 1.5 250 20:18 03.04.2020
5374 Clouds 7 1016 70 10000 1 0 19:55 03.04.2020
5375 Clouds 7 1016 70 10000 1 0 19:36 03.04.2020
5376 Clouds 7 1016 70 10000 1 0 19:18 03.04.2020
5377 Clouds 7 1015 70 10000 0.5 0 18:57 03.04.2020
5378 Clouds 7 1015 70 10000 0.5 0 18:39 03.04.2020
5379 Clouds 7 1015 70 10000 0.5 0 18:39 03.04.2020
5380 Clouds 7 1015 70 10000 0.5 0 18:21 03.04.2020
5381 Clouds 8 1014 65 10000 3.1 250 17:41 03.04.2020
5382 Clouds 8 1014 66 10000 3.1 260 17:19 03.04.2020
5383 Clouds 8 1014 66 10000 3.1 260 16:55 03.04.2020
5384 Clouds 8 1014 66 10000 3.1 260 16:36 03.04.2020
5385 Clouds 8 1014 66 10000 3.1 260 16:36 03.04.2020
5386 Clouds 8 1014 66 10000 3.1 260 16:18 03.04.2020
5387 Clouds 8 1014 66 10000 2.1 0 15:55 03.04.2020
5388 Clouds 8 1014 66 10000 2.1 0 15:36 03.04.2020
5389 Clouds 8 1014 66 10000 2.1 0 15:18 03.04.2020
5390 Clouds 8 1013 61 10000 6.2 290 14:40 03.04.2020
5391 Rain 7 1013 81 10000 2.6 360 14:22 03.04.2020
5392 Rain 7 1013 81 10000 2.6 360 13:47 03.04.2020
5393 Rain 7 1013 81 10000 2.6 360 13:27 03.04.2020
5394 Rain 7 1013 75 10000 2.1 0 12:58 03.04.2020
5395 Rain 7 1013 75 10000 2.1 0 12:40 03.04.2020
5396 Rain 7 1013 75 10000 2.1 0 12:18 03.04.2020
5397 Rain 6 1013 75 10000 5.7 240 11:55 03.04.2020
5398 Rain 6 1013 75 10000 5.7 240 11:37 03.04.2020
5399 Clouds 6 1012 75 10000 5.1 250 11:18 03.04.2020
5400 Clouds 6 1012 75 10000 5.1 250 10:57 03.04.2020
5401 Clouds 6 1012 75 10000 5.1 250 10:57 03.04.2020
5402 Clouds 6 1012 75 10000 5.1 250 10:38 03.04.2020
5403 Clouds 5 1012 75 10000 5.1 250 10:19 03.04.2020
5404 Clouds 5 1012 75 10000 5.1 250 09:56 03.04.2020
5405 Clouds 5 1012 75 10000 5.1 250 09:37 03.04.2020
5406 Clouds 5 1012 75 10000 5.1 250 09:37 03.04.2020
5407 Clouds 5 1012 75 10000 5.1 250 09:19 03.04.2020
5408 Clouds 5 1011 80 10000 5.1 250 08:44 03.04.2020
5409 Clouds 4 1011 80 10000 5.1 250 08:25 03.04.2020
5410 Clouds 4 1011 86 10000 2.1 240 07:57 03.04.2020
5411 Clouds 4 1011 86 10000 2.1 240 07:39 03.04.2020
5412 Clouds 3 1011 86 10000 2.1 240 07:20 03.04.2020
5413 Rain 3 1010 93 10000 1.5 160 06:28 03.04.2020
5414 Rain 3 1010 80 10000 2.1 220 05:43 03.04.2020
5415 Clouds 4 1010 80 10000 4.1 230 04:27 03.04.2020
5416 Rain 4 1009 86 10000 3.1 250 03:33 03.04.2020
5417 Rain 5 1009 81 10000 3.1 220 02:39 03.04.2020
5418 Rain 6 1009 93 10000 1 150 01:25 03.04.2020
5419 Rain 6 1009 87 10000 3.34 238 00:47 03.04.2020
5420 Rain 6 1009 87 10000 3.34 238 00:29 03.04.2020
5421 Rain 6 1009 87 10000 2.6 180 23:54 02.04.2020
5422 Rain 6 1009 87 10000 2.6 180 23:36 02.04.2020
5423 Rain 6 1009 87 10000 2.6 180 23:18 02.04.2020
5424 Rain 6 1009 87 10000 1 0 22:41 02.04.2020
5425 Thunderstorm 7 1009 93 10000 8.2 290 22:22 02.04.2020
5426 Thunderstorm 7 1009 93 10000 8.2 290 22:22 02.04.2020
5427 Thunderstorm 7 1009 93 10000 8.2 290 21:57 02.04.2020
5428 Thunderstorm 7 1009 93 10000 8.2 290 21:37 02.04.2020
5429 Rain 7 1008 81 10000 3.1 230 21:18 02.04.2020
5430 Rain 9 1007 76 10000 2.6 220 20:44 02.04.2020
5431 Clouds 9 1007 76 10000 2.6 0 20:24 02.04.2020
5432 Clouds 9 1007 76 10000 2.6 0 19:57 02.04.2020
5433 Clouds 9 1007 76 10000 2.6 0 19:38 02.04.2020
5434 Clouds 10 1007 76 10000 2.1 90 19:19 02.04.2020
5435 Clouds 10 1007 76 10000 2.1 90 18:42 02.04.2020
5436 Thunderstorm 10 1007 58 10000 5.1 150 18:21 02.04.2020
5437 Thunderstorm 12 1006 47 10000 2.6 130 17:59 02.04.2020
5438 Thunderstorm 12 1006 47 10000 2.6 130 17:40 02.04.2020
5439 Rain 12 1006 44 10000 4.1 120 17:22 02.04.2020
5440 Clouds 13 1007 41 10000 4.6 140 16:57 02.04.2020
5441 Clouds 13 1007 41 10000 4.6 140 16:39 02.04.2020
5442 Clouds 14 1007 41 10000 4.6 140 16:21 02.04.2020
5443 Clouds 13 1007 41 10000 4.6 140 15:56 02.04.2020
5444 Clouds 12 1008 58 10000 2.1 0 15:38 02.04.2020
5445 Clouds 12 1008 58 10000 2.1 0 15:38 02.04.2020
5446 Clouds 13 1008 44 10000 3.1 120 15:18 02.04.2020
5447 Clouds 13 1008 44 10000 3.1 120 15:18 02.04.2020
5448 Clouds 14 1008 44 10000 3.1 120 14:55 02.04.2020
5449 Clouds 14 1008 44 10000 3.1 120 14:37 02.04.2020
5450 Clouds 14 1008 44 10000 3.1 120 14:18 02.04.2020
5451 Clouds 13 1009 47 10000 2.1 0 13:40 02.04.2020
5452 Clouds 13 1009 47 10000 2.1 0 13:21 02.04.2020
5453 Clouds 13 1010 47 10000 2.1 340 12:59 02.04.2020
5454 Clouds 13 1010 47 10000 2.1 340 12:41 02.04.2020
5455 Clouds 13 1010 47 10000 2.1 340 12:19 02.04.2020
5456 Clouds 13 1010 47 10000 2.1 340 12:19 02.04.2020
5457 Clouds 13 1010 47 10000 2.1 340 12:19 02.04.2020
5458 Clouds 13 1010 47 10000 2.1 340 12:19 02.04.2020
5459 Clouds 13 1010 47 10000 2.1 340 12:19 02.04.2020
5460 Clouds 12 1011 53 10000 2.1 0 11:57 02.04.2020
5461 Clouds 12 1011 53 10000 2.1 0 11:38 02.04.2020
5462 Clouds 12 1011 53 10000 2.1 0 11:19 02.04.2020
5463 Clouds 12 1011 53 10000 2.1 0 11:19 02.04.2020
5464 Clouds 12 1011 53 10000 2.1 0 11:19 02.04.2020
5465 Clouds 11 1011 53 10000 3.6 40 10:55 02.04.2020
5466 Clouds 11 1011 53 10000 3.6 40 10:37 02.04.2020
5467 Clouds 11 1011 53 10000 3.6 40 10:19 02.04.2020
5468 Clouds 10 1011 53 10000 3.6 40 09:55 02.04.2020
5469 Clouds 9 1012 61 10000 3.6 50 09:37 02.04.2020
5470 Clouds 8 1012 61 10000 3.6 50 09:18 02.04.2020
5471 Clouds 7 1012 65 10000 4.1 70 08:45 02.04.2020
5472 Clouds 7 1012 65 10000 4.1 70 08:26 02.04.2020
5473 Clouds 6 1012 75 10000 3.6 80 07:45 02.04.2020
5474 Clouds 6 1012 75 10000 3.6 80 07:20 02.04.2020
5475 Clouds 5 1012 70 10000 3.1 80 06:58 02.04.2020
5476 Clouds 5 1012 70 10000 3.1 80 06:21 02.04.2020
5477 Clouds 5 1012 75 10000 3.1 70 05:45 02.04.2020
5478 Clouds 6 1011 75 10000 3.1 60 04:35 02.04.2020
5479 Clouds 6 1012 70 10000 3.1 60 01:52 02.04.2020
5480 Rain 7 1012 65 10000 3.6 70 00:50 02.04.2020
5481 Rain 7 1012 65 10000 3.6 70 00:50 02.04.2020
5482 Rain 7 1012 65 10000 3.6 70 00:28 02.04.2020
5483 Clouds 7 1012 65 10000 4.6 70 23:57 01.04.2020
5484 Clouds 7 1012 65 10000 4.6 70 23:37 01.04.2020
5485 Clouds 7 1012 65 10000 4.6 70 23:37 01.04.2020
5486 Clouds 7 1012 70 10000 5.7 60 23:18 01.04.2020
5487 Clouds 7 1012 70 10000 5.7 60 23:18 01.04.2020
5488 Clouds 7 1012 70 10000 5.7 60 22:41 01.04.2020
5489 Clouds 8 1012 70 10000 4.1 70 22:22 01.04.2020
5490 Clouds 8 1012 70 10000 4.1 70 21:57 01.04.2020
5491 Clouds 8 1012 70 10000 4.1 70 21:38 01.04.2020
5492 Clouds 8 1011 70 10000 3.6 60 21:18 01.04.2020
5493 Clouds 8 1011 70 10000 3.6 60 21:18 01.04.2020
5494 Clouds 8 1011 70 10000 3.6 60 20:54 01.04.2020
5495 Clouds 8 1011 70 10000 3.6 60 20:36 01.04.2020
5496 Clouds 8 1011 70 10000 3.6 60 20:18 01.04.2020
5497 Clouds 9 1011 76 10000 2.1 40 19:42 01.04.2020
5498 Clouds 9 1011 76 10000 2.1 40 19:22 01.04.2020
5499 Rain 9 1011 76 10000 3.1 360 18:56 01.04.2020
5500 Rain 9 1011 76 10000 3.1 360 18:56 01.04.2020
5501 Rain 9 1011 76 10000 3.1 360 18:38 01.04.2020
5502 Rain 9 1011 76 10000 3.1 360 18:19 01.04.2020
5503 Rain 11 1010 57 10000 3.6 90 17:55 01.04.2020
5504 Rain 11 1010 57 10000 3.6 90 17:36 01.04.2020
5505 Rain 11 1010 57 10000 3.6 90 17:18 01.04.2020
5506 Rain 12 1010 54 10000 3.1 80 16:42 01.04.2020
5507 Rain 11 1010 54 10000 3.1 80 16:24 01.04.2020
5508 Rain 12 1010 54 10000 3.1 80 15:58 01.04.2020
5509 Clouds 12 1010 43 10000 3.1 90 15:40 01.04.2020
5510 Clouds 12 1010 43 10000 3.1 90 15:21 01.04.2020
5511 Rain 12 1010 47 10000 2.6 80 14:57 01.04.2020
5512 Rain 12 1010 47 10000 2.6 80 14:57 01.04.2020
5513 Rain 12 1010 47 10000 2.6 80 14:38 01.04.2020
5514 Rain 12 1010 47 10000 2.6 80 14:19 01.04.2020
5515 Rain 12 1010 47 10000 2.6 80 13:58 01.04.2020
5516 Clouds 12 1010 50 10000 2.1 70 13:37 01.04.2020
5517 Rain 13 1011 54 10000 3.1 0 13:19 01.04.2020
5518 Clouds 13 1011 43 10000 1 0 12:54 01.04.2020
5519 Clouds 12 1011 43 10000 1 0 12:36 01.04.2020
5520 Clouds 12 1011 43 10000 1 0 12:18 01.04.2020
5521 Clouds 12 1011 47 10000 2.6 10 11:42 01.04.2020
5522 Clouds 12 1011 47 10000 2.6 10 11:23 01.04.2020
5523 Clouds 12 1011 47 10000 2.6 10 10:58 01.04.2020
5524 Clouds 11 1011 53 10000 4.1 30 10:37 01.04.2020
5525 Clouds 10 1011 53 10000 5.7 50 10:18 01.04.2020
5526 Clouds 10 1011 53 10000 5.7 50 09:55 01.04.2020
5527 Clouds 10 1011 53 10000 5.7 50 09:37 01.04.2020
5528 Clouds 9 1011 53 10000 5.7 50 09:18 01.04.2020
5529 Clouds 9 1011 70 10000 2.1 260 08:40 01.04.2020
5530 Clouds 9 1011 70 10000 2.1 260 08:18 01.04.2020
5531 Clouds 8 1011 81 10000 1.5 240 07:43 01.04.2020
5532 Clouds 7 1011 81 10000 1.5 240 07:21 01.04.2020
5533 Clouds 4 1010 80 10000 1.5 230 06:48 01.04.2020
5534 Clouds 4 1010 80 10000 1.5 230 06:24 01.04.2020
5535 Clouds 5 1010 80 10000 2.41 47 05:56 01.04.2020
5536 Clouds 6 1010 75 10000 2.1 220 04:30 01.04.2020
5537 Clouds 6 1010 75 10000 1.5 230 03:28 01.04.2020
5538 Clouds 6 1010 75 10000 2.6 220 02:49 01.04.2020
5539 Clouds 6 1010 75 10000 0.5 0 01:57 01.04.2020
5540 Clouds 6 1010 75 10000 0.5 0 01:37 01.04.2020
5541 Clouds 6 1010 75 10000 0.5 0 01:18 01.04.2020
5542 Clouds 7 1010 75 10000 2.1 230 00:43 01.04.2020
5543 Clouds 7 1010 75 10000 2.1 230 00:18 01.04.2020
5544 Clouds 7 1010 70 10000 2.1 230 23:42 31.03.2020
5545 Clouds 7 1010 70 10000 2.1 230 23:23 31.03.2020
5546 Clouds 8 1010 57 10000 1 0 22:57 31.03.2020
5547 Clouds 8 1010 57 10000 1 0 22:36 31.03.2020
5548 Clouds 8 1010 50 10000 1 240 22:18 31.03.2020
5549 Clouds 9 1010 50 10000 1 240 21:55 31.03.2020
5550 Clouds 9 1010 50 10000 1 240 21:55 31.03.2020
5551 Clouds 9 1010 50 10000 1 240 21:55 31.03.2020
5552 Clouds 9 1010 50 10000 1 240 21:37 31.03.2020
5553 Clouds 9 1010 50 10000 1 240 21:19 31.03.2020
5554 Clouds 10 1010 46 10000 1 60 20:54 31.03.2020
5555 Clouds 10 1010 46 10000 1 60 20:36 31.03.2020
5556 Clouds 10 1010 46 10000 1 60 20:18 31.03.2020
5557 Clouds 11 1009 41 10000 1.5 30 19:41 31.03.2020
5558 Clouds 11 1009 41 10000 1.5 30 19:22 31.03.2020
5559 Clouds 13 1009 35 10000 3.6 70 18:55 31.03.2020
5560 Clouds 13 1009 35 10000 3.6 70 18:37 31.03.2020
5561 Clouds 13 1009 35 10000 3.6 70 18:18 31.03.2020
5562 Clouds 13 1009 31 10000 4.6 70 17:54 31.03.2020
5563 Clouds 14 1009 31 10000 4.6 70 17:36 31.03.2020
5564 Clouds 14 1009 38 10000 3.6 60 17:18 31.03.2020
5565 Clouds 14 1009 38 10000 3.6 60 16:38 31.03.2020
5566 Clouds 14 1009 31 10000 3.6 50 16:19 31.03.2020
5567 Clouds 14 1009 31 10000 3.6 50 15:57 31.03.2020
5568 Clouds 14 1009 31 10000 3.6 50 15:38 31.03.2020
5569 Clouds 15 1010 30 10000 3.6 70 15:19 31.03.2020
5570 Clouds 14 1010 30 10000 3.6 70 14:56 31.03.2020
5571 Clouds 14 1010 30 10000 3.6 70 14:56 31.03.2020
5572 Clouds 14 1010 30 10000 3.6 70 14:38 31.03.2020
5573 Clouds 14 1011 35 10000 3.1 130 14:18 31.03.2020
5574 Clouds 14 1011 35 10000 3.1 130 13:42 31.03.2020
5575 Clouds 14 1011 35 10000 3.1 130 13:19 31.03.2020
5576 Clouds 12 1011 29 10000 2.6 60 12:55 31.03.2020
5577 Clouds 12 1011 29 10000 2.6 60 12:37 31.03.2020
5578 Clouds 12 1011 34 10000 2.6 60 12:18 31.03.2020
5579 Clouds 13 1012 41 10000 4.1 130 11:38 31.03.2020
5580 Clouds 12 1013 50 10000 3.6 80 11:19 31.03.2020
5581 Clouds 12 1013 50 10000 3.6 80 10:57 31.03.2020
5582 Clouds 12 1013 50 10000 3.6 80 10:57 31.03.2020
5583 Clouds 12 1013 50 10000 3.6 80 10:39 31.03.2020
5584 Clouds 12 1013 62 10000 2.6 60 10:21 31.03.2020
5585 Clouds 11 1013 62 10000 2.6 60 09:56 31.03.2020
5586 Clouds 11 1013 62 10000 2.6 60 09:37 31.03.2020
5587 Clouds 11 1013 62 10000 2.6 60 09:37 31.03.2020
5588 Clouds 9 1013 70 10000 2.42 102 09:19 31.03.2020
5589 Clouds 9 1013 70 10000 2.42 102 08:55 31.03.2020
5590 Clouds 9 1013 70 10000 2.42 102 08:37 31.03.2020
5591 Clouds 7 1013 86 10000 2.42 102 08:18 31.03.2020
5592 Clouds 6 1013 86 10000 2.42 102 07:44 31.03.2020
5593 Clouds 6 1013 86 10000 2.42 102 07:44 31.03.2020
5594 Clouds 6 1013 86 10000 2.42 102 07:25 31.03.2020
5595 Clouds 4 1014 93 10000 2.42 102 06:59 31.03.2020
5596 Clouds 4 1014 93 10000 2.42 102 06:41 31.03.2020
5597 Clouds 5 1013 93 10000 1.42 76 05:44 31.03.2020
5598 Clouds 5 1013 93 10000 1.42 76 05:24 31.03.2020
5599 Clouds 4 1013 86 10000 0.5 0 02:56 31.03.2020
5600 Clouds 6 1013 87 10000 0.5 230 01:47 31.03.2020
5601 Clouds 6 1013 87 10000 0.5 230 01:22 31.03.2020
5602 Clouds 6 1013 87 10000 0.26 138 00:43 31.03.2020
5603 Clouds 7 1013 87 10000 0.23 260 00:23 31.03.2020
5604 Clouds 7 1013 81 10000 0.23 260 23:40 30.03.2020
5605 Clouds 7 1013 81 10000 0.23 260 23:20 30.03.2020
5606 Clouds 7 1013 81 10000 0.23 260 22:58 30.03.2020
5607 Clouds 8 1013 81 10000 0.23 260 22:38 30.03.2020
5608 Clouds 8 1013 66 10000 0.5 240 22:19 30.03.2020
5609 Clouds 8 1013 66 10000 0.5 240 21:57 30.03.2020
5610 Clouds 8 1013 66 10000 0.5 240 21:38 30.03.2020
5611 Clouds 8 1013 66 10000 0.5 240 21:20 30.03.2020
5612 Clouds 8 1013 66 10000 0.5 240 20:58 30.03.2020
5613 Clouds 9 1013 61 10000 0.5 290 20:38 30.03.2020
5614 Clouds 9 1013 61 10000 0.5 290 20:19 30.03.2020
5615 Clouds 9 1012 61 10000 2.1 230 19:54 30.03.2020
5616 Clouds 9 1012 61 10000 2.1 230 19:36 30.03.2020
5617 Clouds 9 1012 61 10000 2.1 230 19:18 30.03.2020
5618 Clouds 9 1012 61 10000 2.6 240 18:41 30.03.2020
5619 Clouds 9 1012 61 10000 2.6 240 18:23 30.03.2020
5620 Clouds 10 1012 53 10000 3.6 250 17:57 30.03.2020
5621 Clouds 10 1012 53 10000 3.6 250 17:39 30.03.2020
5622 Clouds 10 1012 53 10000 3.6 250 17:19 30.03.2020
5623 Clouds 10 1011 57 10000 0.5 0 16:57 30.03.2020
5624 Clouds 10 1011 57 10000 0.5 0 16:39 30.03.2020
5625 Clouds 10 1011 57 10000 0.5 0 16:20 30.03.2020
5626 Clouds 11 1011 53 10000 2.1 210 15:55 30.03.2020
5627 Clouds 11 1011 53 10000 2.1 210 15:37 30.03.2020
5628 Clouds 11 1011 53 10000 2.1 210 15:19 30.03.2020
5629 Clouds 10 1012 57 10000 2.6 220 14:55 30.03.2020
5630 Clouds 10 1012 57 10000 2.6 220 14:37 30.03.2020
5631 Clouds 10 1012 57 10000 2.6 220 14:18 30.03.2020
5632 Clouds 10 1012 53 10000 2.6 0 13:54 30.03.2020
5633 Clouds 10 1012 53 10000 2.6 0 13:36 30.03.2020
5634 Clouds 10 1012 53 10000 2.6 0 13:18 30.03.2020
5635 Clouds 9 1012 66 10000 2.1 0 12:41 30.03.2020
5636 Clouds 9 1012 66 10000 2.1 0 12:20 30.03.2020
5637 Clouds 8 1012 70 10000 3.6 260 11:57 30.03.2020
5638 Clouds 8 1012 70 10000 3.6 260 11:39 30.03.2020
5639 Clouds 7 1011 70 10000 4.1 250 11:21 30.03.2020
5640 Clouds 7 1011 70 10000 4.1 250 10:41 30.03.2020
5641 Clouds 7 1012 75 10000 4.1 260 10:22 30.03.2020
5642 Clouds 7 1011 75 10000 2.1 250 09:58 30.03.2020
5643 Clouds 7 1011 75 10000 2.1 250 09:39 30.03.2020
5644 Clouds 6 1011 75 10000 2.1 250 09:19 30.03.2020
5645 Clouds 5 1011 80 10000 2.6 220 08:42 30.03.2020
5646 Clouds 5 1011 80 10000 2.6 220 08:23 30.03.2020
5647 Clouds 4 1010 86 10000 2.1 240 07:53 30.03.2020
5648 Clouds 4 1010 86 10000 2.1 240 07:34 30.03.2020
5649 Clouds 4 1010 86 10000 2.1 240 06:57 30.03.2020
5650 Clouds 4 1010 86 10000 3.1 250 06:33 30.03.2020
5651 Clouds 4 1009 86 10000 3.6 240 05:55 30.03.2020
5652 Clouds 4 1009 86 10000 3.6 240 05:33 30.03.2020
5653 Clouds 4 1009 86 10000 3.1 240 04:24 30.03.2020
5654 Clouds 4 1009 86 10000 3.1 240 03:44 30.03.2020
5655 Clouds 4 1008 80 10000 3.1 240 02:42 30.03.2020
5656 Clouds 5 1008 80 10000 4.1 240 01:44 30.03.2020
5657 Clouds 5 1008 80 10000 3.1 240 00:50 30.03.2020
5658 Clouds 5 1007 86 10000 3.1 240 00:23 30.03.2020
5659 Clouds 5 1007 86 10000 3.1 240 23:42 29.03.2020
5660 Clouds 5 1007 80 10000 2.6 220 23:24 29.03.2020
5661 Clouds 5 1007 81 10000 4.1 240 22:58 29.03.2020
5662 Clouds 5 1007 81 10000 4.1 240 22:38 29.03.2020
5663 Clouds 5 1007 81 10000 4.1 240 22:19 29.03.2020
5664 Clouds 5 1007 81 10000 4.1 240 21:57 29.03.2020
5665 Clouds 5 1007 81 10000 3.6 240 21:36 29.03.2020
5666 Clouds 5 1007 81 10000 3.6 240 21:18 29.03.2020
5667 Clouds 5 1007 81 10000 3.6 240 21:18 29.03.2020
5668 Clouds 5 1007 81 10000 3.6 240 20:55 29.03.2020
5669 Clouds 5 1007 81 10000 3.6 240 20:36 29.03.2020
5670 Clouds 6 1007 81 10000 3.6 240 20:18 29.03.2020
5671 Clouds 6 1006 81 10000 3.1 230 19:42 29.03.2020
5672 Clouds 6 1006 81 10000 3.1 230 19:42 29.03.2020
5673 Clouds 6 1006 81 10000 3.1 230 19:24 29.03.2020
5674 Clouds 6 1006 75 10000 4.1 240 18:58 29.03.2020
5675 Clouds 6 1006 75 10000 4.1 240 18:40 29.03.2020
5676 Clouds 6 1006 75 10000 4.1 240 18:20 29.03.2020
5677 Clouds 6 1006 75 10000 4.1 240 18:20 29.03.2020
5678 Clouds 7 1006 75 10000 5.7 230 17:58 29.03.2020
5679 Clouds 7 1006 75 10000 5.7 230 17:40 29.03.2020
5680 Rain 7 1006 75 10000 5.1 230 17:22 29.03.2020
5681 Rain 7 1006 75 10000 5.1 230 16:58 29.03.2020
5682 Rain 7 1006 75 10000 6.2 230 16:39 29.03.2020
5683 Rain 7 1006 75 10000 6.2 230 16:20 29.03.2020
5684 Rain 7 1006 75 10000 6.2 230 15:56 29.03.2020
5685 Rain 8 1005 70 10000 5.7 250 15:37 29.03.2020
5686 Rain 9 1005 70 10000 5.7 250 15:19 29.03.2020
5687 Clouds 9 1005 66 10000 6.2 260 14:55 29.03.2020
5688 Clouds 9 1005 66 10000 6.2 260 14:36 29.03.2020
5689 Clouds 9 1005 66 10000 6.2 260 14:18 29.03.2020
5690 Clouds 8 1006 70 10000 5.7 220 13:41 29.03.2020
5691 Clouds 8 1006 70 10000 5.7 220 13:22 29.03.2020
5692 Clouds 7 1006 75 10000 6.2 230 12:58 29.03.2020
5693 Clouds 8 1006 75 10000 6.2 230 12:39 29.03.2020
5694 Clouds 8 1006 75 10000 6.2 230 12:19 29.03.2020
5695 Clouds 7 1006 81 10000 3.6 260 11:57 29.03.2020
5696 Clouds 7 1006 81 10000 3.6 260 11:57 29.03.2020
5697 Clouds 7 1006 81 10000 3.6 260 11:37 29.03.2020
5698 Clouds 7 1006 81 10000 3.6 260 11:19 29.03.2020
5699 Clouds 7 1006 75 10000 5.1 240 10:39 29.03.2020
5700 Clouds 7 1006 81 10000 5.7 250 10:19 29.03.2020
5701 Clouds 7 1006 81 10000 5.7 250 09:54 29.03.2020
5702 Clouds 7 1006 81 10000 5.7 250 09:36 29.03.2020
5703 Clouds 6 1006 87 10000 3.1 260 09:18 29.03.2020
5704 Clouds 6 1006 87 10000 3.1 260 08:41 29.03.2020
5705 Clouds 6 1006 87 10000 3.1 260 08:22 29.03.2020
5706 Clouds 6 1006 87 10000 2.1 260 07:45 29.03.2020
5707 Clouds 5 1006 87 10000 2.1 260 07:22 29.03.2020
5708 Clouds 5 1007 86 10000 3.1 250 05:59 29.03.2020
5709 Clouds 5 1007 86 10000 2.6 250 04:56 29.03.2020
5710 Clouds 5 1007 86 10000 2.6 250 03:37 29.03.2020
5711 Clouds 5 1007 86 10000 2.6 250 01:57 29.03.2020
5712 Clouds 5 1007 86 10000 5.1 240 01:37 29.03.2020
5713 Clouds 5 1007 86 10000 5.1 240 01:19 29.03.2020
5714 Clouds 5 1007 81 10000 4.1 240 00:39 29.03.2020
5715 Clouds 5 1007 81 10000 4.1 240 00:18 29.03.2020
5716 Rain 5 1008 87 10000 3.1 250 23:40 28.03.2020
5717 Rain 6 1008 87 10000 3.1 250 23:22 28.03.2020
5718 Rain 6 1008 87 10000 4.1 250 22:43 28.03.2020
5719 Rain 6 1008 87 10000 4.1 250 22:22 28.03.2020
5720 Rain 6 1008 87 10000 4.1 250 21:57 28.03.2020
5721 Rain 6 1007 87 10000 3.1 250 21:39 28.03.2020
5722 Rain 7 1007 87 10000 3.1 250 21:19 28.03.2020
5723 Clouds 7 1007 87 8000 3.1 250 20:56 28.03.2020
5724 Clouds 7 1007 87 8000 3.1 250 20:37 28.03.2020
5725 Rain 7 1007 93 8000 3.1 250 20:18 28.03.2020
5726 Rain 7 1007 93 8000 3.1 250 19:55 28.03.2020
5727 Rain 7 1007 93 8000 3.1 250 19:36 28.03.2020
5728 Rain 7 1007 93 8000 3.1 250 19:18 28.03.2020
5729 Clouds 8 1006 93 8000 3.6 240 18:39 28.03.2020
5730 Clouds 8 1006 93 8000 3.6 240 18:39 28.03.2020
5731 Rain 8 1006 93 8000 3.6 240 18:20 28.03.2020
5732 Rain 8 1006 87 8000 4.1 230 17:42 28.03.2020
5733 Rain 8 1007 93 8000 3.6 240 17:22 28.03.2020
5734 Rain 9 1006 87 8000 4.1 240 16:59 28.03.2020
5735 Rain 9 1006 87 8000 4.1 240 16:39 28.03.2020
5736 Rain 9 1006 87 8000 4.1 240 16:18 28.03.2020
5737 Rain 9 1006 87 7000 5.7 240 15:40 28.03.2020
5738 Rain 9 1007 81 8000 5.1 240 15:20 28.03.2020
5739 Rain 9 1007 81 8000 5.1 240 14:59 28.03.2020
5740 Rain 9 1007 81 8000 5.1 240 14:40 28.03.2020
5741 Rain 9 1007 81 8000 5.1 240 14:21 28.03.2020
5742 Rain 10 1007 87 8000 4.1 240 13:43 28.03.2020
5743 Rain 10 1007 87 8000 4.1 240 13:23 28.03.2020
5744 Rain 10 1007 87 8000 4.6 250 12:41 28.03.2020
5745 Rain 10 1007 87 8000 4.6 250 12:23 28.03.2020
5746 Rain 10 1007 81 8000 2.6 250 11:55 28.03.2020
5747 Rain 10 1007 81 8000 2.6 250 11:37 28.03.2020
5748 Rain 10 1007 81 8000 2.6 250 11:18 28.03.2020
5749 Rain 10 1007 87 6000 2.1 40 10:39 28.03.2020
5750 Rain 10 1007 87 6000 2.1 310 10:20 28.03.2020
5751 Rain 10 1007 87 6000 2.1 310 09:43 28.03.2020
5752 Rain 10 1007 87 6000 2.1 310 09:24 28.03.2020
5753 Rain 10 1007 87 6000 2.1 310 08:58 28.03.2020
5754 Rain 10 1007 93 6000 1.5 270 08:40 28.03.2020
5755 Rain 9 1007 100 6000 0.5 0 08:21 28.03.2020
5756 Rain 9 1007 100 6000 0.5 0 07:44 28.03.2020
5757 Rain 9 1007 100 6000 0.5 0 07:26 28.03.2020
5758 Rain 9 1007 93 7000 1 0 06:36 28.03.2020
5759 Rain 8 1008 93 7000 0.5 270 05:54 28.03.2020
5760 Rain 9 1008 93 7000 0.5 270 05:21 28.03.2020
5761 Rain 9 1008 93 10000 1 260 04:41 28.03.2020
5762 Rain 9 1008 87 10000 1 0 03:54 28.03.2020
5763 Clouds 10 1008 87 10000 2.1 270 02:25 28.03.2020
5764 Clouds 10 1009 87 10000 1.5 220 01:41 28.03.2020
5765 Clouds 10 1009 87 10000 1.5 220 01:18 28.03.2020
5766 Clouds 10 1009 87 10000 2.24 42 00:37 28.03.2020
5767 Rain 10 1009 76 10000 1.5 300 23:57 27.03.2020
5768 Rain 10 1009 76 10000 1.5 300 23:39 27.03.2020
5769 Rain 10 1009 76 10000 1.5 300 23:21 27.03.2020
5770 Rain 11 1009 66 10000 3.1 250 22:56 27.03.2020
5771 Rain 11 1009 66 10000 3.1 250 22:37 27.03.2020
5772 Clouds 11 1009 62 10000 1.5 240 22:19 27.03.2020
5773 Clouds 12 1009 62 10000 1.5 240 21:45 27.03.2020
5774 Clouds 12 1009 62 10000 1.5 240 21:25 27.03.2020
5775 Clouds 12 1009 62 10000 1.5 240 20:59 27.03.2020
5776 Clouds 13 1009 54 10000 1 0 20:41 27.03.2020
5777 Clouds 13 1009 54 10000 5.1 80 20:21 27.03.2020
5778 Clouds 13 1009 54 10000 5.1 80 19:58 27.03.2020
5779 Clouds 13 1009 54 10000 5.1 80 19:40 27.03.2020
5780 Clouds 13 1009 54 10000 5.1 80 19:21 27.03.2020
5781 Clouds 14 1008 47 10000 1 70 18:45 27.03.2020
5782 Clouds 14 1008 47 10000 1 70 18:25 27.03.2020
5783 Clouds 15 1008 39 10000 2.1 100 17:59 27.03.2020
5784 Clouds 16 1008 39 10000 2.1 100 17:40 27.03.2020
5785 Clouds 16 1008 39 10000 2.1 100 17:20 27.03.2020
5786 Clouds 16 1008 33 10000 3.1 100 16:44 27.03.2020
5787 Clouds 16 1008 33 10000 3.1 100 16:26 27.03.2020
5788 Clouds 17 1008 33 10000 3.1 100 15:57 27.03.2020
5789 Clouds 17 1008 36 10000 5.1 80 15:39 27.03.2020
5790 Clouds 16 1008 36 10000 5.1 80 15:21 27.03.2020
5791 Clouds 17 1008 36 10000 1.5 0 14:45 27.03.2020
5792 Rain 16 1006 45 0 2.24 117 14:24 27.03.2020
5793 Clouds 16 1009 39 10000 1.5 0 13:56 27.03.2020
5794 Clouds 17 1009 39 10000 1.5 0 13:37 27.03.2020
5795 Clouds 17 1009 39 10000 1.5 0 13:18 27.03.2020
5796 Clouds 17 1010 33 10000 1.5 140 12:45 27.03.2020
5797 Clouds 17 1010 33 10000 1.5 140 12:20 27.03.2020
5798 Clouds 17 1010 36 10000 2.1 100 11:59 27.03.2020
5799 Clouds 17 1010 36 10000 2.1 100 11:41 27.03.2020
5800 Clouds 17 1010 36 10000 2.1 100 11:41 27.03.2020
5801 Clouds 16 1010 36 10000 2.1 100 11:22 27.03.2020
5802 Clouds 16 1011 44 10000 2.1 0 10:54 27.03.2020
5803 Clouds 16 1011 44 10000 2.1 0 10:54 27.03.2020
5804 Clouds 16 1011 44 10000 2.1 0 10:36 27.03.2020
5805 Clouds 15 1011 44 10000 2.1 0 10:18 27.03.2020
5806 Clouds 14 1011 47 10000 1.5 0 09:55 27.03.2020
5807 Clouds 14 1011 47 10000 1.5 0 09:36 27.03.2020
5808 Clouds 13 1011 47 10000 1.5 0 09:18 27.03.2020
5809 Clouds 11 1012 57 10000 0.5 0 08:54 27.03.2020
5810 Clouds 11 1012 57 10000 0.5 0 08:36 27.03.2020
5811 Clouds 11 1012 57 10000 0.5 0 08:18 27.03.2020
5812 Clouds 9 1012 70 10000 1 0 07:43 27.03.2020
5813 Clouds 7 1012 70 10000 1 0 07:21 27.03.2020
5814 Clouds 6 1011 80 10000 1 240 06:45 27.03.2020
5815 Clouds 6 1011 80 10000 1 240 06:26 27.03.2020
5816 Clouds 5 1011 57 10000 0.5 0 03:42 27.03.2020
5817 Clouds 6 1012 86 10000 0.5 0 02:25 27.03.2020
5818 Clouds 6 1012 52 10000 2.62 63 01:21 27.03.2020
5819 Clouds 7 1012 52 10000 1 230 00:45 27.03.2020
5820 Clouds 7 1012 52 10000 1 230 00:23 27.03.2020
5821 Clouds 7 1012 52 10000 1 0 23:42 26.03.2020
5822 Clouds 7 1012 47 10000 1 0 23:19 26.03.2020
5823 Clouds 8 1012 47 10000 2.31 60 22:58 26.03.2020
5824 Clouds 8 1012 47 10000 2.31 60 22:58 26.03.2020
5825 Clouds 8 1012 47 10000 2.31 60 22:37 26.03.2020
5826 Clouds 8 1012 47 10000 2.31 60 22:18 26.03.2020
5827 Clouds 9 1012 49 10000 1.5 50 21:40 26.03.2020
5828 Clouds 9 1012 49 10000 1.5 50 21:22 26.03.2020
5829 Clouds 10 1012 49 10000 1.5 50 20:59 26.03.2020
5830 Clouds 9 1012 47 0 2.31 60 20:40 26.03.2020
5831 Clouds 9 1012 47 0 2.69 59 20:22 26.03.2020
5832 Clouds 13 1012 35 10000 0.5 0 19:58 26.03.2020
5833 Clouds 13 1012 35 10000 0.5 0 19:40 26.03.2020
5834 Clouds 13 1012 35 10000 0.5 0 19:21 26.03.2020
5835 Clouds 14 1012 28 10000 3.1 70 18:58 26.03.2020
5836 Clouds 15 1012 28 10000 3.1 70 18:40 26.03.2020
5837 Clouds 14 1012 28 10000 3.1 70 18:22 26.03.2020
5838 Clouds 16 1012 29 10000 4.1 40 17:45 26.03.2020
5839 Clouds 15 1012 29 10000 4.1 40 17:20 26.03.2020
5840 Clouds 16 1012 27 10000 4.1 50 16:57 26.03.2020
5841 Clouds 16 1012 27 10000 4.1 50 16:38 26.03.2020
5842 Clouds 17 1012 27 10000 4.1 50 16:20 26.03.2020
5843 Clouds 17 1012 25 10000 3.6 70 15:56 26.03.2020
5844 Clouds 17 1012 25 10000 3.6 70 15:38 26.03.2020
5845 Clouds 17 1013 27 10000 3.6 70 15:18 26.03.2020
5846 Clouds 17 1013 27 10000 3.6 70 14:43 26.03.2020
5847 Clouds 16 1010 33 0 2.68 50 14:24 26.03.2020
5848 Clouds 17 1014 27 10000 4.6 90 13:56 26.03.2020
5849 Clouds 17 1014 27 10000 4.6 90 13:56 26.03.2020
5850 Clouds 17 1014 27 10000 4.6 90 13:38 26.03.2020
5851 Clouds 17 1014 27 10000 4.6 90 13:19 26.03.2020
5852 Clear 17 1014 25 10000 4.6 90 12:39 26.03.2020
5853 Clear 17 1014 25 10000 4.6 90 12:20 26.03.2020
5854 Clear 17 1014 25 10000 4.6 90 12:20 26.03.2020
5855 Clear 16 1015 29 10000 5.7 90 11:46 26.03.2020
5856 Clear 16 1015 29 10000 5.7 90 11:24 26.03.2020
5857 Clear 16 1015 31 10000 5.1 80 10:59 26.03.2020
5858 Clear 15 1015 31 10000 5.1 80 10:41 26.03.2020
5859 Clear 15 1015 31 10000 5.1 80 10:20 26.03.2020
5860 Clear 14 1016 41 10000 4.6 70 09:45 26.03.2020
5861 Clear 14 1016 41 10000 4.6 70 09:21 26.03.2020
5862 Clear 12 1017 50 10000 4.1 70 08:57 26.03.2020
5863 Clear 12 1017 50 10000 4.1 70 08:38 26.03.2020
5864 Clear 12 1017 50 10000 4.1 70 08:19 26.03.2020
5865 Clear 10 1017 53 10000 3.6 90 07:45 26.03.2020
5866 Clear 10 1017 53 10000 3.6 90 07:23 26.03.2020
5867 Clear 10 1017 53 10000 3.6 90 06:57 26.03.2020
5868 Clear 8 1014 64 0 0.45 295 06:32 26.03.2020
5869 Clear 6 1017 65 10000 0.5 0 05:29 26.03.2020
5870 Clear 5 1017 80 10000 0.5 0 03:45 26.03.2020
5871 Clear 7 1017 75 10000 2.42 59 02:56 26.03.2020
5872 Clear 7 1018 70 10000 1 0 01:51 26.03.2020
5873 Clear 7 1018 70 10000 3.26 44 00:56 26.03.2020
5874 Clear 7 1018 70 10000 3.26 44 00:22 26.03.2020
5875 Clear 8 1019 66 10000 3.26 44 23:41 25.03.2020
5876 Clear 8 1019 66 10000 1.68 51 23:22 25.03.2020
5877 Clear 8 1019 57 10000 1.68 51 22:42 25.03.2020
5878 Clear 9 1019 57 10000 1.68 51 22:22 25.03.2020
5879 Clear 9 1019 57 10000 1.68 51 21:57 25.03.2020
5880 Clear 8 1019 65 10000 1 220 21:38 25.03.2020
5881 Clear 9 1018 53 10000 0.5 0 21:20 25.03.2020
5882 Clear 9 1018 53 10000 0.5 0 20:56 25.03.2020
5883 Clear 10 1018 53 10000 0.5 0 20:37 25.03.2020
5884 Clouds 12 1017 47 10000 1 0 20:18 25.03.2020
5885 Clouds 12 1017 47 10000 1 0 19:43 25.03.2020
5886 Clouds 12 1017 47 10000 1 0 19:43 25.03.2020
5887 Clouds 12 1017 47 10000 1 0 19:23 25.03.2020
5888 Clouds 13 1016 41 10000 4.1 70 18:58 25.03.2020
5889 Clouds 14 1016 41 10000 4.1 70 18:40 25.03.2020
5890 Clouds 13 1016 41 10000 4.1 70 18:21 25.03.2020
5891 Clouds 14 1015 38 10000 4.6 60 17:55 25.03.2020
5892 Clouds 14 1015 38 10000 4.6 60 17:55 25.03.2020
5893 Clouds 16 1015 38 10000 4.6 60 17:37 25.03.2020
5894 Clouds 14 1015 38 10000 4.6 60 17:19 25.03.2020
5895 Clouds 16 1015 33 10000 4.1 360 16:43 25.03.2020
5896 Clouds 16 1015 33 10000 4.1 360 16:24 25.03.2020
5897 Clouds 16 1015 33 10000 4.1 360 15:59 25.03.2020
5898 Clouds 16 1016 37 10000 3.1 30 15:40 25.03.2020
5899 Clouds 16 1016 37 10000 3.1 30 15:19 25.03.2020
5900 Clouds 18 1015 31 10000 1 0 14:42 25.03.2020
5901 Clouds 17 1015 31 10000 1 0 14:22 25.03.2020
5902 Clouds 18 1015 31 10000 1 0 13:56 25.03.2020
5903 Clouds 16 1016 33 10000 1.5 0 13:38 25.03.2020
5904 Clouds 16 1016 33 10000 1.5 0 13:19 25.03.2020
5905 Clouds 16 1016 39 10000 2.6 80 12:37 25.03.2020
5906 Clouds 16 1016 39 10000 2.6 80 12:19 25.03.2020
5907 Clouds 15 1016 47 10000 2.1 110 11:55 25.03.2020
5908 Clouds 15 1016 47 10000 2.1 110 11:36 25.03.2020
5909 Clouds 15 1016 47 10000 2.1 110 11:36 25.03.2020
5910 Clouds 15 1016 47 10000 2.1 110 11:18 25.03.2020
5911 Clouds 14 1017 50 10000 1.5 0 10:55 25.03.2020
5912 Clouds 14 1017 50 10000 1.5 0 10:36 25.03.2020
5913 Clouds 14 1017 50 10000 1.5 0 10:18 25.03.2020
5914 Clouds 13 1017 58 10000 1.5 70 09:42 25.03.2020
5915 Clouds 13 1017 58 10000 1.5 70 09:22 25.03.2020
5916 Clouds 11 1017 66 10000 0.5 0 08:56 25.03.2020
5917 Clouds 10 1017 66 10000 0.5 0 08:38 25.03.2020
5918 Clouds 10 1017 66 10000 0.5 0 08:38 25.03.2020
5919 Clouds 10 1017 66 10000 0.5 0 08:19 25.03.2020
5920 Clouds 8 1016 87 10000 1 0 07:39 25.03.2020
5921 Clouds 8 1016 87 10000 1 0 07:20 25.03.2020
5922 Clouds 5 1016 93 6000 2.11 54 06:47 25.03.2020
5923 Clouds 5 1016 93 6000 2.11 54 06:26 25.03.2020
5924 Fog 5 1015 93 1500 2.11 54 05:53 25.03.2020
5925 Clouds 4 1014 93 6000 1.72 43 04:59 25.03.2020
5926 Clouds 4 1014 93 6000 1.72 43 04:39 25.03.2020
5927 Clouds 5 1014 93 10000 1.72 43 03:36 25.03.2020
5928 Clouds 6 1014 93 10000 0.5 0 01:58 25.03.2020
5929 Clouds 6 1014 93 10000 1.79 45 01:21 25.03.2020
5930 Clouds 8 1014 87 10000 1 220 00:48 25.03.2020
5931 Clouds 8 1014 87 10000 1 220 00:19 25.03.2020
5932 Clouds 8 1014 87 10000 2.1 220 23:45 24.03.2020
5933 Clouds 8 1014 87 10000 2.1 220 23:25 24.03.2020
5934 Clouds 9 1014 87 10000 2.1 230 22:56 24.03.2020
5935 Clouds 9 1014 87 10000 2.1 230 22:37 24.03.2020
5936 Rain 9 1014 87 10000 1.5 240 22:19 24.03.2020
5937 Rain 9 1014 87 10000 2.63 36 21:55 24.03.2020
5938 Rain 9 1014 87 10000 1.5 240 21:55 24.03.2020
5939 Rain 9 1014 87 10000 2.63 36 21:37 24.03.2020
5940 Rain 9 1014 87 10000 2.63 36 21:18 24.03.2020
5941 Rain 10 1013 76 10000 1 0 20:43 24.03.2020
5942 Clouds 10 1013 66 10000 0.5 0 20:24 24.03.2020
5943 Clouds 10 1013 66 10000 0.5 0 19:59 24.03.2020
5944 Clouds 9 1013 70 10000 0.5 0 19:41 24.03.2020
5945 Clouds 9 1013 70 10000 0.5 0 19:19 24.03.2020
5946 Clouds 10 1012 57 10000 2.1 230 18:55 24.03.2020
5947 Clouds 10 1012 57 10000 2.1 230 18:36 24.03.2020
5948 Clouds 10 1012 57 10000 2.1 230 18:18 24.03.2020
5949 Clouds 11 1012 62 10000 2.1 130 17:42 24.03.2020
5950 Clouds 11 1012 62 10000 2.1 130 17:23 24.03.2020
5951 Clouds 11 1012 81 10000 6.7 320 16:58 24.03.2020
5952 Clouds 11 1012 81 10000 6.7 320 16:40 24.03.2020
5953 Clouds 11 1011 62 10000 2.6 30 16:22 24.03.2020
5954 Clouds 11 1011 62 10000 4.6 280 15:58 24.03.2020
5955 Clouds 11 1011 62 10000 4.6 280 15:38 24.03.2020
5956 Rain 12 1011 50 10000 3.1 270 15:20 24.03.2020
5957 Rain 15 1010 41 10000 4.1 240 14:43 24.03.2020
5958 Clouds 15 1010 41 10000 3.6 150 14:20 24.03.2020
5959 Clouds 15 1010 36 10000 6.2 140 13:44 24.03.2020
5960 Clouds 15 1010 36 10000 6.2 140 13:24 24.03.2020
5961 Clouds 16 1010 39 10000 1 0 12:57 24.03.2020
5962 Rain 16 1010 39 10000 1 0 12:37 24.03.2020
5963 Rain 15 1010 39 10000 1 0 12:19 24.03.2020
5964 Clouds 15 1011 38 10000 1.5 0 11:40 24.03.2020
5965 Clouds 16 1011 38 10000 1.5 0 11:20 24.03.2020
5966 Clouds 15 1011 41 10000 5.1 30 10:43 24.03.2020
5967 Clouds 15 1011 41 10000 1 0 10:20 24.03.2020
5968 Clouds 15 1011 41 10000 1 0 10:20 24.03.2020
5969 Clouds 15 1011 41 10000 1 0 09:59 24.03.2020
5970 Clouds 14 1011 44 10000 4.6 40 09:41 24.03.2020
5971 Clouds 14 1011 44 10000 4.6 40 09:41 24.03.2020
5972 Clouds 13 1011 50 10000 5.1 360 09:22 24.03.2020
5973 Clouds 12 1012 53 10000 5.1 20 08:39 24.03.2020
5974 Clouds 12 1012 46 10000 3.1 100 08:21 24.03.2020
5975 Clouds 11 1012 57 10000 5.7 20 07:50 24.03.2020
5976 Clouds 10 1011 57 10000 1.92 80 07:25 24.03.2020
5977 Clouds 8 1011 61 10000 5.1 20 06:58 24.03.2020
5978 Clouds 8 1011 61 10000 5.1 20 06:32 24.03.2020
5979 Clouds 6 1011 81 10000 1.5 210 05:27 24.03.2020
5980 Clouds 7 1011 70 10000 5.7 30 04:41 24.03.2020
5981 Clouds 7 1011 70 10000 1.8 76 03:19 24.03.2020
5982 Clouds 7 1011 70 10000 2.6 360 01:50 24.03.2020
5983 Clouds 8 1011 70 10000 3.1 20 00:51 24.03.2020
5984 Clouds 8 1011 66 10000 0.5 0 00:26 24.03.2020
5985 Clouds 9 1011 70 10000 3.6 360 23:49 23.03.2020
5986 Clouds 9 1011 57 10000 1 220 23:27 23.03.2020
5987 Clouds 10 1011 57 10000 5.1 40 22:58 23.03.2020
5988 Clouds 10 1011 57 10000 5.1 40 22:39 23.03.2020
5989 Clouds 10 1012 53 10000 2.6 300 22:21 23.03.2020
5990 Clouds 11 1011 71 10000 3.6 340 21:44 23.03.2020
5991 Clouds 11 1011 54 10000 2.1 230 21:21 23.03.2020
5992 Clouds 11 1011 54 10000 2.1 230 20:58 23.03.2020
5993 Clouds 12 1012 57 10000 3.1 170 20:40 23.03.2020
5994 Clouds 12 1011 50 10000 2.1 130 20:22 23.03.2020
5995 Rain 12 1012 50 10000 1 0 19:54 23.03.2020
5996 Rain 12 1012 50 10000 1 0 19:36 23.03.2020
5997 Clouds 13 1011 41 10000 0.5 210 19:18 23.03.2020
5998 Clouds 13 1011 51 10000 0.5 0 18:42 23.03.2020
5999 Clouds 14 1011 38 10000 5.1 250 18:23 23.03.2020
6000 Clouds 15 1010 35 10000 3.1 30 17:56 23.03.2020
6001 Clouds 15 1010 35 10000 3.1 30 17:56 23.03.2020
6002 Clouds 15 1010 35 10000 3.1 30 17:38 23.03.2020
6003 Clouds 15 1010 38 10000 0.5 220 17:18 23.03.2020
6004 Clouds 16 1010 28 10000 1.5 200 16:43 23.03.2020
6005 Clouds 16 1010 26 10000 2.1 240 16:25 23.03.2020
6006 Clouds 16 1010 26 10000 1.5 230 15:43 23.03.2020
6007 Clouds 16 1010 38 10000 1 0 15:21 23.03.2020
6008 Clouds 17 1011 27 10000 1 0 14:57 23.03.2020
6009 Clouds 17 1011 27 10000 1 0 14:37 23.03.2020
6010 Clouds 17 1010 33 10000 2.1 190 14:18 23.03.2020
6011 Clouds 16 1011 29 10000 1 0 13:41 23.03.2020
6012 Clouds 17 1011 29 10000 2.1 190 13:22 23.03.2020
6013 Clouds 16 1011 29 10000 2.1 190 12:58 23.03.2020
6014 Clouds 16 1011 30 10000 2.1 0 12:58 23.03.2020
6015 Clouds 16 1011 30 10000 2.1 0 12:40 23.03.2020
6016 Clouds 16 1011 29 10000 2.6 170 12:21 23.03.2020
6017 Clouds 16 1012 33 10000 3.1 170 11:42 23.03.2020
6018 Clouds 16 1012 29 10000 2.1 160 11:21 23.03.2020
6019 Clouds 15 1013 30 10000 3.6 130 10:58 23.03.2020
6020 Clouds 15 1013 30 10000 3.6 130 10:39 23.03.2020
6021 Clouds 15 1013 41 10000 2.1 40 10:21 23.03.2020
6022 Clouds 13 1013 40 10000 0.5 0 09:57 23.03.2020
6023 Clouds 13 1013 40 10000 0.5 0 09:39 23.03.2020
6024 Clouds 13 1014 40 10000 1.5 40 09:18 23.03.2020
6025 Clouds 11 1014 53 10000 1.5 50 08:38 23.03.2020
6026 Clouds 10 1014 51 10000 3.1 70 08:19 23.03.2020
6027 Clouds 8 1014 51 10000 1 0 07:50 23.03.2020
6028 Clouds 8 1014 51 10000 1 0 07:32 23.03.2020
6029 Clouds 5 1014 80 10000 1 0 06:54 23.03.2020
6030 Clouds 5 1014 80 10000 0.5 0 06:32 23.03.2020
6031 Clouds 3 1014 51 10000 1.5 150 05:42 23.03.2020
6032 Clouds 4 1014 64 10000 0.5 60 03:45 23.03.2020
6033 Clouds 5 1014 64 10000 1 0 02:43 23.03.2020
6034 Clouds 5 1014 64 10000 0.5 20 01:39 23.03.2020
6035 Clouds 6 1014 69 10000 1 0 00:45 23.03.2020
6036 Clouds 6 1015 64 10000 1.23 122 23:58 22.03.2020
6037 Clouds 6 1015 64 10000 1.23 122 23:40 22.03.2020
6038 Clouds 6 1015 65 10000 1.34 128 23:22 22.03.2020
6039 Clouds 7 1015 59 10000 0.5 0 22:40 22.03.2020
6040 Clouds 7 1015 59 10000 1.34 128 22:20 22.03.2020
6041 Clouds 7 1015 65 10000 2.1 30 21:40 22.03.2020
6042 Clouds 7 1015 59 10000 0.5 0 21:21 22.03.2020
6043 Clouds 7 1015 59 10000 0.5 0 20:58 22.03.2020
6044 Clouds 6 1015 59 10000 0.5 0 20:40 22.03.2020
6045 Clouds 7 1015 57 10000 0.5 0 20:21 22.03.2020
6046 Clouds 8 1015 57 10000 0.5 0 19:56 22.03.2020
6047 Clouds 8 1015 57 10000 2.1 150 19:38 22.03.2020
6048 Clouds 9 1015 46 10000 1.07 59 19:19 22.03.2020
6049 Clouds 10 1015 46 10000 1.07 59 18:57 22.03.2020
6050 Clouds 10 1015 46 10000 1.07 59 18:39 22.03.2020
6051 Clouds 10 1014 43 10000 0.5 240 18:18 22.03.2020
6052 Clouds 13 1014 40 10000 1.5 270 17:56 22.03.2020
6053 Clouds 13 1014 40 10000 1.5 270 17:37 22.03.2020
6054 Clouds 13 1014 37 10000 2.1 270 17:19 22.03.2020
6055 Clouds 14 1014 30 10000 1.5 250 16:55 22.03.2020
6056 Clouds 14 1014 30 10000 1.5 250 16:37 22.03.2020
6057 Clouds 15 1014 30 10000 3.6 240 16:19 22.03.2020
6058 Clouds 15 1014 26 10000 2.6 220 15:39 22.03.2020
6059 Clouds 16 1014 25 10000 2.6 200 15:19 22.03.2020
6060 Clouds 16 1014 26 10000 1.5 0 14:46 22.03.2020
6061 Clouds 16 1014 25 10000 1 0 14:18 22.03.2020
6062 Clouds 15 1015 33 10000 3.6 230 13:42 22.03.2020
6063 Clouds 15 1015 28 10000 3.6 270 13:20 22.03.2020
6064 Clouds 15 1015 33 10000 3.6 210 12:47 22.03.2020
6065 Clouds 15 1015 30 10000 2.6 280 12:23 22.03.2020
6066 Clouds 15 1015 30 10000 2.6 280 12:23 22.03.2020
6067 Clouds 14 1016 30 10000 4.6 190 11:59 22.03.2020
6068 Clouds 13 1016 30 10000 4.6 190 11:41 22.03.2020
6069 Clear 13 1016 32 10000 2.1 0 11:23 22.03.2020
6070 Clouds 12 1016 28 10000 5.1 200 10:57 22.03.2020
6071 Clouds 12 1016 28 10000 5.1 200 10:39 22.03.2020
6072 Clear 11 1017 54 10000 1.5 0 10:20 22.03.2020
6073 Clouds 10 1016 43 10000 3.6 180 09:42 22.03.2020
6074 Clear 9 1017 43 10000 1.5 350 09:22 22.03.2020
6075 Clear 8 1017 61 10000 1.5 180 08:44 22.03.2020
6076 Clear 7 1017 61 10000 1.5 0 08:24 22.03.2020
6077 Clear 4 1017 57 6000 0.5 0 07:52 22.03.2020
6078 Clear 4 1017 57 6000 0.5 0 07:28 22.03.2020
6079 Mist 1 1017 80 4600 0.99 214 06:40 22.03.2020
6080 Clear -2 1017 92 6000 1 20 05:35 22.03.2020
6081 Clear -1 1016 92 8000 0.69 222 03:46 22.03.2020
6082 Clear 0 1016 78 7000 1 30 01:35 22.03.2020
6083 Clear 0 1016 79 7000 1.07 233 00:48 22.03.2020
6084 Clear 0 1017 80 10000 1.07 233 00:29 22.03.2020
6085 Clear 0 1017 80 7000 1 30 23:44 21.03.2020
6086 Clear 0 1016 80 10000 1.5 10 23:19 21.03.2020
6087 Clear 1 1016 86 10000 1 0 22:58 21.03.2020
6088 Clear 1 1016 86 10000 1 0 22:37 21.03.2020
6089 Clear 1 1016 74 10000 1.5 10 22:18 21.03.2020
6090 Clear 1 1016 73 10000 1 0 21:56 21.03.2020
6091 Clear 1 1016 73 10000 1 0 21:37 21.03.2020
6092 Clear 2 1016 73 10000 1 0 21:18 21.03.2020
6093 Clear 4 1016 73 10000 0.5 0 20:41 21.03.2020
6094 Clouds 4 1016 71 10000 2.1 100 20:20 21.03.2020
6095 Clouds 5 1016 71 10000 0.5 0 19:44 21.03.2020
6096 Clouds 5 1017 71 10000 1.09 240 19:25 21.03.2020
6097 Clouds 7 1016 71 10000 2.1 170 18:59 21.03.2020
6098 Clouds 7 1016 71 10000 2.1 170 18:39 21.03.2020
6099 Clouds 7 1016 71 10000 1.5 240 18:20 21.03.2020
6100 Clouds 9 1016 52 10000 3.1 220 17:57 21.03.2020
6101 Clouds 9 1016 52 10000 3.1 220 17:39 21.03.2020
6102 Clouds 10 1016 57 10000 3.1 250 17:20 21.03.2020
6103 Clouds 11 1016 40 10000 1 0 16:41 21.03.2020
6104 Clouds 11 1016 43 10000 2.1 290 16:22 21.03.2020
6105 Clouds 11 1016 43 10000 2.1 290 15:57 21.03.2020
6106 Clouds 12 1016 56 10000 1 0 15:39 21.03.2020
6107 Clouds 11 1016 43 10000 2.1 170 15:20 21.03.2020
6108 Clouds 11 1016 56 10000 1.5 0 14:55 21.03.2020
6109 Clouds 11 1016 56 10000 1.5 0 14:36 21.03.2020
6110 Clouds 11 1016 53 10000 1.5 0 14:18 21.03.2020
6111 Clouds 11 1016 53 10000 1.5 0 13:57 21.03.2020
6112 Clouds 11 1016 53 10000 1.5 0 13:38 21.03.2020
6113 Clouds 11 1017 53 10000 2.1 0 13:19 21.03.2020
6114 Clouds 9 1017 53 10000 2.1 200 12:40 21.03.2020
6115 Clouds 9 1018 49 10000 1.5 0 12:20 21.03.2020
6116 Clouds 8 1018 53 10000 2.1 360 11:59 21.03.2020
6117 Clouds 8 1018 53 10000 2.1 360 11:39 21.03.2020
6118 Clouds 8 1018 53 10000 2.1 360 11:39 21.03.2020
6119 Clouds 8 1018 49 10000 2.1 0 11:20 21.03.2020
6120 Clouds 7 1018 60 10000 2.1 10 10:58 21.03.2020
6121 Clouds 7 1018 60 10000 2.1 10 10:39 21.03.2020
6122 Clouds 6 1018 60 10000 2.6 30 10:21 21.03.2020
6123 Clouds 5 1018 60 10000 2.6 30 09:59 21.03.2020
6124 Clouds 5 1018 65 10000 2.6 30 09:39 21.03.2020
6125 Clouds 5 1019 60 10000 2.1 120 09:20 21.03.2020
6126 Clouds 5 1018 65 10000 4.1 50 08:55 21.03.2020
6127 Clouds 5 1018 65 10000 4.1 50 08:37 21.03.2020
6128 Clouds 4 1019 60 10000 1 0 08:18 21.03.2020
6129 Clouds 4 1018 69 10000 5.1 30 07:37 21.03.2020
6130 Clouds 4 1018 60 10000 3.6 80 07:18 21.03.2020
6131 Clouds 2 1018 69 10000 4.1 50 06:42 21.03.2020
6132 Clouds 2 1018 72 10000 0.36 93 06:23 21.03.2020
6133 Clouds 2 1018 74 10000 2.6 20 05:39 21.03.2020
6134 Clouds 1 1017 74 10000 3.6 30 03:39 21.03.2020
6135 Clouds 2 1017 74 10000 3.1 30 02:36 21.03.2020
6136 Clouds 2 1017 80 10000 2.1 360 01:44 21.03.2020
6137 Clouds 2 1017 74 10000 2.1 40 01:23 21.03.2020
6138 Clouds 3 1017 74 10000 2.1 350 00:39 21.03.2020
6139 Clouds 3 1018 69 10000 3.6 30 00:21 21.03.2020
6140 Clouds 3 1018 74 10000 1.5 90 23:42 20.03.2020
6141 Clouds 4 1018 60 10000 2.6 30 23:22 20.03.2020
6142 Clouds 3 1018 69 10000 3.6 40 22:44 20.03.2020
6143 Clouds 3 1018 69 10000 4.1 50 22:25 20.03.2020
6144 Clouds 3 1018 69 10000 5.1 50 21:58 20.03.2020
6145 Clouds 3 1018 69 10000 5.1 50 21:40 20.03.2020
6146 Clouds 3 1018 69 10000 3.1 30 21:20 20.03.2020
6147 Clouds 3 1018 69 10000 3.1 30 20:58 20.03.2020
6148 Clouds 3 1017 69 10000 4.1 10 20:40 20.03.2020
6149 Clouds 3 1017 69 10000 3.6 10 20:19 20.03.2020
6150 Clouds 3 1017 69 10000 4.1 10 19:47 20.03.2020
6151 Rain 3 1017 69 10000 4.1 20 19:20 20.03.2020
6152 Rain 4 1017 60 10000 5.1 10 18:57 20.03.2020
6153 Rain 4 1017 60 10000 5.1 10 18:38 20.03.2020
6154 Clouds 4 1016 64 10000 4.1 10 18:19 20.03.2020
6155 Clouds 4 1016 64 10000 5.7 10 17:56 20.03.2020
6156 Clouds 4 1016 64 10000 5.7 10 17:37 20.03.2020
6157 Clouds 5 1016 64 10000 5.7 10 17:18 20.03.2020
6158 Clouds 4 1016 64 10000 5.7 360 16:41 20.03.2020
6159 Clouds 4 1016 64 10000 5.7 360 16:41 20.03.2020
6160 Clouds 5 1015 64 10000 6.7 360 16:20 20.03.2020
6161 Rain 6 1015 60 10000 6.7 10 15:44 20.03.2020
6162 Rain 5 1015 56 10000 6.7 360 15:23 20.03.2020
6163 Clouds 6 1015 56 10000 6.2 10 14:58 20.03.2020
6164 Rain 6 1015 56 10000 6.2 10 14:40 20.03.2020
6165 Rain 6 1015 56 10000 5.1 350 14:20 20.03.2020
6166 Rain 6 1015 52 10000 3.1 20 13:48 20.03.2020
6167 Rain 6 1016 48 10000 4.1 50 13:22 20.03.2020
6168 Rain 6 1015 52 10000 4.1 10 12:58 20.03.2020
6169 Clouds 6 1015 52 10000 4.1 10 12:38 20.03.2020
6170 Rain 6 1016 48 10000 4.1 60 12:19 20.03.2020
6171 Rain 5 1016 52 10000 5.7 50 11:39 20.03.2020
6172 Rain 5 1016 48 10000 3.1 20 11:20 20.03.2020
6173 Rain 5 1016 52 10000 5.7 50 10:55 20.03.2020
6174 Rain 5 1016 52 10000 5.7 50 10:37 20.03.2020
6175 Rain 5 1016 52 10000 4.1 30 10:18 20.03.2020
6176 Rain 4 1016 55 10000 5.1 40 09:44 20.03.2020
6177 Rain 4 1017 55 10000 3.6 10 09:20 20.03.2020
6178 Clouds 3 1016 55 10000 5.7 30 08:57 20.03.2020
6179 Clouds 3 1016 55 10000 5.7 30 08:38 20.03.2020
6180 Clouds 3 1016 59 10000 5.1 10 08:18 20.03.2020
6181 Clouds 2 1016 64 10000 4.1 10 07:39 20.03.2020
6182 Clouds 2 1017 64 10000 1.5 160 07:21 20.03.2020
6183 Clouds 0 1016 74 10000 2.6 320 06:42 20.03.2020
6184 Clouds 0 1016 80 10000 1.96 358 06:18 20.03.2020
6185 Clouds -1 1015 74 10000 5.7 30 04:38 20.03.2020
6186 Clouds 0 1014 74 10000 4.1 30 02:50 20.03.2020
6187 Clouds 0 1015 74 10000 3.6 10 01:50 20.03.2020
6188 Clouds 1 1015 86 10000 3.1 360 00:45 20.03.2020
6189 Clouds 2 1016 69 10000 1.5 0 00:23 20.03.2020
6190 Clouds 1 1015 69 10000 1.5 10 23:42 19.03.2020
6191 Clouds 2 1016 69 10000 1.5 350 23:23 19.03.2020
6192 Clouds 1 1015 69 10000 1 0 22:41 19.03.2020
6193 Clouds 1 1016 69 10000 1 0 22:22 19.03.2020
6194 Clouds 2 1016 69 10000 1 0 21:58 19.03.2020
6195 Clouds 2 1015 69 10000 2.1 60 21:38 19.03.2020
6196 Clouds 2 1016 64 10000 1.5 0 21:19 19.03.2020
6197 Clouds 2 1016 64 10000 1.5 0 21:19 19.03.2020
6198 Clouds 2 1015 69 10000 4.1 30 20:44 19.03.2020
6199 Clouds 2 1016 64 10000 1.5 310 20:25 19.03.2020
6200 Clouds 2 1016 64 10000 1.5 310 19:59 19.03.2020
6201 Clouds 2 1015 69 10000 4.1 40 19:39 19.03.2020
6202 Clouds 2 1015 64 10000 1.5 10 19:20 19.03.2020
6203 Clouds 2 1015 69 10000 5.1 30 18:58 19.03.2020
6204 Clouds 2 1015 69 10000 5.1 30 18:40 19.03.2020
6205 Clouds 2 1015 59 10000 2.6 10 18:21 19.03.2020
6206 Clouds 2 1015 59 10000 2.6 10 18:21 19.03.2020
6207 Rain 3 1014 64 10000 5.1 20 17:44 19.03.2020
6208 Rain 3 1015 64 10000 4.1 20 17:20 19.03.2020
6209 Rain 3 1014 64 10000 5.7 20 16:58 19.03.2020
6210 Rain 3 1014 64 10000 5.7 20 16:39 19.03.2020
6211 Rain 3 1015 64 10000 3.1 20 16:21 19.03.2020
6212 Rain 3 1014 64 10000 3.6 330 15:42 19.03.2020
6213 Rain 4 1014 60 10000 3.6 20 15:23 19.03.2020
6214 Rain 4 1014 60 10000 3.6 20 15:23 19.03.2020
6215 Clouds 3 1014 55 10000 5.7 10 14:43 19.03.2020
6216 Rain 3 1014 64 6000 3.6 30 14:23 19.03.2020
6217 Rain 3 1014 64 6000 3.6 30 13:57 19.03.2020
6218 Rain 3 1014 64 6000 3.6 30 13:57 19.03.2020
6219 Clouds 3 1014 59 10000 4.1 10 13:37 19.03.2020
6220 Snow 3 1015 74 4000 2.1 30 13:18 19.03.2020
6221 Snow 2 1014 64 10000 3.6 40 12:41 19.03.2020
6222 Snow 2 1015 86 3500 1 0 12:22 19.03.2020
6223 Snow 1 1014 80 8000 2.6 340 11:57 19.03.2020
6224 Snow 1 1014 80 8000 2.6 340 11:57 19.03.2020
6225 Snow 1 1014 80 8000 2.6 340 11:38 19.03.2020
6226 Snow 1 1015 86 4000 1.5 180 11:20 19.03.2020
6227 Snow 1 1014 69 10000 3.6 30 10:41 19.03.2020
6228 Snow 1 1015 86 4000 1 200 10:20 19.03.2020
6229 Snow 0 1014 88 8000 3.1 70 09:57 19.03.2020
6230 Snow 0 1014 88 8000 3.1 70 09:37 19.03.2020
6231 Snow 0 1015 88 4000 1.5 230 09:18 19.03.2020
6232 Snow 0 1014 88 10000 1.5 340 08:42 19.03.2020
6233 Snow 0 1015 91 4500 2.6 250 08:21 19.03.2020
6234 Snow -1 1014 92 4800 1.5 340 07:46 19.03.2020
6235 Snow -1 1014 92 4800 1.5 340 07:28 19.03.2020
6236 Snow -1 1013 100 4800 1 320 06:48 19.03.2020
6237 Snow -1 1014 92 2000 0.5 0 05:52 19.03.2020
6238 Snow -1 1014 92 2800 2.1 329 04:59 19.03.2020
6239 Snow -1 1014 92 2800 2.1 329 04:40 19.03.2020
6240 Snow -2 1014 92 2700 1 270 02:50 19.03.2020
6241 Snow -2 1015 92 3500 2.1 270 01:25 19.03.2020
6242 Snow -2 1016 92 3300 2.1 240 00:32 19.03.2020
6243 Snow -1 1015 92 2800 1.5 270 23:57 18.03.2020
6244 Snow -1 1016 92 3500 2.1 260 23:30 18.03.2020
6245 Snow -2 1015 92 2800 1.5 290 22:58 18.03.2020
6246 Snow -2 1015 92 2800 1.5 290 22:39 18.03.2020
6247 Snow -2 1016 92 3200 1.5 270 22:21 18.03.2020
6248 Snow -1 1016 92 4000 0.5 0 21:42 18.03.2020
6249 Snow -1 1017 92 3200 0.5 0 21:22 18.03.2020
6250 Snow -1 1017 92 3200 0.5 0 20:59 18.03.2020
6251 Snow -1 1016 92 2700 1 0 20:40 18.03.2020
6252 Snow -1 1016 92 2700 1 0 20:40 18.03.2020
6253 Snow -1 1017 92 3500 1 0 20:20 18.03.2020
6254 Snow -1 1017 92 3500 1 0 19:58 18.03.2020
6255 Snow -1 1016 92 6000 2.1 30 19:39 18.03.2020
6256 Snow -1 1017 65 10000 3.1 350 19:20 18.03.2020
6257 Snow 0 1017 65 10000 4.1 20 18:42 18.03.2020
6258 Clouds 1 1017 51 10000 4.1 30 18:21 18.03.2020
6259 Clouds 1 1017 51 10000 4.1 30 18:21 18.03.2020
6260 Clouds 1 1016 65 10000 5.7 10 17:59 18.03.2020
6261 Clouds 1 1016 65 10000 5.7 10 17:41 18.03.2020
6262 Clouds 1 1016 47 10000 4.1 20 17:22 18.03.2020
6263 Clouds 2 1016 50 10000 8.7 10 16:58 18.03.2020
6264 Clouds 2 1016 50 10000 8.7 10 16:40 18.03.2020
6265 Clouds 2 1016 55 10000 7.2 350 16:20 18.03.2020
6266 Clouds 3 1015 43 10000 9.3 360 15:45 18.03.2020
6267 Clouds 3 1016 32 10000 5.1 360 15:23 18.03.2020
6268 Clouds 4 1015 34 10000 10.3 10 14:56 18.03.2020
6269 Clouds 4 1015 34 10000 10.3 10 14:38 18.03.2020
6270 Clouds 4 1016 41 10000 5.1 10 14:19 18.03.2020
6271 Clouds 4 1015 40 10000 10.3 360 13:38 18.03.2020
6272 Clouds 4 1016 35 10000 5.7 360 13:19 18.03.2020
6273 Clouds 3 1016 40 10000 8.7 10 12:42 18.03.2020
6274 Clouds 3 1017 38 10000 5.7 40 12:20 18.03.2020
6275 Clouds 3 1016 40 10000 7.7 360 11:41 18.03.2020
6276 Clouds 3 1018 38 10000 5.1 30 11:22 18.03.2020
6277 Clouds 2 1017 40 10000 5.1 30 10:58 18.03.2020
6278 Clouds 2 1017 40 10000 5.1 30 10:39 18.03.2020
6279 Clouds 2 1019 37 10000 4.6 50 10:20 18.03.2020
6280 Clouds 2 1019 37 10000 4.6 50 10:20 18.03.2020
6281 Clouds 2 1019 37 10000 4.6 50 09:59 18.03.2020
6282 Clouds 2 1018 40 10000 6.2 20 09:39 18.03.2020
6283 Clouds 2 1019 37 10000 5.1 40 09:21 18.03.2020
6284 Clouds 0 1018 38 10000 3.1 10 08:40 18.03.2020
6285 Clear -1 1020 45 10000 1.5 0 08:21 18.03.2020
6286 Clouds -2 1019 58 10000 1 0 07:49 18.03.2020
6287 Clear -2 1020 54 10000 2.1 220 07:31 18.03.2020
6288 Clouds -4 1019 62 10000 0.5 0 06:50 18.03.2020
6289 Clear -5 1020 58 10000 2.1 30 06:31 18.03.2020
6290 Clear -7 1019 78 10000 2.6 310 05:36 18.03.2020
6291 Clear -7 1020 73 10000 2.6 40 04:29 18.03.2020
6292 Clear -6 1020 58 10000 0.5 0 03:21 18.03.2020
6293 Clear -7 1020 62 10000 2.6 80 02:32 18.03.2020
6294 Clear -6 1020 58 10000 1 0 01:31 18.03.2020
6295 Clear -5 1020 67 10000 3.1 60 00:42 18.03.2020
6296 Clear -5 1021 63 10000 1.5 60 00:21 18.03.2020
6297 Clear -4 1021 58 10000 1.5 40 23:40 17.03.2020
6298 Clear -4 1021 58 10000 1.5 40 23:19 17.03.2020
6299 Clear -3 1021 67 10000 2.1 330 22:42 17.03.2020
6300 Clear -3 1022 54 10000 3.6 70 22:24 17.03.2020
6301 Clear -2 1021 68 10000 1 10 21:43 17.03.2020
6302 Clear -2 1022 67 10000 4.1 70 21:23 17.03.2020
6303 Clear -1 1021 63 10000 5.1 70 20:56 17.03.2020
6304 Clear -1 1021 63 10000 5.1 70 20:37 17.03.2020
6305 Clear -1 1022 58 10000 5.1 60 20:19 17.03.2020
6306 Clouds 0 1021 58 10000 4.6 80 19:41 17.03.2020
6307 Clear 0 1022 47 10000 4.6 60 19:18 17.03.2020
6308 Clouds 1 1021 60 10000 6.7 40 18:57 17.03.2020
6309 Clouds 1 1021 60 10000 6.7 40 18:39 17.03.2020
6310 Clouds 1 1021 37 10000 5.1 30 18:21 17.03.2020
6311 Clouds 2 1020 47 10000 5.1 20 17:55 17.03.2020
6312 Clouds 2 1020 47 10000 5.1 20 17:36 17.03.2020
6313 Clouds 3 1021 32 10000 4.6 20 17:18 17.03.2020
6314 Clouds 4 1020 32 10000 6.7 40 16:41 17.03.2020
6315 Clouds 4 1021 30 10000 4.6 30 16:19 17.03.2020
6316 Clouds 4 1020 32 10000 7.7 30 15:44 17.03.2020
6317 Clouds 5 1021 32 10000 5.7 20 15:22 17.03.2020
6318 Clouds 5 1020 32 10000 6.2 40 14:44 17.03.2020
6319 Clouds 4 1021 32 10000 5.7 30 14:24 17.03.2020
6320 Clouds 4 1021 32 10000 5.7 30 13:57 17.03.2020
6321 Clouds 4 1021 32 10000 7.7 50 13:39 17.03.2020
6322 Clouds 4 1021 32 10000 6.2 40 13:20 17.03.2020
6323 Clouds 4 1021 32 10000 9.3 40 12:43 17.03.2020
6324 Clouds 4 1022 32 10000 7.7 50 12:24 17.03.2020
6325 Clouds 3 1022 40 10000 7.7 30 11:48 17.03.2020
6326 Clouds 3 1023 34 10000 8.2 70 11:29 17.03.2020
6327 Clouds 2 1023 37 10000 8.2 50 10:58 17.03.2020
6328 Clouds 2 1023 37 10000 8.2 50 10:40 17.03.2020
6329 Clouds 2 1024 37 10000 9.3 50 10:22 17.03.2020
6330 Clouds 0 1023 37 10000 11.3 60 09:59 17.03.2020
6331 Clouds 0 1023 37 10000 11.3 60 09:40 17.03.2020
6332 Clouds 0 1025 38 10000 7.7 40 09:19 17.03.2020
6333 Clear -1 1024 46 10000 8.7 40 08:48 17.03.2020
6334 Clouds -1 1025 50 10000 7.7 40 08:23 17.03.2020
6335 Clear -2 1024 53 10000 9.3 30 07:56 17.03.2020
6336 Clear -2 1024 53 10000 9.3 30 07:38 17.03.2020
6337 Clouds -2 1025 54 10000 7.2 60 07:19 17.03.2020
6338 Clear -4 1024 58 10000 6.7 30 06:38 17.03.2020
6339 Clouds -5 1024 67 10000 4.6 10 05:58 17.03.2020
6340 Clouds -5 1023 67 10000 4.1 20 03:58 17.03.2020
6341 Clouds -4 1023 67 10000 4.1 10 02:54 17.03.2020
6342 Clouds -3 1023 68 10000 4.1 10 01:49 17.03.2020
6343 Clouds -3 1024 74 10000 4.6 40 01:25 17.03.2020
6344 Clouds -2 1023 63 10000 6.7 20 00:46 17.03.2020
6345 Snow -2 1023 74 10000 6.7 60 23:48 16.03.2020
6346 Clouds -2 1023 58 10000 5.1 20 23:30 16.03.2020
6347 Snow -1 1023 68 10000 6.2 10 22:41 16.03.2020
6348 Clouds -1 1023 85 10000 6.2 40 22:23 16.03.2020
6349 Clouds -1 1023 85 10000 6.2 40 21:58 16.03.2020
6350 Snow 0 1023 74 10000 6.7 20 21:40 16.03.2020
6351 Clouds 0 1023 64 10000 5.1 30 21:21 16.03.2020
6352 Snow 1 1023 85 10000 7.2 30 20:56 16.03.2020
6353 Snow 1 1023 85 10000 7.2 30 20:37 16.03.2020
6354 Clouds 1 1024 64 10000 4.6 50 20:19 16.03.2020
6355 Clouds 1 1022 76 10000 5.1 40 19:41 16.03.2020
6356 Clouds 1 1023 64 10000 6.2 50 19:20 16.03.2020
6357 Clouds 2 1022 74 10000 5.7 50 18:43 16.03.2020
6358 Clouds 2 1022 51 10000 6.2 40 18:21 16.03.2020
6359 Clouds 2 1022 74 10000 6.7 40 17:56 16.03.2020
6360 Clouds 2 1022 74 10000 6.7 40 17:56 16.03.2020
6361 Clouds 3 1022 74 10000 6.7 40 17:37 16.03.2020
6362 Clouds 3 1022 51 10000 5.1 40 17:18 16.03.2020
6363 Clouds 3 1021 69 10000 6.7 40 16:44 16.03.2020
6364 Clouds 3 1021 60 10000 6.2 40 16:24 16.03.2020
6365 Clouds 3 1021 64 10000 4.1 80 15:45 16.03.2020
6366 Rain 3 1021 64 10000 5.7 70 15:27 16.03.2020
6367 Snow 3 1020 74 10000 7.7 40 14:49 16.03.2020
6368 Snow 3 1020 74 10000 7.7 40 14:27 16.03.2020
6369 Rain 3 1021 64 10000 6.7 50 13:58 16.03.2020
6370 Clouds 3 1020 80 10000 7.2 40 13:40 16.03.2020
6371 Clouds 4 1021 64 10000 6.2 40 13:21 16.03.2020
6372 Snow 4 1021 60 6000 6.7 30 12:44 16.03.2020
6373 Clouds 4 1021 60 10000 6.7 60 12:23 16.03.2020
6374 Clouds 4 1021 69 10000 6.7 50 11:46 16.03.2020
6375 Clouds 5 1021 60 10000 7.7 50 11:27 16.03.2020
6376 Clouds 5 1021 60 10000 7.7 50 11:27 16.03.2020
6377 Clouds 5 1021 64 10000 7.2 50 10:56 16.03.2020
6378 Clouds 5 1021 64 10000 7.2 50 10:37 16.03.2020
6379 Clouds 5 1021 60 10000 8.2 40 10:18 16.03.2020
6380 Clouds 4 1021 69 10000 7.7 60 09:42 16.03.2020
6381 Clouds 4 1021 65 10000 6.7 50 09:21 16.03.2020
6382 Clouds 4 1021 69 10000 7.7 50 08:49 16.03.2020
6383 Clouds 4 1021 69 10000 5.1 30 08:25 16.03.2020
6384 Clouds 3 1021 69 10000 5.7 30 07:45 16.03.2020
6385 Rain 3 1020 69 10000 5.7 30 07:21 16.03.2020
6386 Rain 3 1020 80 10000 7.2 30 06:51 16.03.2020
6387 Rain 3 1020 64 10000 4.6 20 06:23 16.03.2020
6388 Rain 3 1018 80 10000 7.2 40 04:54 16.03.2020
6389 Clouds 3 1018 74 10000 5.7 40 02:40 16.03.2020
6390 Rain 5 1017 81 10000 5.7 50 00:49 16.03.2020
6391 Rain 5 1017 81 10000 5.7 50 00:30 16.03.2020
6392 Rain 5 1016 80 10000 4.6 30 23:42 15.03.2020
6393 Clouds 5 1016 67 10000 2.1 250 23:20 15.03.2020
6394 Clouds 6 1016 81 10000 4.6 30 22:42 15.03.2020
6395 Clouds 6 1017 67 10000 4.1 300 22:22 15.03.2020
6396 Clouds 6 1016 81 10000 6.2 40 21:55 15.03.2020
6397 Rain 6 1016 81 10000 6.2 40 21:37 15.03.2020
6398 Rain 6 1016 70 10000 3.6 240 21:18 15.03.2020
6399 Rain 7 1015 87 10000 5.1 20 20:42 15.03.2020
6400 Rain 7 1015 61 10000 2.1 0 20:20 15.03.2020
6401 Rain 8 1015 61 10000 2.1 0 19:56 15.03.2020
6402 Rain 9 1014 81 10000 4.1 300 19:38 15.03.2020
6403 Rain 9 1014 61 10000 5.7 290 19:19 15.03.2020
6404 Rain 10 1013 61 10000 3.6 320 18:55 15.03.2020
6405 Rain 10 1013 61 10000 3.6 320 18:36 15.03.2020
6406 Clouds 11 1012 50 10000 1.5 0 18:18 15.03.2020
6407 Clouds 13 1012 50 10000 3.6 320 17:40 15.03.2020
6408 Clouds 13 1011 41 10000 1.5 0 17:20 15.03.2020
6409 Clouds 15 1011 41 10000 5.1 310 16:56 15.03.2020
6410 Clouds 15 1011 41 10000 5.1 310 16:38 15.03.2020
6411 Clouds 16 1010 33 10000 3.6 240 16:19 15.03.2020
6412 Clouds 16 1011 36 10000 6.7 250 15:43 15.03.2020
6413 Clouds 17 1011 36 10000 6.7 250 15:25 15.03.2020
6414 Clouds 18 1010 46 10000 5.7 260 14:55 15.03.2020
6415 Clouds 18 1010 46 10000 5.7 260 14:37 15.03.2020
6416 Clouds 18 1010 29 10000 7.7 250 14:18 15.03.2020
6417 Clouds 18 1010 31 10000 7.7 230 13:40 15.03.2020
6418 Clouds 18 1010 36 10000 7.2 230 13:21 15.03.2020
6419 Clouds 17 1011 33 10000 6.7 240 12:58 15.03.2020
6420 Clouds 17 1011 33 10000 6.7 240 12:38 15.03.2020
6421 Clouds 17 1011 39 10000 7.2 260 12:20 15.03.2020
6422 Clouds 15 1012 38 10000 6.7 220 11:42 15.03.2020
6423 Clouds 15 1012 41 10000 1.5 0 11:22 15.03.2020
6424 Clouds 14 1012 41 10000 5.7 210 10:57 15.03.2020
6425 Clouds 14 1012 41 10000 5.7 210 10:38 15.03.2020
6426 Clouds 14 1013 43 10000 2.6 270 10:20 15.03.2020
6427 Clouds 13 1012 47 10000 5.86 244 09:42 15.03.2020
6428 Clouds 13 1013 50 10000 1 0 09:22 15.03.2020
6429 Clouds 11 1013 57 10000 1 0 08:58 15.03.2020
6430 Clouds 10 1013 57 10000 1 0 08:39 15.03.2020
6431 Clouds 10 1013 53 10000 0.5 0 08:18 15.03.2020
6432 Clouds 8 1013 65 10000 2.16 112 07:44 15.03.2020
6433 Clouds 5 1013 66 10000 0.5 0 06:55 15.03.2020
6434 Clouds 5 1013 66 10000 0.5 0 06:34 15.03.2020
6435 Clouds 4 1013 69 10000 0.5 0 05:46 15.03.2020
6436 Clouds 4 1013 74 10000 0.5 0 04:49 15.03.2020
6437 Clouds 4 1013 74 10000 0.5 0 04:29 15.03.2020
6438 Clouds 4 1013 69 10000 1.83 108 03:55 15.03.2020
6439 Clouds 5 1013 64 10000 0.5 0 02:48 15.03.2020
6440 Clear 5 1014 74 10000 0.5 0 01:50 15.03.2020
6441 Clouds 6 1014 60 10000 1.5 140 00:51 15.03.2020
6442 Clouds 6 1014 60 10000 1.5 140 00:51 15.03.2020
6443 Clouds 6 1014 60 10000 1.74 101 00:28 15.03.2020
6444 Clouds 7 1014 60 10000 1.5 10 23:58 14.03.2020
6445 Clouds 7 1014 60 10000 1.5 10 23:37 14.03.2020
6446 Clear 7 1014 56 10000 1.56 64 23:18 14.03.2020
6447 Clear 8 1014 60 10000 0.5 260 22:44 14.03.2020
6448 Clear 8 1014 60 10000 0.5 260 22:26 14.03.2020
6449 Clear 10 1015 52 10000 1 0 21:57 14.03.2020
6450 Clear 9 1015 52 10000 1 0 21:37 14.03.2020
6451 Clear 10 1014 37 10000 2.1 200 21:18 14.03.2020
6452 Clear 9 1014 37 10000 2.1 200 20:59 14.03.2020
6453 Clear 10 1014 45 10000 1.5 60 20:40 14.03.2020
6454 Clear 10 1014 46 10000 1.5 240 20:19 14.03.2020
6455 Clear 12 1014 40 10000 1 0 19:56 14.03.2020
6456 Clear 12 1014 40 10000 1 0 19:38 14.03.2020
6457 Clear 13 1014 37 10000 1 0 19:19 14.03.2020
6458 Clear 14 1014 32 10000 0.5 0 18:37 14.03.2020
6459 Clear 14 1013 31 10000 2.1 240 18:19 14.03.2020
6460 Clear 17 1013 33 10000 2.1 250 17:39 14.03.2020
6461 Clear 17 1012 33 10000 3.1 250 17:20 14.03.2020
6462 Clear 19 1012 27 10000 4.1 260 16:41 14.03.2020
6463 Clear 19 1012 24 10000 4.1 260 16:23 14.03.2020
6464 Clear 19 1012 24 10000 4.1 260 16:23 14.03.2020
6465 Clear 19 1012 24 10000 4.1 260 15:59 14.03.2020
6466 Clear 20 1012 19 10000 3.6 250 15:27 14.03.2020
6467 Clouds 20 1012 15 10000 3.1 260 14:59 14.03.2020
6468 Clouds 20 1012 15 10000 3.1 260 14:37 14.03.2020
6469 Clear 20 1012 28 10000 2.6 0 14:19 14.03.2020
6470 Clouds 20 1012 19 10000 3.1 250 13:54 14.03.2020
6471 Clouds 20 1012 19 10000 3.1 250 13:36 14.03.2020
6472 Clouds 19 1012 24 10000 2.1 0 13:18 14.03.2020
6473 Clouds 19 1012 30 10000 3.1 330 12:42 14.03.2020
6474 Clear 19 1013 37 10000 3.1 0 12:23 14.03.2020
6475 Clouds 18 1012 30 10000 2.1 210 11:43 14.03.2020
6476 Clouds 18 1013 30 10000 2.1 250 11:24 14.03.2020
6477 Clouds 17 1012 31 10000 3.6 250 10:47 14.03.2020
6478 Rain 17 1013 48 10000 3.6 270 10:28 14.03.2020
6479 Rain 17 1013 48 10000 3.6 270 09:59 14.03.2020
6480 Clouds 16 1012 39 10000 4.6 280 09:40 14.03.2020
6481 Clouds 16 1012 55 10000 3.1 190 09:20 14.03.2020
6482 Clouds 16 1012 55 10000 2.6 190 08:46 14.03.2020
6483 Clouds 16 1012 55 10000 2.6 190 08:26 14.03.2020
6484 Clouds 12 1012 66 10000 0.5 0 07:40 14.03.2020
6485 Clouds 12 1012 71 10000 1.5 270 07:21 14.03.2020
6486 Clouds 9 1012 76 10000 1.5 70 06:45 14.03.2020
6487 Clouds 9 1012 76 10000 1.5 70 06:45 14.03.2020
6488 Clouds 8 1012 87 10000 0.5 0 06:26 14.03.2020
6489 Clouds 11 1011 76 10000 1 160 04:53 14.03.2020
6490 Clouds 11 1011 81 10000 1.5 220 03:34 14.03.2020
6491 Clouds 11 1011 81 10000 1.5 220 03:34 14.03.2020
6492 Clouds 12 1010 76 10000 0.5 0 02:48 14.03.2020
6493 Clouds 13 1010 71 10000 0.5 0 01:42 14.03.2020
6494 Clouds 13 1010 62 10000 0.5 0 00:23 14.03.2020
6495 Clouds 14 1010 71 10000 1.5 10 23:42 13.03.2020
6496 Clouds 14 1010 58 10000 3.1 70 23:22 13.03.2020
6497 Clouds 14 1010 66 10000 2.1 20 22:41 13.03.2020
6498 Clouds 14 1010 54 10000 2.1 70 22:22 13.03.2020
6499 Clouds 14 1010 66 10000 3.1 30 21:40 13.03.2020
6500 Clouds 14 1009 58 10000 3.6 60 21:19 13.03.2020
6501 Clouds 15 1010 62 10000 5.1 70 20:42 13.03.2020
6502 Clouds 15 1009 51 10000 4.6 70 20:22 13.03.2020
6503 Clouds 16 1010 62 10000 4.1 50 19:57 13.03.2020
6504 Clouds 16 1010 62 10000 4.1 50 19:39 13.03.2020
6505 Clouds 16 1008 48 10000 4.1 70 19:18 13.03.2020
6506 Clouds 16 1009 54 10000 4.6 50 18:40 13.03.2020
6507 Clouds 16 1008 48 10000 5.7 60 18:22 13.03.2020
6508 Clouds 17 1008 48 10000 4.1 40 17:42 13.03.2020
6509 Clouds 17 1007 42 10000 4.6 60 17:21 13.03.2020
6510 Clouds 17 1008 48 10000 4.6 80 16:56 13.03.2020
6511 Clouds 17 1008 48 10000 4.6 80 16:38 13.03.2020
6512 Clouds 18 1007 45 10000 5.1 60 16:20 13.03.2020
6513 Clouds 18 1008 45 10000 6.2 60 15:43 13.03.2020
6514 Clouds 18 1007 42 10000 5.1 50 15:22 13.03.2020
6515 Clouds 18 1007 42 10000 5.1 50 14:57 13.03.2020
6516 Clouds 18 1008 42 10000 5.7 80 14:38 13.03.2020
6517 Clouds 19 1009 42 10000 6.7 80 14:18 13.03.2020
6518 Clouds 19 1009 39 10000 7.2 80 13:42 13.03.2020
6519 Clouds 19 1008 37 10000 5.1 90 13:22 13.03.2020
6520 Clouds 20 1009 37 10000 6.2 70 12:58 13.03.2020
6521 Clouds 20 1009 37 10000 6.2 70 12:38 13.03.2020
6522 Clouds 19 1009 37 10000 5.1 90 12:19 13.03.2020
6523 Clouds 19 1010 39 10000 6.2 70 11:55 13.03.2020
6524 Clouds 19 1010 39 10000 6.2 70 11:36 13.03.2020
6525 Clouds 19 1009 39 10000 6.7 70 11:36 13.03.2020
6526 Clouds 18 1009 39 10000 6.7 70 11:18 13.03.2020
6527 Clouds 18 1011 42 10000 7.2 70 10:42 13.03.2020
6528 Clouds 18 1010 39 10000 5.1 50 10:24 13.03.2020
6529 Clouds 17 1011 41 10000 6.7 60 09:46 13.03.2020
6530 Clouds 17 1011 41 10000 6.7 60 09:27 13.03.2020
6531 Clouds 14 1012 47 10000 7.7 20 08:56 13.03.2020
6532 Clouds 14 1012 47 10000 7.7 20 08:37 13.03.2020
6533 Clouds 12 1012 47 10000 8.2 20 08:18 13.03.2020
6534 Clouds 12 1012 50 10000 7.2 30 07:43 13.03.2020
6535 Clouds 11 1012 46 10000 2.6 70 07:22 13.03.2020
6536 Clouds 8 1013 61 10000 3.1 360 06:46 13.03.2020
6537 Clouds 7 1012 70 10000 0.5 0 06:20 13.03.2020
6538 Clouds 7 1013 70 10000 3.6 30 05:43 13.03.2020
6539 Clouds 8 1013 75 10000 6.2 30 04:39 13.03.2020
6540 Clouds 8 1013 70 10000 4.1 10 03:50 13.03.2020
6541 Clouds 9 1014 65 10000 5.7 30 01:49 13.03.2020
6542 Clouds 9 1013 53 10000 3.1 90 01:19 13.03.2020
6543 Clouds 10 1015 65 10000 3.1 360 00:56 13.03.2020
6544 Clouds 10 1015 65 10000 3.1 360 00:38 13.03.2020
6545 Clouds 10 1014 50 10000 5.1 80 00:18 13.03.2020
6546 Clouds 10 1014 50 10000 4.1 80 23:29 12.03.2020
6547 Clouds 10 1015 61 10000 5.7 30 22:59 12.03.2020
6548 Clouds 10 1015 61 10000 5.7 30 22:41 12.03.2020
6549 Clouds 10 1014 50 10000 2.1 70 22:23 12.03.2020
6550 Clouds 11 1015 57 10000 5.7 20 21:54 12.03.2020
6551 Clouds 11 1015 57 10000 5.7 20 21:36 12.03.2020
6552 Clouds 11 1015 46 10000 3.67 56 21:18 12.03.2020
6553 Clouds 12 1015 53 10000 4.6 20 20:41 12.03.2020
6554 Clouds 12 1015 53 10000 4.6 20 20:41 12.03.2020
6555 Clouds 12 1015 46 10000 0.5 40 20:19 12.03.2020
6556 Clouds 12 1016 46 10000 3.6 360 19:42 12.03.2020
6557 Clouds 13 1016 43 10000 3.1 20 19:21 12.03.2020
6558 Clouds 13 1016 43 10000 3.1 20 19:21 12.03.2020
6559 Clouds 14 1016 46 10000 3.6 20 18:45 12.03.2020
6560 Clouds 14 1015 46 10000 3.6 70 18:25 12.03.2020
6561 Clouds 16 1016 33 10000 3.6 80 17:57 12.03.2020
6562 Clouds 16 1016 33 10000 3.6 80 17:39 12.03.2020
6563 Clouds 16 1015 39 10000 5.1 70 17:21 12.03.2020
6564 Clouds 18 1015 29 10000 5.7 60 16:58 12.03.2020
6565 Clouds 18 1015 29 10000 5.7 60 16:38 12.03.2020
6566 Clouds 18 1015 25 10000 5.7 40 16:19 12.03.2020
6567 Clouds 19 1016 27 10000 5.1 40 15:45 12.03.2020
6568 Clouds 19 1016 24 10000 4.6 30 15:27 12.03.2020
6569 Clouds 19 1016 25 10000 4.1 30 14:42 12.03.2020
6570 Clouds 18 1017 25 10000 4.6 30 14:24 12.03.2020
6571 Clouds 18 1017 23 10000 5.1 20 13:57 12.03.2020
6572 Clouds 18 1017 23 10000 5.1 20 13:37 12.03.2020
6573 Clouds 18 1017 25 10000 5.1 20 13:19 12.03.2020
6574 Clouds 18 1017 33 10000 4.1 40 12:41 12.03.2020
6575 Clouds 18 1018 27 10000 5.7 10 12:22 12.03.2020
6576 Clouds 17 1018 33 10000 4.6 20 11:57 12.03.2020
6577 Clouds 17 1018 33 10000 4.6 20 11:39 12.03.2020
6578 Clear 17 1019 35 10000 5.1 30 11:20 12.03.2020
6579 Clear 16 1019 35 10000 4.1 40 10:59 12.03.2020
6580 Clear 16 1019 35 10000 4.1 40 10:40 12.03.2020
6581 Clear 16 1019 35 10000 4.1 40 10:40 12.03.2020
6582 Clear 14 1019 36 10000 3.1 30 10:22 12.03.2020
6583 Clear 13 1019 38 10000 2.6 20 09:47 12.03.2020
6584 Clear 13 1019 38 10000 2.6 20 09:28 12.03.2020
6585 Clear 11 1019 53 10000 1 0 08:46 12.03.2020
6586 Clouds 10 1019 57 10000 0.5 0 08:21 12.03.2020
6587 Clouds 10 1019 57 10000 0.5 0 07:59 12.03.2020
6588 Clouds 7 1019 70 10000 1.5 100 07:41 12.03.2020
6589 Clouds 7 1019 80 10000 1 0 07:21 12.03.2020
6590 Clouds 7 1019 80 10000 1 0 07:21 12.03.2020
6591 Clouds 3 1019 54 10000 1.64 49 05:55 12.03.2020
6592 Clouds 2 1019 54 10000 1.64 49 05:26 12.03.2020
6593 Clouds 4 1018 74 10000 0.5 10 02:43 12.03.2020
6594 Clouds 6 1018 74 10000 0.5 0 01:38 12.03.2020
6595 Clouds 6 1018 66 10000 1.5 50 01:20 12.03.2020
6596 Clouds 6 1018 68 10000 1.5 10 00:41 12.03.2020
6597 Clouds 7 1018 75 10000 1.5 70 23:56 11.03.2020
6598 Clouds 7 1018 68 10000 0.8 38 23:26 11.03.2020
6599 Clouds 8 1018 70 10000 1.59 27 22:55 11.03.2020
6600 Clouds 8 1018 70 10000 1.59 27 22:37 11.03.2020
6601 Clouds 8 1018 70 10000 1.59 27 22:18 11.03.2020
6602 Clouds 9 1018 61 10000 0.5 0 21:41 11.03.2020
6603 Clouds 10 1018 61 10000 1.5 60 21:23 11.03.2020
6604 Clouds 10 1018 61 10000 1.5 60 21:23 11.03.2020
6605 Clouds 9 1018 61 10000 1.5 60 20:59 11.03.2020
6606 Clouds 10 1018 57 10000 1 0 20:40 11.03.2020
6607 Clouds 10 1017 53 10000 3.1 260 20:20 11.03.2020
6608 Clouds 10 1017 53 10000 1.5 50 19:58 11.03.2020
6609 Clouds 10 1017 53 10000 1.5 50 19:39 11.03.2020
6610 Clouds 11 1017 50 10000 1 0 19:21 11.03.2020
6611 Clouds 11 1017 56 10000 1.5 0 18:44 11.03.2020
6612 Clouds 12 1017 56 10000 0.5 0 18:25 11.03.2020
6613 Clouds 12 1017 56 10000 2.6 340 17:59 11.03.2020
6614 Clouds 12 1017 56 10000 2.6 340 17:40 11.03.2020
6615 Clouds 14 1016 40 10000 2.6 320 17:21 11.03.2020
6616 Clouds 14 1016 40 10000 2.6 310 16:55 11.03.2020
6617 Clouds 14 1016 40 10000 2.6 310 16:37 11.03.2020
6618 Clouds 15 1016 33 10000 2.1 280 16:19 11.03.2020
6619 Clouds 15 1016 33 10000 2.6 250 15:42 11.03.2020
6620 Clouds 16 1016 31 10000 2.6 230 15:22 11.03.2020
6621 Clouds 16 1016 40 10000 2.1 310 14:44 11.03.2020
6622 Clouds 16 1016 40 10000 3.1 220 14:23 11.03.2020
6623 Clouds 16 1016 38 10000 3.1 220 13:57 11.03.2020
6624 Clouds 16 1016 36 10000 1.5 0 13:38 11.03.2020
6625 Clouds 14 1016 38 10000 2.1 80 13:20 11.03.2020
6626 Clouds 14 1017 41 10000 2.1 270 12:40 11.03.2020
6627 Clouds 14 1017 41 10000 3.6 220 12:21 11.03.2020
6628 Clouds 14 1017 44 10000 3.1 10 11:57 11.03.2020
6629 Clouds 14 1017 44 10000 3.1 10 11:57 11.03.2020
6630 Clouds 14 1017 44 10000 3.1 10 11:38 11.03.2020
6631 Clouds 14 1019 50 10000 1.5 290 11:19 11.03.2020
6632 Clouds 14 1018 44 10000 2.6 300 10:43 11.03.2020
6633 Clouds 12 1018 50 10000 2.1 320 10:19 11.03.2020
6634 Clouds 12 1018 54 10000 1 0 09:43 11.03.2020
6635 Clouds 11 1018 62 10000 1 0 09:25 11.03.2020
6636 Clouds 11 1018 62 10000 1 0 08:58 11.03.2020
6637 Clouds 9 1019 61 10000 1 0 08:40 11.03.2020
6638 Clouds 9 1019 70 10000 1 0 08:19 11.03.2020
6639 Clouds 7 1019 75 10000 1 0 07:44 11.03.2020
6640 Clouds 7 1019 81 10000 1.5 200 07:19 11.03.2020
6641 Clouds 4 1018 86 10000 0.5 0 06:46 11.03.2020
6642 Clouds 2 1018 93 10000 1 0 05:41 11.03.2020
6643 Clouds 3 1018 89 10000 2.1 350 04:50 11.03.2020
6644 Clouds 4 1017 80 10000 0.5 0 02:30 11.03.2020
6645 Clouds 5 1016 86 10000 2.1 270 01:30 11.03.2020
6646 Clouds 7 1017 75 10000 0.5 0 00:47 11.03.2020
6647 Clouds 7 1017 75 10000 0.5 30 00:18 11.03.2020
6648 Clouds 7 1016 75 10000 1 0 23:40 10.03.2020
6649 Clouds 7 1016 81 10000 1.5 220 23:21 10.03.2020
6650 Clouds 8 1016 70 10000 3.1 150 22:40 10.03.2020
6651 Clouds 8 1016 70 10000 3.54 227 22:20 10.03.2020
6652 Clouds 8 1016 70 10000 1 160 21:57 10.03.2020
6653 Clouds 8 1016 70 10000 1 160 21:39 10.03.2020
6654 Clouds 8 1016 70 10000 1 160 21:39 10.03.2020
6655 Clouds 8 1016 66 10000 3.54 227 21:20 10.03.2020
6656 Clouds 9 1016 66 10000 3.54 227 20:59 10.03.2020
6657 Clouds 9 1015 66 10000 1 0 20:41 10.03.2020
6658 Clouds 9 1015 70 10000 2.1 220 20:18 10.03.2020
6659 Clouds 9 1015 66 10000 1 0 19:57 10.03.2020
6660 Clouds 9 1015 66 10000 1 0 19:38 10.03.2020
6661 Clouds 9 1015 66 10000 1 0 19:38 10.03.2020
6662 Clouds 10 1015 61 10000 2.6 250 19:20 10.03.2020
6663 Clouds 11 1014 57 10000 1 0 18:45 10.03.2020
6664 Clouds 11 1014 54 10000 2.6 260 18:26 10.03.2020
6665 Clouds 12 1013 53 10000 4.6 250 17:58 10.03.2020
6666 Clouds 12 1013 53 10000 4.6 250 17:40 10.03.2020
6667 Clouds 12 1013 50 10000 5.1 240 17:21 10.03.2020
6668 Clouds 12 1013 46 10000 7.2 220 16:40 10.03.2020
6669 Clouds 13 1012 47 10000 6.7 240 16:20 10.03.2020
6670 Clouds 13 1012 47 10000 6.7 240 15:57 10.03.2020
6671 Clouds 13 1012 46 10000 10.3 230 15:39 10.03.2020
6672 Clouds 13 1012 41 10000 8.2 240 15:19 10.03.2020
6673 Clouds 13 1011 47 10000 12.3 230 14:41 10.03.2020
6674 Clouds 13 1012 50 10000 8.7 230 14:20 10.03.2020
6675 Clouds 13 1012 50 10000 8.7 230 13:59 10.03.2020
6676 Clouds 13 1011 54 10000 9.8 230 13:41 10.03.2020
6677 Clouds 13 1011 47 10000 9.8 230 13:22 10.03.2020
6678 Clouds 13 1011 50 10000 9.8 230 12:42 10.03.2020
6679 Clouds 13 1011 50 10000 8.7 220 12:21 10.03.2020
6680 Clouds 12 1010 50 10000 12.3 220 11:59 10.03.2020
6681 Clouds 12 1010 50 10000 12.3 220 11:41 10.03.2020
6682 Rain 12 1010 47 10000 8.7 210 11:22 10.03.2020
6683 Rain 12 1010 47 10000 8.7 200 10:43 10.03.2020
6684 Rain 12 1010 47 10000 8.7 200 10:43 10.03.2020
6685 Clouds 11 1010 50 10000 5.1 200 10:23 10.03.2020
6686 Clouds 11 1010 50 10000 5.1 200 09:59 10.03.2020
6687 Clouds 11 1009 50 10000 9.8 200 09:41 10.03.2020
6688 Clouds 10 1010 57 10000 8.2 180 09:19 10.03.2020
6689 Clouds 10 1009 53 10000 10.3 190 08:51 10.03.2020
6690 Clouds 10 1009 53 10000 10.3 190 08:32 10.03.2020
6691 Clouds 10 1009 53 10000 10.3 190 08:32 10.03.2020
6692 Clouds 9 1009 57 10000 8.2 190 07:51 10.03.2020
6693 -273 0 0 0 0 0 07:51 10.03.2020
6694 Clouds 9 1009 57 10000 8.2 190 07:32 10.03.2020
6695 Clouds 9 1008 46 10000 7.7 190 06:48 10.03.2020
6696